# Wetter Temperatur Luftdruck Luftfeuchtigkeit Sichtweite Windgeschwindigkeit Windrichtung Zeit
1 Clouds 14 1014 67 10000 0.51 0 13:38 22.04.2021
2 Clouds 13 1014 67 10000 0.51 0 13:19 22.04.2021
3 Clouds 13 1014 77 10000 1.03 0 12:44 22.04.2021
4 Clouds 12 1014 77 10000 1.03 0 12:20 22.04.2021
5 Clouds 12 1013 87 10000 1.03 0 11:45 22.04.2021
6 Clouds 11 1013 87 10000 1.03 0 11:23 22.04.2021
7 Clouds 11 1013 87 10000 1.03 0 11:23 22.04.2021
8 Clouds 11 1013 87 10000 1.54 250 10:45 22.04.2021
9 Clouds 11 1013 87 10000 1.54 250 10:22 22.04.2021
10 Clouds 10 1013 100 10000 1.54 240 09:44 22.04.2021
11 Clouds 10 1012 100 10000 1.54 260 09:20 22.04.2021
12 Clouds 10 1012 100 10000 2.06 260 08:39 22.04.2021
13 Clouds 10 1012 100 10000 2.06 260 08:19 22.04.2021
14 Clouds 10 1011 100 10000 4.12 240 07:44 22.04.2021
15 Clouds 10 1011 100 10000 4.12 240 07:20 22.04.2021
16 Mist 10 1011 100 3100 2.57 190 06:27 22.04.2021
17 Clouds 10 1011 100 10000 2.57 140 05:26 22.04.2021
18 Clouds 10 1011 93 8000 3.09 130 04:30 22.04.2021
19 Clear 12 1012 76 10000 2.06 190 00:57 22.04.2021
20 Clear 12 1012 66 10000 2.57 220 23:48 21.04.2021
21 Clear 13 1012 66 10000 2.57 220 23:28 21.04.2021
22 Clear 13 1012 62 10000 3.09 220 22:44 21.04.2021
23 Clear 13 1012 62 10000 3.09 220 22:24 21.04.2021
24 Clear 13 1011 62 10000 3.09 200 21:50 21.04.2021
25 Clear 13 1011 62 10000 4.12 200 21:24 21.04.2021
26 Clouds 14 1011 58 10000 5.66 220 20:59 21.04.2021
27 Clouds 14 1011 58 10000 5.66 220 20:59 21.04.2021
28 Clouds 14 1011 58 10000 5.66 220 20:21 21.04.2021
29 Clouds 15 1010 67 10000 7.2 220 19:43 21.04.2021
30 Clouds 14 1010 67 10000 7.2 220 19:25 21.04.2021
31 Clouds 16 1010 51 10000 6.17 230 18:46 21.04.2021
32 Clouds 16 1010 51 10000 6.17 230 18:28 21.04.2021
33 Clouds 17 1010 51 10000 5.14 220 17:49 21.04.2021
34 Clouds 17 1010 55 10000 4.63 240 17:25 21.04.2021
35 Clouds 17 1010 55 10000 4.63 240 17:25 21.04.2021
36 Clouds 18 1010 48 10000 3.6 230 16:55 21.04.2021
37 Clouds 18 1010 51 10000 3.09 230 16:23 21.04.2021
38 Clouds 17 1011 55 10000 3.09 210 15:42 21.04.2021
39 Clouds 18 1011 55 10000 3.6 200 15:18 21.04.2021
40 Clouds 17 1011 55 10000 1.54 0 14:42 21.04.2021
41 Clouds 17 1011 55 10000 1.54 0 14:22 21.04.2021
42 Clouds 17 1011 59 10000 2.06 130 13:44 21.04.2021
43 Clouds 16 1012 55 10000 1.03 0 13:21 21.04.2021
44 Clear 16 1012 55 10000 1.03 0 12:32 21.04.2021
45 Clear 16 1012 55 10000 1.03 0 12:32 21.04.2021
46 Clear 15 1012 55 10000 1.54 100 11:58 21.04.2021
47 Clear 14 1012 67 10000 1.54 60 11:39 21.04.2021
48 Clear 14 1012 67 10000 1.54 60 11:21 21.04.2021
49 Clear 13 1012 62 10000 2.06 20 10:36 21.04.2021
50 Clear 12 1012 67 10000 1.54 0 09:56 21.04.2021
51 Clear 11 1012 76 10000 1.03 0 09:20 21.04.2021
52 Clear 10 1011 87 10000 1.54 360 08:41 21.04.2021
53 Clear 10 1011 87 10000 1.54 360 08:22 21.04.2021
54 Clear 9 1011 81 10000 0.51 0 07:43 21.04.2021
55 Clear 9 1011 81 10000 0.51 0 07:21 21.04.2021
56 Clear 10 1011 82 10000 1.03 0 05:45 21.04.2021
57 Clear 12 1012 82 10000 1.54 20 01:34 21.04.2021
58 Clear 13 1012 72 10000 2.57 310 00:19 21.04.2021
59 Clear 13 1012 76 10000 2.57 240 23:38 20.04.2021
60 Clear 14 1011 71 10000 3.6 250 22:45 20.04.2021
61 Clear 15 1011 63 10000 4.12 250 22:23 20.04.2021
62 Clear 15 1011 63 10000 4.12 250 21:48 20.04.2021
63 Clear 16 1011 55 10000 3.09 230 21:28 20.04.2021
64 Clear 16 1011 55 10000 3.6 230 20:58 20.04.2021
65 Clear 17 1011 55 10000 2.57 240 20:38 20.04.2021
66 Clear 17 1011 52 10000 4.63 230 20:18 20.04.2021
67 Clear 17 1011 48 10000 5.14 250 19:44 20.04.2021
68 Clear 17 1011 48 10000 5.14 250 19:26 20.04.2021
69 Clouds 17 1011 55 10000 4.12 250 18:41 20.04.2021
70 Clouds 16 1011 63 10000 3.6 240 18:21 20.04.2021
71 Clouds 17 1011 55 10000 5.14 250 17:39 20.04.2021
72 Clouds 16 1012 67 10000 7.2 230 16:50 20.04.2021
73 Clouds 16 1012 67 10000 7.2 230 16:18 20.04.2021
74 Clouds 17 1013 77 10000 7.72 230 15:30 20.04.2021
75 Clouds 17 1013 77 10000 7.72 230 15:30 20.04.2021
76 Clouds 19 1012 52 10000 3.09 240 14:59 20.04.2021
77 Clouds 19 1013 48 10000 1.03 0 14:35 20.04.2021
78 Clouds 17 1013 67 10000 3.09 250 13:55 20.04.2021
79 Clouds 17 1013 55 10000 1.54 330 13:26 20.04.2021
80 Clouds 17 1014 55 10000 1.03 30 12:51 20.04.2021
81 Clouds 16 1014 55 10000 1.03 30 12:23 20.04.2021
82 Clouds 16 1014 55 10000 1.54 90 11:46 20.04.2021
83 Clouds 15 1014 63 10000 1.54 110 11:25 20.04.2021
84 Clouds 14 1014 63 10000 1.03 0 10:47 20.04.2021
85 Clouds 13 1014 67 10000 0.51 0 10:24 20.04.2021
86 Clouds 13 1014 67 10000 1.54 350 09:45 20.04.2021
87 Clouds 11 1014 76 10000 1.03 0 08:57 20.04.2021
88 Clouds 11 1014 76 10000 1.03 0 08:33 20.04.2021
89 Clouds 10 1014 82 10000 3.6 240 07:50 20.04.2021
90 Clear 11 1014 82 10000 1.03 0 07:21 20.04.2021
91 Clear 12 1014 76 10000 0.66 151 05:41 20.04.2021
92 Clear 12 1015 76 10000 0.51 0 04:42 20.04.2021
93 Clear 12 1016 67 10000 1.54 320 02:47 20.04.2021
94 Clear 14 1016 71 10000 2.06 250 00:49 20.04.2021
95 Clear 14 1016 67 10000 3.09 250 23:47 19.04.2021
96 Clear 15 1016 67 10000 3.09 250 23:27 19.04.2021
97 Clear 15 1016 67 10000 2.57 250 22:37 19.04.2021
98 Clear 15 1016 58 10000 2.57 270 21:59 19.04.2021
99 Clear 16 1016 58 10000 4.12 290 21:37 19.04.2021
100 Clear 16 1016 59 10000 5.66 300 21:19 19.04.2021
101 Clear 17 1016 51 10000 6.17 250 20:40 19.04.2021
102 Clear 17 1016 51 10000 6.17 250 20:20 19.04.2021
103 Clear 18 1015 48 10000 5.66 240 19:43 19.04.2021
104 Clear 18 1015 48 10000 5.66 240 19:24 19.04.2021
105 Clear 19 1015 39 10000 8.75 230 18:47 19.04.2021
106 Clear 19 1015 39 10000 8.75 230 18:47 19.04.2021
107 Clear 19 1015 34 10000 7.72 240 18:23 19.04.2021
108 Clear 19 1015 34 10000 7.72 240 17:55 19.04.2021
109 Clear 19 1016 42 10000 7.2 240 17:30 19.04.2021
110 Clear 20 1016 40 10000 7.2 250 16:58 19.04.2021
111 Clear 20 1016 32 10000 4.12 210 16:39 19.04.2021
112 Clear 20 1016 32 10000 4.12 210 16:20 19.04.2021
113 Clear 20 1017 34 10000 2.57 220 15:40 19.04.2021
114 Clouds 20 1017 40 10000 3.6 250 15:20 19.04.2021
115 Clear 19 1017 34 10000 2.57 260 14:37 19.04.2021
116 Clear 18 1018 34 10000 2.06 0 14:19 19.04.2021
117 Clear 18 1018 34 10000 1.03 0 13:36 19.04.2021
118 Clear 17 1018 39 10000 1.03 0 13:18 19.04.2021
119 Clear 16 1019 42 10000 0.51 270 12:42 19.04.2021
120 Clear 16 1019 42 10000 0.51 270 12:22 19.04.2021
121 Clear 15 1019 45 10000 0.51 340 11:53 19.04.2021
122 Clear 14 1019 44 10000 0.51 0 11:21 19.04.2021
123 Clear 13 1019 54 10000 1.03 0 10:45 19.04.2021
124 Clear 12 1019 54 10000 1.03 0 10:21 19.04.2021
125 Clear 11 1019 58 10000 1.03 0 09:49 19.04.2021
126 Clear 10 1019 54 10000 0.51 0 09:27 19.04.2021
127 Clear 10 1019 57 10000 1.03 0 08:58 19.04.2021
128 Clear 9 1019 61 10000 0.51 0 08:25 19.04.2021
129 Clear 9 1019 61 10000 1.14 51 07:48 19.04.2021
130 Clear 9 1019 61 10000 1.54 360 07:19 19.04.2021
131 Clear 10 1019 57 10000 0.51 0 07:19 19.04.2021
132 Clear 9 1019 61 10000 1.03 0 06:28 19.04.2021
133 Clear 11 1020 50 10000 2.06 310 02:35 19.04.2021
134 Clear 12 1020 57 10000 3.6 270 00:47 19.04.2021
135 Clear 12 1020 57 10000 2.57 240 23:50 18.04.2021
136 Clear 14 1020 54 10000 3.09 230 23:18 18.04.2021
137 Clear 14 1020 54 10000 3.09 240 22:47 18.04.2021
138 Clear 14 1020 54 10000 3.09 240 22:29 18.04.2021
139 Clear 16 1020 39 10000 3.6 220 21:29 18.04.2021
140 Clear 17 1020 36 10000 4.63 220 20:59 18.04.2021
141 Clear 17 1019 34 10000 4.63 220 20:39 18.04.2021
142 Clear 17 1019 34 10000 4.63 220 20:39 18.04.2021
143 Clear 17 1019 34 10000 4.63 220 20:20 18.04.2021
144 Clear 18 1019 30 10000 2.57 200 19:45 18.04.2021
145 Clear 19 1019 32 10000 2.57 0 19:25 18.04.2021
146 Clear 19 1019 32 10000 2.57 0 18:54 18.04.2021
147 Clear 19 1019 30 10000 1.54 0 18:30 18.04.2021
148 Clear 19 1019 32 10000 2.06 0 17:50 18.04.2021
149 Clear 18 1020 27 10000 1.54 0 17:31 18.04.2021
150 Clear 18 1020 34 10000 3.09 230 16:54 18.04.2021
151 Clear 17 1020 29 10000 1.54 0 16:36 18.04.2021
152 Clear 17 1020 34 10000 2.06 250 15:51 18.04.2021
153 Clear 16 1021 34 10000 2.57 200 15:32 18.04.2021
154 Clear 15 1021 41 10000 1.54 0 14:58 18.04.2021
155 Clear 15 1021 39 10000 2.06 0 14:40 18.04.2021
156 Clear 14 1022 38 10000 0.51 290 14:18 18.04.2021
157 Clear 14 1022 38 10000 0.51 290 13:44 18.04.2021
158 Clear 13 1022 44 10000 1.54 170 13:26 18.04.2021
159 Clear 11 1022 43 10000 1.03 0 12:37 18.04.2021
160 Clear 10 1022 43 10000 1.54 0 11:55 18.04.2021
161 Clear 9 1022 50 10000 2.57 80 11:28 18.04.2021
162 Clear 8 1022 53 10000 2.57 60 10:58 18.04.2021
163 Clear 8 1022 53 10000 2.06 40 10:40 18.04.2021
164 Clear 7 1022 57 10000 1.54 0 10:18 18.04.2021
165 Clear 6 1022 57 10000 2.06 50 09:39 18.04.2021
166 Clear 5 1021 56 10000 3.09 60 09:20 18.04.2021
167 Clear 4 1021 60 10000 1.54 60 08:44 18.04.2021
168 Clear 4 1021 60 10000 1.54 60 08:24 18.04.2021
169 Clear 4 1021 60 10000 4.12 50 07:40 18.04.2021
170 Clear 4 1020 52 10000 2.57 60 05:56 18.04.2021
171 Clear 5 1020 56 10000 2.57 50 05:26 18.04.2021
172 Clear 5 1020 60 10000 2.57 60 04:31 18.04.2021
173 Clear 8 1020 49 10000 2.06 50 02:23 18.04.2021
174 Clear 9 1019 49 10000 2.06 290 00:56 18.04.2021
175 Clear 10 1019 43 10000 2.57 300 23:52 17.04.2021
176 Clear 11 1019 43 10000 2.06 320 23:22 17.04.2021
177 Clear 12 1018 40 10000 2.06 270 22:43 17.04.2021
178 Clear 12 1018 35 10000 3.09 320 22:21 17.04.2021
179 Clear 13 1017 35 10000 4.12 310 21:43 17.04.2021
180 Clear 14 1017 29 10000 3.6 330 21:21 17.04.2021
181 Clear 15 1016 29 10000 1.54 350 20:37 17.04.2021
182 Clear 15 1016 33 10000 3.6 80 20:19 17.04.2021
183 Clear 17 1016 25 10000 1.54 330 19:39 17.04.2021
184 Clear 17 1016 27 10000 1.03 0 19:19 17.04.2021
185 Clear 17 1016 25 10000 1.03 0 18:46 17.04.2021
186 Clear 17 1016 31 10000 2.06 0 18:21 17.04.2021
187 Clear 16 1016 31 10000 2.06 0 17:41 17.04.2021
188 Clear 16 1017 33 10000 3.09 0 16:56 17.04.2021
189 Clear 16 1017 36 10000 2.06 0 16:34 17.04.2021
190 Clear 16 1017 39 10000 1.03 290 15:58 17.04.2021
191 Clear 14 1018 33 10000 1.54 0 14:51 17.04.2021
192 Clear 13 1018 33 10000 1.03 240 14:33 17.04.2021
193 Clear 12 1019 38 10000 1.54 0 13:59 17.04.2021
194 Clear 12 1019 38 10000 1.54 0 13:40 17.04.2021
195 Clear 10 1020 40 10000 1.03 0 12:42 17.04.2021
196 Clear 10 1020 40 10000 1.03 340 12:22 17.04.2021
197 Clear 9 1020 40 10000 1.03 340 11:50 17.04.2021
198 Clear 9 1020 43 10000 1.54 0 11:31 17.04.2021
199 Clear 7 1020 46 10000 2.57 50 10:47 17.04.2021
200 Clear 7 1020 49 10000 3.09 0 10:29 17.04.2021
201 Clear 5 1020 56 10000 2.57 40 09:44 17.04.2021
202 Clear 4 1020 56 10000 2.57 40 08:42 17.04.2021
203 Clear 4 1020 56 10000 2.57 40 08:24 17.04.2021
204 Clear 4 1019 52 10000 2.06 50 07:20 17.04.2021
205 Clear 5 1020 42 10000 3.6 40 03:57 17.04.2021
206 Clear 6 1020 39 10000 3.09 0 03:38 17.04.2021
207 Clear 9 1019 24 10000 3.6 30 00:49 17.04.2021
208 Clear 9 1019 31 10000 2.57 70 00:29 17.04.2021
209 Clear 11 1018 35 10000 3.6 30 23:48 16.04.2021
210 Clear 11 1018 35 10000 3.6 30 23:29 16.04.2021
211 Clear 12 1018 35 10000 3.09 360 22:50 16.04.2021
212 Clear 12 1017 35 10000 3.09 350 22:22 16.04.2021
213 Clear 12 1016 30 10000 3.09 330 21:51 16.04.2021
214 Clear 13 1016 28 10000 3.6 340 21:30 16.04.2021
215 Clear 14 1015 26 10000 4.63 350 20:50 16.04.2021
216 Clear 15 1015 23 10000 4.12 350 20:27 16.04.2021
217 Clear 16 1015 23 10000 4.12 360 19:55 16.04.2021
218 Clear 16 1015 19 10000 3.6 0 19:30 16.04.2021
219 Clear 17 1014 27 10000 3.09 320 18:43 16.04.2021
220 Clear 17 1014 27 10000 3.09 320 18:20 16.04.2021
221 Clouds 17 1014 37 10000 2.06 0 17:43 16.04.2021
222 Clouds 17 1015 39 10000 1.54 0 17:19 16.04.2021
223 Clouds 16 1015 44 10000 2.06 60 16:42 16.04.2021
224 Clouds 17 1015 44 10000 2.06 60 16:23 16.04.2021
225 Clouds 17 1015 48 10000 2.57 0 15:45 16.04.2021
226 Clouds 16 1015 51 10000 1.54 0 15:20 16.04.2021
227 Clouds 16 1016 48 10000 1.54 0 14:42 16.04.2021
228 Clouds 15 1016 51 10000 1.54 0 14:19 16.04.2021
229 Clouds 14 1017 54 10000 1.54 0 13:46 16.04.2021
230 Clouds 14 1017 54 10000 1.54 0 13:20 16.04.2021
231 Clouds 13 1017 58 10000 1.03 70 12:47 16.04.2021
232 Clouds 12 1017 58 10000 1.54 110 12:27 16.04.2021
233 Clouds 12 1017 62 10000 2.06 100 11:52 16.04.2021
234 Clouds 11 1017 62 10000 2.06 110 11:27 16.04.2021
235 Clouds 11 1017 66 10000 2.57 80 10:53 16.04.2021
236 Clouds 11 1017 76 10000 2.57 90 10:34 16.04.2021
237 Clouds 11 1017 76 10000 2.57 90 10:34 16.04.2021
238 Clouds 10 1017 71 10000 2.06 110 09:53 16.04.2021
239 Clouds 10 1017 71 10000 2.06 110 09:53 16.04.2021
240 Clouds 10 1017 76 10000 1.54 0 09:24 16.04.2021
241 Clouds 9 1016 71 10000 1.54 100 08:55 16.04.2021
242 Clouds 9 1016 81 10000 1.54 120 08:36 16.04.2021
243 Clouds 9 1016 81 10000 1.03 90 08:18 16.04.2021
244 Clouds 9 1016 81 10000 1.03 100 07:35 16.04.2021
245 Clouds 9 1016 87 10000 0.28 162 06:58 16.04.2021
246 Clouds 9 1016 81 10000 1.03 280 05:34 16.04.2021
247 Clear 10 1016 81 10000 1.54 160 04:20 16.04.2021
248 Clouds 11 1017 76 10000 2.06 150 00:55 16.04.2021
249 Clouds 11 1017 76 10000 2.57 150 00:37 16.04.2021
250 Clouds 11 1017 76 10000 2.57 150 00:18 16.04.2021
251 Clear 12 1016 71 10000 2.06 160 23:37 15.04.2021
252 Clouds 13 1016 67 10000 3.09 160 22:54 15.04.2021
253 Clouds 13 1016 67 10000 3.09 180 22:35 15.04.2021
254 Clouds 14 1015 62 10000 2.57 180 21:59 15.04.2021
255 Clouds 14 1015 67 10000 2.57 200 21:41 15.04.2021
256 Clouds 14 1015 67 10000 2.57 200 21:20 15.04.2021
257 Clouds 14 1015 62 10000 3.09 170 20:42 15.04.2021
258 Clouds 15 1015 58 10000 4.12 170 20:21 15.04.2021
259 Clouds 15 1014 59 10000 3.09 140 19:44 15.04.2021
260 Clouds 16 1014 59 10000 3.09 140 19:24 15.04.2021
261 Clouds 16 1014 55 10000 1.54 160 18:42 15.04.2021
262 Clouds 16 1014 51 10000 1.54 170 18:21 15.04.2021
263 Clouds 16 1014 51 10000 1.54 170 17:55 15.04.2021
264 Clouds 16 1014 51 10000 1.54 170 17:55 15.04.2021
265 Clouds 16 1015 51 10000 2.06 140 17:36 15.04.2021
266 Clouds 16 1015 51 10000 1.54 140 16:58 15.04.2021
267 Clouds 16 1015 55 10000 2.57 100 16:40 15.04.2021
268 Clouds 16 1015 55 10000 2.57 100 16:21 15.04.2021
269 Clouds 16 1016 51 10000 2.06 0 15:44 15.04.2021
270 Clouds 16 1016 51 10000 2.06 0 15:25 15.04.2021
271 Clouds 15 1016 63 10000 1.54 0 14:41 15.04.2021
272 Clouds 15 1016 63 10000 2.06 80 14:22 15.04.2021
273 Clouds 14 1016 63 10000 2.06 80 13:42 15.04.2021
274 Clouds 13 1017 67 10000 2.06 90 13:18 15.04.2021
275 Clouds 13 1017 67 10000 2.57 100 12:41 15.04.2021
276 Clouds 12 1017 71 10000 2.57 100 12:21 15.04.2021
277 Clouds 12 1017 71 10000 2.57 100 11:45 15.04.2021
278 Clouds 12 1017 71 10000 2.57 110 11:23 15.04.2021
279 Clouds 12 1017 66 10000 2.57 70 10:55 15.04.2021
280 Clouds 12 1016 76 10000 2.57 110 10:28 15.04.2021
281 Clouds 12 1016 76 10000 3.09 100 09:49 15.04.2021
282 Clouds 11 1016 76 10000 3.09 100 09:28 15.04.2021
283 Clouds 11 1016 71 10000 3.09 90 08:49 15.04.2021
284 Clouds 11 1016 82 10000 3.6 90 08:23 15.04.2021
285 Clouds 11 1016 82 10000 3.09 100 07:25 15.04.2021
286 Clouds 11 1016 76 10000 3.09 80 06:50 15.04.2021
287 Clouds 11 1015 76 10000 3.09 90 06:32 15.04.2021
288 Clear 12 1016 76 10000 3.6 90 04:52 15.04.2021
289 Clear 13 1016 71 10000 4.12 110 02:51 15.04.2021
290 Clouds 14 1016 72 10000 2.57 50 23:47 14.04.2021
291 Clouds 14 1016 77 10000 2.06 30 23:28 14.04.2021
292 Clouds 14 1016 63 10000 1.03 0 22:47 14.04.2021
293 Clouds 15 1015 63 10000 2.06 100 22:27 14.04.2021
294 Clouds 16 1014 59 10000 3.09 120 21:53 14.04.2021
295 Clouds 17 1014 63 10000 3.09 120 21:32 14.04.2021
296 Clouds 17 1014 59 10000 3.6 130 20:58 14.04.2021
297 Clouds 17 1014 59 10000 4.63 110 20:35 14.04.2021
298 Clouds 18 1014 59 10000 3.6 120 19:55 14.04.2021
299 Clouds 19 1014 55 10000 3.6 130 19:37 14.04.2021
300 Clouds 19 1014 55 10000 3.09 110 19:18 14.04.2021
301 Clouds 19 1014 55 10000 3.09 110 18:47 14.04.2021
302 Clouds 20 1014 55 10000 3.09 100 18:18 14.04.2021
303 Clouds 19 1014 55 10000 3.09 100 17:51 14.04.2021
304 Clouds 19 1014 56 10000 2.57 0 17:23 14.04.2021
305 Clouds 19 1015 56 10000 2.06 150 16:42 14.04.2021
306 Clouds 19 1015 56 10000 2.06 150 16:21 14.04.2021
307 Clouds 18 1016 59 10000 2.57 0 15:39 14.04.2021
308 Clouds 19 1016 59 10000 2.57 120 15:18 14.04.2021
309 Clouds 18 1017 55 10000 2.57 0 14:41 14.04.2021
310 Clouds 18 1017 55 10000 2.57 0 14:21 14.04.2021
311 Clouds 17 1017 59 10000 1.54 0 13:46 14.04.2021
312 Clouds 16 1018 67 10000 2.06 0 12:45 14.04.2021
313 Clouds 16 1018 67 10000 2.06 0 12:24 14.04.2021
314 Clouds 14 1018 67 10000 1.03 0 11:42 14.04.2021
315 Clouds 14 1018 67 10000 1.03 0 11:23 14.04.2021
316 Clouds 12 1018 76 10000 1.03 0 10:34 14.04.2021
317 Clouds 12 1018 76 10000 1.54 60 09:43 14.04.2021
318 Clouds 11 1018 76 10000 1.54 60 09:25 14.04.2021
319 Clouds 11 1018 76 10000 1.54 50 08:56 14.04.2021
320 Clouds 10 1018 82 10000 2.06 50 08:32 14.04.2021
321 Clouds 10 1018 82 10000 1.03 0 07:51 14.04.2021
322 Clear 11 1018 82 10000 1.54 20 06:35 14.04.2021
323 Clouds 11 1019 82 10000 2.06 360 05:50 14.04.2021
324 Clear 11 1020 82 10000 1.54 360 02:40 14.04.2021
325 Clear 11 1020 76 10000 1.54 360 01:19 14.04.2021
326 Clear 11 1020 76 10000 1.54 10 00:34 14.04.2021
327 Clouds 12 1021 71 10000 1.54 360 23:38 13.04.2021
328 Clouds 12 1020 82 10000 2.06 350 22:45 13.04.2021
329 Clouds 12 1020 82 10000 2.06 350 22:23 13.04.2021
330 Clouds 12 1020 71 10000 1.54 360 21:50 13.04.2021
331 Clouds 12 1020 71 10000 2.06 360 21:32 13.04.2021
332 Clouds 13 1020 67 10000 2.57 360 20:55 13.04.2021
333 Clouds 13 1020 62 10000 2.06 10 20:37 13.04.2021
334 Clouds 13 1020 62 10000 2.06 10 20:19 13.04.2021
335 Clouds 13 1020 62 10000 3.09 360 19:27 13.04.2021
336 Clouds 13 1020 62 10000 3.09 360 19:27 13.04.2021
337 Clouds 13 1020 58 10000 3.09 10 18:58 13.04.2021
338 Clouds 13 1021 54 10000 2.06 0 18:32 13.04.2021
339 Clouds 12 1021 54 10000 3.09 10 17:44 13.04.2021
340 Clouds 12 1021 54 10000 3.09 10 17:22 13.04.2021
341 Clouds 12 1021 62 10000 3.09 10 16:55 13.04.2021
342 Clouds 12 1022 58 10000 2.57 40 16:37 13.04.2021
343 Clouds 12 1022 58 10000 2.57 40 16:18 13.04.2021
344 Rain 12 1022 62 10000 1.54 360 15:39 13.04.2021
345 Clouds 14 1022 54 10000 2.06 20 14:58 13.04.2021
346 Clouds 14 1022 55 10000 2.06 10 14:37 13.04.2021
347 Clouds 14 1022 58 10000 2.06 10 14:18 13.04.2021
348 Clouds 13 1023 67 10000 2.06 20 13:40 13.04.2021
349 Clouds 13 1023 67 10000 2.06 20 13:20 13.04.2021
350 Clouds 12 1023 71 10000 1.54 350 12:49 13.04.2021
351 Clouds 12 1023 71 10000 1.54 350 12:23 13.04.2021
352 Clouds 12 1023 71 10000 0.51 0 11:38 13.04.2021
353 Clouds 12 1023 71 10000 1.54 100 10:58 13.04.2021
354 Rain 12 1022 62 10000 2.06 110 10:40 13.04.2021
355 Clear 11 1022 62 10000 2.06 110 10:19 13.04.2021
356 Clear 11 1022 58 10000 1.54 90 09:51 13.04.2021
357 Clear 10 1022 58 10000 1.54 60 09:26 13.04.2021
358 Clear 10 1022 58 10000 1.54 50 08:47 13.04.2021
359 Clear 9 1022 57 10000 1.03 0 08:22 13.04.2021
360 Clear 9 1022 57 10000 1.03 0 07:48 13.04.2021
361 Clear 10 1022 54 10000 1.54 60 07:26 13.04.2021
362 Clear 10 1022 54 10000 1.54 360 06:24 13.04.2021
363 Clear 11 1023 47 10000 1.03 0 03:44 13.04.2021
364 Clear 12 1023 41 10000 0.51 0 01:32 13.04.2021
365 Clear 13 1023 30 10000 1.03 30 23:52 12.04.2021
366 Clear 13 1023 28 10000 1.73 72 23:32 12.04.2021
367 Clear 14 1023 26 10000 1.73 72 22:52 12.04.2021
368 Clear 14 1023 33 10000 1.03 0 22:33 12.04.2021
369 Clear 14 1023 33 10000 1.03 0 22:33 12.04.2021
370 Clear 14 1023 33 10000 2.06 120 21:48 12.04.2021
371 Clear 15 1022 38 10000 2.06 120 21:25 12.04.2021
372 Clear 14 1022 38 10000 1.54 130 20:59 12.04.2021
373 Clear 15 1022 31 10000 2.06 130 20:36 12.04.2021
374 Clear 16 1022 31 10000 2.06 130 20:18 12.04.2021
375 Clear 16 1022 29 10000 2.57 110 19:40 12.04.2021
376 Clear 16 1022 31 10000 2.06 0 19:21 12.04.2021
377 Clear 17 1022 31 10000 2.06 0 18:51 12.04.2021
378 Clear 16 1022 27 10000 1.54 80 18:33 12.04.2021
379 Clear 16 1022 39 10000 1.03 0 17:59 12.04.2021
380 Clear 16 1023 36 10000 1.03 140 17:40 12.04.2021
381 Clear 16 1023 36 10000 1.03 140 17:19 12.04.2021
382 Clear 15 1023 39 10000 1.03 80 16:38 12.04.2021
383 Clear 15 1024 41 10000 1.54 140 16:19 12.04.2021
384 Clear 15 1024 38 10000 1.54 290 15:39 12.04.2021
385 Clear 13 1024 38 10000 1.03 0 14:57 12.04.2021
386 Clear 12 1024 41 10000 2.06 0 14:39 12.04.2021
387 Clear 12 1025 41 10000 1.03 0 14:19 12.04.2021
388 Clear 12 1025 41 10000 2.06 30 13:40 12.04.2021
389 Clear 11 1025 46 10000 2.57 0 13:19 12.04.2021
390 Clear 10 1025 46 10000 2.57 50 12:43 12.04.2021
391 Clear 10 1025 46 10000 2.57 50 12:22 12.04.2021
392 Clear 8 1025 49 10000 3.09 0 11:41 12.04.2021
393 Clear 7 1025 57 10000 3.09 50 10:51 12.04.2021
394 Clear 7 1025 57 10000 3.09 50 10:51 12.04.2021
395 Clear 6 1025 61 10000 3.09 50 10:28 12.04.2021
396 Clear 6 1025 65 10000 3.09 40 09:53 12.04.2021
397 Clear 5 1024 65 10000 3.09 50 09:31 12.04.2021
398 Clear 5 1024 75 10000 5.66 40 08:58 12.04.2021
399 Clear 4 1024 75 10000 2.57 50 08:22 12.04.2021
400 Clear 4 1023 75 10000 2.06 0 07:30 12.04.2021
401 Clear 4 1023 81 10000 0.51 70 06:47 12.04.2021
402 Clouds 5 1023 75 10000 2.06 0 05:48 12.04.2021
403 Clear 6 1023 70 10000 3.09 50 03:58 12.04.2021
404 Clear 9 1020 76 10000 3.09 60 00:46 12.04.2021
405 Clear 9 1020 71 10000 3.6 50 00:23 12.04.2021
406 Clear 9 1020 71 10000 3.6 50 23:44 11.04.2021
407 Clear 10 1020 76 10000 3.09 50 23:22 11.04.2021
408 Clouds 11 1018 76 10000 2.57 60 22:39 11.04.2021
409 Clouds 11 1018 76 10000 2.57 60 22:20 11.04.2021
410 Clouds 12 1017 71 10000 2.57 0 21:45 11.04.2021
411 Clouds 12 1017 71 10000 2.57 0 21:24 11.04.2021
412 Clouds 13 1016 67 10000 3.09 40 20:49 11.04.2021
413 Clouds 13 1016 67 10000 3.09 40 20:25 11.04.2021
414 Clouds 14 1015 63 10000 1.03 0 19:44 11.04.2021
415 Clouds 15 1015 63 10000 1.03 0 19:21 11.04.2021
416 Clouds 15 1015 63 10000 1.54 30 18:58 11.04.2021
417 Clouds 15 1014 55 10000 4.12 290 18:40 11.04.2021
418 Clouds 15 1014 55 10000 4.12 290 18:22 11.04.2021
419 Clouds 15 1014 63 10000 3.09 250 17:43 11.04.2021
420 Clouds 15 1014 67 10000 3.6 240 17:24 11.04.2021
421 Clouds 16 1014 67 10000 3.6 240 16:46 11.04.2021
422 Clouds 14 1014 88 10000 3.09 240 16:22 11.04.2021
423 Rain 14 1014 82 10000 1.54 260 15:48 11.04.2021
424 Rain 14 1014 82 10000 1.54 260 15:26 11.04.2021
425 Rain 14 1014 88 9000 2.57 290 14:52 11.04.2021
426 Rain 15 1013 59 10000 4.12 230 14:30 11.04.2021
427 Clouds 15 1014 67 10000 3.09 240 13:47 11.04.2021
428 Clouds 15 1014 67 10000 3.09 240 13:28 11.04.2021
429 Clouds 15 1014 67 10000 3.6 220 12:48 11.04.2021
430 Clouds 14 1014 72 10000 4.63 230 12:21 11.04.2021
431 Clouds 13 1013 76 10000 5.14 240 11:49 11.04.2021
432 Clouds 12 1013 88 10000 5.14 240 11:22 11.04.2021
433 Clouds 11 1013 93 10000 3.09 250 10:47 11.04.2021
434 Clouds 11 1013 93 10000 3.09 250 10:47 11.04.2021
435 Clouds 11 1013 93 10000 3.09 250 10:27 11.04.2021
436 Clouds 10 1013 93 10000 3.6 230 09:56 11.04.2021
437 Clouds 10 1012 100 10000 2.57 230 09:32 11.04.2021
438 Clouds 10 1012 93 10000 2.06 210 08:42 11.04.2021
439 Clouds 9 1012 93 10000 1.54 210 08:21 11.04.2021
440 Clouds 10 1011 100 10000 2.57 230 07:21 11.04.2021
441 Clouds 10 1011 100 10000 2.06 200 06:26 11.04.2021
442 Clouds 10 1012 93 6000 1.54 210 05:37 11.04.2021
443 Clouds 10 1012 93 6000 1.54 210 05:18 11.04.2021
444 Rain 10 1012 93 10000 2.06 190 04:33 11.04.2021
445 Clouds 11 1012 87 10000 3.09 240 01:40 11.04.2021
446 Clouds 11 1013 100 9000 2.06 230 00:33 11.04.2021
447 Clouds 11 1013 93 10000 1.03 0 23:47 10.04.2021
448 Rain 11 1013 93 5000 4.12 200 22:59 10.04.2021
449 Rain 12 1013 87 6000 6.69 240 22:32 10.04.2021
450 Rain 14 1011 67 10000 4.12 150 21:57 10.04.2021
451 Rain 14 1012 82 10000 5.66 230 21:57 10.04.2021
452 Rain 15 1011 63 10000 2.57 220 21:37 10.04.2021
453 Rain 15 1011 67 10000 3.09 260 21:19 10.04.2021
454 Clouds 17 1011 51 10000 4.12 240 20:41 10.04.2021
455 Clouds 17 1011 51 10000 4.12 240 20:22 10.04.2021
456 Clouds 18 1010 45 10000 4.12 220 19:43 10.04.2021
457 Clouds 18 1011 48 10000 5.66 230 19:25 10.04.2021
458 Clouds 18 1011 55 10000 4.12 240 18:44 10.04.2021
459 Clouds 18 1011 55 10000 4.12 240 18:25 10.04.2021
460 Clouds 18 1011 59 10000 3.09 270 17:37 10.04.2021
461 Clouds 18 1012 59 10000 1.03 0 16:57 10.04.2021
462 Clouds 17 1012 67 10000 2.57 250 16:27 10.04.2021
463 Clouds 17 1012 72 10000 2.57 260 15:53 10.04.2021
464 Clouds 17 1013 63 10000 0.51 250 15:19 10.04.2021
465 Clouds 16 1013 67 10000 1.03 90 14:41 10.04.2021
466 Clouds 15 1013 72 10000 0.51 0 14:19 10.04.2021
467 Clouds 14 1014 71 10000 2.06 160 13:42 10.04.2021
468 Clouds 14 1015 82 10000 2.57 130 12:53 10.04.2021
469 Clouds 12 1014 82 10000 3.09 120 12:28 10.04.2021
470 Clouds 12 1014 82 10000 3.09 130 11:47 10.04.2021
471 Clouds 12 1014 76 10000 3.6 130 11:25 10.04.2021
472 Clouds 12 1014 76 10000 3.6 130 11:25 10.04.2021
473 Clouds 12 1014 76 10000 3.6 110 10:52 10.04.2021
474 Clouds 11 1014 82 10000 3.09 120 10:31 10.04.2021
475 Clouds 10 1014 87 10000 2.06 100 09:48 10.04.2021
476 Clouds 10 1015 87 10000 1.03 0 09:20 10.04.2021
477 Clouds 10 1015 87 10000 1.03 0 09:20 10.04.2021
478 Clouds 10 1015 87 10000 1.03 0 08:48 10.04.2021
479 Clouds 10 1014 87 10000 2.06 100 08:29 10.04.2021
480 Clouds 10 1014 82 10000 2.06 60 07:38 10.04.2021
481 Clouds 10 1014 82 10000 2.06 60 07:19 10.04.2021
482 Clouds 10 1014 82 10000 1.03 0 06:24 10.04.2021
483 Clear 10 1016 87 10000 1.03 0 03:49 10.04.2021
484 Clouds 10 1016 82 10000 0.51 0 02:51 10.04.2021
485 Clouds 10 1016 82 10000 1.03 0 02:21 10.04.2021
486 Clear 11 1017 82 10000 1.54 360 00:43 10.04.2021
487 Clear 11 1017 82 10000 1.54 360 00:21 10.04.2021
488 Clouds 11 1017 76 10000 1.54 360 23:40 09.04.2021
489 Clouds 11 1017 76 10000 2.06 360 22:58 09.04.2021
490 Clouds 11 1017 76 10000 2.06 360 22:38 09.04.2021
491 Clear 11 1016 76 10000 2.06 360 21:56 09.04.2021
492 Clear 11 1016 76 10000 1.54 40 21:37 09.04.2021
493 Clouds 12 1016 71 10000 1.54 20 21:18 09.04.2021
494 Clouds 12 1016 71 10000 2.06 70 20:41 09.04.2021
495 Clouds 12 1016 71 10000 2.06 70 20:22 09.04.2021
496 Clouds 12 1016 71 10000 2.06 70 20:22 09.04.2021
497 Clouds 13 1016 67 10000 1.54 10 19:44 09.04.2021
498 Clouds 13 1016 67 10000 2.06 20 19:23 09.04.2021
499 Clouds 13 1016 67 10000 2.06 20 18:51 09.04.2021
500 Clouds 13 1017 67 10000 1.54 50 18:31 09.04.2021
501 Clouds 12 1017 71 10000 1.03 0 17:54 09.04.2021
502 Clouds 12 1017 76 10000 2.57 110 17:34 09.04.2021
503 Clouds 12 1017 71 10000 2.06 0 16:55 09.04.2021
504 Clouds 12 1018 71 10000 2.06 90 16:32 09.04.2021
505 Clouds 11 1018 76 10000 2.57 100 15:50 09.04.2021
506 Clouds 11 1018 76 10000 2.57 110 15:26 09.04.2021
507 Clouds 11 1018 76 10000 2.06 80 14:51 09.04.2021
508 Clouds 10 1019 76 10000 3.09 110 14:30 09.04.2021
509 Clouds 10 1019 81 10000 3.6 110 13:51 09.04.2021
510 Clouds 9 1019 87 10000 2.06 100 13:23 09.04.2021
511 Clouds 9 1019 87 10000 2.06 100 12:49 09.04.2021
512 Clouds 9 1019 87 10000 2.57 110 12:30 09.04.2021
513 Clouds 8 1019 100 7000 3.6 90 11:44 09.04.2021
514 Clouds 8 1019 100 7000 3.6 90 11:21 09.04.2021
515 Rain 8 1019 100 8000 4.12 110 10:45 09.04.2021
516 Rain 8 1019 93 4500 2.06 90 10:18 09.04.2021
517 Clouds 8 1018 87 8000 1.54 110 09:29 09.04.2021
518 Clouds 9 1018 87 6000 1.03 0 08:56 09.04.2021
519 Clouds 9 1018 87 6000 2.06 100 08:37 09.04.2021
520 Clouds 10 1017 76 10000 3.6 90 07:35 09.04.2021
521 Clouds 10 1017 76 10000 3.09 90 06:33 09.04.2021
522 Clouds 10 1018 81 10000 1.54 90 05:47 09.04.2021
523 Clear 11 1018 71 10000 3.09 110 03:50 09.04.2021
524 Clear 13 1019 67 10000 3.09 130 01:27 09.04.2021
525 Clouds 14 1019 62 10000 2.57 150 00:36 09.04.2021
526 Clouds 14 1019 63 10000 2.57 150 00:18 09.04.2021
527 Clouds 15 1019 63 10000 0.51 80 22:58 08.04.2021
528 Clouds 15 1019 59 10000 0.16 6 22:40 08.04.2021
529 Clouds 15 1019 59 10000 0.14 12 22:21 08.04.2021
530 Clouds 16 1019 59 10000 1.54 140 21:54 08.04.2021
531 Clouds 16 1019 59 10000 1.54 150 21:36 08.04.2021
532 Clouds 16 1019 59 10000 1.54 150 21:18 08.04.2021
533 Clouds 16 1019 59 10000 2.06 90 20:47 08.04.2021
534 Clouds 17 1019 55 10000 1.54 130 20:25 08.04.2021
535 Clear 18 1019 52 10000 1.54 180 19:42 08.04.2021
536 Clear 18 1019 52 10000 1.54 180 19:19 08.04.2021
537 Clouds 17 1019 55 10000 2.06 140 18:45 08.04.2021
538 Clouds 17 1019 55 10000 2.06 140 18:20 08.04.2021
539 Clouds 17 1020 55 10000 2.06 130 17:49 08.04.2021
540 Clouds 17 1020 55 10000 2.06 130 17:24 08.04.2021
541 Clouds 17 1020 52 10000 1.03 60 16:49 08.04.2021
542 Clouds 16 1021 55 10000 1.54 0 16:28 08.04.2021
543 Clouds 16 1022 63 10000 2.06 120 15:47 08.04.2021
544 Clouds 15 1022 63 10000 2.06 120 15:28 08.04.2021
545 Clouds 14 1022 62 10000 1.03 0 14:45 08.04.2021
546 Clouds 14 1022 62 10000 1.03 0 14:25 08.04.2021
547 Clouds 13 1022 67 10000 2.06 80 13:56 08.04.2021
548 Clouds 13 1023 71 10000 2.06 90 13:38 08.04.2021
549 Clouds 12 1023 66 10000 2.06 80 13:19 08.04.2021
550 Clouds 12 1023 66 10000 2.06 80 13:19 08.04.2021
551 Clouds 11 1023 76 10000 2.06 50 12:38 08.04.2021
552 Clouds 11 1023 76 10000 2.06 50 12:38 08.04.2021
553 Clouds 11 1023 76 10000 2.06 60 12:18 08.04.2021
554 Clouds 10 1023 76 10000 2.06 60 11:42 08.04.2021
555 Clouds 10 1023 76 10000 1.54 90 10:58 08.04.2021
556 Clouds 10 1023 76 10000 2.57 60 10:28 08.04.2021
557 Clouds 10 1023 76 10000 2.57 70 09:59 08.04.2021
558 Clouds 10 1023 76 10000 3.09 70 09:40 08.04.2021
559 Clouds 10 1022 76 10000 2.57 70 08:45 08.04.2021
560 Clouds 9 1022 76 10000 3.09 90 08:27 08.04.2021
561 Clouds 9 1022 76 10000 3.09 80 07:57 08.04.2021
562 Clouds 9 1022 76 10000 1.54 110 07:35 08.04.2021
563 Clouds 10 1022 76 10000 3.09 80 03:48 08.04.2021
564 Clear 11 1020 66 10000 4.12 120 00:54 08.04.2021
565 Clear 12 1020 67 10000 6.17 120 23:59 07.04.2021
566 Clear 13 1019 62 10000 5.14 120 23:39 07.04.2021
567 Clear 13 1019 62 10000 5.14 120 23:21 07.04.2021
568 Clear 15 1018 55 10000 6.17 120 22:47 07.04.2021
569 Clear 15 1018 55 10000 6.17 120 22:29 07.04.2021
570 Clear 17 1017 32 10000 1.54 110 21:44 07.04.2021
571 Clear 18 1017 32 10000 1.54 110 21:24 07.04.2021
572 Clear 19 1016 27 10000 1.54 100 20:43 07.04.2021
573 Clear 19 1016 27 10000 1.54 100 20:21 07.04.2021
574 Clear 20 1016 24 10000 2.06 130 19:44 07.04.2021
575 Clear 20 1016 24 10000 2.06 130 19:26 07.04.2021
576 Clear 20 1016 23 10000 1.54 0 18:47 07.04.2021
577 Clear 20 1016 23 10000 0.51 360 18:20 07.04.2021
578 Clear 20 1016 23 10000 0.51 360 17:55 07.04.2021
579 Clear 20 1016 21 10000 1.03 0 17:36 07.04.2021
580 Clear 19 1017 24 10000 1.54 0 16:49 07.04.2021
581 Clear 18 1017 22 10000 1.54 90 16:24 07.04.2021
582 Clear 19 1017 22 10000 1.54 90 15:59 07.04.2021
583 Clear 18 1017 20 10000 1.54 90 15:38 07.04.2021
584 Clear 18 1018 22 10000 1.54 50 14:57 07.04.2021
585 Clear 16 1018 23 10000 1.54 60 14:31 07.04.2021
586 Clear 15 1018 23 10000 1.54 10 13:52 07.04.2021
587 Clear 14 1018 26 10000 2.57 20 13:24 07.04.2021
588 Clear 13 1018 28 10000 2.57 20 12:53 07.04.2021
589 Clear 12 1018 33 10000 2.57 40 12:25 07.04.2021
590 Clear 11 1018 37 10000 2.57 50 11:55 07.04.2021
591 Clear 10 1018 40 10000 3.09 60 11:26 07.04.2021
592 Clear 8 1017 49 10000 4.63 60 10:52 07.04.2021
593 Clear 8 1017 49 10000 4.63 60 10:20 07.04.2021
594 Clear 6 1017 49 10000 4.12 50 09:42 07.04.2021
595 Clear 6 1017 49 10000 4.12 50 09:23 07.04.2021
596 Clear 6 1016 49 10000 3.6 50 08:42 07.04.2021
597 Clear 5 1016 49 10000 3.6 50 08:21 07.04.2021
598 Clear 5 1015 53 10000 3.09 50 07:43 07.04.2021
599 Clear 5 1015 53 10000 3.09 50 07:24 07.04.2021
600 Clear 6 1015 60 10000 2.06 10 06:27 07.04.2021
601 Clear 8 1014 57 10000 3.6 70 04:23 07.04.2021
602 Clear 14 1013 44 10000 1.03 0 00:22 07.04.2021
603 Clear 14 1013 41 10000 2.06 130 23:47 06.04.2021
604 Clear 15 1013 31 10000 1.03 0 23:21 06.04.2021
605 Clear 16 1012 29 10000 2.06 350 22:48 06.04.2021
606 Clear 17 1012 27 10000 2.06 320 22:19 06.04.2021
607 Clear 18 1011 26 10000 3.6 310 21:42 06.04.2021
608 Clear 19 1011 24 10000 3.6 310 21:22 06.04.2021
609 Clear 20 1011 24 10000 3.6 310 20:54 06.04.2021
610 Clear 21 1011 21 10000 4.12 300 20:25 06.04.2021
611 Clear 21 1011 24 10000 5.66 290 19:58 06.04.2021
612 Clear 22 1011 24 10000 5.14 320 19:35 06.04.2021
613 Clear 22 1011 23 10000 5.66 290 18:57 06.04.2021
614 Clear 23 1011 20 10000 4.63 300 18:39 06.04.2021
615 Clear 23 1011 20 10000 4.63 300 18:19 06.04.2021
616 Clear 23 1011 27 10000 5.66 310 17:41 06.04.2021
617 Clear 23 1011 22 10000 2.06 0 17:18 06.04.2021
618 Clear 23 1012 20 10000 3.09 230 16:43 06.04.2021
619 Clear 23 1012 23 10000 1.54 0 15:59 06.04.2021
620 Clear 22 1013 21 10000 2.57 0 15:25 06.04.2021
621 Clear 21 1013 21 10000 3.09 0 14:43 06.04.2021
622 Clear 21 1014 21 10000 2.06 0 14:24 06.04.2021
623 Clear 19 1014 28 10000 1.54 0 13:46 06.04.2021
624 Clear 19 1014 28 10000 1.54 0 13:25 06.04.2021
625 Clear 17 1015 32 10000 2.06 160 12:45 06.04.2021
626 Clear 17 1015 36 10000 1.03 0 12:27 06.04.2021
627 Clear 16 1015 36 10000 1.54 170 11:55 06.04.2021
628 Clear 15 1015 41 10000 1.03 0 11:36 06.04.2021
629 Clear 15 1015 41 10000 1.03 0 11:18 06.04.2021
630 Clear 14 1015 39 10000 0.59 193 10:39 06.04.2021
631 Clear 12 1015 54 10000 1.54 120 10:21 06.04.2021
632 Clear 10 1015 58 10000 0.52 53 09:43 06.04.2021
633 Clear 9 1015 61 10000 0.74 45 08:57 06.04.2021
634 Clear 8 1015 61 10000 1.03 0 08:19 06.04.2021
635 Clear 9 1015 61 10000 1.03 0 07:22 06.04.2021
636 Clear 10 1015 53 10000 2.57 10 06:47 06.04.2021
637 Clear 12 1016 46 10000 1.03 270 03:54 06.04.2021
638 Clear 13 1016 35 10000 2.06 270 00:49 06.04.2021
639 Clear 14 1016 38 10000 1.03 0 00:22 06.04.2021
640 Clear 15 1016 36 10000 3.09 290 23:50 05.04.2021
641 Clear 16 1016 54 10000 3.09 270 23:30 05.04.2021
642 Clear 16 1016 54 10000 3.09 260 22:58 05.04.2021
643 Clear 17 1016 48 10000 2.57 270 22:38 05.04.2021
644 Clear 18 1016 34 10000 2.06 250 21:50 05.04.2021
645 Clear 19 1016 42 10000 3.09 240 21:27 05.04.2021
646 Clear 20 1016 37 10000 2.57 230 20:49 05.04.2021
647 Clear 21 1016 32 10000 2.57 240 20:31 05.04.2021
648 Clear 21 1016 26 10000 1.54 230 19:55 05.04.2021
649 Clear 21 1016 28 10000 2.06 250 19:36 05.04.2021
650 Clear 21 1016 30 10000 2.57 270 19:18 05.04.2021
651 Clear 22 1016 28 10000 2.06 280 18:40 05.04.2021
652 Clear 22 1016 28 10000 2.06 280 18:19 05.04.2021
653 Clear 21 1016 30 10000 1.54 0 17:47 05.04.2021
654 Clear 21 1016 33 10000 2.06 0 17:23 05.04.2021
655 Clouds 21 1016 32 10000 2.57 180 16:45 05.04.2021
656 Clouds 21 1016 32 10000 2.57 180 16:45 05.04.2021
657 Clouds 21 1017 32 10000 2.06 0 16:22 05.04.2021
658 Clouds 20 1017 37 10000 2.06 250 15:56 05.04.2021
659 Clear 20 1017 40 10000 1.54 0 15:32 05.04.2021
660 Clear 19 1018 45 10000 0.51 80 14:58 05.04.2021
661 Clear 18 1018 52 10000 1.54 0 14:36 05.04.2021
662 Clear 17 1018 52 10000 1.54 160 13:46 05.04.2021
663 Clear 17 1019 55 10000 1.03 120 13:26 05.04.2021
664 Clear 16 1019 59 10000 2.06 120 12:46 05.04.2021
665 Clear 15 1019 59 10000 1.03 110 12:24 05.04.2021
666 Clear 14 1019 58 10000 1.03 50 11:46 05.04.2021
667 Clear 14 1019 58 10000 1.03 50 11:28 05.04.2021
668 Clear 13 1019 58 10000 1.54 70 10:55 05.04.2021
669 Clear 12 1019 54 10000 1.54 70 10:29 05.04.2021
670 Clear 11 1018 54 10000 0.51 0 09:48 05.04.2021
671 Clear 10 1018 54 10000 0.51 0 09:26 05.04.2021
672 Clear 8 1018 62 10000 1.03 0 08:46 05.04.2021
673 Clear 8 1018 66 10000 0.51 0 08:26 05.04.2021
674 Clear 9 1017 61 10000 1.03 0 07:38 05.04.2021
675 Clear 9 1017 66 10000 1.03 10 07:18 05.04.2021
676 Clear 11 1017 43 10000 1.54 20 03:42 05.04.2021
677 Clear 13 1017 51 10000 1.03 0 00:54 05.04.2021
678 Clear 14 1016 62 10000 2.06 290 23:53 04.04.2021
679 Clear 14 1016 62 10000 2.06 290 23:30 04.04.2021
680 Clear 14 1016 58 10000 1.54 280 22:56 04.04.2021
681 Clear 15 1016 51 10000 0.51 260 22:33 04.04.2021
682 Clear 16 1016 51 10000 3.29 50 21:56 04.04.2021
683 Clear 17 1015 48 10000 0.51 260 21:21 04.04.2021
684 Clear 19 1015 34 10000 1.03 0 20:42 04.04.2021
685 Clear 19 1015 34 10000 1.03 0 20:20 04.04.2021
686 Clear 19 1014 37 10000 1.03 0 19:40 04.04.2021
687 Clear 20 1014 37 10000 1.03 0 19:19 04.04.2021
688 Clear 20 1014 37 10000 2.06 220 18:50 04.04.2021
689 Clear 20 1014 34 10000 1.54 0 18:24 04.04.2021
690 Clear 20 1015 32 10000 1.03 0 17:57 04.04.2021
691 Clear 20 1015 37 10000 1.54 0 17:25 04.04.2021
692 Clouds 19 1015 45 10000 2.06 80 16:54 04.04.2021
693 Clear 19 1015 37 10000 2.06 0 16:33 04.04.2021
694 Clear 18 1015 42 10000 2.06 0 15:46 04.04.2021
695 Clear 18 1015 42 10000 2.06 0 15:28 04.04.2021
696 Clear 18 1016 45 10000 1.54 160 14:38 04.04.2021
697 Clear 17 1016 45 10000 1.54 160 14:19 04.04.2021
698 Clear 16 1016 41 10000 1.54 60 13:26 04.04.2021
699 Clear 15 1016 41 10000 2.06 80 12:51 04.04.2021
700 Clear 14 1016 38 10000 2.06 50 12:27 04.04.2021
701 Clear 13 1016 40 10000 3.6 50 11:49 04.04.2021
702 Clear 12 1016 40 10000 3.6 50 11:30 04.04.2021
703 Clear 10 1016 37 10000 2.57 40 10:46 04.04.2021
704 Clear 10 1016 37 10000 2.57 40 10:23 04.04.2021
705 Clear 9 1016 43 10000 3.09 30 09:44 04.04.2021
706 Clear 9 1015 43 10000 2.06 30 09:20 04.04.2021
707 Clear 8 1015 43 10000 1.54 30 08:44 04.04.2021
708 Clear 8 1015 43 10000 1.54 30 08:24 04.04.2021
709 Clear 8 1014 53 10000 1.03 0 06:39 04.04.2021
710 Clear 8 1014 43 10000 1.03 0 05:44 04.04.2021
711 Clear 12 1014 50 10000 1.03 50 02:20 04.04.2021
712 Clear 12 1014 82 10000 0.51 0 00:47 04.04.2021
713 Clear 12 1014 76 10000 1.03 0 00:18 04.04.2021
714 Clear 13 1014 67 10000 1.03 100 23:39 03.04.2021
715 Clear 13 1013 67 10000 1.54 310 22:56 03.04.2021
716 Clouds 14 1013 67 10000 1.54 310 22:25 03.04.2021
717 Clouds 15 1013 63 10000 2.06 320 21:59 03.04.2021
718 Clouds 15 1012 67 10000 2.57 300 21:39 03.04.2021
719 Clouds 15 1012 67 10000 2.57 300 21:20 03.04.2021
720 Clouds 16 1012 63 10000 3.6 290 20:38 03.04.2021
721 Clouds 16 1012 63 10000 3.6 290 20:18 03.04.2021
722 Clouds 16 1012 72 10000 3.09 270 19:43 03.04.2021
723 Clouds 17 1012 67 10000 3.09 290 19:18 03.04.2021
724 Clouds 16 1013 72 10000 4.63 350 18:44 03.04.2021
725 Rain 18 1012 48 10000 5.66 330 18:18 03.04.2021
726 Rain 20 1012 35 10000 1.54 0 17:39 03.04.2021
727 Clouds 20 1012 37 10000 1.03 90 17:20 03.04.2021
728 Clouds 20 1012 42 10000 2.06 90 16:43 03.04.2021
729 Clouds 20 1013 39 10000 2.06 90 16:21 03.04.2021
730 Clouds 19 1013 40 10000 2.06 360 15:42 03.04.2021
731 Clouds 19 1013 40 10000 2.06 360 15:19 03.04.2021
732 Clouds 18 1014 52 10000 2.06 0 14:42 03.04.2021
733 Clouds 18 1014 52 10000 2.06 0 14:20 03.04.2021
734 Clouds 17 1014 55 10000 1.03 0 13:46 03.04.2021
735 Clouds 16 1014 59 10000 1.54 180 13:21 03.04.2021
736 Clouds 15 1015 67 10000 1.03 0 12:49 03.04.2021
737 Clouds 14 1015 67 10000 0.51 90 12:21 03.04.2021
738 Clouds 13 1015 72 10000 1.54 350 11:38 03.04.2021
739 Clouds 12 1015 76 10000 1.03 0 10:51 03.04.2021
740 Clouds 11 1015 82 10000 1.03 0 10:31 03.04.2021
741 Clouds 11 1015 87 10000 1.03 0 09:54 03.04.2021
742 Clouds 9 1015 87 10000 1.03 0 09:28 03.04.2021
743 Clouds 8 1014 93 10000 1.54 50 08:47 03.04.2021
744 Clouds 9 1014 93 10000 1.54 50 08:28 03.04.2021
745 Clouds 9 1014 93 10000 1.03 0 07:28 03.04.2021
746 Clouds 9 1014 93 9000 1.03 0 05:50 03.04.2021
747 Clear 10 1014 100 10000 0.87 344 03:50 03.04.2021
748 Clear 11 1015 93 10000 0.51 0 02:51 03.04.2021
749 Clear 11 1015 93 10000 0.51 0 02:25 03.04.2021
750 Clear 12 1015 87 10000 1.03 0 00:21 03.04.2021
751 Clear 12 1016 87 10000 1.54 220 23:48 02.04.2021
752 Clear 13 1016 87 10000 1.54 260 23:24 02.04.2021
753 Clear 13 1015 88 10000 1.03 0 22:53 02.04.2021
754 Clouds 13 1015 94 10000 1.03 250 22:34 02.04.2021
755 Clouds 13 1015 88 10000 2.31 251 21:46 02.04.2021
756 Clouds 13 1015 88 10000 2.92 246 21:24 02.04.2021
757 Clouds 13 1015 88 10000 2.57 270 20:52 02.04.2021
758 Clouds 14 1015 82 10000 2.57 300 20:33 02.04.2021
759 Clouds 14 1015 82 10000 2.57 290 19:58 02.04.2021
760 Clouds 14 1015 88 10000 3.6 300 19:39 02.04.2021
761 Clouds 15 1015 82 10000 3.09 280 19:20 02.04.2021
762 Clouds 15 1015 77 10000 3.6 290 18:39 02.04.2021
763 Rain 15 1015 82 10000 4.12 280 18:20 02.04.2021
764 Clouds 17 1015 77 10000 7.2 250 17:37 02.04.2021
765 Clouds 17 1015 67 10000 4.12 230 16:48 02.04.2021
766 Clouds 16 1015 67 10000 4.12 230 16:22 02.04.2021
767 Clouds 16 1015 82 10000 3.09 230 15:33 02.04.2021
768 Clouds 15 1016 77 10000 3.09 240 14:55 02.04.2021
769 Clouds 15 1016 77 10000 3.6 230 14:29 02.04.2021
770 Clouds 15 1016 77 10000 3.6 210 13:42 02.04.2021
771 Clouds 15 1016 77 10000 3.6 210 13:20 02.04.2021
772 Clouds 13 1017 88 10000 3.09 190 12:41 02.04.2021
773 Clouds 13 1017 88 10000 3.09 190 12:20 02.04.2021
774 Clouds 13 1017 82 9000 2.06 210 11:56 02.04.2021
775 Clouds 12 1017 100 9000 3.09 220 11:21 02.04.2021
776 Clouds 12 1017 100 9000 3.09 220 11:21 02.04.2021
777 Clouds 12 1016 94 10000 1.03 220 10:50 02.04.2021
778 Clouds 12 1016 94 10000 1.03 220 10:29 02.04.2021
779 Clouds 11 1016 94 6000 1.54 200 09:53 02.04.2021
780 Clouds 11 1016 94 6000 2.06 180 09:27 02.04.2021
781 Rain 11 1016 94 5000 2.06 190 08:58 02.04.2021
782 Rain 12 1016 87 5000 1.03 300 08:33 02.04.2021
783 Rain 12 1015 94 10000 2.57 190 07:31 02.04.2021
784 Clear 12 1015 94 10000 2.06 190 06:52 02.04.2021
785 Clouds 13 1015 82 10000 2.57 230 05:57 02.04.2021
786 Clear 14 1016 72 10000 3.09 230 02:45 02.04.2021
787 Clear 15 1016 67 10000 4.12 240 00:53 02.04.2021
788 Clear 16 1016 63 10000 5.66 240 00:23 02.04.2021
789 Clear 16 1015 55 10000 3.09 230 23:40 01.04.2021
790 Clear 18 1015 42 10000 2.57 250 22:59 01.04.2021
791 Clear 18 1015 51 10000 3.09 250 22:20 01.04.2021
792 Clear 18 1015 51 10000 3.09 250 21:50 01.04.2021
793 Clear 19 1014 48 10000 3.6 250 21:28 01.04.2021
794 Clear 20 1014 42 10000 3.09 250 20:49 01.04.2021
795 Clear 20 1014 34 10000 3.6 250 20:26 01.04.2021
796 Clear 21 1014 32 10000 2.57 200 19:56 01.04.2021
797 Clear 22 1014 30 10000 1.54 200 19:36 01.04.2021
798 Clear 22 1014 28 10000 3.09 220 18:46 01.04.2021
799 Clear 22 1014 28 10000 3.09 220 18:19 01.04.2021
800 Clear 22 1014 28 10000 2.57 200 17:53 01.04.2021
801 Clear 22 1014 28 10000 3.6 190 17:33 01.04.2021
802 Clear 22 1015 28 10000 2.57 220 16:54 01.04.2021
803 Clear 22 1015 27 10000 2.06 220 16:34 01.04.2021
804 Clear 22 1015 26 10000 2.57 200 15:49 01.04.2021
805 Clear 21 1015 32 10000 3.6 130 15:20 01.04.2021
806 Clear 21 1015 30 10000 3.6 130 14:48 01.04.2021
807 Clear 21 1015 30 10000 3.6 130 14:27 01.04.2021
808 Clear 20 1016 30 10000 4.63 90 13:58 01.04.2021
809 Clear 18 1016 32 10000 3.09 90 13:31 01.04.2021
810 Clear 17 1015 29 10000 4.12 50 12:55 01.04.2021
811 Clear 17 1016 31 10000 2.57 40 12:33 01.04.2021
812 Clear 16 1017 33 10000 1.54 0 11:58 01.04.2021
813 Rain 16 1017 33 10000 2.06 40 11:40 01.04.2021
814 Rain 15 1017 33 10000 2.06 40 11:18 01.04.2021
815 Clear 15 1016 33 10000 3.09 60 10:45 01.04.2021
816 Clear 14 1015 33 10000 3.6 50 10:24 01.04.2021
817 Rain 13 1017 38 10000 2.57 60 09:32 01.04.2021
818 Clear 13 1017 38 10000 3.09 70 08:54 01.04.2021
819 Clear 13 1017 38 10000 2.06 60 08:28 01.04.2021
820 Clear 13 1017 35 10000 2.57 60 07:22 01.04.2021
821 Clear 13 1017 38 10000 1.54 70 06:56 01.04.2021
822 Clear 13 1017 33 10000 2.06 70 05:34 01.04.2021
823 Clear 15 1018 31 10000 2.57 70 03:20 01.04.2021
824 Clear 17 1019 39 10000 5.14 90 00:19 01.04.2021
825 Clear 17 1019 39 10000 3.09 90 23:40 31.03.2021
826 Clear 18 1018 32 10000 3.6 80 22:45 31.03.2021
827 Clear 18 1018 34 10000 4.12 80 22:23 31.03.2021
828 Clear 18 1018 34 10000 4.12 80 21:57 31.03.2021
829 Clear 19 1017 30 10000 3.09 80 21:39 31.03.2021
830 Clear 20 1017 28 10000 3.09 90 21:19 31.03.2021
831 Clear 21 1017 28 10000 4.63 100 20:40 31.03.2021
832 Clear 21 1017 28 10000 4.63 100 20:21 31.03.2021
833 Clear 22 1017 23 10000 5.14 110 19:42 31.03.2021
834 Clear 23 1017 23 10000 5.14 120 19:20 31.03.2021
835 Clear 23 1017 23 10000 5.14 120 18:55 31.03.2021
836 Clear 23 1017 22 10000 5.14 100 18:35 31.03.2021
837 Clear 23 1018 19 10000 5.14 80 17:44 31.03.2021
838 Clear 24 1018 19 10000 4.63 100 17:20 31.03.2021
839 Clear 23 1018 19 10000 4.63 100 16:55 31.03.2021
840 Clear 23 1019 20 10000 3.09 90 16:35 31.03.2021
841 Clear 22 1020 21 10000 3.6 110 15:54 31.03.2021
842 Clear 22 1020 26 10000 2.06 0 15:22 31.03.2021
843 Clear 21 1021 26 10000 2.57 90 14:53 31.03.2021
844 Clear 20 1022 26 10000 2.57 0 14:26 31.03.2021
845 Clear 20 1022 26 10000 2.57 70 13:57 31.03.2021
846 Clear 18 1022 29 10000 2.57 70 13:24 31.03.2021
847 Clear 17 1023 25 10000 2.57 40 12:41 31.03.2021
848 Clear 16 1023 33 10000 2.06 30 12:18 31.03.2021
849 Clear 14 1023 36 10000 2.06 50 11:23 31.03.2021
850 Clear 13 1024 44 10000 1.03 0 10:51 31.03.2021
851 Clear 13 1024 44 10000 1.03 0 10:28 31.03.2021
852 Clear 12 1024 47 10000 1.03 0 09:58 31.03.2021
853 Clear 11 1023 57 10000 2.06 360 09:33 31.03.2021
854 Clear 11 1023 57 10000 2.06 360 09:33 31.03.2021
855 Clear 9 1023 57 10000 1.54 360 08:48 31.03.2021
856 Clear 9 1023 57 10000 1.54 360 08:48 31.03.2021
857 Clear 9 1023 57 10000 2.06 360 08:30 31.03.2021
858 Clear 10 1023 57 10000 1.03 0 07:41 31.03.2021
859 Clear 11 1023 53 10000 0.51 0 05:52 31.03.2021
860 Clear 14 1025 35 10000 2.57 80 02:42 31.03.2021
861 Clear 15 1025 36 10000 2.06 60 00:54 31.03.2021
862 Clear 15 1025 36 10000 2.57 90 00:26 31.03.2021
863 Clear 16 1025 36 10000 2.57 90 23:57 30.03.2021
864 Clear 16 1025 36 10000 2.57 90 23:27 30.03.2021
865 Clear 17 1025 31 10000 2.57 110 22:55 30.03.2021
866 Clear 17 1024 31 10000 3.09 120 22:37 30.03.2021
867 Clear 17 1024 32 10000 5.66 100 22:19 30.03.2021
868 Clear 18 1024 32 10000 4.12 110 21:38 30.03.2021
869 Clear 18 1024 32 10000 4.12 100 21:18 30.03.2021
870 Clear 18 1024 32 10000 4.12 100 20:45 30.03.2021
871 Clear 19 1024 30 10000 5.14 90 20:26 30.03.2021
872 Clear 19 1023 28 10000 4.12 110 19:43 30.03.2021
873 Clear 20 1023 28 10000 4.12 110 19:18 30.03.2021
874 Clear 21 1024 32 10000 4.63 110 18:33 30.03.2021
875 Clear 21 1024 30 10000 4.12 120 17:49 30.03.2021
876 Clear 21 1024 32 10000 5.14 120 17:31 30.03.2021
877 Clear 21 1024 30 10000 4.63 130 16:47 30.03.2021
878 Clear 21 1025 28 10000 3.6 100 16:28 30.03.2021
879 Clear 20 1026 28 10000 6.17 110 15:39 30.03.2021
880 Clear 20 1026 28 10000 6.17 110 15:19 30.03.2021
881 Clear 20 1026 28 10000 3.6 100 14:45 30.03.2021
882 Clear 19 1027 32 10000 3.6 80 14:21 30.03.2021
883 Clear 19 1027 32 10000 3.6 80 13:51 30.03.2021
884 Clear 18 1027 34 10000 2.57 80 13:29 30.03.2021
885 Clear 17 1027 36 10000 3.09 0 12:42 30.03.2021
886 Clear 17 1028 36 10000 2.57 50 12:23 30.03.2021
887 Clear 16 1028 36 10000 2.57 50 11:48 30.03.2021
888 Clear 15 1028 36 10000 2.06 0 11:20 30.03.2021
889 Clear 14 1028 44 10000 2.06 10 10:43 30.03.2021
890 Clear 14 1028 44 10000 2.06 10 10:19 30.03.2021
891 Clear 13 1027 44 10000 1.54 20 09:43 30.03.2021
892 Clear 13 1027 44 10000 1.54 20 09:43 30.03.2021
893 Clear 11 1027 44 10000 1.54 20 09:24 30.03.2021
894 Clear 12 1027 47 10000 2.57 50 08:51 30.03.2021
895 Clear 11 1027 47 10000 2.57 50 08:31 30.03.2021
896 Clear 12 1027 47 10000 2.57 60 07:45 30.03.2021
897 Clear 12 1026 47 10000 2.57 70 06:56 30.03.2021
898 Clear 12 1027 44 10000 3.6 80 05:25 30.03.2021
899 Clear 13 1027 47 10000 3.09 70 03:23 30.03.2021
900 Clear 15 1027 41 10000 3.09 70 00:22 30.03.2021
901 Clear 15 1027 41 10000 1.54 80 23:28 29.03.2021
902 Clear 16 1026 44 10000 3.6 110 22:43 29.03.2021
903 Clear 16 1026 41 10000 3.6 120 21:59 29.03.2021
904 Clear 17 1025 39 10000 4.12 130 21:37 29.03.2021
905 Clear 18 1025 36 10000 5.66 120 20:59 29.03.2021
906 Clear 18 1025 34 10000 5.14 130 20:37 29.03.2021
907 Clear 19 1025 34 10000 5.66 130 19:57 29.03.2021
908 Clear 20 1025 32 10000 5.14 120 19:34 29.03.2021
909 Clear 20 1025 32 10000 5.14 120 18:57 29.03.2021
910 Clear 20 1025 30 10000 5.14 120 18:39 29.03.2021
911 Clear 21 1024 30 10000 5.66 140 18:20 29.03.2021
912 Clear 21 1024 30 10000 5.66 140 18:20 29.03.2021
913 Clear 21 1024 30 10000 6.69 130 17:38 29.03.2021
914 Clear 22 1024 28 10000 7.2 120 16:59 29.03.2021
915 Clear 22 1025 24 10000 8.23 120 16:35 29.03.2021
916 Clear 22 1025 23 10000 8.75 130 15:51 29.03.2021
917 Clear 22 1026 26 10000 7.72 140 15:31 29.03.2021
918 Clear 21 1026 28 10000 1.54 0 14:54 29.03.2021
919 Clear 19 1026 32 10000 2.57 130 14:31 29.03.2021
920 Clear 18 1027 32 10000 2.57 80 13:47 29.03.2021
921 Clear 18 1027 34 10000 2.57 60 13:24 29.03.2021
922 Clear 17 1027 36 10000 3.09 70 12:50 29.03.2021
923 Clear 15 1027 36 10000 2.57 50 11:50 29.03.2021
924 Clear 14 1028 36 10000 3.09 60 11:30 29.03.2021
925 Clear 13 1028 41 10000 1.54 40 10:55 29.03.2021
926 Clear 13 1028 47 10000 2.06 40 10:36 29.03.2021
927 Clear 11 1028 54 10000 1.03 0 09:42 29.03.2021
928 Clear 10 1028 47 10000 1.54 50 08:52 29.03.2021
929 Clear 10 1027 47 10000 2.06 60 08:28 29.03.2021
930 Clear 10 1027 46 10000 1.03 0 07:28 29.03.2021
931 Clear 11 1027 43 10000 2.06 60 06:27 29.03.2021
932 Clear 11 1028 43 10000 3.08 52 03:51 29.03.2021
933 Clear 14 1028 36 10000 2.57 70 01:43 29.03.2021
934 Clear 14 1028 38 10000 2.57 80 00:22 29.03.2021
935 Clear 15 1027 39 10000 3.09 100 23:42 28.03.2021
936 Clear 16 1027 39 10000 3.09 100 23:19 28.03.2021
937 Clear 17 1027 36 10000 4.63 120 22:39 28.03.2021
938 Clear 17 1027 36 10000 4.63 120 22:20 28.03.2021
939 Clear 17 1026 34 10000 5.14 120 21:41 28.03.2021
940 Clear 18 1026 34 10000 5.14 120 21:22 28.03.2021
941 Clear 19 1026 32 10000 5.14 120 20:48 28.03.2021
942 Clear 20 1026 28 10000 4.12 130 20:29 28.03.2021
943 Clear 20 1026 26 10000 4.63 130 19:44 28.03.2021
944 Clear 21 1026 24 10000 2.57 40 19:23 28.03.2021
945 Clear 21 1026 24 10000 2.57 40 18:58 28.03.2021
946 Clear 21 1026 26 10000 3.09 80 18:27 28.03.2021
947 Clear 21 1026 32 10000 2.57 90 17:47 28.03.2021
948 Clear 21 1026 32 10000 2.57 90 17:27 28.03.2021
949 Clear 20 1027 30 10000 3.6 90 16:46 28.03.2021
950 Clear 20 1027 30 10000 3.6 90 16:23 28.03.2021
951 Clear 19 1027 30 10000 2.06 70 15:42 28.03.2021
952 Clear 19 1028 37 10000 3.09 0 15:18 28.03.2021
953 Clear 18 1028 36 10000 3.09 70 14:31 28.03.2021
954 Clear 17 1029 42 10000 3.09 60 13:48 28.03.2021
955 Clear 16 1029 39 10000 3.09 60 13:22 28.03.2021
956 Clear 16 1029 41 10000 2.57 50 12:50 28.03.2021
957 Clear 15 1029 44 10000 1.54 60 12:32 28.03.2021
958 Clear 13 1029 62 10000 2.06 60 11:45 28.03.2021
959 Clear 13 1029 62 10000 2.06 60 11:25 28.03.2021
960 Clear 11 1028 66 10000 2.06 10 10:44 28.03.2021
961 Clear 10 1028 66 10000 2.06 10 10:25 28.03.2021
962 Clear 10 1028 71 10000 1.54 10 09:47 28.03.2021
963 Clear 9 1028 76 10000 1.03 0 09:24 28.03.2021
964 Clear 8 1028 81 10000 1.54 10 08:46 28.03.2021
965 Clear 8 1027 87 10000 1.03 0 07:50 28.03.2021
966 Clear 8 1027 87 10000 1.03 0 06:40 28.03.2021
967 Clear 10 1027 71 10000 1.03 0 04:18 28.03.2021
968 Clear 10 1028 71 10000 2.06 80 01:22 28.03.2021
969 Clear 12 1027 71 10000 3.6 110 00:20 28.03.2021
970 Clear 12 1027 71 10000 2.57 120 23:43 27.03.2021
971 Clear 12 1026 71 10000 2.06 120 22:58 27.03.2021
972 Clear 13 1026 67 10000 3.09 110 22:36 27.03.2021
973 Clear 13 1026 67 10000 3.09 120 21:58 27.03.2021
974 Clear 14 1025 62 10000 3.09 110 21:37 27.03.2021
975 Clear 14 1025 62 10000 3.09 110 21:19 27.03.2021
976 Clear 15 1025 55 10000 2.06 360 20:38 27.03.2021
977 Clear 15 1025 55 10000 2.06 360 20:20 27.03.2021
978 Clouds 16 1024 48 10000 1.54 10 19:42 27.03.2021
979 Clouds 16 1024 48 10000 1.54 10 19:23 27.03.2021
980 Clouds 17 1024 45 10000 1.03 0 18:49 27.03.2021
981 Clouds 17 1024 45 10000 1.03 0 18:28 27.03.2021
982 Clear 17 1024 45 10000 2.06 80 17:54 27.03.2021
983 Clear 18 1024 45 10000 2.57 110 17:24 27.03.2021
984 Clear 18 1024 42 10000 2.06 70 16:49 27.03.2021
985 Clear 18 1024 42 10000 1.54 60 16:29 27.03.2021
986 Clear 18 1024 42 10000 2.06 30 15:50 27.03.2021
987 Clear 18 1025 42 10000 2.06 70 15:27 27.03.2021
988 Clear 17 1025 45 10000 2.57 80 14:50 27.03.2021
989 Clear 16 1026 51 10000 2.57 110 13:56 27.03.2021
990 Clear 15 1026 51 10000 2.06 0 13:26 27.03.2021
991 Clear 15 1026 51 10000 2.06 0 12:56 27.03.2021
992 Clear 14 1026 54 10000 2.06 30 12:27 27.03.2021
993 Clear 13 1026 58 10000 3.09 40 11:46 27.03.2021
994 Clear 13 1026 58 10000 3.09 40 11:25 27.03.2021
995 Clear 11 1026 62 10000 3.09 30 10:45 27.03.2021
996 Clear 10 1026 66 10000 3.09 40 10:23 27.03.2021
997 Clear 9 1025 71 10000 3.09 10 09:29 27.03.2021
998 Clear 8 1025 71 10000 2.57 0 08:43 27.03.2021
999 Clear 8 1025 71 10000 2.57 0 08:21 27.03.2021
1000 Clear 8 1024 76 10000 2.06 10 07:35 27.03.2021
1001 Clear 8 1024 76 10000 2.06 360 06:47 27.03.2021
1002 Clear 8 1024 76 10000 2.06 360 06:28 27.03.2021
1003 Clear 9 1024 61 10000 1.03 0 04:40 27.03.2021
1004 Clear 11 1024 57 10000 0.51 0 00:54 27.03.2021
1005 Clear 11 1024 53 10000 1.03 140 00:30 27.03.2021
1006 Clear 12 1023 53 10000 0.51 0 23:54 26.03.2021
1007 Clear 12 1023 53 10000 1.03 0 23:21 26.03.2021
1008 Clear 13 1023 50 10000 3.09 280 22:35 26.03.2021
1009 Clear 14 1022 41 10000 5.66 270 21:38 26.03.2021
1010 Clear 14 1022 41 10000 5.66 270 21:20 26.03.2021
1011 Clear 15 1022 38 10000 5.14 290 20:39 26.03.2021
1012 Clear 15 1022 38 10000 5.14 290 20:20 26.03.2021
1013 Clouds 16 1021 39 10000 5.14 290 19:48 26.03.2021
1014 Clouds 17 1021 36 10000 5.66 290 19:29 26.03.2021
1015 Clouds 17 1021 42 10000 5.14 290 18:44 26.03.2021
1016 Clouds 18 1021 42 10000 5.14 290 18:26 26.03.2021
1017 Clear 18 1020 36 10000 7.2 230 17:47 26.03.2021
1018 Clear 18 1020 36 10000 7.72 230 16:58 26.03.2021
1019 Clear 18 1020 32 10000 9.26 220 16:33 26.03.2021
1020 Clear 18 1021 32 10000 8.23 220 15:57 26.03.2021
1021 Clear 18 1021 29 10000 9.26 240 15:23 26.03.2021
1022 Clear 18 1021 27 10000 8.75 220 14:33 26.03.2021
1023 Clear 17 1022 32 10000 7.2 230 13:42 26.03.2021
1024 Clear 17 1022 39 10000 6.17 210 12:58 26.03.2021
1025 Clear 16 1022 42 10000 4.63 200 12:34 26.03.2021
1026 Clear 15 1022 47 10000 4.63 210 11:40 26.03.2021
1027 Clear 15 1022 47 10000 4.63 210 11:19 26.03.2021
1028 Clear 14 1022 54 10000 3.09 180 10:41 26.03.2021
1029 Clear 12 1022 58 10000 2.57 180 09:58 26.03.2021
1030 Clear 11 1022 62 10000 1.54 190 09:40 26.03.2021
1031 Clouds 10 1022 66 10000 1.54 180 08:45 26.03.2021
1032 Clouds 9 1022 71 10000 1.54 120 08:24 26.03.2021
1033 Clouds 9 1021 76 10000 0.51 0 07:42 26.03.2021
1034 Clear 8 1021 71 10000 2.06 170 07:20 26.03.2021
1035 Clear 8 1021 71 10000 1.54 170 06:54 26.03.2021
1036 Clear 9 1021 62 10000 3.09 200 05:31 26.03.2021
1037 Clear 10 1022 66 10000 0.51 0 02:32 26.03.2021
1038 Clear 12 1022 57 10000 2.57 220 00:32 26.03.2021
1039 Clear 13 1022 47 10000 2.57 220 23:46 25.03.2021
1040 Clear 14 1022 47 10000 2.57 220 23:21 25.03.2021
1041 Clear 14 1022 50 10000 1.54 210 22:39 25.03.2021
1042 Clear 15 1022 47 10000 1.03 190 21:53 25.03.2021
1043 Clear 15 1022 44 10000 1.54 210 21:35 25.03.2021
1044 Clear 16 1022 44 10000 3.6 220 20:47 25.03.2021
1045 Clear 17 1022 39 10000 3.09 220 20:28 25.03.2021
1046 Clear 17 1022 34 10000 4.63 220 19:51 25.03.2021
1047 Clear 18 1022 25 10000 5.14 230 19:32 25.03.2021
1048 Clear 19 1021 22 10000 4.63 220 18:58 25.03.2021
1049 Clear 19 1021 24 10000 5.66 220 18:39 25.03.2021
1050 Clear 19 1021 26 10000 5.14 220 18:21 25.03.2021
1051 Clear 20 1021 22 10000 5.14 220 17:37 25.03.2021
1052 Clear 20 1021 22 10000 4.12 220 16:57 25.03.2021
1053 Clear 20 1022 18 10000 4.12 210 16:34 25.03.2021
1054 Clear 20 1022 18 10000 4.12 220 15:49 25.03.2021
1055 Clear 19 1022 21 10000 3.09 180 15:26 25.03.2021
1056 Clear 20 1023 22 10000 3.6 180 14:50 25.03.2021
1057 Clear 19 1023 30 10000 3.09 190 14:30 25.03.2021
1058 Clear 18 1024 34 10000 3.09 170 13:28 25.03.2021
1059 Clear 17 1024 39 10000 1.03 0 12:46 25.03.2021
1060 Clear 16 1024 39 10000 0.51 0 12:22 25.03.2021
1061 Clear 16 1024 39 10000 0.51 0 11:58 25.03.2021
1062 Clear 15 1025 41 10000 0.51 160 11:40 25.03.2021
1063 Clear 14 1025 41 10000 0.51 160 11:21 25.03.2021
1064 Clear 13 1025 50 10000 1.03 0 10:48 25.03.2021
1065 Clear 12 1025 50 10000 1.03 0 10:21 25.03.2021
1066 Clear 12 1024 54 10000 1.54 60 09:48 25.03.2021
1067 Clear 10 1024 58 10000 1.03 0 09:29 25.03.2021
1068 Clear 9 1024 66 10000 0.51 100 08:37 25.03.2021
1069 Clear 7 1024 75 10000 0.41 106 07:50 25.03.2021
1070 Clear 6 1023 75 10000 0.33 87 06:48 25.03.2021
1071 Clear 8 1023 65 10000 0.47 49 06:24 25.03.2021
1072 Clear 8 1023 65 10000 0.42 42 05:21 25.03.2021
1073 Clear 10 1024 66 10000 0.26 283 02:28 25.03.2021
1074 Clear 13 1024 50 10000 1.48 237 00:20 25.03.2021
1075 Clear 12 1024 50 10000 0.51 0 23:42 24.03.2021
1076 Clear 13 1024 54 10000 2.57 250 23:23 24.03.2021
1077 Clear 14 1023 38 10000 1.54 130 22:40 24.03.2021
1078 Clear 13 1024 53 10000 3.6 240 21:59 24.03.2021
1079 Clear 15 1024 54 10000 3.6 250 21:39 24.03.2021
1080 Clear 15 1023 44 10000 2.57 240 21:19 24.03.2021
1081 Clear 16 1023 36 10000 2.57 230 20:41 24.03.2021
1082 Clear 17 1023 31 10000 2.57 220 20:19 24.03.2021
1083 Clear 18 1023 27 10000 3.09 210 19:34 24.03.2021
1084 Clear 19 1023 26 10000 3.6 210 18:56 24.03.2021
1085 Clear 19 1023 26 10000 3.09 190 18:38 24.03.2021
1086 Clear 19 1023 26 10000 3.09 190 18:19 24.03.2021
1087 Clear 20 1023 28 10000 3.09 210 17:34 24.03.2021
1088 Clear 20 1023 26 10000 4.12 210 16:59 24.03.2021
1089 Clear 20 1023 26 10000 3.6 230 16:41 24.03.2021
1090 Clear 20 1023 26 10000 3.6 230 16:20 24.03.2021
1091 Clear 20 1023 26 10000 3.6 190 15:43 24.03.2021
1092 Clear 19 1024 26 10000 3.6 200 15:23 24.03.2021
1093 Clear 19 1024 28 10000 3.6 220 14:42 24.03.2021
1094 Clear 19 1025 32 10000 2.57 0 14:23 24.03.2021
1095 Clear 18 1025 32 10000 1.03 0 13:45 24.03.2021
1096 Clear 18 1025 32 10000 1.03 0 13:24 24.03.2021
1097 Clear 16 1025 34 10000 1.54 0 12:41 24.03.2021
1098 Clear 16 1025 33 10000 1.54 120 12:20 24.03.2021
1099 Clear 14 1025 38 10000 1.54 100 11:41 24.03.2021
1100 Clear 13 1025 41 10000 2.06 100 10:53 24.03.2021
1101 Clear 12 1025 37 10000 2.06 90 10:32 24.03.2021
1102 Clear 10 1025 40 10000 1.54 80 09:58 24.03.2021
1103 Clear 10 1025 40 10000 1.03 0 09:36 24.03.2021
1104 Clear 9 1024 43 10000 0.83 52 09:18 24.03.2021
1105 Clear 8 1024 49 10000 1.54 360 08:43 24.03.2021
1106 Clear 7 1024 56 10000 2.06 360 07:50 24.03.2021
1107 Clear 7 1024 53 10000 1.54 20 07:25 24.03.2021
1108 Clear 7 1023 57 10000 1.54 360 06:46 24.03.2021
1109 Clear 9 1023 50 10000 1.03 0 02:41 24.03.2021
1110 Clear 11 1023 50 10000 0.51 0 00:44 24.03.2021
1111 Clear 11 1023 47 10000 1.54 350 23:52 23.03.2021
1112 Clear 12 1023 47 10000 1.03 0 23:20 23.03.2021
1113 Clear 11 1023 46 10000 0.51 0 22:51 23.03.2021
1114 Clear 13 1022 47 10000 1.03 0 22:25 23.03.2021
1115 Clear 13 1022 50 10000 1.54 210 21:47 23.03.2021
1116 Clear 13 1022 50 10000 1.54 210 21:29 23.03.2021
1117 Clear 14 1022 38 10000 1.54 200 20:47 23.03.2021
1118 Clear 15 1022 38 10000 1.54 210 20:25 23.03.2021
1119 Clear 17 1021 27 10000 0.51 0 19:48 23.03.2021
1120 Clear 18 1021 27 10000 0.51 0 19:26 23.03.2021
1121 Clear 18 1021 26 10000 1.03 0 18:47 23.03.2021
1122 Clear 19 1021 26 10000 1.03 0 18:23 23.03.2021
1123 Clear 19 1021 22 10000 2.06 230 17:49 23.03.2021
1124 Clear 19 1021 22 10000 1.54 290 17:23 23.03.2021
1125 Clear 19 1021 22 10000 1.54 290 16:58 23.03.2021
1126 Clear 18 1021 22 10000 1.03 340 16:25 23.03.2021
1127 Clear 18 1021 22 10000 1.54 0 15:47 23.03.2021
1128 Clear 18 1021 29 10000 3.09 0 15:21 23.03.2021
1129 Clear 17 1022 29 10000 2.57 230 14:40 23.03.2021
1130 Clear 16 1022 29 10000 2.57 230 14:18 23.03.2021
1131 Clear 16 1022 31 10000 2.57 190 13:43 23.03.2021
1132 Clear 15 1023 36 10000 1.03 140 13:21 23.03.2021
1133 Clear 15 1023 31 10000 1.54 0 12:43 23.03.2021
1134 Clear 14 1023 31 10000 1.54 0 12:23 23.03.2021
1135 Clear 13 1023 35 10000 1.54 120 11:47 23.03.2021
1136 Clear 12 1023 37 10000 1.54 100 10:56 23.03.2021
1137 Clear 10 1023 43 10000 1.03 0 10:38 23.03.2021
1138 Clear 10 1023 43 10000 1.03 0 10:20 23.03.2021
1139 Clear 8 1022 49 10000 1.54 60 09:42 23.03.2021
1140 Clear 8 1022 53 10000 0.51 0 09:21 23.03.2021
1141 Clear 7 1022 57 10000 1.03 0 08:40 23.03.2021
1142 Clear 6 1022 57 10000 1.03 0 08:22 23.03.2021
1143 Clear 4 1021 70 10000 0.51 0 07:59 23.03.2021
1144 Clear 5 1021 65 10000 1.54 57 07:22 23.03.2021
1145 Clear 5 1021 65 10000 0.51 0 06:41 23.03.2021
1146 Clear 7 1020 61 10000 0.51 0 03:23 23.03.2021
1147 Clear 8 1020 61 10000 0.51 0 02:22 23.03.2021
1148 Clear 10 1020 50 10000 1.54 0 23:46 22.03.2021
1149 Clear 10 1020 50 10000 0.37 117 22:59 22.03.2021
1150 Clear 11 1020 46 10000 0.51 0 22:39 22.03.2021
1151 Clear 11 1020 46 10000 0.51 0 22:20 22.03.2021
1152 Clear 12 1019 35 10000 1.03 0 21:43 22.03.2021
1153 Clear 12 1019 35 10000 1.03 0 21:24 22.03.2021
1154 Clear 13 1019 41 10000 1.21 245 20:42 22.03.2021
1155 Clear 13 1019 41 10000 1.92 262 20:22 22.03.2021
1156 Clear 14 1019 38 10000 2.06 290 19:55 22.03.2021
1157 Clear 15 1018 33 10000 2.57 290 19:37 22.03.2021
1158 Clear 16 1018 33 10000 2.57 290 19:19 22.03.2021
1159 Clear 16 1018 29 10000 2.06 300 18:40 22.03.2021
1160 Clear 16 1018 27 10000 2.57 0 18:21 22.03.2021
1161 Clear 17 1018 27 10000 2.57 360 17:44 22.03.2021
1162 Clear 17 1018 29 10000 2.06 0 17:21 22.03.2021
1163 Clear 16 1018 29 10000 2.06 0 16:45 22.03.2021
1164 Clear 16 1018 25 10000 2.57 0 16:20 22.03.2021
1165 Clear 16 1019 29 10000 3.09 0 15:39 22.03.2021
1166 Clear 15 1019 29 10000 3.09 0 15:19 22.03.2021
1167 Clear 15 1019 29 10000 3.09 0 14:53 22.03.2021
1168 Clear 14 1019 31 10000 2.57 0 14:34 22.03.2021
1169 Clear 13 1020 33 10000 1.54 340 13:48 22.03.2021
1170 Clear 13 1020 33 10000 1.54 340 13:27 22.03.2021
1171 Clear 12 1020 40 10000 1.03 210 12:55 22.03.2021
1172 Clear 11 1020 40 10000 1.03 210 12:26 22.03.2021
1173 Clear 10 1020 46 10000 1.03 230 11:49 22.03.2021
1174 Clear 9 1020 46 10000 1.03 230 11:29 22.03.2021
1175 Clear 9 1020 43 10000 0.51 230 10:46 22.03.2021
1176 Clear 7 1020 53 10000 0.51 0 10:25 22.03.2021
1177 Clear 7 1020 49 10000 0.51 0 09:49 22.03.2021
1178 Clear 5 1020 61 10000 1.54 90 09:30 22.03.2021
1179 Clear 5 1020 65 10000 2.57 90 08:46 22.03.2021
1180 Clear 3 1019 60 10000 1.54 110 08:27 22.03.2021
1181 Clear 3 1019 70 10000 1.54 130 07:50 22.03.2021
1182 Clear 3 1018 80 10000 0.51 0 07:30 22.03.2021
1183 Clear 2 1018 75 10000 1.03 250 06:49 22.03.2021
1184 Clear 5 1019 65 10000 1.03 0 02:47 22.03.2021
1185 Clear 7 1020 65 10000 1.54 220 00:48 22.03.2021
1186 Clear 8 1020 57 10000 0.51 0 23:59 21.03.2021
1187 Clear 8 1020 53 10000 1.16 17 23:20 21.03.2021
1188 Clear 9 1020 53 10000 1.54 290 22:59 21.03.2021
1189 Clear 9 1020 46 10000 1.03 0 22:41 21.03.2021
1190 Clear 10 1020 40 10000 1.54 310 21:43 21.03.2021
1191 Clear 10 1020 40 10000 1.54 310 21:24 21.03.2021
1192 Clear 11 1019 37 10000 1.54 50 20:56 21.03.2021
1193 Clear 11 1019 35 10000 1.54 70 20:38 21.03.2021
1194 Clear 12 1019 33 10000 1.54 50 20:19 21.03.2021
1195 Clear 13 1019 30 10000 2.57 30 19:39 21.03.2021
1196 Clear 13 1019 30 10000 2.57 30 19:19 21.03.2021
1197 Clear 14 1019 29 10000 2.57 20 18:41 21.03.2021
1198 Clear 15 1019 29 10000 2.57 0 18:18 21.03.2021
1199 Clear 15 1019 29 10000 2.57 0 17:42 21.03.2021
1200 Clear 15 1019 27 10000 4.12 20 17:18 21.03.2021
1201 Clear 15 1019 29 10000 3.6 0 16:49 21.03.2021
1202 Clear 15 1019 27 10000 4.63 20 16:23 21.03.2021
1203 Clear 15 1019 31 10000 3.09 310 15:46 21.03.2021
1204 Clear 14 1020 31 10000 3.6 340 15:21 21.03.2021
1205 Clear 14 1020 30 10000 3.09 0 14:48 21.03.2021
1206 Clear 13 1021 30 10000 3.09 0 14:27 21.03.2021
1207 Clear 12 1021 35 10000 1.54 0 13:57 21.03.2021
1208 Clear 12 1021 32 10000 1.54 0 13:39 21.03.2021
1209 Clear 11 1022 35 10000 1.54 200 12:44 21.03.2021
1210 Clear 10 1022 35 10000 1.54 200 12:25 21.03.2021
1211 Clear 10 1022 35 10000 1.54 200 12:25 21.03.2021
1212 Clear 8 1022 42 10000 3.09 260 11:41 21.03.2021
1213 Clear 8 1022 34 10000 1.54 220 11:21 21.03.2021
1214 Clear 7 1022 42 10000 1.54 180 10:45 21.03.2021
1215 Clear 6 1022 42 10000 1.54 180 10:27 21.03.2021
1216 Clear 5 1022 49 10000 1.03 0 09:50 21.03.2021
1217 Clear 4 1022 42 10000 0.76 298 09:32 21.03.2021
1218 Clear 3 1022 52 10000 0.76 298 08:57 21.03.2021
1219 Clear 1 1022 60 10000 0.75 298 08:31 21.03.2021
1220 Clear 1 1022 64 10000 1.03 0 07:51 21.03.2021
1221 Clear 1 1022 64 10000 1.03 260 07:28 21.03.2021
1222 Clear 1 1022 64 10000 1.54 250 06:21 21.03.2021
1223 Clear 1 1021 64 10000 2.06 270 04:52 21.03.2021
1224 Clear 4 1021 38 10000 3.6 50 00:58 21.03.2021
1225 Clear 4 1021 44 10000 2.06 80 00:38 21.03.2021
1226 Clear 4 1021 36 10000 2.57 40 00:20 21.03.2021
1227 Clear 5 1021 36 10000 3.6 50 23:45 20.03.2021
1228 Clear 6 1020 39 10000 3.09 0 23:19 20.03.2021
1229 Clear 6 1020 36 10000 5.14 20 22:24 20.03.2021
1230 Clear 7 1019 31 10000 3.6 50 21:51 20.03.2021
1231 Clear 8 1019 34 10000 2.57 50 21:33 20.03.2021
1232 Clear 8 1018 31 10000 3.09 20 20:58 20.03.2021
1233 Clear 9 1017 29 10000 2.57 10 20:39 20.03.2021
1234 Clear 9 1017 29 10000 2.57 10 20:21 20.03.2021
1235 Clear 10 1017 26 10000 3.09 360 19:41 20.03.2021
1236 Clear 10 1017 26 10000 3.09 360 19:22 20.03.2021
1237 Clear 12 1016 26 10000 2.57 60 18:45 20.03.2021
1238 Clear 12 1016 26 10000 2.57 60 18:45 20.03.2021
1239 Clear 12 1016 26 10000 3.09 90 18:21 20.03.2021
1240 Clear 12 1016 24 10000 2.57 70 17:44 20.03.2021
1241 Clear 12 1016 24 10000 2.57 70 17:22 20.03.2021
1242 Clear 12 1017 24 10000 3.09 20 16:44 20.03.2021
1243 Clear 12 1017 24 10000 3.09 20 16:20 20.03.2021
1244 Clear 12 1017 26 10000 2.57 0 15:49 20.03.2021
1245 Clear 11 1017 28 10000 3.09 0 15:29 20.03.2021
1246 Clear 11 1017 25 10000 5.14 0 14:42 20.03.2021
1247 Clear 10 1018 27 10000 5.14 50 14:22 20.03.2021
1248 Clear 10 1018 29 10000 6.17 10 13:32 20.03.2021
1249 Clear 9 1018 31 10000 5.66 30 12:42 20.03.2021
1250 Clear 8 1018 34 10000 5.66 50 12:23 20.03.2021
1251 Clear 7 1018 36 10000 6.69 0 11:44 20.03.2021
1252 Clear 7 1018 36 10000 6.69 0 11:23 20.03.2021
1253 Clear 7 1018 39 10000 6.17 0 10:47 20.03.2021
1254 Clear 6 1017 42 10000 5.66 30 10:25 20.03.2021
1255 Clear 5 1017 42 10000 4.63 30 09:54 20.03.2021
1256 Clear 5 1017 45 10000 3.6 30 09:26 20.03.2021
1257 Clear 4 1017 45 10000 4.63 30 08:56 20.03.2021
1258 Clear 3 1016 48 10000 5.14 30 08:28 20.03.2021
1259 Clear 3 1016 48 10000 4.63 30 07:50 20.03.2021
1260 Clear 3 1016 52 10000 3.6 10 07:30 20.03.2021
1261 Clear 3 1015 56 10000 3.6 40 06:46 20.03.2021
1262 Clear 3 1015 52 10000 3.09 20 05:37 20.03.2021
1263 Clear 4 1015 52 10000 3.6 360 03:46 20.03.2021
1264 Clear 4 1015 56 10000 2.57 350 02:42 20.03.2021
1265 Clear 6 1014 49 10000 3.6 10 23:56 19.03.2021
1266 Clear 7 1014 49 10000 3.09 20 23:22 19.03.2021
1267 Clouds 7 1013 53 10000 3.09 360 22:46 19.03.2021
1268 Clear 7 1013 57 10000 3.09 360 22:26 19.03.2021
1269 Clouds 7 1013 61 10000 1.54 40 21:53 19.03.2021
1270 Clear 8 1011 66 10000 2.06 60 21:21 19.03.2021
1271 Clouds 8 1012 61 10000 2.06 50 20:46 19.03.2021
1272 Clouds 8 1011 66 10000 1.54 70 20:27 19.03.2021
1273 Clouds 8 1011 62 10000 2.57 10 19:59 19.03.2021
1274 Clouds 9 1011 58 10000 3.6 350 19:39 19.03.2021
1275 Clouds 9 1011 58 10000 3.6 350 19:19 19.03.2021
1276 Drizzle 10 1011 66 10000 4.63 290 18:39 19.03.2021
1277 Clouds 10 1011 62 10000 6.17 280 18:18 19.03.2021
1278 Clouds 10 1011 62 10000 6.17 280 17:50 19.03.2021
1279 Clouds 10 1011 57 10000 5.66 280 17:27 19.03.2021
1280 Clouds 10 1011 57 10000 5.66 280 16:51 19.03.2021
1281 Clouds 11 1012 57 10000 5.14 300 16:26 19.03.2021
1282 Clouds 11 1012 54 10000 4.63 320 15:43 19.03.2021
1283 Clouds 11 1012 54 10000 4.12 360 15:22 19.03.2021
1284 Clouds 11 1013 47 10000 6.17 340 14:42 19.03.2021
1285 Clouds 11 1013 47 10000 2.57 0 14:21 19.03.2021
1286 Clouds 12 1014 47 10000 4.12 20 13:34 19.03.2021
1287 Clouds 11 1014 43 10000 6.69 360 12:50 19.03.2021
1288 Clouds 11 1014 46 10000 2.57 0 12:32 19.03.2021
1289 Clouds 10 1015 49 10000 1.54 280 11:40 19.03.2021
1290 Clouds 8 1015 57 10000 1.54 270 10:53 19.03.2021
1291 Clouds 8 1015 61 10000 2.57 260 10:30 19.03.2021
1292 Clear 6 1015 65 10000 2.57 250 09:49 19.03.2021
1293 Clear 6 1015 65 10000 3.09 260 09:30 19.03.2021
1294 Clouds 5 1015 61 10000 2.57 250 08:54 19.03.2021
1295 Clear 4 1016 70 10000 0.51 0 08:36 19.03.2021
1296 Clear 3 1016 75 10000 1.54 270 07:54 19.03.2021
1297 Clear 3 1016 75 10000 2.06 280 07:35 19.03.2021
1298 Clear 4 1016 60 10000 1.54 350 06:43 19.03.2021
1299 Clear 5 1017 52 10000 2.57 40 02:45 19.03.2021
1300 Clear 6 1017 53 10000 2.06 60 00:52 19.03.2021
1301 Clear 7 1017 49 10000 3.09 40 23:30 18.03.2021
1302 Clear 7 1017 49 10000 3.09 40 23:30 18.03.2021
1303 Clear 7 1017 49 10000 4.63 10 22:58 18.03.2021
1304 Clear 8 1017 49 10000 4.12 360 22:38 18.03.2021
1305 Clear 8 1017 43 10000 2.57 10 22:18 18.03.2021
1306 Clear 9 1017 43 10000 3.09 10 21:39 18.03.2021
1307 Clear 10 1017 37 10000 2.06 50 20:47 18.03.2021
1308 Clear 10 1017 37 10000 2.06 50 20:27 18.03.2021
1309 Clouds 11 1017 32 10000 2.57 50 19:45 18.03.2021
1310 Clouds 11 1017 32 10000 2.57 50 19:27 18.03.2021
1311 Clouds 11 1017 35 10000 3.6 40 18:57 18.03.2021
1312 Clouds 12 1017 35 10000 2.57 40 18:33 18.03.2021
1313 Clouds 12 1017 35 10000 3.6 50 17:50 18.03.2021
1314 Clouds 12 1017 37 10000 3.09 0 17:25 18.03.2021
1315 Clouds 12 1018 37 10000 4.12 60 16:48 18.03.2021
1316 Clouds 12 1018 37 10000 3.09 30 16:29 18.03.2021
1317 Clouds 11 1018 37 10000 3.6 30 15:47 18.03.2021
1318 Clouds 12 1018 37 10000 3.6 30 15:26 18.03.2021
1319 Clouds 12 1018 35 10000 4.12 0 14:55 18.03.2021
1320 Clouds 12 1019 37 10000 3.6 0 14:32 18.03.2021
1321 Clouds 12 1019 37 10000 4.63 0 13:53 18.03.2021
1322 Clouds 11 1020 37 10000 4.12 20 13:26 18.03.2021
1323 Clouds 11 1020 43 10000 4.63 30 12:44 18.03.2021
1324 Clouds 10 1020 43 10000 4.63 30 12:26 18.03.2021
1325 Clouds 11 1021 40 10000 6.17 360 11:55 18.03.2021
1326 Clear 10 1021 40 10000 5.66 20 11:33 18.03.2021
1327 Clear 10 1021 37 10000 4.12 10 10:49 18.03.2021
1328 Clear 9 1021 37 10000 5.14 10 10:27 18.03.2021
1329 Clear 8 1021 46 10000 3.09 360 09:56 18.03.2021
1330 Clear 7 1021 46 10000 2.57 350 09:29 18.03.2021
1331 Clear 6 1021 53 10000 3.6 360 08:52 18.03.2021
1332 Clear 5 1021 53 10000 2.57 360 08:32 18.03.2021
1333 Clear 5 1022 52 10000 2.57 360 07:54 18.03.2021
1334 Clear 5 1021 53 10000 2.06 10 07:29 18.03.2021
1335 Clear 6 1022 53 10000 3.6 10 06:37 18.03.2021
1336 Clear 6 1022 53 10000 3.6 10 06:18 18.03.2021
1337 Clear 8 1022 46 10000 4.63 50 03:41 18.03.2021
1338 Clear 9 1022 32 10000 4.12 40 00:19 18.03.2021
1339 Clear 11 1023 30 10000 4.63 40 22:58 17.03.2021
1340 Clear 12 1022 37 10000 3.6 40 22:36 17.03.2021
1341 Clear 12 1022 37 10000 4.12 30 22:18 17.03.2021
1342 Clear 13 1022 30 10000 5.66 50 21:45 17.03.2021
1343 Clear 13 1022 35 10000 4.12 50 21:27 17.03.2021
1344 Clear 14 1022 33 10000 3.6 60 20:45 17.03.2021
1345 Clear 15 1021 33 10000 4.12 60 20:25 17.03.2021
1346 Clear 16 1021 33 10000 4.12 60 19:54 17.03.2021
1347 Clear 16 1021 29 10000 5.14 60 19:25 17.03.2021
1348 Clear 17 1021 24 10000 5.14 50 18:58 17.03.2021
1349 Clear 18 1021 22 10000 5.14 50 18:40 17.03.2021
1350 Clear 19 1021 22 10000 4.63 0 17:58 17.03.2021
1351 Clear 19 1021 24 10000 4.63 50 17:27 17.03.2021
1352 Clear 19 1022 26 10000 4.12 40 16:57 17.03.2021
1353 Clear 19 1022 24 10000 4.63 40 16:37 17.03.2021
1354 Clear 19 1022 24 10000 4.63 40 16:19 17.03.2021
1355 Clear 19 1022 27 10000 5.66 60 15:40 17.03.2021
1356 Clear 18 1023 32 10000 5.66 30 14:46 17.03.2021
1357 Clear 17 1023 34 10000 5.66 50 14:28 17.03.2021
1358 Clear 17 1024 36 10000 4.63 40 13:56 17.03.2021
1359 Clear 16 1024 41 10000 5.14 40 13:38 17.03.2021
1360 Clear 16 1024 39 10000 6.17 50 12:59 17.03.2021
1361 Clear 15 1025 44 10000 4.63 0 12:34 17.03.2021
1362 Clear 14 1025 47 10000 5.66 50 11:54 17.03.2021
1363 Clear 13 1025 50 10000 5.66 40 11:27 17.03.2021
1364 Clear 12 1026 50 10000 5.14 50 10:59 17.03.2021
1365 Clear 12 1026 54 10000 5.14 50 10:40 17.03.2021
1366 Clear 11 1026 58 10000 4.63 0 09:59 17.03.2021
1367 Clear 10 1026 58 10000 4.63 50 09:41 17.03.2021
1368 Clear 9 1026 58 10000 4.63 0 09:20 17.03.2021
1369 Clear 8 1026 62 10000 4.12 0 08:44 17.03.2021
1370 Clear 9 1026 62 10000 4.12 0 08:25 17.03.2021
1371 Clear 8 1026 66 10000 5.66 50 07:37 17.03.2021
1372 Clear 8 1026 61 10000 3.6 30 06:48 17.03.2021
1373 Clear 8 1026 65 10000 2.57 0 04:28 17.03.2021
1374 Clear 8 1026 61 10000 2.06 360 03:31 17.03.2021
1375 Clear 10 1026 50 10000 4.63 50 01:19 17.03.2021
1376 Clear 10 1027 53 10000 3.6 30 00:33 17.03.2021
1377 Clear 11 1026 47 10000 4.12 60 23:25 16.03.2021
1378 Clear 12 1026 47 10000 4.63 40 22:44 16.03.2021
1379 Clear 12 1026 44 10000 5.14 40 22:26 16.03.2021
1380 Clear 13 1025 47 10000 4.63 50 21:44 16.03.2021
1381 Clear 13 1025 41 10000 5.14 40 21:25 16.03.2021
1382 Clear 14 1025 41 10000 4.12 50 20:56 16.03.2021
1383 Clear 16 1024 36 10000 4.63 60 20:19 16.03.2021
1384 Clear 16 1024 34 10000 4.63 60 19:48 16.03.2021
1385 Clear 17 1024 34 10000 4.63 60 19:28 16.03.2021
1386 Clear 17 1024 34 10000 5.14 60 18:56 16.03.2021
1387 Clear 18 1023 32 10000 4.63 60 18:36 16.03.2021
1388 Clear 18 1023 32 10000 5.66 60 17:55 16.03.2021
1389 Clear 19 1023 32 10000 4.12 50 17:36 16.03.2021
1390 Clear 18 1023 30 10000 4.12 50 16:58 16.03.2021
1391 Clear 19 1024 30 10000 5.14 0 16:38 16.03.2021
1392 Clear 18 1024 32 10000 4.63 60 16:19 16.03.2021
1393 Clear 18 1024 32 10000 4.12 40 15:40 16.03.2021
1394 Clear 18 1024 32 10000 4.12 40 15:19 16.03.2021
1395 Clear 17 1025 36 10000 4.12 20 14:56 16.03.2021
1396 Clear 17 1025 34 10000 4.63 20 14:37 16.03.2021
1397 Clear 17 1025 34 10000 4.63 20 14:18 16.03.2021
1398 Clear 16 1026 36 10000 3.6 50 13:41 16.03.2021
1399 Clear 15 1026 36 10000 3.09 30 13:19 16.03.2021
1400 Clear 14 1026 41 10000 3.09 70 12:40 16.03.2021
1401 Clear 14 1026 41 10000 3.09 70 12:19 16.03.2021
1402 Clear 12 1027 44 10000 3.09 60 11:35 16.03.2021
1403 Clear 11 1027 50 10000 3.09 60 10:53 16.03.2021
1404 Clear 10 1027 50 10000 4.12 70 10:21 16.03.2021
1405 Clear 9 1026 53 10000 3.6 60 09:41 16.03.2021
1406 Clear 8 1026 53 10000 2.57 40 09:21 16.03.2021
1407 Clear 7 1026 61 10000 1.54 40 08:57 16.03.2021
1408 Clear 6 1026 65 10000 2.06 10 08:39 16.03.2021
1409 Clear 6 1026 61 10000 1.54 30 07:57 16.03.2021
1410 Clear 6 1026 61 10000 2.06 50 07:30 16.03.2021
1411 Clear 6 1025 61 10000 2.06 30 06:38 16.03.2021
1412 Clear 6 1025 61 10000 2.57 50 05:37 16.03.2021
1413 Clear 6 1025 65 10000 2.57 60 04:28 16.03.2021
1414 Clear 8 1026 61 10000 2.57 50 02:29 16.03.2021
1415 Clear 9 1026 61 10000 2.06 10 01:59 16.03.2021
1416 Clear 12 1025 44 10000 3.09 40 23:55 15.03.2021
1417 Clear 12 1025 47 10000 2.06 360 23:28 15.03.2021
1418 Clear 12 1024 47 10000 2.06 350 22:50 15.03.2021
1419 Clear 13 1024 47 10000 2.06 340 22:31 15.03.2021
1420 Clear 14 1024 41 10000 2.06 350 21:53 15.03.2021
1421 Clear 14 1024 41 10000 2.06 350 21:33 15.03.2021
1422 Clear 15 1023 39 10000 1.54 360 20:57 15.03.2021
1423 Clear 15 1023 39 10000 1.54 360 20:57 15.03.2021
1424 Clear 15 1023 39 10000 1.54 310 20:39 15.03.2021
1425 Clear 15 1023 39 10000 1.54 310 20:20 15.03.2021
1426 Clear 16 1023 34 10000 2.06 310 19:49 15.03.2021
1427 Clear 17 1023 29 10000 1.54 340 19:31 15.03.2021
1428 Clear 18 1023 30 10000 2.06 340 18:50 15.03.2021
1429 Clear 18 1023 30 10000 2.06 260 18:26 15.03.2021
1430 Clear 19 1023 27 10000 1.54 350 17:56 15.03.2021
1431 Clear 18 1023 30 10000 2.06 310 17:32 15.03.2021
1432 Clear 18 1023 27 10000 2.06 40 16:50 15.03.2021
1433 Clear 18 1023 27 10000 1.54 90 16:32 15.03.2021
1434 Clear 18 1024 29 10000 1.54 330 15:45 15.03.2021
1435 Clear 17 1024 29 10000 1.54 330 15:26 15.03.2021
1436 Clear 17 1025 29 10000 1.54 0 14:44 15.03.2021
1437 Clear 16 1025 29 10000 1.54 0 14:23 15.03.2021
1438 Clear 15 1026 33 10000 1.03 0 13:47 15.03.2021
1439 Clear 15 1026 33 10000 1.03 0 13:25 15.03.2021
1440 Clear 14 1026 38 10000 1.54 0 12:49 15.03.2021
1441 Clear 12 1026 47 10000 2.57 350 12:20 15.03.2021
1442 Clear 11 1026 47 10000 2.57 350 11:52 15.03.2021
1443 Clear 10 1027 47 10000 1.54 0 11:33 15.03.2021
1444 Clear 9 1027 50 10000 2.06 360 10:55 15.03.2021
1445 Clear 8 1027 53 10000 2.06 60 10:31 15.03.2021
1446 Clear 8 1027 57 10000 2.57 60 09:53 15.03.2021
1447 Clear 6 1026 61 10000 1.54 60 09:34 15.03.2021
1448 Clear 6 1026 61 10000 1.03 0 08:54 15.03.2021
1449 Clear 5 1026 65 10000 1.54 40 08:34 15.03.2021
1450 Clear 5 1025 70 10000 1.54 40 07:55 15.03.2021
1451 Clear 4 1025 65 10000 1.54 60 07:32 15.03.2021
1452 Clear 5 1025 61 10000 2.06 60 06:40 15.03.2021
1453 Clear 6 1025 61 10000 2.06 50 05:33 15.03.2021
1454 Clear 8 1027 61 10000 1.54 60 01:47 15.03.2021
1455 Clear 9 1027 54 10000 2.06 70 23:58 14.03.2021
1456 Clear 10 1026 57 10000 0.51 0 23:20 14.03.2021
1457 Clear 10 1026 54 10000 1.03 0 22:47 14.03.2021
1458 Clear 11 1026 50 10000 1.54 350 22:23 14.03.2021
1459 Clear 11 1026 50 10000 2.57 350 21:45 14.03.2021
1460 Clear 12 1026 47 10000 1.54 340 21:19 14.03.2021
1461 Clear 12 1025 44 10000 1.54 50 20:49 14.03.2021
1462 Clouds 13 1025 44 10000 2.57 0 20:26 14.03.2021
1463 Clouds 13 1025 41 10000 1.54 50 19:50 14.03.2021
1464 Clouds 14 1025 38 10000 2.06 50 19:24 14.03.2021
1465 Clouds 15 1024 41 10000 2.57 40 18:56 14.03.2021
1466 Clouds 15 1024 41 10000 1.54 40 18:28 14.03.2021
1467 Clouds 16 1024 39 10000 1.54 40 17:41 14.03.2021
1468 Clouds 16 1024 39 10000 1.54 40 17:23 14.03.2021
1469 Clouds 16 1025 39 10000 2.06 60 16:52 14.03.2021
1470 Clouds 16 1025 39 10000 1.54 0 16:32 14.03.2021
1471 Clouds 16 1025 34 10000 1.54 230 15:57 14.03.2021
1472 Clouds 15 1025 44 10000 2.06 0 15:39 14.03.2021
1473 Clear 15 1026 38 10000 1.03 0 14:42 14.03.2021
1474 Clear 14 1026 38 10000 1.03 0 14:23 14.03.2021
1475 Clouds 14 1026 41 10000 1.54 0 13:50 14.03.2021
1476 Clouds 14 1026 44 10000 1.03 160 13:29 14.03.2021
1477 Clouds 14 1026 41 10000 0.51 310 12:47 14.03.2021
1478 Clouds 13 1027 44 10000 1.54 0 12:28 14.03.2021
1479 Clouds 12 1027 44 10000 1.03 0 11:54 14.03.2021
1480 Clear 12 1027 47 10000 1.03 0 11:36 14.03.2021
1481 Clear 11 1027 54 10000 1.54 50 10:56 14.03.2021
1482 Clear 10 1026 54 10000 1.03 0 10:37 14.03.2021
1483 Clear 10 1026 54 10000 1.03 0 10:18 14.03.2021
1484 Clear 8 1026 66 10000 1.54 360 09:43 14.03.2021
1485 Clear 7 1026 66 10000 1.54 360 09:22 14.03.2021
1486 Clear 5 1025 81 10000 1.54 250 08:48 14.03.2021
1487 Clear 5 1025 81 10000 1.54 250 08:29 14.03.2021
1488 Clear 5 1025 81 10000 0.35 31 07:47 14.03.2021
1489 Clear 6 1025 70 10000 1.03 0 07:19 14.03.2021
1490 Clear 6 1024 75 10000 0.83 20 05:32 14.03.2021
1491 Clear 9 1024 57 10000 5.66 290 00:53 14.03.2021
1492 Clear 9 1024 61 10000 4.12 280 00:19 14.03.2021
1493 Clear 9 1024 65 10000 3.6 260 23:53 13.03.2021
1494 Clear 9 1024 53 10000 4.12 290 23:35 13.03.2021
1495 Clear 9 1024 57 10000 2.57 270 22:54 13.03.2021
1496 Clear 10 1024 50 10000 3.09 290 22:32 13.03.2021
1497 Clear 10 1023 50 10000 5.14 280 21:48 13.03.2021
1498 Clear 11 1023 46 10000 7.2 280 21:26 13.03.2021
1499 Clear 11 1023 46 10000 7.2 280 20:53 13.03.2021
1500 Clear 11 1022 46 10000 7.2 280 20:31 13.03.2021
1501 Clear 12 1022 43 10000 6.69 300 19:54 13.03.2021
1502 Clouds 13 1022 41 10000 4.63 300 19:31 13.03.2021
1503 Clouds 13 1022 38 10000 4.63 310 18:58 13.03.2021
1504 Clouds 13 1021 38 10000 5.66 290 18:39 13.03.2021
1505 Clouds 14 1021 36 10000 4.63 270 18:18 13.03.2021
1506 Clouds 15 1021 36 10000 5.14 270 17:42 13.03.2021
1507 Clouds 15 1021 36 10000 6.17 270 17:24 13.03.2021
1508 Clouds 15 1022 38 10000 5.14 260 16:45 13.03.2021
1509 Clouds 15 1022 38 10000 5.14 260 16:27 13.03.2021
1510 Clouds 15 1022 33 10000 5.66 250 15:41 13.03.2021
1511 Clouds 15 1022 38 10000 7.72 250 14:51 13.03.2021
1512 Clouds 15 1023 47 10000 5.66 230 14:32 13.03.2021
1513 Clear 14 1023 35 10000 5.66 260 13:51 13.03.2021
1514 Clear 13 1024 47 10000 4.63 270 13:25 13.03.2021
1515 Clear 12 1024 47 10000 2.57 250 12:45 13.03.2021
1516 Clear 12 1024 47 10000 2.57 250 12:27 13.03.2021
1517 Clear 11 1024 50 10000 0.51 250 11:50 13.03.2021
1518 Clear 10 1024 46 10000 1.03 0 11:29 13.03.2021
1519 Clear 9 1024 53 10000 2.06 130 10:50 13.03.2021
1520 Clear 9 1024 53 10000 2.06 130 10:50 13.03.2021
1521 Clear 8 1024 53 10000 1.03 0 10:30 13.03.2021
1522 Clear 7 1024 61 10000 1.54 120 09:47 13.03.2021
1523 Clear 6 1023 70 10000 1.54 150 09:19 13.03.2021
1524 Clear 3 1023 75 10000 0.64 214 08:43 13.03.2021
1525 Clear 4 1022 75 10000 0.53 166 08:19 13.03.2021
1526 Clear 4 1022 75 10000 0.53 166 07:54 13.03.2021
1527 Clear 4 1022 75 10000 1.54 360 06:53 13.03.2021
1528 Clear 7 1023 61 10000 0.51 0 02:56 13.03.2021
1529 Clear 8 1023 65 10000 0.51 0 00:57 13.03.2021
1530 Clear 9 1023 57 10000 1.03 0 23:59 12.03.2021
1531 Clear 10 1023 46 10000 2.57 300 23:32 12.03.2021
1532 Clear 10 1024 46 10000 3.6 300 22:46 12.03.2021
1533 Clear 10 1023 53 10000 2.57 290 22:28 12.03.2021
1534 Clear 10 1023 61 10000 2.06 290 21:46 12.03.2021
1535 Clear 11 1023 49 10000 2.06 290 21:27 12.03.2021
1536 Clear 12 1022 46 10000 1.54 290 20:59 12.03.2021
1537 Clear 12 1022 40 10000 3.09 290 20:40 12.03.2021
1538 Clear 12 1022 40 10000 3.09 290 20:18 12.03.2021
1539 Clear 13 1022 41 10000 4.12 280 19:42 12.03.2021
1540 Clear 13 1022 41 10000 4.12 280 19:24 12.03.2021
1541 Clear 14 1022 33 10000 3.09 290 18:36 12.03.2021
1542 Clear 14 1022 33 10000 3.09 290 18:36 12.03.2021
1543 Clear 15 1022 33 10000 3.09 290 18:18 12.03.2021
1544 Clouds 15 1021 36 10000 5.14 280 17:40 12.03.2021
1545 Clouds 15 1021 36 10000 5.14 280 17:22 12.03.2021
1546 Clouds 15 1021 38 10000 7.2 280 16:42 12.03.2021
1547 Clouds 15 1022 38 10000 6.69 290 15:55 12.03.2021
1548 Clouds 15 1022 36 10000 5.66 290 15:35 12.03.2021
1549 Clouds 15 1022 41 10000 6.17 300 14:49 12.03.2021
1550 Clouds 14 1022 41 10000 6.69 310 14:22 12.03.2021
1551 Clouds 14 1023 44 10000 5.14 320 13:54 12.03.2021
1552 Clouds 14 1023 47 10000 5.66 300 13:36 12.03.2021
1553 Clouds 14 1023 47 10000 5.14 320 13:18 12.03.2021
1554 Clouds 13 1023 54 10000 4.12 320 12:42 12.03.2021
1555 Clouds 13 1023 54 10000 4.12 320 12:23 12.03.2021
1556 Clouds 13 1023 62 10000 4.63 320 11:52 12.03.2021
1557 Clouds 13 1023 54 10000 5.66 310 11:24 12.03.2021
1558 Clouds 12 1023 82 10000 3.6 260 10:55 12.03.2021
1559 Fog 11 1023 93 5000 4.12 260 10:26 12.03.2021
1560 Mist 10 1023 93 2000 5.14 250 09:57 12.03.2021
1561 Fog 9 1022 100 2000 4.63 250 09:26 12.03.2021
1562 Clouds 8 1022 93 10000 1.54 200 08:46 12.03.2021
1563 Clouds 8 1022 100 10000 2.57 230 07:58 12.03.2021
1564 Clouds 8 1022 100 9000 5.66 240 07:34 12.03.2021
1565 Clouds 8 1021 100 9000 4.63 240 06:53 12.03.2021
1566 Mist 8 1021 100 5000 4.63 240 06:28 12.03.2021
1567 Clear 9 1023 100 10000 2.81 249 02:49 12.03.2021
1568 Clear 11 1024 87 10000 3.09 260 00:47 12.03.2021
1569 Clear 12 1024 87 10000 3.6 270 23:30 11.03.2021
1570 Clear 13 1023 66 10000 1.03 0 22:50 11.03.2021
1571 Clear 13 1023 62 10000 4.12 280 22:30 11.03.2021
1572 Clear 13 1023 62 10000 4.12 280 22:30 11.03.2021
1573 Clear 13 1023 62 10000 4.63 260 21:55 11.03.2021
1574 Clear 14 1024 76 10000 6.17 260 21:36 11.03.2021
1575 Clear 14 1024 76 10000 6.17 260 21:18 11.03.2021
1576 Clear 14 1023 72 10000 5.66 240 20:41 11.03.2021
1577 Clear 15 1023 67 10000 7.2 240 20:19 11.03.2021
1578 Clear 15 1023 63 10000 7.72 240 19:44 11.03.2021
1579 Clear 16 1023 63 10000 7.72 240 19:26 11.03.2021
1580 Clear 17 1022 55 10000 6.17 220 18:46 11.03.2021
1581 Clear 17 1022 55 10000 6.17 220 18:28 11.03.2021
1582 Clear 18 1023 55 10000 6.69 230 17:44 11.03.2021
1583 Clear 18 1023 55 10000 6.17 230 16:54 11.03.2021
1584 Clear 18 1023 55 10000 5.66 230 16:28 11.03.2021
1585 Clear 18 1023 55 10000 6.17 230 15:49 11.03.2021
1586 Clear 17 1024 55 10000 5.66 210 15:22 11.03.2021
1587 Clear 17 1024 55 10000 5.14 220 14:49 11.03.2021
1588 Clear 17 1024 55 10000 5.14 220 14:20 11.03.2021
1589 Clear 16 1025 51 10000 5.14 220 13:49 11.03.2021
1590 Clear 16 1025 51 10000 5.14 230 13:31 11.03.2021
1591 Clear 15 1025 51 10000 5.14 220 12:58 11.03.2021
1592 Clear 14 1026 58 10000 3.6 220 12:39 11.03.2021
1593 Clear 13 1026 58 10000 4.63 240 12:21 11.03.2021
1594 Clear 12 1026 58 10000 2.57 200 11:43 11.03.2021
1595 Clear 12 1026 62 10000 2.06 160 11:25 11.03.2021
1596 Clouds 11 1026 62 10000 1.03 0 10:42 11.03.2021
1597 Clouds 10 1026 62 10000 1.03 0 10:20 11.03.2021
1598 Clouds 9 1025 66 10000 0.51 0 09:44 11.03.2021
1599 Clouds 8 1025 71 10000 0.51 120 09:23 11.03.2021
1600 Clouds 8 1025 71 10000 0.51 120 08:47 11.03.2021
1601 Clouds 7 1025 87 10000 1.56 216 08:19 11.03.2021
1602 Clear 6 1024 81 10000 0.51 0 07:30 11.03.2021
1603 Clear 7 1024 87 10000 1.74 229 06:50 11.03.2021
1604 Clear 7 1024 81 10000 1.95 230 06:30 11.03.2021
1605 Clear 8 1024 71 10000 0.51 0 03:54 11.03.2021
1606 Clear 9 1024 76 10000 3.6 240 01:19 11.03.2021
1607 Clear 10 1024 57 10000 1.54 140 23:48 10.03.2021
1608 Clear 10 1024 61 10000 2.06 240 23:19 10.03.2021
1609 Clear 10 1024 61 10000 2.06 240 23:19 10.03.2021
1610 Clear 11 1024 57 10000 1.03 200 22:33 10.03.2021
1611 Clear 11 1024 53 10000 2.06 210 21:47 10.03.2021
1612 Clear 12 1024 43 10000 2.06 200 21:26 10.03.2021
1613 Clear 12 1024 50 10000 1.54 170 20:51 10.03.2021
1614 Clear 13 1023 43 10000 1.54 210 20:33 10.03.2021
1615 Clear 13 1023 38 10000 4.12 230 19:54 10.03.2021
1616 Clear 14 1023 44 10000 3.09 220 19:33 10.03.2021
1617 Clear 15 1023 44 10000 4.12 240 18:56 10.03.2021
1618 Clear 15 1022 44 10000 3.09 240 18:37 10.03.2021
1619 Clear 15 1022 39 10000 3.6 210 18:18 10.03.2021
1620 Clear 16 1022 39 10000 2.57 210 17:41 10.03.2021
1621 Clear 16 1022 39 10000 2.57 210 17:19 10.03.2021
1622 Clear 15 1022 39 10000 3.09 210 16:48 10.03.2021
1623 Clear 15 1022 36 10000 3.09 230 16:25 10.03.2021
1624 Clear 15 1022 38 10000 3.09 250 15:51 10.03.2021
1625 Clear 14 1023 38 10000 2.57 210 15:25 10.03.2021
1626 Clear 13 1023 41 10000 3.09 0 14:57 10.03.2021
1627 Clear 13 1023 44 10000 3.09 230 14:23 10.03.2021
1628 Clear 12 1024 41 10000 2.06 0 13:58 10.03.2021
1629 Clear 12 1024 43 10000 2.57 200 13:31 10.03.2021
1630 Clear 11 1024 43 10000 1.03 0 12:48 10.03.2021
1631 Clear 10 1024 43 10000 1.03 0 12:28 10.03.2021
1632 Clear 9 1024 50 10000 2.57 120 11:53 10.03.2021
1633 Clear 9 1024 49 10000 1.54 110 11:28 10.03.2021
1634 Clear 8 1024 57 10000 1.54 120 10:51 10.03.2021
1635 Clear 7 1023 57 10000 1.03 0 10:33 10.03.2021
1636 Clear 6 1023 65 10000 1.03 0 09:56 10.03.2021
1637 Clear 6 1023 70 10000 1.03 0 09:38 10.03.2021
1638 Clear 5 1023 70 10000 0.48 71 09:19 10.03.2021
1639 Clear 4 1022 81 10000 0.48 71 08:44 10.03.2021
1640 Clear 3 1022 81 10000 0.77 48 08:26 10.03.2021
1641 Clear 3 1022 87 10000 1.03 0 07:44 10.03.2021
1642 Clear 3 1022 87 10000 1.03 0 07:24 10.03.2021
1643 Clear 3 1022 87 10000 1.03 350 06:52 10.03.2021
1644 Clear 4 1021 70 10000 0.51 0 02:45 10.03.2021
1645 Clear 6 1020 70 10000 0.51 0 00:36 10.03.2021
1646 Clear 6 1020 75 10000 1.54 250 23:45 09.03.2021
1647 Clear 8 1020 61 10000 2.24 23 22:56 09.03.2021
1648 Clear 7 1020 65 10000 2.06 260 22:37 09.03.2021
1649 Clear 7 1020 65 10000 2.06 260 22:18 09.03.2021
1650 Clear 9 1019 53 10000 2.57 280 21:42 09.03.2021
1651 Clear 9 1019 53 10000 2.57 280 21:20 09.03.2021
1652 Clear 9 1019 49 10000 3.6 300 20:55 09.03.2021
1653 Clear 10 1018 61 10000 3.09 270 20:37 09.03.2021
1654 Clear 11 1018 53 10000 3.09 280 20:18 09.03.2021
1655 Clouds 11 1018 54 10000 3.6 270 19:43 09.03.2021
1656 Clouds 12 1018 54 10000 3.6 270 19:24 09.03.2021
1657 Clouds 13 1017 44 10000 5.66 250 18:42 09.03.2021
1658 Clouds 13 1017 44 10000 3.09 260 18:19 09.03.2021
1659 Clouds 13 1017 47 10000 2.06 250 17:46 09.03.2021
1660 Clouds 13 1017 47 10000 2.06 250 17:26 09.03.2021
1661 Clouds 13 1017 44 10000 2.57 270 16:41 09.03.2021
1662 Clouds 14 1017 47 10000 2.06 0 16:21 09.03.2021
1663 Clouds 13 1017 47 10000 2.06 0 15:56 09.03.2021
1664 Clouds 13 1018 44 10000 1.54 260 15:25 09.03.2021
1665 Clouds 13 1018 38 10000 1.54 240 14:52 09.03.2021
1666 Clouds 12 1019 44 10000 1.54 320 14:26 09.03.2021
1667 Clouds 12 1019 50 10000 2.06 360 13:42 09.03.2021
1668 Clear 11 1019 47 10000 1.54 0 13:21 09.03.2021
1669 Clear 11 1019 47 10000 1.54 0 12:54 09.03.2021
1670 Clear 10 1019 54 10000 2.57 0 12:35 09.03.2021
1671 Clear 9 1019 57 10000 3.09 60 11:44 09.03.2021
1672 Clear 9 1019 57 10000 3.09 60 11:22 09.03.2021
1673 Clear 9 1019 57 10000 3.6 50 10:59 09.03.2021
1674 Clear 8 1019 57 10000 3.09 40 10:39 09.03.2021
1675 Clear 8 1019 57 10000 3.09 40 10:39 09.03.2021
1676 Clear 7 1019 57 10000 3.09 40 10:20 09.03.2021
1677 Clear 7 1018 61 10000 3.09 30 09:46 09.03.2021
1678 Clear 6 1018 61 10000 3.09 30 09:26 09.03.2021
1679 Clouds 6 1018 70 10000 2.57 60 08:49 09.03.2021
1680 Clouds 5 1018 70 10000 2.57 60 08:30 09.03.2021
1681 Clouds 6 1017 65 10000 3.09 60 07:46 09.03.2021
1682 Clouds 6 1017 65 10000 3.09 60 07:23 09.03.2021
1683 Clouds 6 1017 65 10000 3.09 60 06:44 09.03.2021
1684 Clouds 6 1017 65 10000 2.57 50 05:48 09.03.2021
1685 Clouds 7 1017 81 10000 3.09 10 01:31 09.03.2021
1686 Clouds 7 1017 81 10000 3.09 10 01:31 09.03.2021
1687 Clouds 7 1017 81 10000 3.09 10 01:31 09.03.2021
1688 Clouds 7 1017 81 10000 3.09 10 01:31 09.03.2021
1689 Rain 7 1017 93 6000 2.57 360 23:56 08.03.2021
1690 Rain 7 1017 81 10000 2.57 30 23:37 08.03.2021
1691 Clouds 7 1016 76 10000 2.06 40 23:18 08.03.2021
1692 Clouds 8 1016 76 10000 1.54 0 22:40 08.03.2021
1693 Clouds 8 1016 76 10000 1.54 0 22:21 08.03.2021
1694 Clouds 9 1015 81 10000 2.06 330 21:45 08.03.2021
1695 Clouds 9 1015 81 10000 2.06 330 21:26 08.03.2021
1696 Clouds 9 1015 81 10000 1.54 350 20:40 08.03.2021
1697 Clouds 9 1015 81 10000 1.54 350 20:20 08.03.2021
1698 Clouds 9 1014 76 10000 2.57 350 19:45 08.03.2021
1699 Clouds 10 1014 76 10000 2.57 350 19:20 08.03.2021
1700 Clouds 10 1014 71 10000 2.06 10 18:37 08.03.2021
1701 Clouds 10 1014 71 10000 2.06 320 18:19 08.03.2021
1702 Clouds 10 1014 87 10000 2.57 350 17:43 08.03.2021
1703 Clouds 10 1014 87 10000 2.57 350 17:22 08.03.2021
1704 Rain 9 1014 87 10000 3.6 350 16:42 08.03.2021
1705 Rain 9 1014 87 10000 3.6 350 16:22 08.03.2021
1706 Clouds 13 1013 58 10000 2.57 150 15:42 08.03.2021
1707 Clouds 13 1013 58 10000 2.57 150 15:23 08.03.2021
1708 Clouds 13 1014 62 10000 1.54 0 14:21 08.03.2021
1709 Clouds 13 1014 62 10000 1.54 0 13:57 08.03.2021
1710 Clouds 12 1015 71 10000 1.03 190 13:23 08.03.2021
1711 Clouds 11 1015 71 10000 1.03 190 12:58 08.03.2021
1712 Clouds 11 1015 76 10000 1.03 0 12:35 08.03.2021
1713 Clouds 10 1015 76 10000 1.03 0 11:55 08.03.2021
1714 Clouds 10 1015 76 10000 0.51 0 11:34 08.03.2021
1715 Clouds 9 1015 76 10000 1.72 54 10:57 08.03.2021
1716 Clouds 9 1015 81 10000 2.44 61 10:39 08.03.2021
1717 Clouds 9 1015 81 10000 1.03 0 10:18 08.03.2021
1718 Clouds 8 1014 87 10000 0.51 0 09:29 08.03.2021
1719 Clouds 8 1014 93 10000 1.03 0 08:52 08.03.2021
1720 Clear 7 1014 93 10000 1.03 0 08:25 08.03.2021
1721 Clear 6 1013 93 10000 0.51 0 07:22 08.03.2021
1722 Clouds 7 1013 93 10000 1.03 140 06:33 08.03.2021
1723 Clouds 8 1015 87 10000 1.03 0 02:57 08.03.2021
1724 Clear 9 1015 87 10000 1.03 130 00:43 08.03.2021
1725 Clear 9 1016 87 10000 2.51 180 23:53 07.03.2021
1726 Clouds 9 1015 81 10000 1.03 0 23:22 07.03.2021
1727 Clear 9 1015 87 10000 0.51 0 22:50 07.03.2021
1728 Clear 10 1015 81 10000 3.26 179 22:29 07.03.2021
1729 Clear 10 1015 81 10000 1.54 130 21:58 07.03.2021
1730 Clear 10 1015 76 10000 1.03 0 21:39 07.03.2021
1731 Clear 10 1015 76 10000 1.03 0 21:21 07.03.2021
1732 Clouds 11 1015 76 10000 2.06 200 20:41 07.03.2021
1733 Clouds 11 1015 76 10000 2.06 200 20:23 07.03.2021
1734 Clouds 11 1015 76 10000 3.09 200 19:55 07.03.2021
1735 Clouds 11 1015 76 10000 1.54 210 19:37 07.03.2021
1736 Clouds 11 1015 76 10000 1.54 210 19:19 07.03.2021
1737 Clouds 12 1015 62 10000 3.09 320 18:40 07.03.2021
1738 Clouds 13 1015 62 10000 4.12 290 18:18 07.03.2021
1739 Rain 13 1015 54 10000 2.06 190 17:39 07.03.2021
1740 Clouds 13 1015 54 10000 2.06 190 17:20 07.03.2021
1741 Clouds 14 1015 51 10000 2.06 200 16:44 07.03.2021
1742 Clouds 14 1015 54 10000 2.57 170 16:21 07.03.2021
1743 Clouds 14 1016 62 10000 1.54 0 15:56 07.03.2021
1744 Clouds 14 1016 54 10000 2.06 150 15:38 07.03.2021
1745 Clouds 14 1017 58 10000 3.6 140 15:19 07.03.2021
1746 Clouds 13 1017 58 10000 2.06 80 14:30 07.03.2021
1747 Clouds 13 1018 58 10000 1.03 0 13:57 07.03.2021
1748 Clouds 13 1018 62 10000 2.57 100 13:38 07.03.2021
1749 Clouds 13 1018 62 10000 2.57 100 13:18 07.03.2021
1750 Clouds 12 1019 66 10000 2.06 0 12:40 07.03.2021
1751 Clouds 12 1019 66 10000 2.06 0 12:21 07.03.2021
1752 Clouds 11 1019 66 10000 1.54 100 11:24 07.03.2021
1753 Clouds 11 1019 66 10000 1.54 110 10:59 07.03.2021
1754 Clouds 10 1019 71 10000 1.03 0 10:38 07.03.2021
1755 Clouds 9 1019 76 10000 1.03 0 09:58 07.03.2021
1756 Clouds 9 1019 71 10000 1.03 0 09:39 07.03.2021
1757 Clouds 9 1019 76 10000 1.03 0 09:19 07.03.2021
1758 Clouds 8 1019 76 10000 1.54 350 08:45 07.03.2021
1759 Clouds 8 1019 76 10000 1.54 350 08:22 07.03.2021
1760 Clouds 8 1019 76 10000 2.06 70 07:23 07.03.2021
1761 Clear 8 1020 81 10000 1.03 0 02:40 07.03.2021
1762 Clear 9 1021 76 10000 3.6 110 00:35 07.03.2021
1763 Clear 10 1020 71 10000 2.57 120 23:41 06.03.2021
1764 Clear 10 1020 71 10000 2.57 120 23:22 06.03.2021
1765 Clear 11 1020 66 10000 2.57 130 22:47 06.03.2021
1766 Clear 11 1020 62 10000 2.06 120 22:25 06.03.2021
1767 Clear 11 1020 62 10000 2.06 120 21:52 06.03.2021
1768 Clear 12 1019 58 10000 1.54 90 21:21 06.03.2021
1769 Clear 12 1019 58 10000 2.06 120 20:45 06.03.2021
1770 Clear 12 1019 58 10000 2.06 120 20:21 06.03.2021
1771 Clear 13 1019 58 10000 2.57 130 19:41 06.03.2021
1772 Clear 13 1019 58 10000 2.57 130 19:18 06.03.2021
1773 Clouds 14 1018 44 10000 2.57 110 18:43 06.03.2021
1774 Clouds 15 1018 44 10000 2.57 110 18:23 06.03.2021
1775 Clear 15 1019 44 10000 1.03 0 17:55 06.03.2021
1776 Clear 15 1019 44 10000 2.57 100 17:37 06.03.2021
1777 Clear 15 1019 44 10000 2.57 100 17:18 06.03.2021
1778 Clouds 15 1019 47 10000 2.06 70 16:39 06.03.2021
1779 Clouds 15 1019 47 10000 2.06 70 16:20 06.03.2021
1780 Clouds 15 1019 41 10000 2.06 100 15:41 06.03.2021
1781 Clouds 15 1019 41 10000 2.06 100 15:23 06.03.2021
1782 Clouds 15 1019 44 10000 2.57 0 14:49 06.03.2021
1783 Clouds 15 1020 44 10000 1.54 0 14:25 06.03.2021
1784 Clouds 14 1021 54 10000 2.57 0 13:39 06.03.2021
1785 Clouds 14 1021 54 10000 2.57 0 13:20 06.03.2021
1786 Clouds 14 1021 62 10000 2.57 110 12:44 06.03.2021
1787 Clouds 13 1021 62 10000 2.57 110 12:19 06.03.2021
1788 Clouds 13 1021 62 10000 3.6 100 11:49 06.03.2021
1789 Clouds 12 1021 62 10000 3.09 120 11:21 06.03.2021
1790 Clouds 11 1021 66 10000 4.12 120 10:48 06.03.2021
1791 Clouds 11 1021 62 10000 1.54 60 10:19 06.03.2021
1792 Clear 10 1020 71 10000 1.03 0 09:42 06.03.2021
1793 Clear 9 1020 76 10000 1.03 0 09:19 06.03.2021
1794 Clear 9 1020 81 10000 1.03 0 08:40 06.03.2021
1795 Clouds 9 1020 76 10000 1.03 0 07:57 06.03.2021
1796 Clouds 9 1019 71 10000 1.03 0 07:24 06.03.2021
1797 Clouds 9 1019 76 10000 1.03 0 06:58 06.03.2021
1798 Clouds 9 1019 76 10000 2.57 80 05:34 06.03.2021
1799 Clouds 10 1019 71 10000 1.03 0 02:38 06.03.2021
1800 Clouds 11 1019 62 10000 2.66 52 00:48 06.03.2021
1801 Clear 11 1018 62 10000 1.03 110 23:54 05.03.2021
1802 Clear 11 1018 58 10000 1.54 160 23:29 05.03.2021
1803 Clouds 12 1018 67 10000 1.54 10 22:49 05.03.2021
1804 Clouds 12 1018 67 10000 1.54 10 22:25 05.03.2021
1805 Clouds 12 1017 67 10000 1.03 0 21:54 05.03.2021
1806 Clouds 12 1017 71 10000 0.51 0 21:36 05.03.2021
1807 Clear 12 1017 67 10000 1.03 0 20:58 05.03.2021
1808 Clouds 13 1017 62 10000 1.54 360 20:40 05.03.2021
1809 Clouds 13 1017 62 10000 1.54 360 20:22 05.03.2021
1810 Clear 13 1016 62 10000 1.54 340 19:41 05.03.2021
1811 Clouds 14 1016 58 10000 2.32 158 19:20 05.03.2021
1812 Clouds 14 1016 58 10000 1.54 60 18:42 05.03.2021
1813 Clouds 15 1016 55 10000 1.54 70 18:23 05.03.2021
1814 Clouds 15 1016 55 10000 2.06 0 17:37 05.03.2021
1815 Clouds 15 1015 55 10000 2.06 50 17:19 05.03.2021
1816 Clouds 15 1015 55 10000 1.54 50 16:41 05.03.2021
1817 Clouds 14 1015 58 10000 2.57 80 16:22 05.03.2021
1818 Clouds 14 1015 58 10000 2.57 80 15:52 05.03.2021
1819 Clouds 14 1016 55 10000 2.06 30 15:23 05.03.2021
1820 Clouds 13 1016 62 10000 3.09 60 14:39 05.03.2021
1821 Clouds 13 1016 62 10000 3.09 60 14:18 05.03.2021
1822 Clouds 13 1017 66 10000 3.09 70 13:40 05.03.2021
1823 Clouds 12 1017 66 10000 3.6 70 13:19 05.03.2021
1824 Clouds 12 1017 66 10000 3.09 70 12:30 05.03.2021
1825 Clouds 11 1017 66 10000 3.6 90 11:37 05.03.2021
1826 Clouds 10 1017 66 10000 3.6 90 11:18 05.03.2021
1827 Clear 10 1017 71 10000 2.06 60 10:43 05.03.2021
1828 Clear 9 1017 71 10000 2.06 60 10:24 05.03.2021
1829 Clear 9 1017 76 10000 2.06 50 09:52 05.03.2021
1830 Clear 8 1017 81 10000 2.05 62 09:27 05.03.2021
1831 Clear 7 1017 87 10000 1.54 360 08:56 05.03.2021
1832 Clear 7 1017 81 10000 1.03 0 08:36 05.03.2021
1833 Clear 7 1017 81 10000 1.03 0 08:18 05.03.2021
1834 Clear 6 1017 76 10000 1.54 40 07:30 05.03.2021
1835 Clear 7 1017 76 10000 1.54 50 06:33 05.03.2021
1836 Clear 7 1017 76 10000 2.06 60 05:39 05.03.2021
1837 Clouds 9 1018 81 8000 1.03 350 00:54 05.03.2021
1838 Clouds 10 1018 81 9000 0.51 0 23:45 04.03.2021
1839 Clouds 10 1018 81 9000 0.51 0 23:23 04.03.2021
1840 Clouds 10 1018 76 9000 1.03 0 22:29 04.03.2021
1841 Clouds 10 1018 76 9000 1.03 0 22:29 04.03.2021
1842 Clouds 11 1018 76 9000 0.51 0 21:53 04.03.2021
1843 Clear 11 1018 71 9000 1.54 20 21:29 04.03.2021
1844 Clear 11 1018 71 9000 1.54 10 20:57 04.03.2021
1845 Clear 12 1017 71 9000 1.54 10 20:38 04.03.2021
1846 Clear 12 1017 71 9000 1.54 10 20:18 04.03.2021
1847 Clear 12 1018 67 10000 1.03 0 19:43 04.03.2021
1848 Clear 12 1018 67 10000 1.03 0 19:23 04.03.2021
1849 Clear 13 1018 67 9000 0.51 0 18:47 04.03.2021
1850 Clear 14 1018 67 9000 0.51 0 18:26 04.03.2021
1851 Clear 14 1018 58 9000 0.85 129 17:47 04.03.2021
1852 Clear 14 1018 58 9000 1 128 17:28 04.03.2021
1853 Clear 14 1019 62 9000 1.03 0 16:48 04.03.2021
1854 Clouds 14 1019 62 8000 1.03 0 16:29 04.03.2021
1855 Clouds 13 1020 71 8000 1.03 0 15:52 04.03.2021
1856 Clouds 12 1020 71 8000 1.03 0 15:33 04.03.2021
1857 Clouds 12 1021 76 7000 2.57 100 14:53 04.03.2021
1858 Clouds 12 1021 76 7000 2.06 100 14:31 04.03.2021
1859 Clouds 11 1022 81 6000 1.54 100 13:50 04.03.2021
1860 Clouds 11 1022 81 6000 1.54 80 13:32 04.03.2021
1861 Clouds 11 1022 81 6000 1.54 90 12:58 04.03.2021
1862 Mist 10 1023 87 5000 1.03 0 12:39 04.03.2021
1863 Mist 9 1023 87 4000 2.57 100 11:47 04.03.2021
1864 Mist 9 1023 87 4000 2.57 100 11:26 04.03.2021
1865 Mist 9 1023 93 3000 2.06 140 10:55 04.03.2021
1866 Mist 8 1024 93 4000 2.06 120 10:31 04.03.2021
1867 Mist 8 1023 93 4000 1.54 110 09:44 04.03.2021
1868 Mist 7 1024 93 3500 1.54 110 09:23 04.03.2021
1869 Mist 7 1023 93 4500 2.06 110 08:36 04.03.2021
1870 Clear 6 1023 93 8000 1.03 0 07:54 04.03.2021
1871 Clear 6 1023 100 8000 0.51 0 07:31 04.03.2021
1872 Clear 7 1023 93 9000 0.51 280 06:25 04.03.2021
1873 Clear 7 1024 100 9000 0.51 0 05:39 04.03.2021
1874 Clear 9 1026 87 10000 0.51 0 01:44 04.03.2021
1875 Clear 11 1026 81 10000 0.51 360 22:56 03.03.2021
1876 Clear 11 1026 76 10000 1.92 47 22:28 03.03.2021
1877 Clear 11 1027 76 10000 1.93 47 21:46 03.03.2021
1878 Clear 12 1027 76 10000 0.51 0 21:25 03.03.2021
1879 Clear 12 1026 71 10000 1.03 100 20:59 03.03.2021
1880 Clear 12 1027 71 10000 1.03 100 20:41 03.03.2021
1881 Clear 13 1027 67 10000 0.51 0 20:19 03.03.2021
1882 Clear 13 1026 62 10000 0.51 160 19:42 03.03.2021
1883 Clear 13 1026 62 10000 1.03 0 19:23 03.03.2021
1884 Clear 14 1026 58 10000 0.51 0 18:48 03.03.2021
1885 Clear 14 1026 58 10000 0.51 0 18:29 03.03.2021
1886 Clear 14 1026 58 10000 1.03 0 17:54 03.03.2021
1887 Clear 14 1027 58 10000 1.03 0 17:20 03.03.2021
1888 Clear 14 1027 55 10000 1.03 0 16:44 03.03.2021
1889 Clear 15 1027 55 10000 1.03 0 16:26 03.03.2021
1890 Clear 15 1027 55 10000 1.03 100 15:45 03.03.2021
1891 Clear 14 1028 62 10000 1.03 0 15:27 03.03.2021
1892 Clear 14 1028 62 10000 1.03 0 14:34 03.03.2021
1893 Clear 13 1029 67 9000 1.54 0 13:59 03.03.2021
1894 Clear 13 1029 67 9000 1.54 40 13:37 03.03.2021
1895 Clear 13 1029 71 10000 1.54 70 13:18 03.03.2021
1896 Clear 12 1030 67 10000 1.54 0 12:40 03.03.2021
1897 Clear 12 1030 67 10000 1.54 0 12:22 03.03.2021
1898 Clear 11 1030 76 10000 1.03 0 11:43 03.03.2021
1899 Clear 11 1030 76 10000 2.06 90 11:21 03.03.2021
1900 Clear 10 1030 81 10000 2.06 100 10:43 03.03.2021
1901 Clear 10 1030 81 10000 2.06 100 10:20 03.03.2021
1902 Clear 9 1030 87 10000 1.03 0 09:40 03.03.2021
1903 Clear 9 1029 87 10000 1.54 120 08:49 03.03.2021
1904 Clear 8 1029 87 10000 1.54 100 08:23 03.03.2021
1905 Clear 8 1029 87 10000 2.06 100 07:52 03.03.2021
1906 Clear 9 1029 81 10000 1.54 90 06:55 03.03.2021
1907 Clear 9 1028 87 10000 0.51 0 06:19 03.03.2021
1908 Clear 9 1028 81 10000 1.54 90 05:30 03.03.2021
1909 Clear 10 1029 76 10000 1.03 0 04:36 03.03.2021
1910 Clear 10 1029 76 10000 1.03 0 03:52 03.03.2021
1911 Clear 11 1029 81 10000 0.51 130 00:18 03.03.2021
1912 Clear 11 1029 76 10000 0.51 0 23:32 02.03.2021
1913 Clear 11 1029 71 10000 1.54 110 22:48 02.03.2021
1914 Clear 11 1028 71 10000 1.54 130 22:21 02.03.2021
1915 Clear 11 1028 71 10000 1.54 130 21:46 02.03.2021
1916 Clear 11 1028 66 10000 1.03 120 21:28 02.03.2021
1917 Clear 12 1028 66 10000 1.54 110 20:55 02.03.2021
1918 Clouds 12 1027 62 10000 2.06 110 20:36 02.03.2021
1919 Clouds 12 1027 62 10000 2.06 110 20:18 02.03.2021
1920 Clouds 13 1027 58 10000 3.09 100 19:42 02.03.2021
1921 Clouds 13 1027 58 10000 3.09 100 19:23 02.03.2021
1922 Clouds 13 1027 54 10000 1.54 120 18:41 02.03.2021
1923 Clouds 13 1027 54 10000 1.54 120 18:21 02.03.2021
1924 Clouds 14 1026 54 10000 3.09 110 17:50 02.03.2021
1925 Clouds 14 1026 54 10000 3.09 110 17:31 02.03.2021
1926 Clouds 14 1026 54 10000 3.09 110 17:31 02.03.2021
1927 Clouds 14 1026 54 10000 1.54 130 16:58 02.03.2021
1928 Clouds 14 1026 54 10000 2.06 100 16:38 02.03.2021
1929 Clouds 14 1026 54 10000 1.54 80 15:52 02.03.2021
1930 Clouds 14 1026 54 10000 1.54 50 15:25 02.03.2021
1931 Clouds 13 1027 54 10000 2.06 140 14:29 02.03.2021
1932 Clouds 13 1027 58 10000 3.6 120 13:59 02.03.2021
1933 Clouds 13 1027 62 10000 4.12 90 13:39 02.03.2021
1934 Clouds 12 1027 62 10000 4.12 90 13:20 02.03.2021
1935 Clouds 11 1027 66 10000 4.63 100 12:31 02.03.2021
1936 Clouds 11 1027 66 10000 4.63 90 11:59 02.03.2021
1937 Clouds 11 1027 66 10000 3.09 100 11:38 02.03.2021
1938 Clouds 11 1027 71 10000 1.54 70 11:19 02.03.2021
1939 Clouds 10 1027 76 10000 1.03 0 10:39 02.03.2021
1940 Clouds 10 1027 76 10000 1.03 0 10:20 02.03.2021
1941 Clouds 9 1026 76 10000 1.03 0 09:40 02.03.2021
1942 Clouds 9 1026 76 10000 1.03 0 09:40 02.03.2021
1943 Clouds 9 1025 76 10000 1.03 0 09:20 02.03.2021
1944 Clouds 8 1025 76 10000 1.03 0 08:38 02.03.2021
1945 Clouds 8 1025 81 10000 1.03 0 07:59 02.03.2021
1946 Clouds 8 1024 81 10000 1.54 60 07:38 02.03.2021
1947 Clear 8 1024 81 10000 1.54 90 06:35 02.03.2021
1948 Clear 9 1024 81 10000 1.03 0 05:46 02.03.2021
1949 Clear 9 1024 81 10000 1.03 0 05:46 02.03.2021
1950 Clear 9 1024 81 10000 1.03 0 05:28 02.03.2021
1951 Clear 9 1023 81 10000 3.09 120 01:46 02.03.2021
1952 Clear 9 1023 81 10000 4.12 110 01:28 02.03.2021
1953 Clouds 9 1023 81 10000 1.03 0 00:51 02.03.2021
1954 Clear 10 1023 76 10000 2.06 100 23:28 01.03.2021
1955 Clear 10 1023 76 10000 3.6 90 22:42 01.03.2021
1956 Clear 10 1023 76 10000 3.6 90 22:22 01.03.2021
1957 Clouds 10 1022 76 10000 2.57 80 21:50 01.03.2021
1958 Clouds 9 1022 87 10000 2.76 88 21:24 01.03.2021
1959 Clouds 9 1022 87 10000 1.03 0 20:48 01.03.2021
1960 Clouds 10 1022 87 10000 1.54 360 20:28 01.03.2021
1961 Clouds 10 1022 87 10000 3.09 10 19:55 01.03.2021
1962 Clouds 10 1022 81 10000 2.06 360 19:33 01.03.2021
1963 Clouds 10 1021 76 10000 1.54 40 18:46 01.03.2021
1964 Clouds 10 1021 76 10000 1.54 40 18:25 01.03.2021
1965 Clouds 10 1021 76 10000 1.54 60 17:58 01.03.2021
1966 Clouds 10 1021 76 10000 2.06 80 17:39 01.03.2021
1967 Clouds 10 1021 76 10000 2.06 80 17:19 01.03.2021
1968 Clouds 10 1020 76 10000 2.57 70 17:19 01.03.2021
1969 Clouds 10 1020 71 10000 2.06 50 16:43 01.03.2021
1970 Clouds 9 1020 71 10000 2.06 50 16:24 01.03.2021
1971 Clouds 9 1021 76 10000 2.57 60 15:41 01.03.2021
1972 Clouds 9 1021 71 10000 2.06 60 15:20 01.03.2021
1973 Clouds 9 1021 71 10000 2.06 60 14:47 01.03.2021
1974 Clouds 9 1021 76 10000 2.57 70 14:29 01.03.2021
1975 Clouds 9 1022 71 10000 2.06 60 13:40 01.03.2021
1976 Clouds 9 1022 71 10000 2.06 60 13:22 01.03.2021
1977 Clouds 9 1022 71 10000 2.06 60 12:52 01.03.2021
1978 Clouds 9 1022 71 10000 2.57 60 12:32 01.03.2021
1979 Clouds 8 1022 71 10000 2.57 60 11:59 01.03.2021
1980 Clouds 8 1022 71 10000 2.57 60 11:39 01.03.2021
1981 Clouds 8 1022 71 10000 2.06 70 10:44 01.03.2021
1982 Clouds 8 1022 66 10000 2.57 60 10:23 01.03.2021
1983 Clouds 8 1021 71 10000 2.06 40 09:58 01.03.2021
1984 Clouds 8 1021 71 10000 2.06 50 09:40 01.03.2021
1985 Clouds 8 1021 71 10000 2.06 30 09:20 01.03.2021
1986 Clouds 8 1021 71 10000 2.06 40 08:47 01.03.2021
1987 Clouds 8 1021 71 10000 2.06 40 07:50 01.03.2021
1988 Clouds 8 1021 71 10000 2.06 40 07:50 01.03.2021
1989 Clouds 8 1021 71 10000 2.06 40 06:51 01.03.2021
1990 Clouds 8 1022 71 10000 2.06 80 03:24 01.03.2021
1991 Clear 9 1021 71 10000 4.63 100 00:44 01.03.2021
1992 Clouds 9 1020 76 10000 3.09 140 23:26 28.02.2021
1993 Clouds 9 1020 76 10000 4.63 140 22:45 28.02.2021
1994 Clear 10 1020 66 10000 5.14 110 22:22 28.02.2021
1995 Clear 10 1020 66 10000 5.14 110 22:22 28.02.2021
1996 Clear 10 1020 66 10000 5.14 110 21:49 28.02.2021
1997 Clear 10 1019 62 10000 5.14 110 21:27 28.02.2021
1998 Clear 11 1019 62 10000 4.12 120 20:56 28.02.2021
1999 Clear 11 1019 62 10000 6.17 120 20:36 28.02.2021
2000 Clear 11 1019 58 10000 5.14 120 19:47 28.02.2021
2001 Clear 12 1018 58 10000 5.66 120 19:47 28.02.2021
2002 Clear 12 1018 58 10000 5.66 120 19:28 28.02.2021
2003 Clouds 13 1018 50 10000 6.17 120 18:57 28.02.2021
2004 Clouds 13 1018 50 10000 6.17 120 18:57 28.02.2021
2005 Clouds 13 1018 51 10000 6.69 110 18:36 28.02.2021
2006 Clouds 14 1018 47 10000 6.17 130 18:18 28.02.2021
2007 Clouds 14 1018 51 10000 5.66 130 17:45 28.02.2021
2008 Clouds 14 1018 51 10000 5.66 130 17:27 28.02.2021
2009 Clouds 14 1018 51 10000 4.12 140 16:50 28.02.2021
2010 Clouds 15 1018 47 10000 4.12 120 16:30 28.02.2021
2011 Clouds 14 1018 51 10000 3.6 100 15:53 28.02.2021
2012 Clouds 14 1018 51 10000 3.6 100 15:53 28.02.2021
2013 Clouds 14 1019 51 10000 4.12 110 15:31 28.02.2021
2014 Clouds 13 1019 54 10000 2.57 90 14:58 28.02.2021
2015 Clouds 14 1020 51 10000 2.57 0 14:39 28.02.2021
2016 Clouds 13 1020 54 10000 3.09 60 14:20 28.02.2021
2017 Clouds 13 1020 54 10000 3.09 60 13:41 28.02.2021
2018 Clouds 12 1021 58 10000 3.09 50 13:19 28.02.2021
2019 Clouds 12 1021 58 10000 3.09 70 12:55 28.02.2021
2020 Clouds 11 1022 62 10000 3.09 60 12:36 28.02.2021
2021 Clouds 11 1022 62 10000 3.09 60 12:18 28.02.2021
2022 Clouds 10 1022 66 10000 3.6 60 11:42 28.02.2021
2023 Clouds 9 1022 66 10000 3.6 60 11:22 28.02.2021
2024 Clouds 9 1022 66 10000 3.09 50 10:52 28.02.2021
2025 Clouds 9 1022 66 10000 3.6 60 10:26 28.02.2021
2026 Clear 7 1022 76 10000 2.57 60 09:42 28.02.2021
2027 Clear 6 1022 76 10000 2.57 60 09:24 28.02.2021
2028 Clouds 6 1021 76 10000 1.54 50 08:49 28.02.2021
2029 Clouds 6 1021 81 10000 1.54 80 08:31 28.02.2021
2030 Clear 6 1021 75 10000 2.57 100 07:54 28.02.2021
2031 Clear 6 1021 70 10000 4.12 90 07:36 28.02.2021
2032 Clear 7 1021 70 10000 2.57 59 06:29 28.02.2021
2033 Clear 8 1021 61 10000 1.03 0 05:24 28.02.2021
2034 Clear 9 1021 66 10000 1.54 10 03:26 28.02.2021
2035 Clear 9 1021 62 10000 2.06 360 01:44 28.02.2021
2036 Clear 10 1021 66 10000 1.03 0 00:50 28.02.2021
2037 Clear 11 1021 71 10000 1.03 0 00:26 28.02.2021
2038 Clear 11 1021 66 10000 1.03 0 23:45 27.02.2021
2039 Clear 12 1021 62 10000 1.03 0 23:19 27.02.2021
2040 Clear 12 1021 62 10000 1.03 0 22:44 27.02.2021
2041 Clear 13 1021 62 10000 1.54 240 22:19 27.02.2021
2042 Clear 14 1021 58 10000 1.54 250 21:42 27.02.2021
2043 Clear 14 1021 58 10000 1.54 250 21:42 27.02.2021
2044 Clear 13 1021 58 10000 1.54 250 21:24 27.02.2021
2045 Clear 14 1021 51 10000 1.54 210 20:49 27.02.2021
2046 Clear 15 1021 51 10000 1.54 210 20:27 27.02.2021
2047 Clear 16 1021 29 10000 1.03 0 19:46 27.02.2021
2048 Clear 16 1021 29 10000 1.03 0 19:27 27.02.2021
2049 Clear 19 1021 28 10000 1.03 0 18:46 27.02.2021
2050 Clear 19 1021 28 10000 1.03 0 18:22 27.02.2021
2051 Clear 19 1021 27 10000 1.03 0 17:58 27.02.2021
2052 Clear 19 1022 34 10000 1.54 160 17:38 27.02.2021
2053 Clear 19 1022 28 10000 1.54 160 17:19 27.02.2021
2054 Clear 19 1022 28 10000 1.54 160 16:49 27.02.2021
2055 Clear 19 1022 34 10000 1.03 0 16:27 27.02.2021
2056 Clear 19 1022 32 10000 1.54 0 15:44 27.02.2021
2057 Clear 18 1023 34 10000 1.03 0 15:19 27.02.2021
2058 Clear 18 1024 27 10000 0.51 0 14:41 27.02.2021
2059 Clear 18 1024 27 10000 0.51 0 14:21 27.02.2021
2060 Clear 16 1025 36 10000 1.03 0 13:43 27.02.2021
2061 Clear 16 1025 34 10000 1.03 0 13:19 27.02.2021
2062 Clear 16 1025 34 10000 1.03 0 12:45 27.02.2021
2063 Clear 14 1026 62 10000 2.06 90 12:24 27.02.2021
2064 Clear 13 1026 41 10000 1.54 0 11:51 27.02.2021
2065 Clear 13 1026 47 10000 2.06 40 11:31 27.02.2021
2066 Clear 11 1026 50 10000 1.54 50 10:51 27.02.2021
2067 Clear 11 1026 54 10000 1.54 50 10:32 27.02.2021
2068 Clear 10 1026 58 10000 1.03 0 09:53 27.02.2021
2069 Clear 8 1026 87 10000 1.03 70 09:31 27.02.2021
2070 Clear 8 1025 66 10000 1.03 0 08:43 27.02.2021
2071 Clear 7 1025 66 10000 1.03 0 08:24 27.02.2021
2072 Clear 7 1025 66 10000 1.03 0 07:58 27.02.2021
2073 Clear 8 1026 66 10000 1.54 40 06:55 27.02.2021
2074 Clear 10 1027 81 10000 0.51 0 01:24 27.02.2021
2075 Clear 10 1028 76 10000 0.51 0 00:31 27.02.2021
2076 Clear 11 1028 71 10000 1.03 0 23:41 26.02.2021
2077 Clear 11 1028 71 10000 1.03 0 23:22 26.02.2021
2078 Clear 12 1027 62 10000 1.03 0 22:34 26.02.2021
2079 Clear 12 1027 58 10000 1.54 350 21:54 26.02.2021
2080 Clear 13 1027 58 10000 1.03 0 21:35 26.02.2021
2081 Clear 13 1027 58 10000 1.54 360 20:55 26.02.2021
2082 Clear 14 1027 58 10000 1.54 10 20:37 26.02.2021
2083 Clear 14 1027 55 10000 1.03 0 20:18 26.02.2021
2084 Clear 15 1027 48 10000 1.03 60 19:26 26.02.2021
2085 Clear 16 1027 48 10000 1.03 0 18:55 26.02.2021
2086 Clear 16 1027 48 10000 1.54 50 18:25 26.02.2021
2087 Clear 16 1027 45 10000 2.06 50 17:59 26.02.2021
2088 Clear 16 1027 48 10000 2.06 90 17:37 26.02.2021
2089 Clear 17 1027 48 10000 2.06 90 17:18 26.02.2021
2090 Clear 16 1027 48 10000 1.54 40 16:46 26.02.2021
2091 Clear 16 1027 48 10000 2.06 70 16:27 26.02.2021
2092 Clear 16 1028 51 10000 2.06 110 15:44 26.02.2021
2093 Clear 15 1028 51 10000 2.06 110 15:24 26.02.2021
2094 Clear 15 1028 51 10000 2.57 90 14:57 26.02.2021
2095 Clouds 15 1028 55 10000 2.06 80 14:35 26.02.2021
2096 Clouds 15 1029 54 10000 2.06 100 13:54 26.02.2021
2097 Clouds 14 1029 54 10000 1.54 80 13:34 26.02.2021
2098 Clear 14 1030 58 10000 2.06 110 12:57 26.02.2021
2099 Clear 13 1030 58 10000 1.54 70 12:28 26.02.2021
2100 Clear 11 1029 62 10000 1.54 40 11:43 26.02.2021
2101 Clear 11 1029 62 10000 1.54 40 11:20 26.02.2021
2102 Clouds 10 1029 66 10000 1.54 60 10:43 26.02.2021
2103 Clouds 9 1029 66 10000 1.54 40 09:48 26.02.2021
2104 Clear 8 1029 76 10000 1.54 20 09:28 26.02.2021
2105 Clouds 7 1028 81 10000 2.06 360 08:39 26.02.2021
2106 Clear 8 1028 81 10000 1.54 360 07:59 26.02.2021
2107 Clear 7 1028 81 10000 2.06 360 07:24 26.02.2021
2108 Clear 8 1028 81 10000 1.03 0 06:35 26.02.2021
2109 Clear 8 1028 76 10000 2.06 80 05:19 26.02.2021
2110 Clear 10 1029 71 10000 1.54 60 02:41 26.02.2021
2111 Clear 10 1029 62 10000 1.54 30 00:33 26.02.2021
2112 Clear 11 1029 62 10000 1.54 10 23:41 25.02.2021
2113 Clear 11 1029 62 10000 1.54 10 23:19 25.02.2021
2114 Clear 11 1028 66 10000 1.03 360 22:38 25.02.2021
2115 Clear 12 1028 62 10000 1.54 350 21:54 25.02.2021
2116 Clear 12 1028 62 10000 1.54 350 21:54 25.02.2021
2117 Clear 12 1028 58 10000 1.54 30 21:33 25.02.2021
2118 Clear 12 1028 66 10000 1.54 30 20:57 25.02.2021
2119 Clear 12 1028 66 10000 2.06 360 20:37 25.02.2021
2120 Clear 12 1028 66 10000 2.06 360 20:19 25.02.2021
2121 Clear 13 1027 62 10000 2.06 350 19:49 25.02.2021
2122 Clear 13 1027 62 10000 2.06 30 19:21 25.02.2021
2123 Clear 13 1027 58 10000 2.06 30 18:44 25.02.2021
2124 Clear 13 1027 58 10000 1.54 40 18:18 25.02.2021
2125 Clear 13 1027 58 10000 2.06 40 17:42 25.02.2021
2126 Clear 13 1027 58 10000 2.06 40 17:23 25.02.2021
2127 Clear 14 1027 58 10000 1.54 30 16:35 25.02.2021
2128 Clear 14 1028 58 10000 2.06 40 15:55 25.02.2021
2129 Clear 13 1028 54 10000 1.54 40 15:29 25.02.2021
2130 Clouds 13 1028 58 10000 2.06 60 14:41 25.02.2021
2131 Clouds 12 1028 58 10000 2.06 60 14:21 25.02.2021
2132 Clouds 12 1028 62 10000 1.54 70 13:49 25.02.2021
2133 Clouds 11 1029 62 10000 2.57 60 13:24 25.02.2021
2134 Clouds 12 1029 62 10000 2.06 50 12:46 25.02.2021
2135 Clouds 11 1029 66 10000 2.57 40 12:21 25.02.2021
2136 Clear 10 1029 71 10000 3.09 60 11:43 25.02.2021
2137 Clear 10 1029 71 10000 3.09 60 11:18 25.02.2021
2138 Clear 9 1029 76 10000 3.09 60 10:38 25.02.2021
2139 Clear 8 1029 76 10000 3.09 60 09:56 25.02.2021
2140 Clear 8 1029 76 10000 2.57 60 09:38 25.02.2021
2141 Clear 7 1028 81 10000 2.06 60 08:46 25.02.2021
2142 Clear 7 1028 81 10000 2.57 60 08:22 25.02.2021
2143 Clear 7 1028 81 10000 2.06 30 07:43 25.02.2021
2144 Clear 7 1028 81 10000 2.06 30 07:19 25.02.2021
2145 Clear 6 1027 81 10000 3.09 60 05:57 25.02.2021
2146 Clear 9 1029 76 10000 2.06 50 01:52 25.02.2021
2147 Clear 9 1029 76 10000 2.06 60 01:33 25.02.2021
2148 Clear 9 1029 76 10000 1.54 60 00:37 25.02.2021
2149 Clear 10 1029 76 10000 3.09 90 23:46 24.02.2021
2150 Clear 10 1029 76 10000 4.12 110 22:59 24.02.2021
2151 Clear 11 1029 76 10000 3.6 100 22:31 24.02.2021
2152 Clear 11 1029 76 10000 2.57 90 21:57 24.02.2021
2153 Clear 12 1029 71 10000 3.6 100 21:36 24.02.2021
2154 Clear 12 1028 66 10000 3.09 100 20:52 24.02.2021
2155 Clear 13 1029 62 10000 3.09 110 20:29 24.02.2021
2156 Clear 13 1029 62 10000 2.57 110 19:52 24.02.2021
2157 Clear 13 1029 62 10000 3.09 120 19:26 24.02.2021
2158 Clear 14 1029 58 10000 4.63 130 18:54 24.02.2021
2159 Clouds 15 1029 55 10000 4.63 140 18:33 24.02.2021
2160 Clouds 15 1029 58 10000 5.14 130 17:45 24.02.2021
2161 Clouds 15 1029 58 10000 5.14 130 17:25 24.02.2021
2162 Clouds 15 1029 58 10000 6.17 110 16:49 24.02.2021
2163 Clouds 15 1029 58 10000 5.14 120 16:22 24.02.2021
2164 Clouds 15 1030 63 10000 4.63 130 15:56 24.02.2021
2165 Clouds 15 1030 62 10000 4.63 130 15:35 24.02.2021
2166 Clouds 14 1031 72 10000 3.6 110 14:52 24.02.2021
2167 Clouds 14 1031 63 10000 2.57 90 14:31 24.02.2021
2168 Clouds 13 1032 71 10000 2.57 60 13:56 24.02.2021
2169 Clouds 12 1033 71 10000 2.06 0 13:37 24.02.2021
2170 Clouds 12 1033 71 10000 2.06 0 13:19 24.02.2021
2171 Clouds 11 1033 76 10000 2.06 70 12:42 24.02.2021
2172 Clouds 11 1033 76 10000 2.06 70 12:42 24.02.2021
2173 Clouds 10 1033 76 10000 2.06 70 12:23 24.02.2021
2174 Clouds 9 1034 81 10000 3.09 80 11:42 24.02.2021
2175 Clouds 8 1034 81 10000 2.57 80 10:48 24.02.2021
2176 Clouds 8 1034 81 10000 2.57 80 10:26 24.02.2021
2177 Clear 7 1034 81 10000 1.54 360 09:33 24.02.2021
2178 Clear 7 1033 87 10000 1.03 0 08:58 24.02.2021
2179 Clear 5 1033 87 10000 1.54 360 08:33 24.02.2021
2180 Clear 5 1033 87 10000 1.54 360 07:55 24.02.2021
2181 Clear 6 1033 81 10000 2.06 50 07:19 24.02.2021
2182 Clear 6 1033 87 10000 1.54 10 06:20 24.02.2021
2183 Clear 8 1034 76 10000 1.54 40 02:44 24.02.2021
2184 Clear 9 1034 81 10000 0.51 0 23:55 23.02.2021
2185 Clear 9 1034 76 10000 0.51 100 22:51 23.02.2021
2186 Clear 10 1034 76 10000 1.69 99 22:23 23.02.2021
2187 Clear 10 1034 71 10000 0.51 80 21:56 23.02.2021
2188 Clear 10 1033 71 10000 1.03 0 21:37 23.02.2021
2189 Clear 10 1033 71 10000 1.03 0 21:18 23.02.2021
2190 Clear 11 1033 62 10000 1.54 150 20:45 23.02.2021
2191 Clear 11 1033 62 10000 1.54 150 20:27 23.02.2021
2192 Clouds 11 1033 62 10000 2.06 130 19:47 23.02.2021
2193 Clouds 11 1033 62 10000 2.06 130 19:26 23.02.2021
2194 Clouds 13 1032 58 10000 2.57 140 18:47 23.02.2021
2195 Clouds 13 1032 58 10000 2.06 150 18:29 23.02.2021
2196 Clouds 13 1032 54 10000 2.06 140 17:54 23.02.2021
2197 Clouds 13 1032 58 10000 3.6 140 17:28 23.02.2021
2198 Clouds 13 1032 54 10000 2.57 140 16:47 23.02.2021
2199 Clouds 13 1032 58 10000 3.6 100 16:24 23.02.2021
2200 Clouds 13 1032 58 10000 2.57 110 15:51 23.02.2021
2201 Clouds 13 1033 51 10000 3.09 130 15:33 23.02.2021
2202 Clouds 12 1033 58 10000 2.06 140 14:57 23.02.2021
2203 Clouds 12 1033 54 10000 1.54 0 14:38 23.02.2021
2204 Clouds 12 1033 54 10000 1.54 150 14:19 23.02.2021
2205 Clouds 12 1033 62 10000 2.57 140 13:38 23.02.2021
2206 Clouds 11 1033 62 10000 2.06 100 13:18 23.02.2021
2207 Clouds 11 1033 62 10000 2.06 100 12:44 23.02.2021
2208 Clouds 11 1033 62 10000 2.06 100 12:19 23.02.2021
2209 Clear 10 1033 62 10000 2.06 0 11:45 23.02.2021
2210 Clear 9 1033 62 10000 2.06 0 11:18 23.02.2021
2211 Clear 7 1032 71 10000 1.54 70 10:39 23.02.2021
2212 Clear 7 1032 71 10000 1.54 70 10:18 23.02.2021
2213 Clear 6 1031 75 10000 1.54 10 09:41 23.02.2021
2214 Clear 5 1031 75 10000 1.54 10 09:21 23.02.2021
2215 Clear 5 1031 81 10000 1.03 0 08:45 23.02.2021
2216 Clear 5 1030 81 10000 1.03 0 08:20 23.02.2021
2217 Clear 4 1030 87 10000 2.06 10 07:34 23.02.2021
2218 Clear 5 1029 81 10000 1.03 360 05:27 23.02.2021
2219 Clear 5 1028 75 10000 1.54 360 02:43 23.02.2021
2220 Clear 6 1027 81 10000 1.03 0 02:24 23.02.2021
2221 Clear 8 1026 76 10000 2.06 80 00:19 23.02.2021
2222 Clear 7 1025 71 10000 1.03 0 23:32 22.02.2021
2223 Clear 8 1024 70 10000 0.51 0 22:44 22.02.2021
2224 Clear 8 1024 70 10000 0.51 0 22:23 22.02.2021
2225 Clear 8 1024 70 10000 1.54 250 21:58 22.02.2021
2226 Clear 8 1024 61 10000 1.03 0 21:38 22.02.2021
2227 Clear 8 1023 61 10000 0.51 0 21:20 22.02.2021
2228 Clear 9 1023 61 10000 1.54 320 20:45 22.02.2021
2229 Clear 9 1023 61 10000 1.54 320 20:26 22.02.2021
2230 Clear 10 1022 57 10000 2.06 280 19:49 22.02.2021
2231 Clear 10 1022 57 10000 2.06 280 19:30 22.02.2021
2232 Clear 11 1021 50 10000 2.57 290 18:49 22.02.2021
2233 Clouds 11 1021 47 10000 2.06 290 18:29 22.02.2021
2234 Clouds 12 1020 47 10000 1.54 270 17:49 22.02.2021
2235 Clouds 11 1020 47 10000 1.54 270 17:20 22.02.2021
2236 Clouds 11 1020 47 10000 3.09 280 16:50 22.02.2021
2237 Clouds 11 1019 50 10000 2.57 280 16:29 22.02.2021
2238 Clouds 11 1019 50 10000 4.12 280 15:32 22.02.2021
2239 Clouds 11 1018 54 10000 2.57 290 14:54 22.02.2021
2240 Clouds 11 1018 54 10000 3.09 300 14:35 22.02.2021
2241 Clouds 11 1019 50 10000 4.12 290 13:54 22.02.2021
2242 Clouds 10 1019 57 10000 3.6 300 13:33 22.02.2021
2243 Clear 10 1018 54 10000 4.12 280 12:48 22.02.2021
2244 Clear 9 1018 57 10000 5.14 270 12:23 22.02.2021
2245 Clear 9 1018 66 10000 5.66 260 11:52 22.02.2021
2246 Clear 8 1018 71 10000 5.66 260 11:31 22.02.2021
2247 Clouds 7 1017 76 10000 6.17 260 10:59 22.02.2021
2248 Clouds 7 1016 70 10000 5.66 260 10:39 22.02.2021
2249 Clouds 7 1016 70 10000 5.66 260 10:19 22.02.2021
2250 Clouds 6 1015 81 10000 5.66 260 09:37 22.02.2021
2251 Clouds 6 1015 81 10000 5.66 260 09:19 22.02.2021
2252 Clouds 6 1015 81 10000 5.66 260 08:49 22.02.2021
2253 Clouds 6 1013 81 10000 6.17 270 08:21 22.02.2021
2254 Clear 6 1012 75 10000 8.23 270 07:46 22.02.2021
2255 Clear 6 1012 81 10000 8.23 250 07:22 22.02.2021
2256 Clear 6 1011 81 10000 7.72 250 06:26 22.02.2021
2257 Clear 6 1010 81 10000 6.69 250 04:27 22.02.2021
2258 Clear 6 1010 81 10000 5.66 250 03:22 22.02.2021
2259 Clear 6 1008 87 10000 7.2 250 00:54 22.02.2021
2260 Clear 6 1008 87 10000 5.66 260 00:29 22.02.2021
2261 Clear 6 1007 87 10000 4.63 250 23:55 21.02.2021
2262 Clear 6 1007 93 10000 4.12 260 23:25 21.02.2021
2263 Clouds 7 1007 87 10000 4.63 290 22:30 21.02.2021
2264 Clouds 7 1007 100 10000 4.63 250 21:52 21.02.2021
2265 Rain 8 1006 93 10000 5.66 240 21:34 21.02.2021
2266 Rain 8 1006 93 10000 5.66 240 21:34 21.02.2021
2267 Clouds 8 1006 100 10000 4.63 250 20:58 21.02.2021
2268 Clouds 9 1006 100 6000 4.12 240 20:38 21.02.2021
2269 Clouds 9 1006 100 6000 4.12 240 20:18 21.02.2021
2270 Clouds 11 1005 82 4000 5.66 190 19:44 21.02.2021
2271 Clouds 11 1005 82 4000 5.66 190 19:24 21.02.2021
2272 Clouds 12 1004 71 9000 3.09 140 18:30 21.02.2021
2273 Clouds 12 1004 71 10000 3.6 110 17:59 21.02.2021
2274 Clouds 12 1004 71 10000 3.6 100 17:28 21.02.2021
2275 Clouds 12 1004 71 10000 3.6 120 16:53 21.02.2021
2276 Clouds 12 1004 71 10000 3.6 110 16:32 21.02.2021
2277 Clouds 12 1004 76 10000 4.12 110 15:47 21.02.2021
2278 Clouds 11 1005 87 9000 3.6 110 15:20 21.02.2021
2279 Clouds 10 1006 81 9000 3.6 100 14:42 21.02.2021
2280 Clouds 10 1006 81 9000 3.6 100 14:21 21.02.2021
2281 Clouds 10 1007 81 10000 5.66 110 13:45 21.02.2021
2282 Clouds 10 1007 81 10000 5.66 110 13:22 21.02.2021
2283 Clear 10 1007 76 10000 5.14 110 12:29 21.02.2021
2284 Clear 10 1007 76 10000 5.14 130 11:44 21.02.2021
2285 Clear 9 1007 81 10000 4.12 120 10:58 21.02.2021
2286 Clear 9 1007 76 10000 4.63 140 10:23 21.02.2021
2287 Clear 9 1007 76 10000 3.09 140 09:55 21.02.2021
2288 Clear 9 1007 76 10000 3.09 140 09:55 21.02.2021
2289 Clear 9 1007 76 10000 3.09 120 09:29 21.02.2021
2290 Clear 9 1007 76 10000 2.57 140 08:58 21.02.2021
2291 Clear 9 1007 71 10000 2.57 150 08:23 21.02.2021
2292 Clear 10 1007 66 10000 5.14 140 07:35 21.02.2021
2293 Clear 10 1007 66 10000 4.12 140 06:55 21.02.2021
2294 Clear 10 1009 71 10000 6.17 110 03:39 21.02.2021
2295 Clear 10 1010 76 10000 6.17 120 02:30 21.02.2021
2296 Clear 11 1010 71 10000 6.69 130 00:44 21.02.2021
2297 Clear 12 1010 62 10000 6.17 120 00:19 21.02.2021
2298 Clear 12 1010 41 10000 4.63 110 23:25 20.02.2021
2299 Clear 13 1010 38 10000 2.57 130 22:46 20.02.2021
2300 Clear 13 1010 38 10000 2.57 130 22:27 20.02.2021
2301 Clear 14 1010 33 10000 2.06 180 21:45 20.02.2021
2302 Clear 14 1010 33 10000 2.06 180 21:26 20.02.2021
2303 Clear 14 1011 33 10000 3.09 190 20:48 20.02.2021
2304 Clear 14 1011 33 10000 3.6 200 20:24 20.02.2021
2305 Clear 15 1011 33 10000 3.6 180 19:52 20.02.2021
2306 Clear 15 1011 31 10000 4.12 160 19:30 20.02.2021
2307 Clear 16 1011 29 10000 4.12 170 18:41 20.02.2021
2308 Clear 17 1011 29 10000 4.12 170 18:21 20.02.2021
2309 Clear 17 1011 25 10000 5.66 170 17:41 20.02.2021
2310 Clear 17 1011 25 10000 5.66 170 17:22 20.02.2021
2311 Clear 18 1012 27 10000 5.66 170 16:33 20.02.2021
2312 Clear 17 1012 27 10000 6.17 170 15:56 20.02.2021
2313 Clear 17 1012 32 10000 6.17 190 15:36 20.02.2021
2314 Clear 17 1013 36 10000 4.12 180 14:49 20.02.2021
2315 Clear 17 1013 36 10000 4.12 180 14:24 20.02.2021
2316 Clear 17 1014 36 10000 3.09 180 13:51 20.02.2021
2317 Clear 16 1015 44 10000 4.12 150 13:27 20.02.2021
2318 Clear 15 1015 47 10000 3.09 130 12:51 20.02.2021
2319 Clear 15 1015 47 10000 3.09 130 12:32 20.02.2021
2320 Clear 14 1015 54 10000 3.09 140 11:48 20.02.2021
2321 Clear 12 1016 54 10000 3.6 130 11:30 20.02.2021
2322 Clear 12 1016 58 10000 3.09 140 10:50 20.02.2021
2323 Clear 10 1016 66 10000 2.06 130 09:59 20.02.2021
2324 Clear 9 1015 71 10000 2.57 120 09:40 20.02.2021
2325 Clear 8 1015 70 10000 2.57 130 08:49 20.02.2021
2326 Clear 7 1015 70 10000 2.57 130 08:22 20.02.2021
2327 Clear 9 1016 57 10000 2.06 140 03:41 20.02.2021
2328 Clear 9 1016 61 10000 1.03 0 02:31 20.02.2021
2329 Clear 10 1016 57 10000 1.54 150 01:51 20.02.2021
2330 Clear 10 1016 50 10000 2.06 160 00:48 20.02.2021
2331 Clear 11 1016 47 10000 2.06 160 00:24 20.02.2021
2332 Clear 12 1017 54 10000 1.54 190 23:24 19.02.2021
2333 Clear 13 1017 50 10000 2.06 180 22:42 19.02.2021
2334 Clear 12 1017 50 10000 1.54 170 22:19 19.02.2021
2335 Clear 13 1017 47 10000 2.06 160 21:39 19.02.2021
2336 Clear 13 1017 47 10000 1.54 180 21:20 19.02.2021
2337 Clear 13 1017 47 10000 1.03 190 20:40 19.02.2021
2338 Clear 14 1017 47 10000 1.03 190 20:22 19.02.2021
2339 Clear 14 1017 47 10000 0.51 0 19:43 19.02.2021
2340 Clear 16 1017 39 10000 2.57 210 19:20 19.02.2021
2341 Clear 16 1017 36 10000 3.6 210 18:43 19.02.2021
2342 Clear 16 1017 36 10000 3.6 210 18:23 19.02.2021
2343 Clear 17 1017 34 10000 4.63 210 17:24 19.02.2021
2344 Clear 17 1017 29 10000 5.14 200 16:40 19.02.2021
2345 Clear 17 1017 34 10000 5.66 200 16:21 19.02.2021
2346 Clear 17 1017 34 10000 5.66 200 15:49 19.02.2021
2347 Clear 17 1018 36 10000 3.6 180 15:27 19.02.2021
2348 Clear 16 1018 39 10000 3.6 210 14:46 19.02.2021
2349 Clear 16 1019 41 10000 3.09 190 14:26 19.02.2021
2350 Clear 15 1019 51 10000 2.57 150 13:53 19.02.2021
2351 Clear 14 1020 54 10000 2.57 120 13:30 19.02.2021
2352 Clear 13 1020 58 10000 2.06 110 12:52 19.02.2021
2353 Clear 12 1020 58 10000 2.06 110 12:24 19.02.2021
2354 Clear 12 1020 58 10000 1.54 100 11:54 19.02.2021
2355 Clear 10 1020 62 10000 1.54 90 11:26 19.02.2021
2356 Clear 10 1020 62 10000 1.54 80 10:55 19.02.2021
2357 Clear 8 1020 71 9000 1.03 0 10:32 19.02.2021
2358 Clear 7 1020 81 9000 1.54 360 09:52 19.02.2021
2359 Clear 6 1020 81 9000 1.54 360 09:27 19.02.2021
2360 Clear 6 1020 81 9000 1.54 360 08:54 19.02.2021
2361 Clear 5 1019 87 9000 0.79 184 08:26 19.02.2021
2362 Clear 5 1019 87 9000 0.51 0 07:54 19.02.2021
2363 Clear 6 1019 87 10000 0.51 0 07:35 19.02.2021
2364 Clear 6 1019 87 10000 0.88 210 06:55 19.02.2021
2365 Clear 6 1019 87 10000 1.03 10 06:27 19.02.2021
2366 Clear 7 1019 87 10000 0.51 60 04:41 19.02.2021
2367 Clear 6 1019 87 10000 0.51 0 04:41 19.02.2021
2368 Clear 8 1020 81 10000 1.77 210 01:49 19.02.2021
2369 Clear 9 1020 76 10000 1.03 180 00:38 19.02.2021
2370 Clear 9 1020 76 10000 2.7 215 23:56 18.02.2021
2371 Clear 10 1020 71 10000 0.51 0 23:35 18.02.2021
2372 Clear 10 1020 71 10000 1.03 0 22:51 18.02.2021
2373 Clouds 10 1020 71 9000 0.51 180 22:30 18.02.2021
2374 Clear 10 1020 71 10000 1.54 210 21:56 18.02.2021
2375 Clouds 11 1020 62 9000 1.54 220 21:28 18.02.2021
2376 Clouds 12 1019 58 9000 2.06 200 20:58 18.02.2021
2377 Clouds 12 1019 58 9000 2.06 210 20:38 18.02.2021
2378 Clouds 13 1019 50 9000 2.06 200 20:19 18.02.2021
2379 Clouds 13 1018 47 9000 3.09 220 19:43 18.02.2021
2380 Clouds 14 1018 44 8000 5.14 230 19:19 18.02.2021
2381 Clouds 14 1018 44 8000 5.14 230 18:47 18.02.2021
2382 Clouds 15 1018 38 8000 7.2 240 18:25 18.02.2021
2383 Clouds 15 1018 36 8000 7.72 240 17:45 18.02.2021
2384 Clouds 16 1018 36 8000 7.72 240 17:23 18.02.2021
2385 Clear 16 1018 36 10000 7.72 220 16:44 18.02.2021
2386 Clear 16 1018 36 10000 7.72 220 16:26 18.02.2021
2387 Clear 16 1018 41 10000 7.2 220 15:42 18.02.2021
2388 Clear 16 1018 41 10000 7.2 220 15:22 18.02.2021
2389 Clear 16 1019 44 10000 6.69 230 14:50 18.02.2021
2390 Clear 15 1019 48 10000 5.66 240 14:30 18.02.2021
2391 Clear 14 1019 44 10000 4.12 200 13:49 18.02.2021
2392 Clear 14 1019 55 10000 2.06 190 13:21 18.02.2021
2393 Clear 13 1019 55 10000 2.06 190 12:54 18.02.2021
2394 Clear 12 1020 76 10000 1.03 0 12:30 18.02.2021
2395 Clear 11 1019 66 10000 0.51 0 11:47 18.02.2021
2396 Clear 12 1019 62 10000 1.03 0 11:47 18.02.2021
2397 Clear 11 1019 66 10000 0.51 0 11:27 18.02.2021
2398 Clear 10 1020 71 10000 1.03 0 10:57 18.02.2021
2399 Clear 9 1019 71 10000 0.51 0 10:36 18.02.2021
2400 Clear 9 1019 76 10000 0.51 0 10:18 18.02.2021
2401 Clear 7 1019 87 10000 0.51 0 09:28 18.02.2021
2402 Clear 5 1018 100 10000 1.03 110 08:49 18.02.2021
2403 Clear 5 1018 100 10000 1.03 110 08:31 18.02.2021
2404 Clear 5 1018 100 10000 0.51 0 07:48 18.02.2021
2405 Clear 5 1018 100 10000 0.82 238 07:20 18.02.2021
2406 Clear 6 1018 93 10000 0.78 229 05:42 18.02.2021
2407 Clear 6 1018 93 10000 0.78 229 05:42 18.02.2021
2408 Clear 6 1018 93 10000 0.78 229 05:42 18.02.2021
2409 Clear 6 1018 93 10000 0.78 229 05:42 18.02.2021
2410 Clear 10 1020 87 10000 1.25 226 00:29 18.02.2021
2411 Clear 10 1020 76 10000 0.51 10 23:38 17.02.2021
2412 Clear 10 1020 71 10000 1.03 0 22:59 17.02.2021
2413 Clear 10 1020 76 10000 1.03 0 22:39 17.02.2021
2414 Clear 11 1020 76 10000 1.03 270 22:21 17.02.2021
2415 Clear 11 1020 71 10000 1.03 300 21:44 17.02.2021
2416 Clear 12 1020 71 10000 1.03 300 21:20 17.02.2021
2417 Clear 13 1020 67 10000 1.01 209 20:42 17.02.2021
2418 Clear 13 1020 66 10000 0.96 229 20:22 17.02.2021
2419 Clear 14 1020 62 10000 1.03 210 19:38 17.02.2021
2420 Clear 14 1020 55 10000 2.06 210 18:59 17.02.2021
2421 Clear 15 1020 51 10000 3.09 190 18:40 17.02.2021
2422 Clear 16 1021 48 10000 2.06 210 17:47 17.02.2021
2423 Clear 16 1021 48 10000 2.06 210 17:23 17.02.2021
2424 Clear 16 1021 51 10000 2.57 170 16:54 17.02.2021
2425 Clear 16 1021 51 10000 2.06 190 16:36 17.02.2021
2426 Clear 16 1021 55 10000 2.06 180 16:18 17.02.2021
2427 Clear 15 1022 58 10000 2.06 180 15:42 17.02.2021
2428 Clear 15 1022 58 10000 2.06 180 15:22 17.02.2021
2429 Clear 14 1023 58 10000 1.54 190 14:44 17.02.2021
2430 Clear 14 1023 58 10000 1.54 190 14:26 17.02.2021
2431 Clear 13 1024 67 10000 1.54 130 13:45 17.02.2021
2432 Clear 13 1025 71 10000 1.54 130 12:59 17.02.2021
2433 Clear 12 1025 71 10000 1.54 130 12:26 17.02.2021
2434 Clear 12 1025 71 10000 1.54 130 11:59 17.02.2021
2435 Clear 11 1025 71 10000 1.03 0 11:36 17.02.2021
2436 Clear 10 1025 71 10000 1.03 0 11:18 17.02.2021
2437 Clear 10 1025 71 10000 0.55 101 10:43 17.02.2021
2438 Clear 9 1025 71 10000 0.8 103 10:21 17.02.2021
2439 Clear 8 1024 87 10000 1.03 0 09:41 17.02.2021
2440 Clouds 7 1024 93 8000 0.55 110 09:19 17.02.2021
2441 Clouds 7 1024 93 8000 0.55 110 08:42 17.02.2021
2442 Clouds 6 1024 93 8000 0.55 116 08:21 17.02.2021
2443 Clear 6 1024 100 10000 1.03 0 07:25 17.02.2021
2444 Clear 7 1024 87 10000 1.03 110 04:54 17.02.2021
2445 Clear 9 1025 76 10000 2.06 160 02:33 17.02.2021
2446 Clear 9 1025 87 10000 1.54 150 01:49 17.02.2021
2447 Clear 9 1025 81 10000 3.09 240 00:32 17.02.2021
2448 Clear 10 1025 81 10000 3.09 250 23:53 16.02.2021
2449 Clear 11 1025 81 10000 2.06 240 23:34 16.02.2021
2450 Clear 11 1025 66 10000 3.09 220 22:42 16.02.2021
2451 Clear 11 1025 66 10000 3.09 220 22:23 16.02.2021
2452 Clear 11 1025 66 10000 3.09 220 21:42 16.02.2021
2453 Clear 12 1025 66 10000 3.09 220 21:22 16.02.2021
2454 Clear 11 1025 76 10000 2.57 230 20:58 16.02.2021
2455 Clear 12 1025 66 10000 2.57 200 20:39 16.02.2021
2456 Clear 13 1025 66 10000 1.54 250 20:20 16.02.2021
2457 Clear 13 1025 62 10000 4.12 230 19:40 16.02.2021
2458 Clear 13 1025 62 10000 4.12 230 19:22 16.02.2021
2459 Clear 15 1025 55 10000 3.09 220 18:40 16.02.2021
2460 Clear 15 1025 55 10000 3.09 220 18:21 16.02.2021
2461 Clear 15 1025 55 10000 4.12 220 17:50 16.02.2021
2462 Clear 15 1025 55 10000 3.09 190 17:25 16.02.2021
2463 Clear 15 1025 55 10000 3.09 190 16:51 16.02.2021
2464 Clear 15 1026 58 10000 4.12 210 16:27 16.02.2021
2465 Clear 14 1026 58 10000 3.6 190 15:47 16.02.2021
2466 Clear 14 1026 54 10000 3.6 180 15:26 16.02.2021
2467 Clear 13 1027 58 10000 1.54 200 14:50 16.02.2021
2468 Clear 13 1027 62 10000 0.51 170 14:32 16.02.2021
2469 Clear 13 1028 62 10000 1.03 0 13:58 16.02.2021
2470 Clear 12 1028 58 10000 1.03 0 13:34 16.02.2021
2471 Clear 12 1028 66 10000 1.03 0 12:47 16.02.2021
2472 Clouds 11 1028 71 8000 1.54 110 12:26 16.02.2021
2473 Smoke 10 1028 71 4500 2.06 110 11:50 16.02.2021
2474 Clear 9 1028 81 10000 2.57 100 11:24 16.02.2021
2475 Clear 8 1028 76 10000 2.06 80 10:57 16.02.2021
2476 Clear 8 1028 81 10000 1.54 100 10:38 16.02.2021
2477 Clear 7 1028 81 10000 1.54 100 10:20 16.02.2021
2478 Clouds 8 1028 76 10000 0.51 0 09:47 16.02.2021
2479 Clouds 7 1028 87 10000 1.61 77 09:26 16.02.2021
2480 Clear 6 1028 87 10000 2.06 360 08:45 16.02.2021
2481 Clouds 6 1028 87 10000 1.03 0 08:45 16.02.2021
2482 Clear 6 1028 87 10000 2.06 360 08:22 16.02.2021
2483 Clear 5 1028 93 10000 0.51 0 07:30 16.02.2021
2484 Clear 6 1028 81 10000 1.03 0 06:21 16.02.2021
2485 Clear 9 1030 76 10000 1.54 60 01:21 16.02.2021
2486 Clear 9 1031 81 10000 2.06 90 23:46 15.02.2021
2487 Clear 10 1031 76 10000 2.57 90 23:24 15.02.2021
2488 Clear 10 1031 76 10000 2.06 90 22:46 15.02.2021
2489 Clear 11 1031 76 10000 2.06 90 22:23 15.02.2021
2490 Clear 11 1030 71 10000 2.57 90 21:42 15.02.2021
2491 Clear 11 1030 66 10000 2.57 100 21:23 15.02.2021
2492 Clear 12 1030 66 10000 2.57 100 20:49 15.02.2021
2493 Clouds 12 1030 71 10000 0.51 0 20:29 15.02.2021
2494 Clouds 12 1030 67 10000 2.06 140 19:48 15.02.2021
2495 Clouds 13 1030 67 10000 2.06 140 19:24 15.02.2021
2496 Clouds 14 1030 58 10000 1.54 140 18:49 15.02.2021
2497 Clouds 15 1030 51 10000 1.54 130 18:26 15.02.2021
2498 Clouds 15 1030 51 10000 1.54 130 17:45 15.02.2021
2499 Clouds 15 1030 58 10000 3.09 170 17:27 15.02.2021
2500 Clouds 15 1030 58 10000 3.09 130 16:57 15.02.2021
2501 Clouds 15 1030 58 10000 3.09 150 16:29 15.02.2021
2502 Clouds 15 1031 63 10000 2.57 110 15:58 15.02.2021
2503 Clouds 14 1031 62 10000 1.54 50 15:40 15.02.2021
2504 Clouds 14 1031 58 10000 2.06 0 15:18 15.02.2021
2505 Clouds 13 1032 62 10000 2.57 80 14:40 15.02.2021
2506 Clouds 13 1032 62 10000 2.57 80 14:20 15.02.2021
2507 Clouds 12 1032 62 10000 2.06 0 13:48 15.02.2021
2508 Clouds 12 1033 66 10000 3.09 90 13:20 15.02.2021
2509 Clouds 12 1033 66 10000 3.09 90 13:20 15.02.2021
2510 Clouds 12 1034 66 10000 2.06 70 12:45 15.02.2021
2511 Clouds 11 1034 71 10000 2.57 70 12:21 15.02.2021
2512 Clouds 11 1034 71 10000 2.57 70 11:49 15.02.2021
2513 Clouds 10 1034 71 10000 2.57 60 11:22 15.02.2021
2514 Clouds 10 1033 76 10000 2.57 70 10:50 15.02.2021
2515 Clouds 9 1033 76 10000 2.57 70 10:25 15.02.2021
2516 Clouds 9 1033 81 10000 2.06 50 09:56 15.02.2021
2517 Clouds 8 1033 76 10000 2.06 60 09:33 15.02.2021
2518 Clouds 7 1032 87 10000 1.54 30 08:55 15.02.2021
2519 Clouds 7 1032 87 10000 2.06 50 07:49 15.02.2021
2520 Clouds 7 1032 87 10000 1.54 60 06:59 15.02.2021
2521 Clouds 7 1032 87 10000 1.54 50 06:40 15.02.2021
2522 Clear 9 1032 81 10000 2.06 80 02:32 15.02.2021
2523 Clear 10 1032 76 10000 2.57 80 00:55 15.02.2021
2524 Clear 11 1031 71 10000 1.54 80 23:42 14.02.2021
2525 Clear 11 1031 71 10000 1.54 80 23:22 14.02.2021
2526 Clear 11 1031 76 10000 1.03 10 22:39 14.02.2021
2527 Clear 11 1031 76 10000 1.03 10 22:19 14.02.2021
2528 Clear 11 1031 71 10000 0.51 40 21:48 14.02.2021
2529 Clear 11 1031 71 10000 0.51 40 21:29 14.02.2021
2530 Clear 12 1030 62 10000 1.78 115 20:52 14.02.2021
2531 Clear 13 1030 62 10000 1.68 122 20:27 14.02.2021
2532 Clear 13 1030 54 10000 1.54 120 19:48 14.02.2021
2533 Clear 14 1029 58 10000 1.54 140 18:56 14.02.2021
2534 Clear 14 1029 54 10000 2.06 140 18:37 14.02.2021
2535 Clear 15 1029 51 10000 1.54 0 17:57 14.02.2021
2536 Clear 16 1029 48 10000 2.06 0 17:36 14.02.2021
2537 Clear 15 1029 48 10000 2.06 110 16:55 14.02.2021
2538 Clear 15 1029 51 10000 2.57 170 16:29 14.02.2021
2539 Clear 15 1029 55 10000 2.57 140 15:49 14.02.2021
2540 Clear 15 1029 55 10000 2.57 140 15:31 14.02.2021
2541 Clear 15 1030 51 10000 2.06 0 14:49 14.02.2021
2542 Clear 14 1030 54 10000 2.57 120 14:27 14.02.2021
2543 Clear 14 1030 54 10000 2.57 110 13:53 14.02.2021
2544 Clear 13 1030 51 10000 1.03 0 13:30 14.02.2021
2545 Clear 12 1030 62 10000 1.54 60 12:40 14.02.2021
2546 Clear 11 1030 66 10000 2.06 80 12:19 14.02.2021
2547 Clear 11 1030 66 10000 2.06 80 11:50 14.02.2021
2548 Clear 9 1030 71 10000 2.06 70 11:21 14.02.2021
2549 Clear 8 1030 76 10000 1.03 0 10:37 14.02.2021
2550 Clear 7 1029 76 10000 1.85 70 09:55 14.02.2021
2551 Clear 6 1029 76 10000 1.03 0 09:37 14.02.2021
2552 Clear 6 1029 76 10000 1.03 0 09:19 14.02.2021
2553 Clear 5 1029 100 10000 1.54 64 08:35 14.02.2021
2554 Clear 4 1028 100 10000 1.25 55 07:55 14.02.2021
2555 Clear 6 1028 93 10000 1.03 0 06:37 14.02.2021
2556 Clear 6 1028 93 10000 0.51 0 04:52 14.02.2021
2557 Clear 8 1028 87 10000 1.03 0 03:23 14.02.2021
2558 Clear 8 1028 81 10000 1.03 170 01:42 14.02.2021
2559 Clear 9 1028 81 10000 0.51 0 00:46 14.02.2021
2560 Clear 10 1028 76 10000 1.03 0 23:59 13.02.2021
2561 Clear 10 1027 76 10000 1.03 0 23:38 13.02.2021
2562 Clear 10 1027 76 10000 1.03 0 23:20 13.02.2021
2563 Clear 11 1027 66 10000 1.03 0 22:33 13.02.2021
2564 Clear 11 1027 71 10000 1.03 0 21:53 13.02.2021
2565 Clear 11 1027 66 10000 1.54 310 21:35 13.02.2021
2566 Clear 11 1027 66 10000 1.54 310 21:35 13.02.2021
2567 Clear 11 1027 71 10000 2.57 280 20:49 13.02.2021
2568 Clouds 12 1026 62 10000 1.54 310 20:28 13.02.2021
2569 Clouds 13 1026 54 10000 4.12 290 19:49 13.02.2021
2570 Clouds 13 1026 54 10000 4.12 290 19:49 13.02.2021
2571 Clouds 13 1026 54 10000 4.12 290 19:24 13.02.2021
2572 Clouds 15 1025 44 10000 4.12 270 18:50 13.02.2021
2573 Clouds 15 1025 44 10000 4.12 270 18:28 13.02.2021
2574 Clouds 16 1025 42 10000 3.6 260 17:45 13.02.2021
2575 Clouds 16 1025 42 10000 3.6 260 17:26 13.02.2021
2576 Clouds 16 1025 39 10000 4.12 280 16:55 13.02.2021
2577 Clear 16 1025 36 10000 4.12 280 16:37 13.02.2021
2578 Clear 16 1025 36 10000 3.09 250 15:46 13.02.2021
2579 Clear 15 1025 36 10000 3.09 250 15:26 13.02.2021
2580 Clear 14 1026 41 10000 3.6 260 14:41 13.02.2021
2581 Clear 13 1026 54 10000 2.57 240 14:19 13.02.2021
2582 Clear 13 1027 62 10000 2.06 250 13:40 13.02.2021
2583 Clear 12 1027 62 10000 0.51 0 13:22 13.02.2021
2584 Clear 11 1026 66 10000 2.57 190 12:36 13.02.2021
2585 Clear 11 1026 66 10000 2.57 190 12:18 13.02.2021
2586 Clear 10 1026 71 10000 1.03 0 11:40 13.02.2021
2587 Clear 9 1026 76 10000 1.03 0 11:18 13.02.2021
2588 Clear 8 1026 87 10000 2.06 230 10:43 13.02.2021
2589 Clear 8 1026 87 10000 2.06 230 10:23 13.02.2021
2590 Clear 7 1025 87 10000 0.51 0 09:48 13.02.2021
2591 Clear 7 1025 87 10000 1.43 216 09:28 13.02.2021
2592 Clear 6 1025 87 10000 1.54 190 08:50 13.02.2021
2593 Clear 6 1025 87 10000 2.06 230 08:19 13.02.2021
2594 Clear 7 1025 87 10000 2.06 230 07:23 13.02.2021
2595 Clear 7 1024 87 10000 3.09 250 06:24 13.02.2021
2596 Clear 8 1025 81 10000 3.6 250 04:31 13.02.2021
2597 Clear 9 1025 76 10000 3.6 250 02:41 13.02.2021
2598 Clear 9 1024 76 10000 4.12 260 00:56 13.02.2021
2599 Clear 9 1024 76 10000 4.12 260 00:56 13.02.2021
2600 Clear 9 1024 76 10000 5.14 270 00:18 13.02.2021
2601 Clear 10 1024 76 10000 3.6 260 23:45 12.02.2021
2602 Clear 10 1024 71 10000 5.14 280 23:18 12.02.2021
2603 Clear 10 1024 71 10000 5.14 260 22:32 12.02.2021
2604 Clear 10 1024 71 10000 7.72 260 21:58 12.02.2021
2605 Clear 10 1024 71 10000 7.72 260 21:58 12.02.2021
2606 Clear 10 1023 71 10000 3.09 270 21:39 12.02.2021
2607 Clear 11 1023 71 10000 3.09 270 21:21 12.02.2021
2608 Clear 11 1023 66 10000 7.2 270 20:40 12.02.2021
2609 Clear 11 1023 66 10000 7.2 270 20:21 12.02.2021
2610 Clouds 11 1023 76 10000 5.14 250 19:49 12.02.2021
2611 Clouds 12 1023 66 10000 3.09 220 19:28 12.02.2021
2612 Clouds 13 1022 62 10000 7.2 270 18:35 12.02.2021
2613 Clouds 13 1022 54 10000 6.69 270 17:54 12.02.2021
2614 Clouds 14 1022 51 10000 5.14 270 17:35 12.02.2021
2615 Clouds 14 1021 54 10000 4.12 270 16:53 12.02.2021
2616 Clouds 14 1021 51 10000 6.17 270 16:18 12.02.2021
2617 Clouds 14 1021 54 10000 9.26 260 15:41 12.02.2021
2618 Clouds 14 1021 51 10000 8.75 270 15:19 12.02.2021
2619 Clouds 14 1021 58 10000 8.23 270 14:34 12.02.2021
2620 Clouds 13 1021 58 10000 9.26 270 13:49 12.02.2021
2621 Clouds 13 1021 58 10000 8.23 260 13:29 12.02.2021
2622 Clouds 13 1021 58 10000 8.75 270 12:53 12.02.2021
2623 Clouds 12 1021 62 10000 6.69 270 12:35 12.02.2021
2624 Clouds 12 1021 62 10000 8.75 270 11:47 12.02.2021
2625 Clouds 12 1020 66 10000 7.2 270 11:21 12.02.2021
2626 Clouds 11 1019 76 10000 6.69 260 10:48 12.02.2021
2627 Clouds 10 1019 81 10000 5.66 260 09:59 12.02.2021
2628 Clouds 10 1019 93 10000 5.66 250 09:39 12.02.2021
2629 Clouds 10 1019 93 10000 5.14 240 09:21 12.02.2021
2630 Clouds 10 1018 100 10000 3.09 220 08:44 12.02.2021
2631 Clouds 10 1018 100 10000 3.09 220 08:21 12.02.2021
2632 Drizzle 10 1018 93 6000 7.2 220 07:51 12.02.2021
2633 Drizzle 10 1018 93 6000 7.2 220 07:21 12.02.2021
2634 Mist 10 1017 93 5000 4.12 210 06:18 12.02.2021
2635 Mist 10 1017 93 3900 3.6 200 05:29 12.02.2021
2636 Clouds 11 1018 100 8000 2.57 170 03:32 12.02.2021
2637 Mist 11 1019 94 5000 3.09 220 00:28 12.02.2021
2638 Mist 11 1019 94 3700 2.57 180 23:23 11.02.2021
2639 Mist 11 1019 94 4000 1.54 180 22:59 11.02.2021
2640 Clouds 11 1019 100 10000 1.54 200 22:41 11.02.2021
2641 Clouds 11 1020 94 6000 2.06 180 22:21 11.02.2021
2642 Clouds 11 1020 94 10000 2.57 180 21:43 11.02.2021
2643 Clouds 11 1020 94 9000 2.06 190 21:24 11.02.2021
2644 Clouds 12 1020 94 8000 2.06 180 20:47 11.02.2021
2645 Clouds 12 1020 94 8000 2.06 180 20:23 11.02.2021
2646 Clouds 12 1020 100 10000 2.06 190 19:52 11.02.2021
2647 Mist 12 1020 94 4500 2.06 210 19:34 11.02.2021
2648 Mist 12 1020 94 4000 3.6 210 18:59 11.02.2021
2649 Mist 12 1019 94 4500 3.09 210 18:31 11.02.2021
2650 Clouds 13 1019 88 10000 3.6 210 17:58 11.02.2021
2651 Clouds 13 1020 88 10000 3.09 220 17:37 11.02.2021
2652 Clouds 12 1020 88 10000 4.12 220 17:19 11.02.2021
2653 Clouds 12 1020 88 10000 3.6 230 16:41 11.02.2021
2654 Clouds 12 1020 88 10000 3.6 230 16:23 11.02.2021
2655 Clouds 12 1020 94 7000 4.12 220 15:44 11.02.2021
2656 Clouds 12 1020 94 8000 4.63 220 15:44 11.02.2021
2657 Clouds 12 1020 94 8000 4.63 220 15:26 11.02.2021
2658 Clouds 12 1020 88 8000 4.12 210 14:51 11.02.2021
2659 Clouds 12 1020 88 10000 3.6 220 14:30 11.02.2021
2660 Clouds 12 1021 88 10000 2.57 210 13:42 11.02.2021
2661 Clouds 12 1021 88 10000 2.57 210 13:19 11.02.2021
2662 Clouds 11 1021 88 10000 3.09 220 12:53 11.02.2021
2663 Clouds 11 1021 94 10000 3.09 220 12:32 11.02.2021
2664 Mist 10 1021 100 5000 0.51 260 11:47 11.02.2021
2665 Clouds 10 1021 100 10000 2.57 240 11:47 11.02.2021
2666 Mist 10 1021 100 5000 0.51 260 11:26 11.02.2021
2667 Fog 9 1020 93 400 0.51 0 10:45 11.02.2021
2668 Fog 9 1020 93 400 0.51 0 10:26 11.02.2021
2669 Fog 9 1020 100 450 1.54 210 09:54 11.02.2021
2670 Fog 9 1020 100 350 2.06 240 09:24 11.02.2021
2671 Fog 9 1020 100 250 1.54 250 08:54 11.02.2021
2672 Fog 8 1019 100 300 0.51 0 08:28 11.02.2021
2673 Clouds 8 1019 93 10000 2.14 231 07:38 11.02.2021
2674 Clear 8 1019 93 10000 1.03 0 06:41 11.02.2021
2675 Clouds 8 1019 87 10000 0.51 0 05:38 11.02.2021
2676 Clear 9 1019 87 10000 4.63 230 02:29 11.02.2021
2677 Clouds 9 1018 81 10000 4.12 230 01:29 11.02.2021
2678 Clear 8 1017 81 10000 4.12 230 00:22 11.02.2021
2679 Clear 8 1017 87 10000 4.63 240 23:45 10.02.2021
2680 Clear 8 1017 87 10000 4.12 240 22:53 10.02.2021
2681 Clear 9 1017 81 10000 4.12 240 22:31 10.02.2021
2682 Clear 9 1016 81 10000 3.6 240 21:59 10.02.2021
2683 Clear 9 1016 81 10000 4.63 240 21:38 10.02.2021
2684 Clear 10 1016 81 10000 4.63 240 21:19 10.02.2021
2685 Clear 10 1016 71 10000 3.6 240 20:41 10.02.2021
2686 Clear 11 1015 66 10000 3.6 210 20:22 10.02.2021
2687 Clear 11 1015 66 10000 3.6 210 19:46 10.02.2021
2688 Clear 11 1015 66 10000 4.63 230 19:25 10.02.2021
2689 Clear 12 1014 62 10000 3.6 220 18:44 10.02.2021
2690 Clear 13 1014 58 10000 6.69 230 18:23 10.02.2021
2691 Clouds 13 1014 62 10000 5.66 220 17:57 10.02.2021
2692 Clouds 13 1013 54 10000 6.17 230 17:24 10.02.2021
2693 Clouds 14 1013 58 10000 5.66 220 16:57 10.02.2021
2694 Clouds 14 1013 58 10000 7.2 230 16:31 10.02.2021
2695 Clouds 14 1012 51 10000 4.63 220 15:59 10.02.2021
2696 Clouds 14 1012 54 10000 5.66 240 15:24 10.02.2021
2697 Clouds 14 1012 47 10000 8.23 250 14:52 10.02.2021
2698 Clouds 13 1012 47 10000 6.17 260 14:31 10.02.2021
2699 Clouds 12 1012 50 10000 7.2 260 13:53 10.02.2021
2700 Clouds 12 1012 54 10000 9.26 260 13:29 10.02.2021
2701 Clouds 11 1012 54 10000 6.17 280 12:52 10.02.2021
2702 Clouds 11 1012 54 10000 7.72 280 12:30 10.02.2021
2703 Clouds 10 1011 58 10000 7.2 280 11:56 10.02.2021
2704 Clouds 10 1011 66 10000 7.72 260 11:37 10.02.2021
2705 Clouds 9 1010 71 10000 8.75 250 11:19 10.02.2021
2706 Clouds 9 1009 76 10000 6.69 260 10:23 10.02.2021
2707 Clouds 8 1009 93 10000 4.63 250 09:53 10.02.2021
2708 Clouds 8 1008 87 10000 5.14 250 09:30 10.02.2021
2709 Clouds 8 1007 93 10000 4.12 260 08:52 10.02.2021
2710 Clouds 7 1006 93 10000 5.66 250 08:32 10.02.2021
2711 Clouds 7 1005 93 10000 7.72 240 07:34 10.02.2021
2712 Clear 7 1004 93 10000 5.66 230 06:21 10.02.2021
2713 Clouds 8 1004 87 10000 8.23 230 01:24 10.02.2021
2714 Clouds 8 1004 87 10000 7.2 230 23:49 09.02.2021
2715 Clouds 8 1004 87 10000 6.69 230 23:30 09.02.2021
2716 Clouds 8 1003 81 10000 9.77 220 22:45 09.02.2021
2717 Clouds 8 1003 81 10000 9.77 220 22:23 09.02.2021
2718 Rain 8 1003 93 2900 8.23 230 21:48 09.02.2021
2719 Rain 8 1003 87 7000 8.23 230 21:21 09.02.2021
2720 Clouds 8 1003 87 10000 7.72 230 20:44 09.02.2021
2721 Clouds 9 1002 87 10000 8.23 220 20:25 09.02.2021
2722 Clouds 9 1002 87 10000 8.75 220 19:44 09.02.2021
2723 Clouds 9 1002 87 10000 7.2 210 19:23 09.02.2021
2724 Clouds 9 1002 87 10000 6.69 220 18:49 09.02.2021
2725 Clouds 9 1002 87 10000 6.69 220 18:30 09.02.2021
2726 Clouds 9 1002 87 10000 7.2 220 17:50 09.02.2021
2727 Clouds 9 1002 87 10000 7.2 220 17:50 09.02.2021
2728 Clouds 8 1002 93 9000 4.12 200 17:27 09.02.2021
2729 Clouds 7 1002 93 10000 3.6 240 16:54 09.02.2021
2730 Clouds 7 1003 100 8000 7.2 270 16:20 09.02.2021
2731 Clouds 7 1003 100 8000 7.2 270 15:58 09.02.2021
2732 Rain 6 1002 100 6000 8.23 250 15:39 09.02.2021
2733 Rain 8 1003 87 2000 13.38 270 15:20 09.02.2021
2734 Rain 9 1001 93 9000 10.29 200 14:42 09.02.2021
2735 Clouds 9 1001 93 9000 8.23 200 14:21 09.02.2021
2736 Rain 10 1003 87 7000 8.75 200 13:41 09.02.2021
2737 Rain 10 1003 87 8000 7.2 190 13:20 09.02.2021
2738 Clouds 10 1003 87 8000 7.2 190 12:47 09.02.2021
2739 Clouds 9 1003 93 8000 7.72 190 12:27 09.02.2021
2740 Clouds 9 1004 87 9000 7.72 190 11:44 09.02.2021
2741 Clouds 9 1004 87 10000 7.2 190 11:21 09.02.2021
2742 Clouds 8 1005 87 10000 6.69 190 10:57 09.02.2021
2743 Clouds 7 1005 93 9000 4.12 170 10:23 09.02.2021
2744 Clouds 7 1005 93 9000 4.12 170 09:54 09.02.2021
2745 Clouds 7 1006 93 3500 2.57 180 09:27 09.02.2021
2746 Clouds 7 1006 93 9000 4.12 170 08:57 09.02.2021
2747 Clouds 7 1006 93 9000 4.12 170 08:29 09.02.2021
2748 Clouds 6 1006 93 10000 3.09 170 07:53 09.02.2021
2749 Mist 6 1008 93 2300 4.63 190 05:35 09.02.2021
2750 Clouds 6 1009 87 9000 4.63 220 03:49 09.02.2021
2751 Rain 7 1009 87 10000 3.6 210 01:52 09.02.2021
2752 Clear 7 1008 87 10000 5.14 230 00:31 09.02.2021
2753 Clear 7 1007 87 10000 6.17 240 23:40 08.02.2021
2754 Clear 7 1007 87 10000 6.17 240 23:18 08.02.2021
2755 Clouds 8 1007 81 10000 6.17 230 22:42 08.02.2021
2756 Clouds 8 1007 81 10000 6.17 230 22:22 08.02.2021
2757 Clouds 8 1006 81 10000 7.72 240 21:45 08.02.2021
2758 Clouds 8 1006 76 10000 9.77 240 21:22 08.02.2021
2759 Clouds 8 1006 76 10000 9.77 240 20:44 08.02.2021
2760 Clouds 9 1005 81 10000 9.26 240 20:24 08.02.2021
2761 Clouds 9 1005 81 10000 9.77 240 19:58 08.02.2021
2762 Clouds 9 1004 81 10000 8.75 240 19:39 08.02.2021
2763 Clouds 9 1004 81 10000 8.75 240 19:19 08.02.2021
2764 Clouds 10 1004 76 10000 9.26 240 18:41 08.02.2021
2765 Clouds 9 1004 76 10000 9.26 240 18:18 08.02.2021
2766 Clouds 10 1003 76 10000 8.75 230 17:43 08.02.2021
2767 Clouds 10 1003 76 10000 8.75 230 17:22 08.02.2021
2768 Clouds 10 1003 71 10000 8.75 230 16:40 08.02.2021
2769 Clouds 11 1002 71 10000 9.26 230 16:20 08.02.2021
2770 Clouds 10 1003 81 9000 6.69 240 15:40 08.02.2021
2771 Clouds 10 1003 81 9000 6.69 240 15:19 08.02.2021
2772 Rain 10 1003 71 10000 9.77 230 14:51 08.02.2021
2773 Clouds 11 1003 71 10000 9.26 230 14:29 08.02.2021
2774 Clouds 10 1003 81 10000 9.26 230 13:56 08.02.2021
2775 Clouds 9 1003 76 10000 9.26 230 13:29 08.02.2021
2776 Clouds 9 1004 81 10000 9.77 240 12:51 08.02.2021
2777 Clouds 8 1004 81 10000 8.75 240 12:32 08.02.2021
2778 Clouds 8 1003 93 10000 8.75 240 11:42 08.02.2021
2779 Clouds 8 1003 87 10000 7.72 240 11:18 08.02.2021
2780 Clouds 7 1003 100 10000 7.2 240 10:42 08.02.2021
2781 Clouds 7 1003 100 10000 7.2 240 10:23 08.02.2021
2782 Clouds 7 1002 93 10000 4.12 240 09:50 08.02.2021
2783 Clouds 6 1002 93 10000 4.12 240 09:22 08.02.2021
2784 Clouds 6 1001 100 10000 2.57 250 08:31 08.02.2021
2785 Clouds 6 1001 100 10000 1.54 220 07:49 08.02.2021
2786 Clouds 6 1001 93 10000 2.57 260 07:22 08.02.2021
2787 Rain 6 1002 93 7000 2.57 190 05:29 08.02.2021
2788 Clouds 6 1005 93 10000 5.14 210 02:28 08.02.2021
2789 Clouds 6 1006 93 6000 6.17 210 00:43 08.02.2021
2790 Clouds 6 1007 100 10000 8.75 230 00:18 08.02.2021
2791 Clouds 6 1007 93 10000 8.23 230 23:46 07.02.2021
2792 Clouds 6 1007 93 10000 8.23 230 23:19 07.02.2021
2793 Clouds 6 1007 87 10000 7.2 230 22:43 07.02.2021
2794 Clouds 6 1007 93 10000 7.72 230 22:24 07.02.2021
2795 Clouds 6 1008 93 10000 8.23 230 21:51 07.02.2021
2796 Clouds 6 1008 93 10000 8.75 230 21:26 07.02.2021
2797 Clouds 6 1008 100 10000 7.72 230 20:53 07.02.2021
2798 Clouds 7 1008 100 10000 8.75 230 20:33 07.02.2021
2799 Clouds 7 1007 93 9000 7.72 230 19:55 07.02.2021
2800 Clouds 8 1007 87 10000 7.72 230 19:30 07.02.2021
2801 Clouds 9 1007 76 10000 7.72 230 18:55 07.02.2021
2802 Clouds 9 1007 81 10000 6.17 230 18:35 07.02.2021
2803 Clouds 9 1006 76 10000 6.69 230 17:59 07.02.2021
2804 Clouds 9 1006 71 10000 6.69 230 17:40 07.02.2021
2805 Clouds 10 1006 66 10000 7.2 230 17:19 07.02.2021
2806 Clouds 10 1006 71 10000 6.69 220 16:45 07.02.2021
2807 Clouds 10 1006 71 10000 6.69 220 16:23 07.02.2021
2808 Clouds 11 1006 66 10000 6.17 230 15:49 07.02.2021
2809 Clouds 11 1006 58 10000 6.17 230 15:28 07.02.2021
2810 Clouds 11 1007 54 10000 6.69 240 14:49 07.02.2021
2811 Clouds 11 1007 54 10000 6.69 240 14:30 07.02.2021
2812 Clouds 11 1007 50 10000 7.2 260 13:56 07.02.2021
2813 Clouds 10 1007 50 10000 6.17 270 13:35 07.02.2021
2814 Clouds 10 1008 50 10000 5.66 270 12:54 07.02.2021
2815 Clouds 10 1008 50 10000 5.66 270 12:36 07.02.2021
2816 Clouds 10 1008 50 10000 5.66 270 12:18 07.02.2021
2817 Clouds 8 1008 61 10000 3.09 260 11:27 07.02.2021
2818 Clouds 8 1008 71 10000 2.57 180 10:51 07.02.2021
2819 Clouds 7 1008 71 10000 2.06 200 10:27 07.02.2021
2820 Clouds 6 1007 87 10000 2.57 210 09:49 07.02.2021
2821 Clouds 6 1007 87 10000 1.54 170 09:24 07.02.2021
2822 Clouds 5 1007 87 10000 1.03 260 08:36 07.02.2021
2823 Clouds 5 1006 93 10000 1.54 210 07:44 07.02.2021
2824 Clouds 6 1006 81 10000 2.06 110 05:58 07.02.2021
2825 Clear 7 1006 87 10000 2.06 310 03:55 07.02.2021
2826 Clouds 8 1006 87 10000 2.06 330 01:39 07.02.2021
2827 Clouds 8 1005 93 10000 2.06 350 00:36 07.02.2021
2828 Clouds 8 1005 87 10000 2.06 340 23:47 06.02.2021
2829 Clouds 8 1005 93 10000 1.54 360 22:48 06.02.2021
2830 Clear 8 1004 93 10000 2.89 39 21:43 06.02.2021
2831 Clear 8 1004 93 10000 1.84 8 21:23 06.02.2021
2832 Clear 8 1004 87 10000 0.51 0 20:53 06.02.2021
2833 Clouds 9 1003 93 10000 0.51 0 20:26 06.02.2021
2834 Clouds 9 1003 87 10000 1.54 270 19:58 06.02.2021
2835 Clouds 8 1003 93 10000 3.09 240 19:34 06.02.2021
2836 Clouds 9 1003 87 10000 3.6 240 18:56 06.02.2021
2837 Clouds 9 1002 87 10000 3.09 220 18:35 06.02.2021
2838 Clouds 10 1002 87 10000 1.54 320 17:56 06.02.2021
2839 Clouds 10 1002 87 8000 2.57 290 17:38 06.02.2021
2840 Clouds 11 1001 71 10000 4.12 210 17:20 06.02.2021
2841 Clouds 11 1001 76 10000 4.63 220 16:42 06.02.2021
2842 Clouds 11 1001 76 10000 4.63 220 16:24 06.02.2021
2843 Clouds 11 1001 71 10000 4.63 210 15:50 06.02.2021
2844 Clouds 11 1001 76 10000 3.6 260 15:29 06.02.2021
2845 Clouds 11 1001 76 10000 3.6 180 14:47 06.02.2021
2846 Clouds 11 1001 76 10000 3.6 180 14:28 06.02.2021
2847 Clouds 11 1002 71 10000 3.6 180 13:55 06.02.2021
2848 Clouds 11 1002 76 10000 3.6 190 13:36 06.02.2021
2849 Clouds 9 1002 87 10000 2.57 170 12:23 06.02.2021
2850 Drizzle 9 1002 93 8000 2.57 150 11:58 06.02.2021
2851 Drizzle 9 1002 93 10000 3.09 140 11:39 06.02.2021
2852 Clouds 8 1002 93 10000 3.09 140 11:19 06.02.2021
2853 Clouds 8 1002 93 6000 1.54 140 10:47 06.02.2021
2854 Clouds 8 1002 93 6000 1.54 140 10:25 06.02.2021
2855 Clouds 8 1001 93 10000 2.06 130 09:38 06.02.2021
2856 Clouds 8 1001 93 10000 2.06 140 09:19 06.02.2021
2857 Clouds 8 1001 93 10000 2.06 140 08:56 06.02.2021
2858 Clouds 8 1001 93 10000 1.54 140 08:29 06.02.2021
2859 Clouds 8 1001 87 10000 3.09 150 06:50 06.02.2021
2860 Clouds 9 1001 93 8000 3.6 170 05:39 06.02.2021
2861 Clouds 9 1002 93 8000 1.54 140 02:43 06.02.2021
2862 Clear 10 1003 93 10000 2.06 130 00:56 06.02.2021
2863 Clouds 10 1002 93 10000 1.54 140 00:37 06.02.2021
2864 Clouds 10 1002 93 10000 1.54 140 00:18 06.02.2021
2865 Clear 10 1003 93 10000 0.51 0 23:29 05.02.2021
2866 Clouds 10 1002 93 10000 3.09 80 22:50 05.02.2021
2867 Clouds 10 1003 87 10000 2.57 110 22:25 05.02.2021
2868 Clouds 10 1003 87 10000 2.57 110 22:25 05.02.2021
2869 Rain 10 1003 93 3200 5.14 200 21:56 05.02.2021
2870 Clouds 11 1002 87 7000 3.09 130 21:36 05.02.2021
2871 Rain 13 1002 76 10000 3.6 130 20:56 05.02.2021
2872 Rain 14 1001 72 10000 2.57 100 20:19 05.02.2021
2873 Clouds 14 1001 67 10000 2.06 90 19:45 05.02.2021
2874 Clouds 15 1001 63 10000 2.57 90 19:18 05.02.2021
2875 Clouds 15 1001 59 10000 2.57 90 18:40 05.02.2021
2876 Clouds 16 1001 59 10000 2.57 90 18:19 05.02.2021
2877 Clear 16 1001 55 10000 2.06 90 17:36 05.02.2021
2878 Clear 17 1001 51 10000 3.6 110 16:58 05.02.2021
2879 Clear 16 1002 55 10000 2.57 90 16:39 05.02.2021
2880 Clear 16 1002 55 10000 2.57 90 16:20 05.02.2021
2881 Clear 16 1002 55 10000 2.57 90 15:45 05.02.2021
2882 Clear 16 1002 55 10000 2.57 90 15:22 05.02.2021
2883 Clear 15 1003 58 10000 4.12 90 14:38 05.02.2021
2884 Clear 15 1004 58 10000 4.63 100 14:19 05.02.2021
2885 Clear 15 1005 58 10000 3.6 90 13:48 05.02.2021
2886 Clear 15 1005 58 10000 3.6 90 13:30 05.02.2021
2887 Clear 15 1005 58 10000 3.6 90 13:30 05.02.2021
2888 Clear 14 1005 58 10000 4.12 90 12:42 05.02.2021
2889 Clear 13 1006 62 10000 4.63 100 12:21 05.02.2021
2890 Clear 13 1006 62 10000 3.6 90 11:39 05.02.2021
2891 Clear 12 1006 62 10000 1.54 60 11:20 05.02.2021
2892 Clear 12 1006 62 10000 1.54 60 10:48 05.02.2021
2893 Clear 11 1006 62 10000 1.54 70 10:25 05.02.2021
2894 Clear 10 1005 71 10000 3.09 60 09:43 05.02.2021
2895 Clear 10 1006 76 10000 1.54 40 09:24 05.02.2021
2896 Clear 10 1006 76 10000 1.54 40 09:24 05.02.2021
2897 Clear 9 1006 81 10000 1.54 360 08:45 05.02.2021
2898 Clear 9 1006 81 10000 1.03 0 07:45 05.02.2021
2899 Clear 9 1006 81 10000 1.03 0 07:26 05.02.2021
2900 Clear 9 1006 87 10000 2.57 10 06:41 05.02.2021
2901 Clear 9 1007 81 10000 2.57 350 05:35 05.02.2021
2902 Clear 9 1009 87 10000 2.57 10 02:26 05.02.2021
2903 Clear 10 1009 87 10000 2.57 360 01:55 05.02.2021
2904 Clear 10 1010 87 10000 2.06 340 00:38 05.02.2021
2905 Clear 10 1010 87 10000 1.03 0 00:19 05.02.2021
2906 Clear 10 1010 71 10000 1.03 0 23:44 04.02.2021
2907 Clear 11 1010 76 10000 1.03 0 23:25 04.02.2021
2908 Rain 11 1010 76 10000 1.03 0 22:55 04.02.2021
2909 Clear 11 1010 76 10000 2.06 80 22:37 04.02.2021
2910 Clear 11 1010 76 10000 2.06 80 22:18 04.02.2021
2911 Clear 11 1010 82 10000 1.03 90 21:41 04.02.2021
2912 Clear 11 1010 82 10000 1.03 90 20:58 04.02.2021
2913 Clouds 12 1010 82 10000 3.03 208 20:34 04.02.2021
2914 Clouds 12 1010 82 10000 3.03 208 20:34 04.02.2021
2915 Clouds 12 1010 82 10000 0.51 0 19:53 04.02.2021
2916 Clouds 12 1010 71 10000 1.54 190 19:32 04.02.2021
2917 Clouds 13 1009 71 10000 2.06 170 18:51 04.02.2021
2918 Clouds 13 1009 71 10000 2.06 170 18:24 04.02.2021
2919 Clouds 13 1009 71 10000 2.06 180 17:51 04.02.2021
2920 Clouds 13 1009 67 10000 3.09 170 17:24 04.02.2021
2921 Clouds 13 1009 71 10000 3.09 190 16:56 04.02.2021
2922 Clouds 13 1009 71 10000 2.57 170 16:37 04.02.2021
2923 Clouds 14 1009 71 10000 2.06 190 16:18 04.02.2021
2924 Clouds 13 1009 71 10000 3.09 160 15:39 04.02.2021
2925 Clouds 13 1009 82 10000 2.06 140 15:20 04.02.2021
2926 Clouds 13 1009 82 10000 2.06 140 14:41 04.02.2021
2927 Clouds 12 1010 87 10000 3.6 120 14:20 04.02.2021
2928 Clouds 12 1010 87 8000 3.09 100 13:44 04.02.2021
2929 Clouds 12 1010 87 8000 3.09 100 13:20 04.02.2021
2930 Clouds 11 1010 87 8000 3.09 110 12:52 04.02.2021
2931 Clouds 11 1011 93 6000 3.09 90 11:54 04.02.2021
2932 Drizzle 11 1011 93 3000 3.09 100 11:34 04.02.2021
2933 Clouds 10 1011 93 7000 3.09 90 10:53 04.02.2021
2934 Clouds 10 1011 93 7000 3.09 100 10:32 04.02.2021
2935 Clouds 9 1012 100 6000 1.54 90 09:45 04.02.2021
2936 Clouds 9 1012 100 6000 1.54 100 09:20 04.02.2021
2937 Clouds 9 1012 100 6000 1.54 100 08:51 04.02.2021
2938 Mist 9 1012 100 4000 1.54 110 08:25 04.02.2021
2939 Clouds 9 1012 93 10000 1.03 120 07:51 04.02.2021
2940 Clouds 10 1012 93 10000 1.54 160 07:32 04.02.2021
2941 Clouds 10 1012 93 10000 1.03 0 06:45 04.02.2021
2942 Clouds 10 1012 93 10000 2.06 160 05:32 04.02.2021
2943 Clouds 11 1013 93 8000 4.63 230 02:30 04.02.2021
2944 Clouds 11 1013 93 9000 3.09 210 01:20 04.02.2021
2945 Clouds 11 1013 93 10000 1.54 160 23:55 03.02.2021
2946 Clouds 11 1013 87 10000 1.54 150 23:30 03.02.2021
2947 Clouds 11 1013 93 10000 2.57 140 22:38 03.02.2021
2948 Clouds 11 1013 93 10000 2.06 160 22:20 03.02.2021
2949 Clouds 11 1013 100 10000 2.06 150 21:46 03.02.2021
2950 Clouds 11 1013 100 10000 2.06 150 21:23 03.02.2021
2951 Drizzle 11 1014 100 7000 1.54 190 20:50 03.02.2021
2952 Drizzle 11 1014 100 7000 1.54 190 20:31 03.02.2021
2953 Drizzle 11 1014 100 8000 3.09 160 19:55 03.02.2021
2954 Mist 11 1014 93 4500 2.57 170 19:25 03.02.2021
2955 Mist 11 1014 93 2500 3.09 160 18:57 03.02.2021
2956 Mist 11 1014 93 2500 2.57 190 18:37 03.02.2021
2957 Mist 11 1014 93 2500 2.57 190 18:19 03.02.2021
2958 Drizzle 12 1014 87 8000 3.09 190 17:43 03.02.2021
2959 Clouds 12 1014 87 10000 4.12 190 17:19 03.02.2021
2960 Clouds 12 1014 82 10000 3.09 190 16:40 03.02.2021
2961 Clouds 12 1014 87 10000 3.09 190 16:20 03.02.2021
2962 Clouds 12 1015 82 10000 4.12 200 15:39 03.02.2021
2963 Clouds 12 1015 82 10000 4.12 200 15:20 03.02.2021
2964 Clouds 12 1015 82 10000 4.63 170 14:44 03.02.2021
2965 Clouds 12 1015 76 10000 4.12 190 14:21 03.02.2021
2966 Clouds 11 1015 76 10000 4.12 190 13:43 03.02.2021
2967 Clouds 11 1016 82 10000 3.6 190 13:19 03.02.2021
2968 Clouds 11 1016 87 10000 2.57 180 12:40 03.02.2021
2969 Clouds 10 1016 87 10000 2.57 180 12:20 03.02.2021
2970 Clouds 9 1016 93 7000 2.06 180 11:42 03.02.2021
2971 Clouds 9 1016 93 7000 2.06 180 11:23 03.02.2021
2972 Mist 9 1016 93 2400 1.54 170 10:38 03.02.2021
2973 Clouds 9 1016 93 10000 1.54 220 10:18 03.02.2021
2974 Clouds 9 1016 93 10000 2.06 210 09:40 03.02.2021
2975 Clouds 9 1016 93 10000 1.03 0 09:20 03.02.2021
2976 Clouds 9 1015 81 10000 1.54 220 08:46 03.02.2021
2977 Clouds 9 1015 81 10000 1.54 180 07:58 03.02.2021
2978 Clouds 9 1015 81 10000 1.03 0 06:43 03.02.2021
2979 Clouds 9 1015 81 10000 1.03 0 06:20 03.02.2021
2980 Clouds 9 1015 87 10000 2.06 190 04:45 03.02.2021
2981 Clouds 9 1016 81 10000 2.57 190 03:52 03.02.2021
2982 Clear 9 1016 81 10000 2.06 180 02:41 03.02.2021
2983 Clear 9 1016 81 10000 2.57 200 01:47 03.02.2021
2984 Clear 10 1016 87 10000 3.6 210 00:24 03.02.2021
2985 Clear 10 1016 81 10000 4.63 220 23:44 02.02.2021
2986 Clouds 10 1017 81 10000 5.14 220 23:26 02.02.2021
2987 Clouds 10 1017 87 10000 5.14 220 22:47 02.02.2021
2988 Clouds 11 1017 82 10000 5.14 210 22:21 02.02.2021
2989 Clouds 11 1017 87 10000 5.14 220 21:46 02.02.2021
2990 Clouds 11 1017 87 10000 5.14 220 21:24 02.02.2021
2991 Clouds 12 1017 82 10000 3.6 200 20:49 02.02.2021
2992 Clouds 12 1017 87 10000 3.09 200 20:23 02.02.2021
2993 Clouds 12 1017 87 10000 3.09 200 19:55 02.02.2021
2994 Clouds 12 1016 82 10000 4.12 180 19:37 02.02.2021
2995 Clouds 12 1017 82 10000 4.12 190 19:18 02.02.2021
2996 Clouds 13 1016 76 10000 5.66 210 18:41 02.02.2021
2997 Clouds 13 1016 76 10000 5.66 210 18:22 02.02.2021
2998 Clouds 13 1017 76 10000 4.63 210 17:39 02.02.2021
2999 Clouds 13 1017 76 10000 4.63 210 17:21 02.02.2021
3000 Clouds 13 1017 76 10000 5.14 210 16:50 02.02.2021
3001 Clouds 13 1017 76 10000 5.14 210 16:30 02.02.2021
3002 Clouds 12 1017 82 10000 6.17 220 15:57 02.02.2021
3003 Clouds 12 1017 87 10000 4.63 210 15:32 02.02.2021
3004 Clouds 12 1018 76 10000 5.14 220 14:55 02.02.2021
3005 Clouds 12 1018 82 10000 4.12 210 14:34 02.02.2021
3006 Clouds 12 1019 87 10000 5.66 220 13:59 02.02.2021
3007 Clouds 11 1019 87 10000 4.63 220 13:41 02.02.2021
3008 Clouds 11 1019 87 10000 4.63 220 13:22 02.02.2021
3009 Mist 11 1019 93 5000 3.09 210 12:50 02.02.2021
3010 Clouds 10 1019 93 8000 3.6 210 11:56 02.02.2021
3011 Clouds 10 1019 93 8000 3.09 200 11:38 02.02.2021
3012 Clouds 10 1019 93 8000 3.09 200 11:18 02.02.2021
3013 Clouds 9 1019 100 6000 3.6 200 10:43 02.02.2021
3014 Clouds 9 1019 93 6000 2.57 200 10:25 02.02.2021
3015 Mist 9 1019 93 5000 2.06 220 09:41 02.02.2021
3016 Fog 9 1019 100 500 3.09 220 09:20 02.02.2021
3017 Mist 9 1019 100 4000 3.09 220 08:36 02.02.2021
3018 Fog 9 1018 100 900 5.66 230 07:44 02.02.2021
3019 Clouds 9 1018 100 10000 5.66 230 06:49 02.02.2021
3020 Clouds 9 1018 100 10000 5.66 240 06:31 02.02.2021
3021 Clouds 9 1018 100 10000 5.66 240 06:31 02.02.2021
3022 Clouds 9 1019 100 10000 5.66 240 05:50 02.02.2021
3023 Clear 8 1018 100 10000 6.17 240 02:57 02.02.2021
3024 Clear 8 1019 100 10000 6.17 240 02:24 02.02.2021
3025 Clear 9 1019 93 10000 6.17 230 00:38 02.02.2021
3026 Clear 9 1019 87 10000 7.2 230 23:55 01.02.2021
3027 Clear 10 1019 87 10000 7.2 230 22:57 01.02.2021
3028 Clear 10 1019 87 10000 7.2 230 22:57 01.02.2021
3029 Clear 10 1019 87 10000 7.2 230 22:57 01.02.2021
3030 Clear 10 1018 87 10000 7.2 240 22:38 01.02.2021
3031 Clear 10 1018 87 10000 7.2 240 22:19 01.02.2021
3032 Clear 11 1018 82 10000 8.23 240 21:42 01.02.2021
3033 Clear 11 1018 82 10000 10.29 240 21:21 01.02.2021
3034 Clear 11 1018 82 10000 8.75 240 20:41 01.02.2021
3035 Clear 11 1018 82 10000 8.75 240 20:41 01.02.2021
3036 Clear 11 1018 82 10000 8.75 240 20:23 01.02.2021
3037 Clouds 12 1017 82 10000 8.23 230 19:42 01.02.2021
3038 Clouds 12 1017 82 10000 8.23 230 19:21 01.02.2021
3039 Clouds 12 1017 76 10000 7.72 230 18:51 01.02.2021
3040 Clouds 13 1017 71 10000 8.75 230 18:29 01.02.2021
3041 Clouds 14 1017 76 10000 9.77 250 17:48 01.02.2021
3042 Clouds 15 1017 72 10000 9.77 230 17:26 01.02.2021
3043 Clouds 15 1016 72 10000 6.69 220 16:58 01.02.2021
3044 Clouds 16 1016 63 10000 6.17 230 16:32 01.02.2021
3045 Clouds 15 1016 67 10000 5.14 240 15:48 01.02.2021
3046 Clouds 16 1016 59 10000 6.17 260 15:21 01.02.2021
3047 Clouds 16 1016 63 10000 7.2 240 14:53 01.02.2021
3048 Clouds 16 1016 63 10000 5.66 200 14:35 01.02.2021
3049 Clouds 15 1016 67 10000 7.2 180 13:55 01.02.2021
3050 Clouds 15 1016 67 10000 6.17 200 13:37 01.02.2021
3051 Clouds 14 1016 67 10000 6.17 200 13:19 01.02.2021
3052 Clouds 13 1017 76 10000 7.2 220 12:42 01.02.2021
3053 Clouds 13 1017 76 10000 7.2 220 12:22 01.02.2021
3054 Clouds 12 1017 82 10000 6.69 180 11:40 01.02.2021
3055 Clouds 12 1017 82 10000 6.69 180 11:19 01.02.2021
3056 Clouds 11 1016 76 10000 5.66 230 10:45 01.02.2021
3057 Clouds 10 1016 81 10000 7.2 230 10:20 01.02.2021
3058 Clouds 10 1015 87 10000 6.69 240 09:44 01.02.2021
3059 Clouds 10 1015 87 10000 6.69 240 09:21 01.02.2021
3060 Clouds 9 1014 81 10000 7.2 250 08:44 01.02.2021
3061 Clear 10 1014 76 10000 4.12 240 07:50 01.02.2021
3062 Clouds 10 1013 76 10000 4.63 220 06:34 01.02.2021
3063 Clouds 10 1013 58 10000 7.2 280 04:21 01.02.2021
3064 Clear 12 1013 82 10000 8.75 250 01:31 01.02.2021
3065 Clear 12 1013 67 10000 10.29 270 23:42 31.01.2021
3066 Clear 12 1012 87 10000 8.23 260 22:44 31.01.2021
3067 Clear 12 1013 87 10000 5.66 250 22:24 31.01.2021
3068 Clear 12 1013 87 10000 5.66 250 21:55 31.01.2021
3069 Clear 12 1012 87 10000 7.2 240 21:26 31.01.2021
3070 Clear 12 1012 94 10000 6.69 240 20:59 31.01.2021
3071 Clouds 12 1012 94 10000 6.17 240 20:37 31.01.2021
3072 Clouds 12 1012 94 10000 6.17 240 20:18 31.01.2021
3073 Clouds 12 1012 94 10000 7.72 220 19:37 31.01.2021
3074 Clouds 12 1012 94 10000 7.72 220 19:19 31.01.2021
3075 Clouds 12 1012 94 10000 6.69 220 19:19 31.01.2021
3076 Clouds 12 1012 88 10000 5.66 220 18:42 31.01.2021
3077 Clouds 12 1013 88 10000 6.17 210 18:23 31.01.2021
3078 Clouds 13 1013 82 10000 8.23 230 17:49 31.01.2021
3079 Clouds 13 1013 82 10000 8.23 230 17:24 31.01.2021
3080 Clouds 13 1013 87 10000 9.26 230 16:52 31.01.2021
3081 Clouds 12 1013 87 10000 9.77 230 16:34 31.01.2021
3082 Clouds 12 1013 82 10000 9.77 230 15:54 31.01.2021
3083 Clouds 11 1013 82 10000 9.77 230 15:35 31.01.2021
3084 Clouds 11 1013 82 10000 10.8 240 14:50 31.01.2021
3085 Clouds 11 1013 87 10000 8.75 230 14:26 31.01.2021
3086 Clouds 11 1014 87 10000 7.72 230 13:57 31.01.2021
3087 Clouds 11 1014 87 10000 7.2 230 13:38 31.01.2021
3088 Clouds 10 1015 82 10000 7.2 220 12:51 31.01.2021
3089 Clouds 10 1015 82 10000 7.2 220 12:23 31.01.2021
3090 Clouds 10 1014 76 10000 7.2 210 11:58 31.01.2021
3091 Clouds 10 1014 76 10000 7.2 210 11:38 31.01.2021
3092 Clouds 10 1014 76 10000 7.2 210 11:19 31.01.2021
3093 Clouds 9 1014 87 10000 7.2 210 10:43 31.01.2021
3094 Clouds 8 1014 87 10000 7.2 210 10:24 31.01.2021
3095 Clouds 8 1014 76 10000 6.17 240 09:33 31.01.2021
3096 Clouds 9 1014 71 10000 3.6 210 08:34 31.01.2021
3097 Clear 9 1014 66 10000 4.12 230 07:50 31.01.2021
3098 Clear 9 1013 61 10000 3.09 210 05:54 31.01.2021
3099 Clear 9 1013 61 10000 3.09 210 05:54 31.01.2021
3100 Clouds 9 1013 66 10000 8.23 260 00:53 31.01.2021
3101 Clouds 9 1013 62 10000 6.69 270 00:28 31.01.2021
3102 Clouds 9 1013 66 10000 8.23 270 23:34 30.01.2021
3103 Clouds 9 1013 62 10000 9.77 260 22:59 30.01.2021
3104 Clouds 9 1013 62 10000 9.77 260 22:37 30.01.2021
3105 Clouds 10 1013 62 10000 9.26 260 21:43 30.01.2021
3106 Clouds 10 1013 62 10000 8.23 260 21:23 30.01.2021
3107 Clouds 10 1013 62 10000 6.69 280 20:54 30.01.2021
3108 Clouds 10 1013 62 10000 8.75 250 20:34 30.01.2021
3109 Clouds 10 1012 66 10000 5.66 260 19:58 30.01.2021
3110 Clouds 10 1012 62 10000 8.23 270 19:39 30.01.2021
3111 Clouds 10 1012 62 10000 8.23 270 19:19 30.01.2021
3112 Clouds 11 1012 66 10000 5.66 250 18:40 30.01.2021
3113 Clouds 11 1012 62 10000 7.2 240 18:19 30.01.2021
3114 Clouds 12 1011 66 10000 9.26 230 17:37 30.01.2021
3115 Clouds 12 1011 62 10000 9.26 240 17:18 30.01.2021
3116 Clouds 12 1011 62 10000 9.26 240 16:37 30.01.2021
3117 Clouds 13 1012 71 10000 8.75 250 16:19 30.01.2021
3118 Clouds 13 1012 66 10000 9.26 230 15:44 30.01.2021
3119 Clouds 13 1012 67 10000 10.29 230 15:23 30.01.2021
3120 Clouds 13 1012 67 10000 10.29 230 14:52 30.01.2021
3121 Clouds 13 1013 71 10000 6.69 260 14:27 30.01.2021
3122 Clouds 13 1013 67 10000 9.77 240 13:48 30.01.2021
3123 Clouds 12 1013 67 10000 9.77 240 13:20 30.01.2021
3124 Clouds 12 1014 76 10000 9.26 240 12:43 30.01.2021
3125 Clouds 12 1014 76 10000 9.26 240 12:22 30.01.2021
3126 Clouds 11 1014 87 10000 7.72 240 11:43 30.01.2021
3127 Clouds 10 1014 93 10000 6.17 240 10:56 30.01.2021
3128 Clouds 10 1014 93 10000 4.63 260 10:26 30.01.2021
3129 Clouds 9 1014 100 10000 7.2 260 09:41 30.01.2021
3130 Clouds 9 1014 100 10000 7.2 260 09:22 30.01.2021
3131 Clouds 9 1013 93 10000 7.72 230 08:43 30.01.2021
3132 Clouds 9 1014 100 10000 3.09 240 07:40 30.01.2021
3133 Rain 10 1015 93 2700 8.75 230 06:25 30.01.2021
3134 Clouds 10 1016 93 10000 9.77 240 03:46 30.01.2021
3135 Clouds 10 1016 100 10000 6.69 230 02:52 30.01.2021
3136 Mist 10 1017 100 3600 5.14 210 02:21 30.01.2021
3137 Clouds 10 1019 100 6000 4.12 210 00:56 30.01.2021
3138 Clouds 10 1019 100 10000 5.14 220 00:26 30.01.2021
3139 Clouds 10 1019 100 10000 4.63 230 23:54 29.01.2021
3140 Mist 10 1019 100 2000 3.6 230 23:27 29.01.2021
3141 Fog 10 1020 93 250 3.6 240 22:46 29.01.2021
3142 Fog 10 1020 93 250 3.6 240 22:28 29.01.2021
3143 Clouds 10 1020 100 10000 2.06 240 21:56 29.01.2021
3144 Clouds 10 1020 100 10000 5.18 240 21:26 29.01.2021
3145 Mist 9 1020 100 3800 1.03 110 20:43 29.01.2021
3146 Clouds 10 1020 93 10000 4.71 238 20:22 29.01.2021
3147 Clouds 11 1020 87 10000 1.03 0 19:40 29.01.2021
3148 Clouds 11 1020 87 10000 1.03 0 19:21 29.01.2021
3149 Clouds 11 1020 87 10000 0.51 0 18:53 29.01.2021
3150 Clouds 13 1021 82 10000 1.03 0 17:48 29.01.2021
3151 Clouds 13 1021 82 10000 1.03 0 17:23 29.01.2021
3152 Clouds 12 1021 87 10000 1.03 0 16:52 29.01.2021
3153 Clouds 12 1021 93 10000 1.54 290 16:24 29.01.2021
3154 Clouds 12 1021 87 10000 2.06 260 15:55 29.01.2021
3155 Clouds 12 1022 87 10000 2.06 260 15:37 29.01.2021
3156 Clouds 12 1022 87 10000 1.03 0 15:18 29.01.2021
3157 Clouds 11 1022 93 10000 1.03 0 14:23 29.01.2021
3158 Clouds 11 1022 87 9000 2.57 190 13:46 29.01.2021
3159 Clouds 11 1023 93 7000 3.09 180 13:28 29.01.2021
3160 Clouds 11 1023 87 9000 1.54 0 12:42 29.01.2021
3161 Clouds 10 1024 93 8000 1.54 250 12:18 29.01.2021
3162 Clouds 10 1023 93 10000 1.54 240 11:41 29.01.2021
3163 Clouds 10 1023 93 10000 1.54 240 11:18 29.01.2021
3164 Clouds 9 1023 93 10000 1.03 0 10:46 29.01.2021
3165 Clouds 9 1023 93 10000 1.03 0 10:22 29.01.2021
3166 Clouds 9 1023 93 10000 1.03 0 09:39 29.01.2021
3167 Clouds 9 1023 93 10000 1.03 230 08:50 29.01.2021
3168 Clouds 9 1023 93 10000 2.06 250 08:27 29.01.2021
3169 Clouds 9 1023 100 10000 0.51 0 07:48 29.01.2021
3170 Clouds 9 1023 100 10000 0.51 0 07:30 29.01.2021
3171 Clouds 9 1023 93 10000 0.51 0 06:49 29.01.2021
3172 Clouds 10 1023 100 10000 1.03 0 04:53 29.01.2021
3173 Clouds 10 1024 100 9000 2.06 260 02:26 29.01.2021
3174 Clouds 10 1024 100 10000 1.03 0 00:37 29.01.2021
3175 Clouds 10 1024 100 10000 1.03 0 00:19 29.01.2021
3176 Clouds 10 1024 93 10000 2.06 270 23:41 28.01.2021
3177 Clouds 11 1024 93 10000 2.06 270 23:22 28.01.2021
3178 Clouds 11 1024 93 10000 1.54 290 22:42 28.01.2021
3179 Clouds 11 1024 93 10000 1.54 270 22:24 28.01.2021
3180 Clouds 11 1024 93 10000 1.03 0 21:48 28.01.2021
3181 Clouds 11 1024 93 10000 1.03 0 21:30 28.01.2021
3182 Clouds 11 1024 93 10000 1.54 220 20:47 28.01.2021
3183 Clouds 11 1024 93 10000 2.06 270 20:20 28.01.2021
3184 Clouds 12 1024 94 10000 1.54 260 19:59 28.01.2021
3185 Clouds 12 1024 94 10000 1.03 270 19:36 28.01.2021
3186 Clouds 12 1024 87 10000 1.54 180 19:18 28.01.2021
3187 Clouds 12 1024 94 10000 1.54 190 18:41 28.01.2021
3188 Clouds 12 1024 94 10000 1.03 0 18:19 28.01.2021
3189 Clouds 12 1024 94 10000 1.03 0 17:44 28.01.2021
3190 Clouds 13 1024 94 10000 1.03 0 17:24 28.01.2021
3191 Clouds 13 1025 100 10000 2.06 180 16:44 28.01.2021
3192 Clouds 13 1025 100 10000 2.06 180 16:21 28.01.2021
3193 Clouds 13 1025 94 10000 1.54 210 15:39 28.01.2021
3194 Clouds 13 1026 94 8000 1.03 0 14:58 28.01.2021
3195 Clouds 12 1026 94 9000 1.54 160 14:39 28.01.2021
3196 Clouds 12 1026 94 10000 1.54 180 14:20 28.01.2021
3197 Clouds 12 1026 94 9000 1.54 160 14:20 28.01.2021
3198 Clouds 12 1026 94 10000 1.54 180 13:43 28.01.2021
3199 Clouds 12 1027 100 8000 1.03 0 12:52 28.01.2021
3200 Clouds 11 1027 100 10000 1.03 0 12:33 28.01.2021
3201 Clouds 11 1027 100 7000 1.03 0 11:59 28.01.2021
3202 Mist 11 1027 100 5000 1.03 0 11:40 28.01.2021
3203 Fog 10 1027 100 1500 1.54 190 11:19 28.01.2021
3204 Fog 10 1026 100 1000 0.49 129 10:50 28.01.2021
3205 Fog 10 1026 100 1000 0.09 328 10:27 28.01.2021
3206 Fog 10 1026 100 800 0.51 340 09:44 28.01.2021
3207 Fog 10 1026 100 800 0.51 340 09:22 28.01.2021
3208 Fog 10 1026 100 600 1.54 200 08:49 28.01.2021
3209 Fog 10 1026 100 600 0.51 0 08:18 28.01.2021
3210 Drizzle 10 1026 100 800 0.71 223 07:43 28.01.2021
3211 Fog 10 1026 100 400 0.51 0 06:49 28.01.2021
3212 Fog 10 1026 100 200 2.06 250 05:35 28.01.2021
3213 Fog 10 1026 100 150 1.58 227 03:49 28.01.2021
3214 Fog 11 1027 100 500 2.06 230 00:58 28.01.2021
3215 Fog 11 1026 100 900 3.09 240 23:47 27.01.2021
3216 Fog 11 1026 100 900 3.09 240 23:23 27.01.2021
3217 Clear 12 1026 94 10000 2.57 240 22:41 27.01.2021
3218 Clear 12 1026 100 10000 2.57 230 22:21 27.01.2021
3219 Clear 13 1026 94 10000 3.6 230 21:43 27.01.2021
3220 Clear 13 1026 94 10000 3.6 230 21:23 27.01.2021
3221 Clear 13 1026 94 10000 3.6 250 20:52 27.01.2021
3222 Clear 14 1026 94 10000 4.12 240 20:23 27.01.2021
3223 Clear 15 1026 82 10000 3.09 230 19:49 27.01.2021
3224 Clear 15 1026 82 10000 3.09 230 19:23 27.01.2021
3225 Clear 15 1026 82 10000 3.09 230 19:23 27.01.2021
3226 Clouds 16 1026 77 10000 3.6 250 18:46 27.01.2021
3227 Clouds 17 1026 72 10000 4.12 260 18:24 27.01.2021
3228 Clouds 17 1026 72 10000 4.12 260 17:55 27.01.2021
3229 Clouds 17 1026 72 10000 4.12 250 17:35 27.01.2021
3230 Clouds 18 1026 72 10000 4.12 220 16:57 27.01.2021
3231 Clouds 18 1026 63 10000 2.57 220 16:38 27.01.2021
3232 Clouds 18 1026 63 10000 2.57 220 16:20 27.01.2021
3233 Clouds 18 1025 77 10000 5.66 240 15:49 27.01.2021
3234 Clouds 18 1026 72 10000 4.63 250 15:29 27.01.2021
3235 Clouds 18 1026 55 10000 3.09 300 14:24 27.01.2021
3236 Clouds 17 1026 55 10000 3.09 310 13:53 27.01.2021
3237 Clouds 17 1026 55 10000 3.6 310 13:35 27.01.2021
3238 Clear 15 1027 67 10000 4.12 290 12:42 27.01.2021
3239 Clear 15 1027 67 10000 4.12 290 12:23 27.01.2021
3240 Clear 14 1027 72 10000 1.54 250 11:47 27.01.2021
3241 Clear 14 1027 72 10000 1.54 250 11:26 27.01.2021
3242 Clear 13 1026 77 10000 1.34 333 10:47 27.01.2021
3243 Clear 12 1026 88 10000 2.57 280 10:25 27.01.2021
3244 Clear 12 1026 94 10000 4.12 260 09:55 27.01.2021
3245 Clear 11 1025 94 10000 5.14 260 09:28 27.01.2021
3246 Clear 11 1025 94 10000 5.66 270 08:45 27.01.2021
3247 Clouds 11 1025 100 10000 3.6 240 07:49 27.01.2021
3248 Clear 11 1025 100 10000 2.06 220 07:30 27.01.2021
3249 Mist 11 1025 100 3500 3.09 250 06:38 27.01.2021
3250 Fog 11 1024 100 600 4.12 240 05:55 27.01.2021
3251 Fog 12 1024 100 250 5.14 240 05:34 27.01.2021
3252 Clouds 12 1025 100 10000 2.57 250 02:46 27.01.2021
3253 Clouds 12 1025 94 10000 3.6 250 02:20 27.01.2021
3254 Mist 12 1025 100 2700 3.09 240 00:58 27.01.2021
3255 Fog 12 1025 100 400 4.12 240 00:22 27.01.2021
3256 Clouds 12 1024 100 10000 4.63 230 23:40 26.01.2021
3257 Clouds 12 1025 94 10000 4.63 230 23:19 26.01.2021
3258 Clouds 12 1025 94 10000 4.63 240 22:39 26.01.2021
3259 Clouds 12 1025 100 10000 4.12 240 22:19 26.01.2021
3260 Clouds 12 1025 100 10000 4.12 240 21:51 26.01.2021
3261 Clouds 12 1025 94 10000 4.12 230 21:24 26.01.2021
3262 Clouds 12 1025 94 10000 5.14 240 20:43 26.01.2021
3263 Clouds 13 1025 94 10000 5.14 240 20:24 26.01.2021
3264 Clouds 13 1024 94 10000 4.63 250 19:51 26.01.2021
3265 Clouds 13 1024 94 10000 4.63 250 19:30 26.01.2021
3266 Clouds 13 1024 94 10000 4.63 250 19:30 26.01.2021
3267 Clouds 13 1023 94 10000 4.12 250 18:59 26.01.2021
3268 Clouds 13 1023 88 10000 4.12 240 18:41 26.01.2021
3269 Clouds 14 1023 88 10000 4.12 230 18:22 26.01.2021
3270 Clouds 14 1023 88 10000 5.14 230 17:47 26.01.2021
3271 Clouds 14 1023 82 10000 5.14 230 17:22 26.01.2021
3272 Clouds 14 1023 82 10000 5.14 230 16:51 26.01.2021
3273 Clouds 14 1023 88 10000 5.14 200 16:21 26.01.2021
3274 Clouds 14 1023 88 10000 5.14 200 15:51 26.01.2021
3275 Clouds 14 1023 88 10000 5.14 200 15:51 26.01.2021
3276 Clouds 14 1023 82 10000 5.66 200 15:33 26.01.2021
3277 Clouds 15 1023 77 10000 5.14 200 14:49 26.01.2021
3278 Clouds 15 1023 72 10000 4.12 200 14:30 26.01.2021
3279 Clouds 15 1023 77 10000 3.09 210 13:51 26.01.2021
3280 Clouds 14 1024 82 10000 3.6 210 13:28 26.01.2021
3281 Clouds 13 1024 88 10000 4.12 240 12:45 26.01.2021
3282 Clouds 12 1024 88 10000 4.12 240 12:25 26.01.2021
3283 Clouds 12 1024 100 10000 4.12 230 11:59 26.01.2021
3284 Clouds 11 1024 100 10000 3.6 230 11:39 26.01.2021
3285 Clouds 11 1023 100 6000 3.09 240 10:56 26.01.2021
3286 Mist 10 1023 100 2000 3.09 230 10:33 26.01.2021
3287 Fog 10 1023 100 350 4.12 240 09:50 26.01.2021
3288 Fog 10 1022 100 400 4.12 230 09:32 26.01.2021
3289 Fog 10 1022 100 400 4.63 230 08:55 26.01.2021
3290 Fog 10 1022 100 400 4.12 230 08:37 26.01.2021
3291 Fog 10 1021 100 300 3.6 230 07:53 26.01.2021
3292 Fog 10 1021 100 300 2.06 210 06:53 26.01.2021
3293 Fog 10 1020 100 200 2.57 240 05:45 26.01.2021
3294 Fog 9 1020 100 200 3.6 240 05:24 26.01.2021
3295 Clouds 11 1019 93 10000 3.6 250 02:58 26.01.2021
3296 Clouds 11 1018 87 10000 6.69 240 00:58 26.01.2021
3297 Clouds 12 1017 87 10000 5.14 260 23:44 25.01.2021
3298 Clouds 12 1017 87 10000 5.14 260 23:25 25.01.2021
3299 Clouds 12 1016 88 10000 5.14 250 22:40 25.01.2021
3300 Clouds 12 1016 88 10000 5.14 250 22:21 25.01.2021
3301 Clouds 13 1015 88 10000 6.17 240 21:40 25.01.2021
3302 Clouds 13 1015 88 10000 5.66 230 20:59 25.01.2021
3303 Clouds 13 1014 88 10000 7.2 240 20:39 25.01.2021
3304 Clouds 12 1014 94 10000 7.2 240 20:19 25.01.2021
3305 Clouds 12 1014 94 10000 8.23 240 19:46 25.01.2021
3306 Clouds 12 1014 94 10000 8.23 240 19:22 25.01.2021
3307 Clouds 13 1013 94 10000 8.23 240 18:43 25.01.2021
3308 Clouds 13 1013 94 10000 8.23 240 18:24 25.01.2021
3309 Clouds 13 1012 88 10000 8.23 240 17:44 25.01.2021
3310 Clouds 13 1012 88 10000 8.23 240 17:24 25.01.2021
3311 Clouds 13 1011 88 10000 8.23 230 16:44 25.01.2021
3312 Clouds 13 1011 88 10000 8.23 230 16:25 25.01.2021
3313 Clouds 13 1011 88 10000 8.23 230 15:54 25.01.2021
3314 Clouds 13 1011 88 10000 8.75 230 15:34 25.01.2021
3315 Clouds 13 1011 88 10000 9.77 240 14:53 25.01.2021
3316 Clouds 12 1012 94 10000 7.72 230 14:21 25.01.2021
3317 Clouds 12 1012 94 10000 8.23 230 13:57 25.01.2021
3318 Clouds 12 1012 94 10000 8.23 230 13:57 25.01.2021
3319 Clouds 12 1012 94 10000 8.75 230 13:36 25.01.2021
3320 Clouds 12 1012 94 10000 7.2 230 12:50 25.01.2021
3321 Clouds 12 1012 94 10000 7.2 230 12:50 25.01.2021
3322 Clouds 11 1012 93 10000 6.69 220 12:27 25.01.2021
3323 Clouds 11 1012 93 9000 6.17 220 11:58 25.01.2021
3324 Clouds 10 1012 93 10000 6.17 220 11:27 25.01.2021
3325 Clouds 10 1012 100 10000 6.69 220 10:46 25.01.2021
3326 Clouds 10 1012 93 9000 7.2 210 10:22 25.01.2021
3327 Clouds 10 1012 93 9000 7.2 210 09:49 25.01.2021
3328 Clouds 10 1012 93 6000 7.2 210 09:28 25.01.2021
3329 Clouds 10 1012 93 10000 7.2 220 08:34 25.01.2021
3330 Clouds 10 1011 93 10000 6.69 220 07:56 25.01.2021
3331 Clouds 9 1012 93 7000 5.66 220 07:28 25.01.2021
3332 Clouds 9 1012 100 10000 7.2 220 06:27 25.01.2021
3333 Clouds 8 1015 93 10000 3.6 220 02:23 25.01.2021
3334 Clear 8 1015 93 10000 3.6 220 00:40 25.01.2021
3335 Clear 8 1015 87 10000 3.6 210 23:21 24.01.2021
3336 Clear 8 1015 81 10000 3.09 210 22:59 24.01.2021
3337 Clear 8 1015 81 10000 5.14 230 22:40 24.01.2021
3338 Clear 8 1015 81 10000 5.14 230 22:40 24.01.2021
3339 Clear 9 1015 81 10000 5.14 230 22:18 24.01.2021
3340 Clear 9 1015 81 10000 4.63 220 21:31 24.01.2021
3341 Clear 9 1015 81 10000 4.12 230 20:47 24.01.2021
3342 Clear 9 1015 81 10000 4.12 230 20:24 24.01.2021
3343 Clouds 10 1015 81 10000 3.09 230 19:58 24.01.2021
3344 Clouds 10 1014 76 10000 4.12 240 19:39 24.01.2021
3345 Clouds 10 1014 71 10000 4.12 250 19:20 24.01.2021
3346 Clouds 10 1014 71 10000 4.12 250 18:55 24.01.2021
3347 Clouds 11 1014 66 10000 3.6 230 18:36 24.01.2021
3348 Clouds 11 1014 66 10000 3.6 230 18:18 24.01.2021
3349 Clouds 11 1014 66 10000 4.63 240 17:43 24.01.2021
3350 Clouds 11 1014 66 10000 4.63 240 17:19 24.01.2021
3351 Clouds 12 1014 62 10000 4.63 190 16:42 24.01.2021
3352 Clouds 12 1014 62 10000 4.63 190 16:21 24.01.2021
3353 Clouds 12 1014 54 10000 4.12 230 15:47 24.01.2021
3354 Clouds 12 1014 58 10000 4.63 230 15:21 24.01.2021
3355 Clouds 13 1014 58 10000 4.63 230 14:57 24.01.2021
3356 Clouds 12 1014 58 10000 5.14 250 14:33 24.01.2021
3357 Clouds 11 1015 58 10000 6.69 250 13:40 24.01.2021
3358 Clouds 11 1015 66 10000 5.66 230 12:56 24.01.2021
3359 Clouds 10 1015 71 10000 4.63 210 12:36 24.01.2021
3360 Clouds 10 1015 76 10000 4.63 200 12:18 24.01.2021
3361 Clouds 10 1015 62 10000 6.17 240 11:45 24.01.2021
3362 Clouds 10 1015 62 10000 6.17 240 11:22 24.01.2021
3363 Clouds 9 1014 71 10000 5.66 250 10:36 24.01.2021
3364 Clouds 9 1014 71 10000 5.66 250 10:36 24.01.2021
3365 Clouds 9 1014 66 10000 4.12 260 09:53 24.01.2021
3366 Clouds 8 1014 71 10000 4.12 270 09:22 24.01.2021
3367 Clouds 8 1013 66 10000 4.12 250 08:52 24.01.2021
3368 Clouds 9 1011 57 10000 6.17 270 06:49 24.01.2021
3369 Clouds 11 1008 93 10000 7.72 270 02:21 24.01.2021
3370 Clouds 11 1008 93 10000 10.8 240 00:59 24.01.2021
3371 Clouds 10 1008 100 10000 10.8 240 00:24 24.01.2021
3372 Clouds 10 1007 93 10000 8.75 230 23:47 23.01.2021
3373 Clouds 10 1007 100 10000 6.69 230 23:24 23.01.2021
3374 Clouds 9 1008 100 10000 5.66 220 22:41 23.01.2021
3375 Clouds 9 1008 100 10000 5.66 220 22:21 23.01.2021
3376 Mist 9 1008 100 4900 6.17 220 21:48 23.01.2021
3377 Mist 9 1008 100 4900 6.17 220 21:21 23.01.2021
3378 Clouds 8 1008 100 10000 8.23 220 20:43 23.01.2021
3379 Clouds 8 1008 100 10000 8.23 220 20:21 23.01.2021
3380 Clouds 8 1009 100 9000 8.23 220 19:46 23.01.2021
3381 Clouds 8 1008 100 10000 7.72 220 19:46 23.01.2021
3382 Rain 8 1009 100 9000 8.23 220 19:21 23.01.2021
3383 Clouds 8 1009 100 9000 8.75 220 18:46 23.01.2021
3384 Rain 8 1009 100 9000 9.26 220 18:25 23.01.2021
3385 Clouds 9 1010 93 10000 11.32 220 17:45 23.01.2021
3386 Clouds 9 1010 93 10000 11.32 220 17:26 23.01.2021
3387 Clouds 9 1010 87 10000 10.8 220 16:48 23.01.2021
3388 Clouds 9 1011 87 9000 11.32 220 16:25 23.01.2021
3389 Clouds 8 1011 93 10000 10.8 220 15:40 23.01.2021
3390 Clouds 8 1012 87 7000 10.29 220 15:20 23.01.2021
3391 Clouds 8 1012 87 4500 8.75 220 14:31 23.01.2021
3392 Clouds 8 1013 81 10000 9.77 220 13:54 23.01.2021
3393 Clouds 8 1014 81 10000 8.75 220 13:35 23.01.2021
3394 Clouds 7 1015 87 10000 10.29 230 12:57 23.01.2021
3395 Clouds 7 1015 87 10000 9.26 230 12:27 23.01.2021
3396 Clouds 7 1015 93 10000 8.23 220 11:45 23.01.2021
3397 Clouds 7 1015 87 10000 5.66 220 11:25 23.01.2021
3398 Clouds 6 1015 93 10000 6.69 220 10:48 23.01.2021
3399 Clouds 5 1015 87 10000 5.66 230 10:19 23.01.2021
3400 Clouds 5 1015 87 10000 5.14 220 09:46 23.01.2021
3401 Clouds 5 1015 87 10000 5.66 220 08:54 23.01.2021
3402 Clouds 5 1015 100 10000 5.66 220 08:30 23.01.2021
3403 Clouds 5 1015 100 10000 5.66 220 08:30 23.01.2021
3404 Clouds 5 1016 93 10000 3.6 230 07:24 23.01.2021
3405 Clear 4 1017 93 10000 3.6 220 03:36 23.01.2021
3406 Clouds 5 1017 87 10000 3.09 250 00:41 23.01.2021
3407 Clouds 6 1017 81 10000 2.06 190 23:39 22.01.2021
3408 Clouds 6 1016 81 10000 2.57 210 22:53 22.01.2021
3409 Clouds 6 1016 87 10000 2.57 190 22:32 22.01.2021
3410 Clear 7 1015 61 10000 5.66 270 21:46 22.01.2021
3411 Clear 7 1015 61 10000 5.66 270 21:26 22.01.2021
3412 Clouds 7 1015 66 10000 7.2 280 20:56 22.01.2021
3413 Clouds 7 1015 70 10000 5.66 260 20:37 22.01.2021
3414 Clouds 7 1014 70 10000 5.14 240 19:54 22.01.2021
3415 Clouds 8 1014 70 10000 6.69 240 19:22 22.01.2021
3416 Clouds 8 1013 61 10000 6.69 260 18:55 22.01.2021
3417 Clouds 9 1013 57 10000 8.75 260 18:30 22.01.2021
3418 Clouds 9 1012 53 10000 9.26 270 17:58 22.01.2021
3419 Clouds 9 1012 53 10000 8.23 270 17:40 22.01.2021
3420 Clouds 9 1011 57 10000 9.26 270 16:59 22.01.2021
3421 Clouds 9 1011 66 10000 6.69 260 16:36 22.01.2021
3422 Clouds 9 1011 66 10000 6.69 260 16:18 22.01.2021
3423 Clouds 9 1010 76 10000 9.77 240 15:26 22.01.2021
3424 Clouds 9 1010 81 10000 8.23 240 14:51 22.01.2021
3425 Clouds 9 1010 81 10000 8.23 240 14:29 22.01.2021
3426 Clouds 9 1010 76 10000 7.2 240 13:46 22.01.2021
3427 Clouds 8 1010 81 10000 8.75 240 13:27 22.01.2021
3428 Clouds 8 1011 87 10000 8.75 240 12:44 22.01.2021
3429 Clouds 8 1011 87 10000 8.75 240 12:20 22.01.2021
3430 Clouds 8 1010 81 10000 8.75 240 11:45 22.01.2021
3431 Clouds 8 1008 76 10000 10.8 240 10:51 22.01.2021
3432 Clouds 8 1008 76 10000 10.8 240 10:29 22.01.2021
3433 Clouds 7 1007 81 10000 10.29 230 09:55 22.01.2021
3434 Clouds 7 1007 87 10000 9.26 230 09:20 22.01.2021
3435 Clouds 7 1007 87 10000 8.75 240 08:45 22.01.2021
3436 Clouds 7 1007 87 10000 4.63 250 08:22 22.01.2021
3437 Clouds 8 1006 81 9000 11.83 270 07:23 22.01.2021
3438 Clouds 9 1008 93 7000 7.2 200 02:42 22.01.2021
3439 Mist 9 1010 100 2100 5.14 210 00:37 22.01.2021
3440 Rain 9 1011 100 4400 6.17 200 23:50 21.01.2021
3441 Mist 9 1011 93 3800 5.66 200 23:29 21.01.2021
3442 Mist 9 1012 93 4400 5.66 210 22:48 21.01.2021
3443 Mist 9 1012 100 2200 5.14 210 22:21 21.01.2021
3444 Clouds 9 1012 100 10000 7.2 210 21:43 21.01.2021
3445 Clouds 10 1012 100 9000 8.23 210 21:19 21.01.2021
3446 Clouds 10 1012 100 9000 8.23 210 20:47 21.01.2021
3447 Drizzle 10 1012 93 4000 9.26 230 20:26 21.01.2021
3448 Drizzle 10 1013 87 10000 10.29 220 19:51 21.01.2021
3449 Drizzle 10 1013 93 10000 9.26 230 19:28 21.01.2021
3450 Clouds 9 1013 93 10000 9.26 220 18:55 21.01.2021
3451 Clouds 9 1012 93 10000 10.29 220 18:36 21.01.2021
3452 Clouds 10 1012 93 10000 10.29 220 18:18 21.01.2021
3453 Clouds 10 1013 93 10000 8.75 220 17:42 21.01.2021
3454 Clouds 10 1013 93 10000 8.75 220 17:18 21.01.2021
3455 Drizzle 9 1013 93 6000 7.72 220 16:41 21.01.2021
3456 Drizzle 9 1013 93 6000 7.72 220 16:23 21.01.2021
3457 Drizzle 9 1013 93 9000 5.66 220 15:58 21.01.2021
3458 Drizzle 9 1013 93 4000 7.2 220 15:33 21.01.2021
3459 Clouds 10 1013 87 10000 7.72 230 14:52 21.01.2021
3460 Clouds 10 1013 82 10000 9.26 220 14:31 21.01.2021
3461 Clouds 9 1014 93 6000 12.35 230 13:48 21.01.2021
3462 Clouds 9 1014 93 6000 12.35 230 13:27 21.01.2021
3463 Clouds 9 1015 87 10000 8.75 230 12:47 21.01.2021
3464 Clouds 9 1015 87 10000 8.75 230 12:27 21.01.2021
3465 Clouds 8 1015 93 10000 8.75 220 11:59 21.01.2021
3466 Drizzle 8 1014 93 7000 7.2 210 11:41 21.01.2021
3467 Clouds 8 1014 93 10000 5.14 220 11:22 21.01.2021
3468 Clouds 8 1014 87 10000 6.17 220 10:43 21.01.2021
3469 Clouds 8 1014 87 10000 6.17 220 10:24 21.01.2021
3470 Clouds 7 1014 100 10000 7.2 230 09:40 21.01.2021
3471 Clouds 7 1014 100 10000 7.2 230 09:20 21.01.2021
3472 Clouds 7 1014 100 10000 6.17 230 08:35 21.01.2021
3473 Clouds 7 1013 100 10000 6.69 230 07:48 21.01.2021
3474 Clouds 7 1013 100 10000 6.69 230 07:26 21.01.2021
3475 Clouds 7 1013 100 7000 6.17 230 06:37 21.01.2021
3476 Clouds 7 1012 100 10000 7.2 230 04:56 21.01.2021
3477 Mist 6 1011 100 5000 5.14 230 02:19 21.01.2021
3478 Clouds 6 1011 93 10000 5.66 230 00:42 21.01.2021
3479 Mist 6 1010 93 4100 6.17 230 23:50 20.01.2021
3480 Fog 6 1010 100 450 4.12 220 23:27 20.01.2021
3481 Mist 6 1010 100 1700 4.12 220 22:53 20.01.2021
3482 Rain 6 1010 100 2600 3.09 210 22:30 20.01.2021
3483 Fog 5 1009 100 700 2.06 180 21:55 20.01.2021
3484 Fog 5 1009 93 300 1.03 0 21:23 20.01.2021
3485 Mist 5 1009 100 2800 0.51 0 20:52 20.01.2021
3486 Mist 5 1009 100 2500 0.51 0 20:24 20.01.2021
3487 Mist 5 1009 93 2900 1.54 0 19:50 20.01.2021
3488 Rain 5 1008 100 4000 1.03 0 19:31 20.01.2021
3489 Rain 5 1008 100 5000 0.51 0 18:52 20.01.2021
3490 Rain 5 1008 100 2700 1.54 80 18:33 20.01.2021
3491 Rain 6 1008 100 7000 2.06 130 17:53 20.01.2021
3492 Rain 6 1008 93 5000 2.06 150 17:35 20.01.2021
3493 Clouds 6 1008 87 8000 2.06 140 16:52 20.01.2021
3494 Clouds 6 1008 87 6000 0.51 0 16:30 20.01.2021
3495 Clouds 6 1008 87 6000 0.51 0 16:30 20.01.2021
3496 Clouds 6 1008 81 7000 1.03 0 15:47 20.01.2021
3497 Rain 5 1009 81 7000 1.03 0 15:19 20.01.2021
3498 Rain 5 1009 87 5000 1.03 0 14:44 20.01.2021
3499 Rain 5 1009 93 4200 1.03 0 14:21 20.01.2021
3500 Rain 4 1010 93 1800 1.54 120 13:40 20.01.2021
3501 Rain 5 1010 93 1800 1.54 120 13:18 20.01.2021
3502 Rain 4 1011 93 2700 1.54 90 12:35 20.01.2021
3503 Rain 4 1012 93 4000 2.57 120 11:53 20.01.2021
3504 Rain 3 1011 100 5000 4.12 120 11:34 20.01.2021
3505 Rain 3 1012 100 5000 4.12 130 10:51 20.01.2021
3506 Rain 3 1012 100 4300 4.63 130 10:28 20.01.2021
3507 Rain 3 1013 93 4300 1.03 0 09:48 20.01.2021
3508 Rain 3 1013 93 5000 1.03 0 09:24 20.01.2021
3509 Rain 3 1013 87 8000 2.57 120 08:47 20.01.2021
3510 Clouds 3 1013 87 8000 2.57 120 08:26 20.01.2021
3511 Clouds 2 1013 93 8000 4.12 120 07:56 20.01.2021
3512 Clouds 3 1013 87 10000 1.54 100 07:25 20.01.2021
3513 Clouds 2 1015 87 10000 0.51 0 05:38 20.01.2021
3514 Clouds 1 1017 93 7000 0.51 0 03:22 20.01.2021
3515 Clear 1 1019 100 10000 0.51 350 00:59 20.01.2021
3516 Clear 1 1019 100 10000 0.51 0 00:31 20.01.2021
3517 Clear 1 1020 100 10000 1.03 360 23:42 19.01.2021
3518 Clear 1 1020 100 10000 1.53 56 23:19 19.01.2021
3519 Clear 1 1020 100 10000 1.53 56 22:42 19.01.2021
3520 Clear 1 1020 100 10000 1.37 45 22:22 19.01.2021
3521 Clear 2 1020 100 10000 0.51 0 21:59 19.01.2021
3522 Clear 2 1021 93 10000 0.51 0 21:40 19.01.2021
3523 Clear 2 1021 87 10000 1.39 39 21:19 19.01.2021
3524 Clear 3 1021 81 10000 1.39 39 20:42 19.01.2021
3525 Clouds 3 1021 81 10000 1.03 140 20:22 19.01.2021
3526 Clouds 4 1021 81 10000 1.03 130 19:42 19.01.2021
3527 Clouds 4 1021 81 10000 1.03 130 19:42 19.01.2021
3528 Clouds 4 1021 81 10000 1.03 130 19:23 19.01.2021
3529 Clouds 5 1021 75 10000 1.54 110 18:43 19.01.2021
3530 Clouds 5 1021 75 10000 1.54 110 18:25 19.01.2021
3531 Clouds 5 1022 70 10000 2.06 100 17:45 19.01.2021
3532 Clouds 5 1022 70 10000 2.06 100 17:25 19.01.2021
3533 Clouds 5 1022 70 10000 2.06 110 16:48 19.01.2021
3534 Clouds 5 1022 70 10000 2.06 110 16:26 19.01.2021
3535 Clouds 7 1022 65 10000 2.06 120 15:57 19.01.2021
3536 Clouds 6 1022 65 10000 2.06 120 15:37 19.01.2021
3537 Clouds 6 1023 61 10000 1.03 0 14:57 19.01.2021
3538 Clear 6 1023 61 10000 1.03 0 14:37 19.01.2021
3539 Clear 5 1024 61 10000 1.03 150 14:18 19.01.2021
3540 Clear 4 1024 65 10000 1.54 100 13:39 19.01.2021
3541 Clear 4 1025 61 10000 1.54 0 13:20 19.01.2021
3542 Clear 3 1025 65 10000 1.03 0 12:38 19.01.2021
3543 Clear 3 1025 65 10000 1.03 0 12:19 19.01.2021
3544 Clear 1 1025 70 10000 1.54 70 11:43 19.01.2021
3545 Clear 1 1025 70 10000 1.54 70 11:22 19.01.2021
3546 Clear 1 1026 75 10000 1.32 51 10:50 19.01.2021
3547 Clear 0 1025 75 9000 0.51 0 10:30 19.01.2021
3548 Clear -1 1025 93 9000 1.03 0 09:52 19.01.2021
3549 Clear -3 1025 100 8000 1.03 0 09:21 19.01.2021
3550 Clear -2 1025 100 10000 1.03 0 08:48 19.01.2021
3551 Clear -2 1025 100 10000 1.03 0 07:58 19.01.2021
3552 Clear -1 1025 100 10000 0.51 0 07:28 19.01.2021
3553 Clear -1 1026 93 8000 0.51 20 05:42 19.01.2021
3554 Clear 1 1027 100 10000 0.51 350 02:27 19.01.2021
3555 Clear 1 1027 93 10000 0.51 0 00:47 19.01.2021
3556 Clear 1 1027 93 10000 1.03 0 23:57 18.01.2021
3557 Clear 2 1027 87 10000 0.51 350 23:29 18.01.2021
3558 Clear 1 1027 93 10000 1.03 360 22:50 18.01.2021
3559 Clear 1 1027 93 10000 1.05 47 22:24 18.01.2021
3560 Clear 2 1027 87 10000 0.51 50 21:49 18.01.2021
3561 Clear 2 1027 87 10000 0.51 50 21:24 18.01.2021
3562 Clear 3 1027 87 10000 0.9 54 20:58 18.01.2021
3563 Clear 3 1027 87 10000 0.78 48 20:37 18.01.2021
3564 Clear 3 1027 87 10000 0.78 48 20:19 18.01.2021
3565 Clear 4 1027 81 10000 0.78 48 19:42 18.01.2021
3566 Clear 4 1027 81 10000 0.82 64 19:24 18.01.2021
3567 Clear 6 1026 65 10000 1.03 140 18:43 18.01.2021
3568 Clear 8 1026 61 10000 0.95 49 18:21 18.01.2021
3569 Clear 8 1026 53 10000 0.95 49 17:40 18.01.2021
3570 Clear 9 1026 57 10000 1.03 100 16:56 18.01.2021
3571 Clear 8 1026 57 10000 1.54 110 16:36 18.01.2021
3572 Clear 7 1026 57 10000 2.06 110 15:59 18.01.2021
3573 Clear 7 1027 57 10000 2.06 90 15:41 18.01.2021
3574 Clear 7 1027 57 10000 1.54 110 15:19 18.01.2021
3575 Clear 6 1027 57 10000 1.54 110 14:43 18.01.2021
3576 Clear 6 1027 57 10000 1.54 110 14:24 18.01.2021
3577 Clear 6 1028 50 10000 1.01 56 13:45 18.01.2021
3578 Clear 6 1028 50 10000 0.98 63 13:26 18.01.2021
3579 Clear 5 1029 53 10000 1.03 0 12:51 18.01.2021
3580 Clear 4 1029 57 10000 1.23 55 12:20 18.01.2021
3581 Clear 2 1029 61 10000 1.54 60 11:53 18.01.2021
3582 Clear 2 1029 65 10000 1.03 80 11:29 18.01.2021
3583 Clear 2 1028 60 10000 1.12 41 10:53 18.01.2021
3584 Clear 0 1028 69 10000 1.19 41 10:35 18.01.2021
3585 Clear -2 1028 80 10000 1.19 41 09:43 18.01.2021
3586 Clear -1 1028 93 10000 1.24 41 09:19 18.01.2021
3587 Clear -2 1028 93 10000 1.24 41 08:47 18.01.2021
3588 Clear -2 1028 93 10000 1.51 43 07:55 18.01.2021
3589 Clear -2 1027 93 10000 1.61 48 07:21 18.01.2021
3590 Clear 0 1028 80 10000 1.14 47 04:58 18.01.2021
3591 Clear 0 1028 86 10000 1.03 0 04:31 18.01.2021
3592 Clear 0 1028 86 10000 1.24 48 03:57 18.01.2021
3593 Clear 1 1028 86 10000 1.24 41 03:38 18.01.2021
3594 Clear 0 1028 86 10000 1.24 41 03:18 18.01.2021
3595 Clear 1 1028 86 10000 1.03 0 02:27 18.01.2021
3596 Clear 1 1028 80 10000 0.57 62 00:43 18.01.2021
3597 Clear 1 1028 80 10000 0.59 60 00:20 18.01.2021
3598 Clear 2 1028 74 10000 1.03 0 23:44 17.01.2021
3599 Clear 1 1028 69 10000 1.03 340 23:20 17.01.2021
3600 Clear 1 1028 74 10000 0.51 0 22:26 17.01.2021
3601 Clear 1 1028 74 10000 0.51 0 22:26 17.01.2021
3602 Clear 1 1028 74 10000 0.51 0 21:58 17.01.2021
3603 Clear 1 1028 74 10000 0.51 270 21:39 17.01.2021
3604 Clear 1 1028 74 10000 0.51 270 21:39 17.01.2021
3605 Clear 1 1029 74 10000 1.03 39 21:21 17.01.2021
3606 Clear 2 1028 75 10000 0.51 30 20:44 17.01.2021
3607 Clear 2 1028 64 10000 0.55 16 20:25 17.01.2021
3608 Clear 2 1028 69 10000 0.51 100 19:42 17.01.2021
3609 Clear 3 1028 60 10000 0.51 110 19:19 17.01.2021
3610 Clear 4 1028 49 10000 1.03 0 18:38 17.01.2021
3611 Clear 5 1028 45 10000 2.06 130 18:19 17.01.2021
3612 Clear 6 1028 46 10000 1.54 120 17:43 17.01.2021
3613 Clear 6 1028 46 10000 1.54 120 17:23 17.01.2021
3614 Clear 7 1028 37 10000 0.51 150 17:23 17.01.2021
3615 Clear 7 1028 37 10000 0.51 160 16:43 17.01.2021
3616 Clear 7 1028 43 10000 0.51 180 16:19 17.01.2021
3617 Clear 7 1028 42 10000 1.03 200 15:41 17.01.2021
3618 Clear 7 1028 42 10000 1.03 200 15:21 17.01.2021
3619 Clear 6 1028 42 10000 0.51 0 14:47 17.01.2021
3620 Clear 4 1029 45 10000 1.54 120 14:26 17.01.2021
3621 Clear 3 1030 48 10000 2.06 100 13:44 17.01.2021
3622 Clear 4 1030 48 10000 2.06 100 13:26 17.01.2021
3623 Clear 3 1030 52 10000 1.54 100 12:52 17.01.2021
3624 Clear 2 1030 45 10000 1.03 0 12:30 17.01.2021
3625 Clouds 1 1030 60 9000 0.51 0 11:48 17.01.2021
3626 Clear -1 1030 86 10000 0.51 0 11:22 17.01.2021
3627 Clear -1 1030 86 10000 0.51 0 10:44 17.01.2021
3628 Clear -3 1029 93 8000 0.95 48 10:20 17.01.2021
3629 Clear -4 1029 93 9000 0.51 290 09:20 17.01.2021
3630 Clear -3 1029 93 9000 1.06 34 08:43 17.01.2021
3631 Clear -3 1028 100 7000 0.51 0 06:29 17.01.2021
3632 Mist -1 1029 93 5000 0.42 58 04:28 17.01.2021
3633 Mist -1 1029 93 3600 0.64 49 02:38 17.01.2021
3634 Mist 1 1030 93 5000 0.51 240 00:47 17.01.2021
3635 Mist 1 1030 100 4800 0.51 0 00:18 17.01.2021
3636 Mist 1 1030 100 4800 0.51 0 23:48 16.01.2021
3637 Clear 0 1030 93 6000 0.51 240 23:19 16.01.2021
3638 Mist 1 1030 93 4700 0.6 68 22:34 16.01.2021
3639 Mist 2 1029 93 4200 0.6 68 21:58 16.01.2021
3640 Mist 2 1029 93 5000 0.13 351 21:24 16.01.2021
3641 Clear 1 1029 86 6000 0.13 351 20:53 16.01.2021
3642 Clear 1 1029 86 6000 0.13 351 20:53 16.01.2021
3643 Clear 1 1029 80 10000 0.58 241 20:30 16.01.2021
3644 Clear 1 1029 75 10000 0.58 241 19:55 16.01.2021
3645 Clear 2 1029 80 10000 1.03 130 19:37 16.01.2021
3646 Clear 2 1029 80 10000 1.03 130 19:18 16.01.2021
3647 Clear 4 1028 61 10000 1.03 0 18:40 16.01.2021
3648 Clear 4 1028 53 10000 0.51 0 18:20 16.01.2021
3649 Clear 5 1028 53 10000 1.54 180 17:41 16.01.2021
3650 Clear 6 1028 57 10000 2.57 180 17:21 16.01.2021
3651 Clear 6 1028 49 10000 2.06 180 16:45 16.01.2021
3652 Clear 6 1028 49 10000 2.06 180 16:25 16.01.2021
3653 Clear 6 1028 43 10000 2.06 180 15:48 16.01.2021
3654 Clear 6 1028 46 10000 1.03 190 14:59 16.01.2021
3655 Clear 5 1028 49 10000 1.03 230 14:19 16.01.2021
3656 Clear 4 1029 57 8000 0.51 230 13:48 16.01.2021
3657 Clear 4 1029 57 8000 0.51 230 13:21 16.01.2021
3658 Clear 2 1029 56 7000 0.51 0 12:39 16.01.2021
3659 Clear 0 1029 93 9000 0.53 52 12:20 16.01.2021
3660 Clear 0 1029 100 7000 0.51 0 11:46 16.01.2021
3661 Clear -1 1029 100 7000 0.51 0 11:24 16.01.2021
3662 Mist -1 1028 93 4000 0.51 0 10:45 16.01.2021
3663 Fog -3 1028 100 3000 1.18 42 10:19 16.01.2021
3664 Fog -3 1028 100 500 1.03 0 09:32 16.01.2021
3665 Clouds -3 1027 93 10000 0.51 0 08:35 16.01.2021
3666 Mist -3 1027 93 2000 0.18 53 07:32 16.01.2021
3667 Mist -2 1027 93 3300 0.06 213 06:43 16.01.2021
3668 Mist -2 1026 100 1400 0.75 207 04:39 16.01.2021
3669 Mist -2 1026 93 4100 0.31 125 02:56 16.01.2021
3670 Clouds 0 1027 100 8000 0.37 352 00:50 16.01.2021
3671 Clouds 0 1027 100 8000 0.42 33 00:28 16.01.2021
3672 Mist 0 1027 93 4300 0.51 0 23:58 15.01.2021
3673 Clear 1 1027 93 10000 0.51 0 23:21 15.01.2021
3674 Clear 1 1027 93 10000 0.5 21 22:25 15.01.2021
3675 Clear 1 1027 86 10000 0.51 0 21:46 15.01.2021
3676 Clouds 1 1027 86 9000 1.54 250 20:59 15.01.2021
3677 Clouds 1 1027 86 8000 1.54 260 20:40 15.01.2021
3678 Clouds 1 1027 86 8000 1.54 260 20:22 15.01.2021
3679 Clear 2 1027 80 10000 2.57 270 19:41 15.01.2021
3680 Clear 2 1027 80 10000 2.57 270 19:22 15.01.2021
3681 Clear 3 1026 70 10000 1.54 220 18:44 15.01.2021
3682 Clear 3 1026 70 10000 1.54 220 18:19 15.01.2021
3683 Clear 4 1026 65 10000 0.51 220 17:52 15.01.2021
3684 Clear 5 1027 57 10000 1.03 0 17:26 15.01.2021
3685 Clear 6 1027 57 10000 1.03 0 16:55 15.01.2021
3686 Clear 5 1027 57 10000 0.51 150 16:26 15.01.2021
3687 Clear 5 1027 61 10000 1.54 0 15:44 15.01.2021
3688 Clear 5 1027 65 10000 2.06 140 15:23 15.01.2021
3689 Clear 4 1027 61 10000 1.03 180 14:56 15.01.2021
3690 Clear 4 1027 61 10000 1.03 0 14:37 15.01.2021
3691 Clear 6 1027 53 10000 1.03 200 14:18 15.01.2021
3692 Clear 4 1028 70 10000 2.06 240 13:40 15.01.2021
3693 Clear 3 1028 65 10000 2.06 220 13:19 15.01.2021
3694 Clear 2 1029 70 10000 0.51 250 12:37 15.01.2021
3695 Clear 0 1029 80 10000 0.51 260 12:19 15.01.2021
3696 Clear 0 1029 65 9000 0.51 0 11:42 15.01.2021
3697 Clear -1 1029 75 8000 1.03 0 10:58 15.01.2021
3698 Mist -1 1028 93 5000 0.76 63 10:39 15.01.2021
3699 Clear -1 1028 93 7000 0.51 0 10:21 15.01.2021
3700 Mist -4 1028 100 5000 0.51 310 09:47 15.01.2021
3701 Mist -4 1028 93 3500 0.51 0 09:27 15.01.2021
3702 Fog -5 1027 93 3500 1.03 0 08:27 15.01.2021
3703 Clear -3 1027 93 8000 1.03 0 07:44 15.01.2021
3704 Clouds -3 1027 93 8000 1.03 0 07:22 15.01.2021
3705 Clouds -3 1027 100 6000 1.03 40 06:35 15.01.2021
3706 Clouds -1 1027 93 9000 0.08 129 02:43 15.01.2021
3707 Clear 0 1027 80 10000 0.49 59 00:41 15.01.2021
3708 Clouds 0 1027 93 9000 0.51 0 23:30 14.01.2021
3709 Clouds 0 1027 86 7000 1.03 0 22:56 14.01.2021
3710 Clouds 0 1027 93 8000 0.26 359 22:36 14.01.2021
3711 Clouds 0 1027 93 8000 0.26 359 22:36 14.01.2021
3712 Clouds 0 1027 74 8000 1.03 0 22:18 14.01.2021
3713 Clear 0 1026 80 10000 1.03 0 21:39 14.01.2021
3714 Clear 1 1026 80 10000 1.03 0 21:20 14.01.2021
3715 Clear 0 1026 86 10000 1.03 0 20:44 14.01.2021
3716 Clear 0 1026 86 10000 0.7 306 19:59 14.01.2021
3717 Clear 0 1026 86 10000 1.03 0 19:38 14.01.2021
3718 Clear 1 1026 69 10000 0.63 304 19:18 14.01.2021
3719 Clear 2 1026 60 10000 0.57 293 18:44 14.01.2021
3720 Clear 4 1026 52 10000 0.35 283 17:59 14.01.2021
3721 Clear 4 1026 52 10000 0.35 283 17:59 14.01.2021
3722 Clear 4 1025 52 10000 1.03 0 17:38 14.01.2021
3723 Clear 4 1025 52 10000 1.03 0 17:19 14.01.2021
3724 Clear 5 1025 45 10000 1.03 0 16:37 14.01.2021
3725 Clear 5 1025 40 10000 0.44 226 15:55 14.01.2021
3726 Clear 4 1025 52 10000 1.54 140 15:34 14.01.2021
3727 Clear 4 1026 45 10000 1.03 150 14:50 14.01.2021
3728 Clear 3 1026 45 10000 0.14 31 14:31 14.01.2021
3729 Clear 3 1026 42 10000 1.03 140 13:57 14.01.2021
3730 Clear 3 1027 52 10000 0.14 31 13:39 14.01.2021
3731 Clear 1 1027 64 10000 0.29 287 13:18 14.01.2021
3732 Clouds 0 1027 64 8000 0.38 332 12:38 14.01.2021
3733 Clouds -1 1027 64 8000 0.24 37 12:18 14.01.2021
3734 Clouds -1 1027 93 8000 0.24 37 11:41 14.01.2021
3735 Clouds -3 1027 93 8000 0.77 89 11:20 14.01.2021
3736 Clouds -4 1027 93 7000 0.77 89 10:47 14.01.2021
3737 Clouds -3 1027 93 7000 1.17 63 10:22 14.01.2021
3738 Clouds -4 1027 93 8000 1.17 63 09:44 14.01.2021
3739 Clear -5 1027 93 10000 1.2 45 09:22 14.01.2021
3740 Clear -5 1027 100 10000 1.2 45 08:43 14.01.2021
3741 Clear -5 1027 100 10000 0.79 34 08:22 14.01.2021
3742 Clear -5 1027 100 10000 0.8 34 07:45 14.01.2021
3743 Clear -6 1027 93 8000 0.79 21 06:43 14.01.2021
3744 Clear -4 1027 93 9000 0.51 0 05:34 14.01.2021
3745 Clear -1 1029 93 10000 1.03 10 00:36 14.01.2021
3746 Clear -1 1029 93 10000 0.51 0 23:49 13.01.2021
3747 Clear -1 1029 86 10000 0.51 0 23:21 13.01.2021
3748 Clear -1 1029 86 10000 0.51 350 22:28 13.01.2021
3749 Clear -1 1029 86 10000 0.95 21 21:50 13.01.2021
3750 Clear -1 1029 86 10000 0.57 4 21:28 13.01.2021
3751 Clear -1 1028 80 10000 0.57 4 20:57 13.01.2021
3752 Clear -1 1028 86 10000 0.3 274 20:29 13.01.2021
3753 Clear 0 1028 80 10000 0.3 274 19:57 13.01.2021
3754 Clear 0 1028 74 10000 0.51 120 19:37 13.01.2021
3755 Clear 0 1028 74 10000 0.51 120 19:18 13.01.2021
3756 Clear 2 1028 60 10000 1.03 0 18:37 13.01.2021
3757 Clear 3 1028 56 10000 2.06 120 17:51 13.01.2021
3758 Clear 3 1028 56 10000 2.06 120 17:51 13.01.2021
3759 Clear 3 1028 56 10000 1.54 140 17:24 13.01.2021
3760 Clear 3 1028 52 10000 1.54 170 16:51 13.01.2021
3761 Clear 5 1028 29 10000 0.47 119 16:22 13.01.2021
3762 Clear 4 1028 56 10000 0.47 119 15:52 13.01.2021
3763 Clear 5 1028 42 10000 0.51 0 15:34 13.01.2021
3764 Clear 3 1028 52 10000 1.54 130 14:48 13.01.2021
3765 Clear 3 1029 56 9000 1.54 120 13:53 13.01.2021
3766 Clear 2 1030 48 10000 1.03 0 13:31 13.01.2021
3767 Clear 1 1030 55 10000 0.31 15 12:47 13.01.2021
3768 Clear 0 1030 60 10000 0.51 0 12:28 13.01.2021
3769 Clear -1 1030 64 9000 0.51 0 11:55 13.01.2021
3770 Clear -2 1030 80 7000 1.03 0 11:35 13.01.2021
3771 Clear -3 1030 86 8000 1.03 0 10:56 13.01.2021
3772 Clear -4 1030 93 9000 0.51 0 10:37 13.01.2021
3773 Clear -4 1030 93 9000 0.51 0 10:18 13.01.2021
3774 Clear -6 1029 92 8000 1.17 56 09:31 13.01.2021
3775 Clear -8 1029 93 8000 1.03 0 08:52 13.01.2021
3776 Clear -7 1029 100 6000 1.03 0 08:31 13.01.2021
3777 Clear -8 1029 93 8000 0.51 0 07:35 13.01.2021
3778 Clear -7 1029 86 7000 1.11 40 06:56 13.01.2021
3779 Clear -7 1029 93 7000 0.51 350 04:21 13.01.2021
3780 Mist -5 1029 93 3900 1.03 0 03:48 13.01.2021
3781 Mist -6 1029 93 3900 1.03 0 03:29 13.01.2021
3782 Clear -4 1030 100 8000 1.03 0 01:44 13.01.2021
3783 Clear -4 1030 100 6000 0.51 0 00:29 13.01.2021
3784 Clear -4 1030 93 10000 0.41 145 23:24 12.01.2021
3785 Clear -3 1030 93 10000 1.03 50 22:47 12.01.2021
3786 Clear -3 1030 93 10000 1.03 50 22:24 12.01.2021
3787 Clear -2 1029 93 10000 0.51 130 21:53 12.01.2021
3788 Clear -2 1029 86 10000 0.51 170 21:31 12.01.2021
3789 Clear -2 1029 86 10000 0.35 140 20:53 12.01.2021
3790 Clear -2 1029 93 10000 0.44 193 20:29 12.01.2021
3791 Clear -2 1029 86 10000 0.44 193 19:56 12.01.2021
3792 Clear -2 1029 86 10000 0.51 0 19:37 12.01.2021
3793 Clear -1 1029 74 10000 0.51 110 18:51 12.01.2021
3794 Clear 0 1029 69 10000 1.03 100 18:25 12.01.2021
3795 Clear 1 1028 60 10000 1.03 0 17:55 12.01.2021
3796 Clear 1 1028 60 10000 2.06 150 17:31 12.01.2021
3797 Clear 1 1028 60 10000 2.06 150 17:31 12.01.2021
3798 Clear 2 1028 60 10000 1.54 150 16:44 12.01.2021
3799 Clear 2 1028 52 10000 1.03 0 16:25 12.01.2021
3800 Clear 2 1028 48 10000 0.51 0 15:45 12.01.2021
3801 Clear 2 1028 55 10000 1.03 0 15:24 12.01.2021
3802 Clear 1 1028 55 10000 1.03 0 14:49 12.01.2021
3803 Clear 1 1029 86 10000 1.03 130 14:26 12.01.2021
3804 Clear 1 1029 55 10000 1.03 190 13:54 12.01.2021
3805 Clear 0 1029 59 10000 1.03 190 13:33 12.01.2021
3806 Clear -2 1030 69 10000 1.03 120 12:33 12.01.2021
3807 Clear -4 1029 93 10000 1.03 0 11:45 12.01.2021
3808 Clear -4 1029 93 10000 1.03 0 11:26 12.01.2021
3809 Clear -5 1028 100 10000 0.63 129 10:43 12.01.2021
3810 Clear -6 1028 100 10000 0.69 81 10:19 12.01.2021
3811 Clear -8 1028 86 10000 0.69 82 09:52 12.01.2021
3812 Fog -8 1028 92 800 0.51 73 09:22 12.01.2021
3813 Clear -9 1027 92 9000 0.49 83 08:27 12.01.2021
3814 Clear -7 1027 93 6000 0.49 83 07:44 12.01.2021
3815 Clear -7 1027 93 6000 0.44 93 07:26 12.01.2021
3816 Clear -8 1026 93 10000 0.8 187 05:45 12.01.2021
3817 Clear -5 1026 92 10000 0.51 0 03:46 12.01.2021
3818 Clear -6 1026 93 10000 0.51 0 03:22 12.01.2021
3819 Clear -5 1026 100 10000 1.03 0 01:51 12.01.2021
3820 Clear -4 1025 100 10000 0.79 67 00:33 12.01.2021
3821 Clear -3 1025 100 10000 0.75 55 23:41 11.01.2021
3822 Clear -3 1024 93 10000 0.86 26 23:19 11.01.2021
3823 Clear -2 1024 93 10000 1.03 0 22:45 11.01.2021
3824 Clear -2 1024 93 10000 1.03 0 22:27 11.01.2021
3825 Clear -1 1024 93 10000 1.03 280 21:46 11.01.2021
3826 Clear 0 1024 80 10000 1.54 270 21:25 11.01.2021
3827 Clear 0 1023 80 10000 2.06 290 20:58 11.01.2021
3828 Clear -2 1023 93 10000 1.03 250 20:37 11.01.2021
3829 Clear -1 1023 93 10000 1.03 0 20:19 11.01.2021
3830 Clear 0 1022 86 10000 1.54 270 19:42 11.01.2021
3831 Clear 0 1022 86 10000 1.54 270 19:21 11.01.2021
3832 Clear 2 1022 64 10000 0.77 289 18:42 11.01.2021
3833 Clear 2 1022 60 10000 1.54 200 18:23 11.01.2021
3834 Clear 4 1021 45 10000 1.54 190 17:42 11.01.2021
3835 Clear 4 1021 45 10000 1.54 190 17:24 11.01.2021
3836 Clear 4 1021 48 10000 1.54 200 16:48 11.01.2021
3837 Clear 4 1021 52 10000 1.54 190 16:29 11.01.2021
3838 Clear 4 1021 48 10000 1.03 190 15:54 11.01.2021
3839 Clear 4 1020 52 10000 1.54 220 15:34 11.01.2021
3840 Clear 4 1020 48 10000 1.03 190 14:51 11.01.2021
3841 Clear 3 1020 48 10000 1.03 190 14:32 11.01.2021
3842 Clear 2 1021 64 10000 1.54 170 13:45 11.01.2021
3843 Clear 2 1021 55 10000 1.54 230 13:22 11.01.2021
3844 Clear 1 1021 60 10000 1.54 240 12:44 11.01.2021
3845 Clear 1 1021 60 10000 1.54 240 12:25 11.01.2021
3846 Clear -1 1021 69 10000 1.03 260 11:47 11.01.2021
3847 Clear -2 1020 86 10000 1.57 32 10:59 11.01.2021
3848 Clear -3 1020 100 10000 1.57 32 10:39 11.01.2021
3849 Clear -4 1019 100 10000 1.62 33 09:59 11.01.2021
3850 Clear -5 1019 100 10000 1.62 33 09:36 11.01.2021
3851 Clear -5 1019 100 10000 1.62 33 09:36 11.01.2021
3852 Clear -4 1019 100 10000 1.64 30 08:52 11.01.2021
3853 Clear -5 1018 100 10000 1.59 23 08:34 11.01.2021
3854 Clear -5 1018 100 10000 1.59 23 07:50 11.01.2021
3855 Clear -4 1018 100 10000 1.68 26 07:25 11.01.2021
3856 Clear -4 1018 100 10000 1.68 26 06:49 11.01.2021
3857 Clear -1 1017 75 10000 1.03 0 02:52 11.01.2021
3858 Clear 1 1016 80 10000 1.03 0 00:57 11.01.2021
3859 Clear 1 1016 80 10000 1.03 0 23:48 10.01.2021
3860 Clear 1 1016 80 10000 1.54 360 23:23 10.01.2021
3861 Clouds 2 1016 75 10000 1.54 360 22:44 10.01.2021
3862 Clouds 2 1016 75 10000 1.54 360 22:20 10.01.2021
3863 Clouds 2 1015 81 10000 1.54 350 21:41 10.01.2021
3864 Clouds 2 1015 81 10000 1.54 350 21:19 10.01.2021
3865 Clouds 2 1015 81 10000 1.54 350 20:49 10.01.2021
3866 Clouds 2 1015 81 10000 2.06 350 20:29 10.01.2021
3867 Clouds 2 1014 70 10000 1.54 50 19:42 10.01.2021
3868 Clouds 3 1014 70 10000 1.03 0 19:23 10.01.2021
3869 Clouds 3 1013 70 10000 2.06 70 18:45 10.01.2021
3870 Clouds 3 1013 70 10000 2.06 70 18:20 10.01.2021
3871 Clouds 4 1012 70 10000 3.6 60 17:26 10.01.2021
3872 Clouds 3 1012 65 10000 3.09 50 16:51 10.01.2021
3873 Clouds 3 1012 65 10000 3.09 50 16:31 10.01.2021
3874 Clouds 4 1011 65 10000 2.57 40 15:42 10.01.2021
3875 Clouds 4 1011 65 10000 3.09 50 15:24 10.01.2021
3876 Clouds 3 1011 65 10000 3.6 40 14:41 10.01.2021
3877 Clouds 3 1011 65 10000 3.6 40 14:23 10.01.2021
3878 Clear 3 1011 70 10000 3.6 50 13:48 10.01.2021
3879 Clear 3 1011 70 10000 3.09 40 13:27 10.01.2021
3880 Clouds 3 1011 70 10000 4.12 40 12:59 10.01.2021
3881 Clouds 3 1011 65 10000 3.6 0 12:41 10.01.2021
3882 Clouds 2 1011 65 10000 4.63 40 11:57 10.01.2021
3883 Clouds 2 1010 70 10000 4.63 50 11:21 10.01.2021
3884 Clouds 2 1009 70 10000 3.09 30 10:53 10.01.2021
3885 Clouds 1 1009 70 10000 3.09 30 10:25 10.01.2021
3886 Clouds 1 1009 80 10000 2.06 50 09:46 10.01.2021
3887 Clouds 0 1008 80 10000 2.06 20 08:50 10.01.2021
3888 Clouds 0 1008 86 10000 2.06 30 08:19 10.01.2021
3889 Clouds -1 1007 80 10000 3.08 32 07:27 10.01.2021
3890 Clear -1 1007 86 10000 2.66 33 06:18 10.01.2021
3891 Clear -1 1007 93 10000 2.66 33 05:34 10.01.2021
3892 Clouds 0 1006 100 8000 1.54 360 02:42 10.01.2021
3893 Clouds 1 1007 100 7000 1.54 340 00:38 10.01.2021
3894 Mist 1 1007 100 5000 1.03 0 23:43 09.01.2021
3895 Mist 0 1007 100 5000 1.03 0 23:25 09.01.2021
3896 Clouds 1 1005 93 10000 1.54 60 22:44 09.01.2021
3897 Clouds 1 1005 93 10000 1.54 60 22:18 09.01.2021
3898 Clouds 0 1005 100 6000 1.54 320 21:41 09.01.2021
3899 Clouds 0 1005 100 6000 1.54 320 21:23 09.01.2021
3900 Mist 1 1005 93 4500 2.06 50 20:59 09.01.2021
3901 Snow 0 1004 100 4200 1.03 0 20:38 09.01.2021
3902 Snow 0 1003 100 10000 1.03 0 19:44 09.01.2021
3903 Snow 0 1003 100 10000 1.03 0 19:22 09.01.2021
3904 Snow 0 1003 100 10000 1.54 110 18:39 09.01.2021
3905 Snow 0 1002 100 6000 2.06 120 18:20 09.01.2021
3906 Snow 0 1002 100 6000 2.06 120 17:45 09.01.2021
3907 Snow 0 1002 100 2800 1.54 110 17:27 09.01.2021
3908 Mist 0 1001 93 2500 1.54 80 16:33 09.01.2021
3909 Snow 0 1001 100 4200 2.06 60 15:52 09.01.2021
3910 Mist 0 1000 93 1400 2.06 40 15:32 09.01.2021
3911 Rain 0 1000 93 4800 2.06 30 14:40 09.01.2021
3912 Snow 0 1000 93 4800 2.06 30 14:20 09.01.2021
3913 Mist 0 1000 100 3100 2.06 40 13:48 09.01.2021
3914 Rain 0 1001 100 3900 3.09 40 13:29 09.01.2021
3915 Rain -1 1001 100 1400 3.6 40 12:48 09.01.2021
3916 Rain -1 1001 100 1400 3.6 40 12:22 09.01.2021
3917 Mist -1 1001 93 1000 4.12 40 11:55 09.01.2021
3918 Rain -1 1001 93 1500 4.63 40 11:30 09.01.2021
3919 Rain -1 1001 93 1200 5.14 40 10:52 09.01.2021
3920 Snow -1 1001 93 750 5.14 0 10:30 09.01.2021
3921 Snow -1 1001 100 750 5.14 30 09:53 09.01.2021
3922 Snow -1 1001 100 750 5.14 30 09:29 09.01.2021
3923 Fog -1 1000 100 500 6.17 30 08:35 09.01.2021
3924 Snow -1 1000 100 900 5.14 30 06:58 09.01.2021
3925 Snow -1 1000 100 500 5.14 30 06:39 09.01.2021
3926 Snow -1 1001 100 400 4.63 30 04:50 09.01.2021
3927 Snow -1 1002 100 700 4.63 30 03:22 09.01.2021
3928 Snow -1 1002 100 700 5.14 30 02:31 09.01.2021
3929 Snow -1 1002 100 500 4.63 30 01:46 09.01.2021
3930 Snow -1 1003 100 1100 3.6 30 00:36 09.01.2021
3931 Snow -1 1003 100 700 4.12 30 23:57 08.01.2021
3932 Snow -1 1004 100 600 4.12 30 22:58 08.01.2021
3933 Snow -1 1004 100 700 3.6 30 22:18 08.01.2021
3934 Snow -1 1005 100 800 3.6 30 21:44 08.01.2021
3935 Snow 0 1005 100 800 3.6 30 20:49 08.01.2021
3936 Snow 0 1005 100 800 3.6 30 20:25 08.01.2021
3937 Snow 0 1005 100 1000 3.6 30 19:55 08.01.2021
3938 Snow 0 1004 100 1000 4.12 30 19:22 08.01.2021
3939 Snow 0 1005 100 1000 4.12 30 18:36 08.01.2021
3940 Snow 0 1005 100 1000 4.12 30 18:18 08.01.2021
3941 Snow 0 1005 100 2000 3.6 30 17:44 08.01.2021
3942 Snow 0 1006 100 2000 4.12 10 17:20 08.01.2021
3943 Snow 0 1005 100 1500 4.12 20 16:33 08.01.2021
3944 Snow 0 1006 100 1500 3.09 30 15:43 08.01.2021
3945 Snow 0 1007 93 1500 2.06 30 14:51 08.01.2021
3946 Snow 0 1007 93 1500 2.06 20 14:32 08.01.2021
3947 Snow 0 1008 93 1500 2.57 10 13:41 08.01.2021
3948 Snow 0 1009 93 800 2.06 10 13:18 08.01.2021
3949 Snow 0 1009 86 1800 2.06 30 12:45 08.01.2021
3950 Snow 1 1009 86 1800 2.06 30 12:19 08.01.2021
3951 Snow 0 1010 75 5000 2.57 30 11:43 08.01.2021
3952 Snow 0 1010 69 10000 2.57 50 11:23 08.01.2021
3953 Snow 0 1010 69 10000 1.54 0 10:49 08.01.2021
3954 Snow 0 1010 69 10000 1.54 0 10:26 08.01.2021
3955 Snow 0 1009 69 10000 2.57 20 09:44 08.01.2021
3956 Snow 0 1009 64 10000 2.57 30 09:25 08.01.2021
3957 Clouds -1 1009 69 10000 1.54 10 08:23 08.01.2021
3958 Clouds -1 1009 74 10000 2.06 10 07:25 08.01.2021
3959 Clouds -1 1010 69 10000 2.06 10 05:43 08.01.2021
3960 Clear -1 1011 64 10000 3.09 30 23:46 07.01.2021
3961 Clear -1 1011 64 10000 3.09 30 23:46 07.01.2021
3962 Clear -1 1011 64 10000 3.09 30 23:28 07.01.2021
3963 Clear -1 1011 75 10000 2.57 30 22:44 07.01.2021
3964 Clear -1 1011 75 10000 2.57 30 22:25 07.01.2021
3965 Clear -1 1011 75 10000 2.57 30 22:25 07.01.2021
3966 Clear 0 1011 75 10000 2.06 30 21:42 07.01.2021
3967 Clear 0 1011 75 10000 2.06 0 21:24 07.01.2021
3968 Clear 0 1011 80 10000 2.06 40 20:46 07.01.2021
3969 Clear 0 1011 80 10000 2.06 40 20:28 07.01.2021
3970 Clouds 0 1011 93 10000 1.54 360 19:43 07.01.2021
3971 Clouds 0 1011 93 10000 1.54 360 19:20 07.01.2021
3972 Clouds 0 1011 93 10000 1.54 50 18:30 07.01.2021
3973 Clouds 1 1011 93 7000 1.54 20 17:42 07.01.2021
3974 Clouds 1 1011 93 7000 1.54 20 17:22 07.01.2021
3975 Snow 1 1011 93 5000 1.54 0 16:53 07.01.2021
3976 Snow 0 1011 93 2800 2.06 10 16:27 07.01.2021
3977 Rain 0 1011 93 2600 2.57 360 15:41 07.01.2021
3978 Snow 0 1011 93 3200 2.06 350 14:57 07.01.2021
3979 Snow 0 1010 93 3200 2.06 360 14:27 07.01.2021
3980 Snow 0 1012 93 2200 1.54 10 13:45 07.01.2021
3981 Snow 0 1012 93 2200 1.54 10 13:18 07.01.2021
3982 Snow 1 1012 80 7000 2.6 60 12:42 07.01.2021
3983 Snow 1 1012 80 7000 2.6 60 11:55 07.01.2021
3984 Snow 2 1011 64 10000 3.1 40 11:36 07.01.2021
3985 Snow 2 1011 59 10000 1.5 40 10:50 07.01.2021
3986 Clouds 1 1011 64 10000 1.5 60 10:31 07.01.2021
3987 Clouds 1 1010 64 10000 2.1 20 09:48 07.01.2021
3988 Clouds 1 1010 64 10000 2.1 30 09:20 07.01.2021
3989 Clouds 1 1010 64 10000 2.1 30 08:29 07.01.2021
3990 Clouds 1 1010 64 10000 1 0 07:53 07.01.2021
3991 Clouds 1 1010 64 10000 1.5 20 07:30 07.01.2021
3992 Clear 1 1010 59 10000 1.5 30 05:26 07.01.2021
3993 Clear 1 1011 64 10000 2.1 360 00:32 07.01.2021
3994 Clear 2 1011 64 10000 2.1 350 23:51 06.01.2021
3995 Clear 2 1012 59 10000 1.5 10 22:47 06.01.2021
3996 Clear 3 1012 59 10000 2.6 360 21:56 06.01.2021
3997 Clear 3 1012 55 10000 1.5 360 21:38 06.01.2021
3998 Clear 3 1012 55 10000 1.5 360 21:19 06.01.2021
3999 Clouds 4 1012 55 10000 1 0 20:39 06.01.2021
4000 Clouds 4 1012 51 10000 0.5 0 20:18 06.01.2021
4001 Clouds 4 1012 52 10000 0.5 0 19:41 06.01.2021
4002 Clouds 4 1011 48 10000 1 0 19:22 06.01.2021
4003 Clouds 5 1011 48 10000 1 0 18:42 06.01.2021
4004 Clouds 5 1011 45 10000 1 0 18:24 06.01.2021
4005 Clouds 5 1011 45 10000 1.5 70 17:43 06.01.2021
4006 Clouds 6 1011 45 10000 1.5 70 17:25 06.01.2021
4007 Clouds 6 1011 42 10000 2.1 60 16:45 06.01.2021
4008 Clouds 6 1011 42 10000 1.5 80 16:20 06.01.2021
4009 Clouds 6 1011 42 10000 1.5 80 15:54 06.01.2021
4010 Clouds 6 1011 42 10000 2.1 0 15:32 06.01.2021
4011 Clouds 6 1011 42 10000 1.5 90 14:56 06.01.2021
4012 Clouds 6 1012 45 10000 2.1 100 14:27 06.01.2021
4013 Clouds 4 1012 52 10000 2.1 80 13:47 06.01.2021
4014 Clouds 4 1012 52 10000 2.1 80 13:24 06.01.2021
4015 Clouds 4 1013 52 10000 2.1 40 12:53 06.01.2021
4016 Clouds 3 1013 55 10000 2.1 20 12:29 06.01.2021
4017 Clouds 2 1013 55 10000 1.5 30 11:40 06.01.2021
4018 Clouds 1 1013 64 10000 1 0 11:21 06.01.2021
4019 Clouds 0 1013 64 10000 1 0 10:31 06.01.2021
4020 Clouds -2 1012 79 10000 1 0 09:52 06.01.2021
4021 Clouds -2 1012 79 10000 1 0 09:22 06.01.2021
4022 Clear -3 1012 79 10000 1.5 360 08:41 06.01.2021
4023 Clear -2 1011 79 10000 0.5 0 08:18 06.01.2021
4024 Clear -2 1011 79 10000 2.1 10 07:41 06.01.2021
4025 Clear -2 1011 79 10000 1 10 05:53 06.01.2021
4026 Clear -1 1011 74 10000 0.5 0 04:43 06.01.2021
4027 Clear -1 1011 80 10000 1.5 360 02:55 06.01.2021
4028 Clear -1 1011 86 10000 2.1 47 02:36 06.01.2021
4029 Clear -1 1011 74 9000 0.5 50 02:18 06.01.2021
4030 Clear 1 1011 84 10000 0.5 0 23:44 05.01.2021
4031 Clear 1 1011 69 10000 1 0 22:53 05.01.2021
4032 Clear 0 1011 81 10000 0.73 63 22:34 05.01.2021
4033 Clear 0 1011 81 10000 0.73 63 21:59 05.01.2021
4034 Clear 1 1011 69 10000 0.47 96 21:19 05.01.2021
4035 Clear 2 1010 64 10000 0.43 111 20:30 05.01.2021
4036 Clear 2 1010 69 10000 1 0 19:45 05.01.2021
4037 Clear 3 1010 59 10000 1.5 150 19:24 05.01.2021
4038 Clear 4 1010 55 10000 2.1 150 18:50 05.01.2021
4039 Clear 4 1010 55 10000 2.1 150 18:28 05.01.2021
4040 Clear 5 1009 48 10000 1.5 170 17:54 05.01.2021
4041 Clear 6 1010 45 10000 1.5 150 17:32 05.01.2021
4042 Clear 6 1010 45 10000 1.5 0 16:57 05.01.2021
4043 Clear 6 1010 45 10000 1.5 0 16:36 05.01.2021
4044 Clear 6 1010 45 10000 1.5 190 16:18 05.01.2021
4045 Clouds 6 1010 45 10000 1.5 0 15:40 05.01.2021
4046 Clouds 5 1010 52 10000 2.1 170 14:48 05.01.2021
4047 Clouds 5 1011 52 10000 1.5 0 14:19 05.01.2021
4048 Clear 4 1011 52 10000 1.5 100 13:44 05.01.2021
4049 Clear 4 1012 56 10000 1 0 13:20 05.01.2021
4050 Clear 3 1012 60 10000 0.55 175 12:46 05.01.2021
4051 Clear 3 1012 60 10000 0.69 160 12:21 05.01.2021
4052 -273 0 0 0 0 0 11:37 05.01.2021
4053 Clear 1 1012 74 10000 2.1 0 11:36 05.01.2021
4054 -273 0 0 0 0 0 11:35 05.01.2021
4055 -273 0 0 0 0 0 11:35 05.01.2021
4056 Clear 1 1012 74 10000 2.1 0 11:34 05.01.2021
4057 Clear 0 1012 74 10000 1 0 10:46 05.01.2021
4058 Clear 0 1012 74 10000 1 0 10:26 05.01.2021
4059 Clear -1 1011 86 10000 0.59 136 09:48 05.01.2021
4060 Clear -3 1011 86 10000 0.44 69 09:28 05.01.2021
4061 Clear -3 1010 86 10000 0.67 40 08:25 05.01.2021
4062 Clear -1 1010 92 10000 1.5 320 06:46 05.01.2021
4063 Clear -1 1010 91 10000 2.1 290 03:56 05.01.2021
4064 Clear 1 1011 88 10000 3.6 250 00:50 05.01.2021
4065 Clear 1 1011 86 10000 4.1 260 23:46 04.01.2021
4066 Clear 1 1011 74 10000 4.1 260 23:25 04.01.2021
4067 Clear 2 1010 74 10000 4.1 260 22:51 04.01.2021
4068 Clear 2 1010 74 10000 4.1 260 22:32 04.01.2021
4069 Clear 2 1010 64 10000 2.1 250 21:49 04.01.2021
4070 Clear 2 1010 64 10000 2.1 250 21:31 04.01.2021
4071 Clear 3 1010 64 10000 3.6 280 20:44 04.01.2021
4072 Clouds 3 1009 64 10000 3.1 280 20:25 04.01.2021
4073 Clouds 3 1009 64 10000 3.1 280 19:52 04.01.2021
4074 Clouds 4 1009 55 10000 3.1 300 19:24 04.01.2021
4075 Clouds 4 1009 48 10000 4.6 280 18:54 04.01.2021
4076 Clouds 5 1009 52 10000 4.6 270 18:24 04.01.2021
4077 Clouds 5 1009 48 10000 4.1 270 17:42 04.01.2021
4078 Clouds 6 1008 45 10000 5.7 280 17:24 04.01.2021
4079 Clouds 6 1008 52 10000 4.6 260 16:46 04.01.2021
4080 Clouds 6 1008 52 10000 4.6 260 16:27 04.01.2021
4081 Clouds 6 1008 52 10000 5.7 250 15:49 04.01.2021
4082 Clouds 6 1009 52 10000 7.7 250 15:27 04.01.2021
4083 Clouds 6 1009 52 10000 7.7 250 15:27 04.01.2021
4084 Clouds 6 1009 48 10000 5.7 250 14:34 04.01.2021
4085 Clouds 6 1010 65 10000 4.6 190 13:46 04.01.2021
4086 Clouds 6 1010 52 10000 4.1 260 13:23 04.01.2021
4087 Clouds 5 1011 56 10000 4.6 260 12:38 04.01.2021
4088 Clear 4 1011 60 10000 4.1 250 11:58 04.01.2021
4089 Clear 3 1011 74 10000 3.1 250 11:22 04.01.2021
4090 Clear 3 1011 74 10000 3.1 250 11:22 04.01.2021
4091 Clear 3 1011 64 10000 2.6 270 10:48 04.01.2021
4092 Clear 3 1011 64 10000 2.6 270 10:27 04.01.2021
4093 Clear 2 1011 69 10000 3.1 270 09:53 04.01.2021
4094 Clouds 1 1011 74 10000 4.1 240 09:20 04.01.2021
4095 Clouds 2 1011 64 10000 3.1 260 08:45 04.01.2021
4096 Clear 1 1011 92 10000 3.6 250 07:55 04.01.2021
4097 Clear 1 1011 74 10000 3.6 270 07:31 04.01.2021
4098 Clouds 1 1011 89 10000 2.1 270 05:32 04.01.2021
4099 Clear 1 1011 87 10000 3.1 250 03:40 04.01.2021
4100 Clear 2 1012 80 10000 2.1 140 00:47 04.01.2021
4101 Clear 3 1013 69 10000 2.6 200 23:49 03.01.2021
4102 Clear 3 1013 69 10000 4.1 250 23:24 03.01.2021
4103 Clear 3 1013 69 10000 4.1 250 22:56 03.01.2021
4104 Clear 3 1013 64 10000 7.2 260 22:32 03.01.2021
4105 Clear 3 1013 69 10000 4.1 230 21:55 03.01.2021
4106 Clear 3 1013 64 10000 4.6 250 21:26 03.01.2021
4107 Clear 3 1013 64 10000 2.1 230 20:49 03.01.2021
4108 Clear 3 1013 64 10000 2.1 230 20:31 03.01.2021
4109 Clouds 3 1013 64 10000 1.5 270 19:56 03.01.2021
4110 Clouds 4 1013 69 10000 4.1 250 19:35 03.01.2021
4111 Clouds 4 1013 64 10000 3.6 230 18:57 03.01.2021
4112 Clouds 5 1012 60 10000 4.6 220 18:38 03.01.2021
4113 Clouds 5 1012 52 10000 5.7 220 18:19 03.01.2021
4114 Clouds 7 1012 48 10000 5.7 220 17:45 03.01.2021
4115 Clouds 7 1012 48 10000 5.1 210 17:23 03.01.2021
4116 Clouds 8 1013 42 10000 5.1 210 16:42 03.01.2021
4117 Clouds 8 1013 45 10000 5.7 240 16:20 03.01.2021
4118 Clouds 8 1013 45 10000 7.2 230 15:46 03.01.2021
4119 Clouds 8 1013 45 10000 7.2 230 15:27 03.01.2021
4120 Clouds 7 1013 45 10000 5.7 230 14:55 03.01.2021
4121 Clouds 7 1013 45 10000 6.7 230 14:29 03.01.2021
4122 Clouds 6 1014 48 10000 7.2 250 13:41 03.01.2021
4123 Clear 6 1014 48 10000 6.2 270 13:23 03.01.2021
4124 Clear 5 1015 52 10000 5.1 260 12:33 03.01.2021
4125 Clear 4 1015 60 10000 4.1 230 11:42 03.01.2021
4126 Clear 3 1015 69 10000 3.6 250 11:24 03.01.2021
4127 Clear 2 1015 74 10000 4.1 270 10:36 03.01.2021
4128 Clear 2 1015 74 10000 5.1 270 10:18 03.01.2021
4129 Clear 0 1015 74 10000 4.6 280 09:40 03.01.2021
4130 Clear 1 1015 74 10000 4.6 280 09:21 03.01.2021
4131 Clear 0 1014 80 10000 2.1 270 07:38 03.01.2021
4132 Clear 0 1014 69 10000 2.6 300 05:58 03.01.2021
4133 Clear 0 1014 74 10000 3.41 283 02:27 03.01.2021
4134 Clear 0 1015 74 10000 1.5 140 01:44 03.01.2021
4135 Clear 0 1015 68 10000 0.5 0 00:18 03.01.2021
4136 Clear 1 1015 68 10000 0.5 260 23:27 02.01.2021
4137 Clear 1 1014 55 10000 2.1 300 22:52 02.01.2021
4138 Clear 1 1014 55 10000 2.1 300 22:32 02.01.2021
4139 Clear 2 1014 59 10000 1.5 280 21:50 02.01.2021
4140 Clear 2 1014 59 10000 1.5 280 21:31 02.01.2021
4141 Clouds 2 1014 55 10000 2.1 290 20:50 02.01.2021
4142 Clouds 2 1014 55 10000 2.1 290 20:28 02.01.2021
4143 Clouds 3 1014 51 10000 2.6 300 19:59 02.01.2021
4144 Clouds 3 1014 55 10000 2.1 270 19:20 02.01.2021
4145 Clouds 3 1014 55 10000 2.1 270 18:56 02.01.2021
4146 Clouds 4 1014 44 10000 2.6 280 18:38 02.01.2021
4147 Clouds 4 1013 44 10000 2.1 320 18:19 02.01.2021
4148 Clouds 4 1013 44 10000 2.6 360 17:38 02.01.2021
4149 Clouds 4 1013 44 10000 3.1 360 16:53 02.01.2021
4150 Clouds 5 1012 41 10000 4.1 360 16:23 02.01.2021
4151 Clouds 5 1012 41 10000 3.6 360 15:53 02.01.2021
4152 Clouds 5 1012 41 10000 3.6 360 15:31 02.01.2021
4153 Clouds 5 1012 41 10000 3.1 310 14:54 02.01.2021
4154 Clouds 5 1012 41 10000 4.1 300 14:34 02.01.2021
4155 Clouds 5 1012 45 10000 5.7 290 13:44 02.01.2021
4156 Clouds 5 1012 52 10000 6.7 280 12:59 02.01.2021
4157 Clouds 5 1012 48 10000 7.2 290 12:41 02.01.2021
4158 Clouds 5 1012 48 10000 7.2 290 12:22 02.01.2021
4159 Clouds 4 1012 51 10000 4.6 300 11:42 02.01.2021
4160 Clouds 3 1012 51 10000 3.6 300 11:20 02.01.2021
4161 Clouds 3 1012 55 10000 4.6 290 10:42 02.01.2021
4162 Clouds 2 1012 55 10000 4.6 290 10:23 02.01.2021
4163 Clouds 1 1011 64 10000 4.6 290 09:43 02.01.2021
4164 Clouds 1 1011 69 10000 6.7 280 09:21 02.01.2021
4165 Clouds 1 1011 69 10000 6.7 280 08:48 02.01.2021
4166 Clear 0 1010 64 10000 6.2 280 08:19 02.01.2021
4167 Clear 1 1010 64 10000 7.7 280 07:25 02.01.2021
4168 Clear 1 1011 59 10000 7.2 270 06:58 02.01.2021
4169 Clear 1 1011 64 10000 4.6 270 06:18 02.01.2021
4170 Clear 1 1011 69 10000 5.1 290 04:26 02.01.2021
4171 Clear 2 1011 64 10000 7.2 280 00:53 02.01.2021
4172 Clear 3 1011 64 10000 4.1 300 00:33 02.01.2021
4173 Clear 2 1010 77 10000 3.6 270 23:43 01.01.2021
4174 Clear 2 1010 75 10000 3.6 270 23:19 01.01.2021
4175 Clear 2 1010 75 10000 6.2 240 22:47 01.01.2021
4176 Clear 3 1010 74 10000 6.7 260 22:22 01.01.2021
4177 Clouds 3 1010 69 10000 7.7 270 21:43 01.01.2021
4178 Clear 4 1009 74 10000 6.2 270 21:21 01.01.2021
4179 Clear 4 1009 74 10000 6.2 270 20:51 01.01.2021
4180 Clouds 4 1009 64 10000 4.1 240 20:19 01.01.2021
4181 Clouds 4 1009 60 10000 5.1 240 19:42 01.01.2021
4182 Clouds 4 1009 64 10000 4.6 260 19:23 01.01.2021
4183 Clouds 5 1009 56 10000 5.1 270 18:49 01.01.2021
4184 Clouds 5 1009 56 10000 5.1 270 18:31 01.01.2021
4185 Clouds 6 1009 48 10000 6.7 280 17:59 01.01.2021
4186 Clouds 6 1009 52 10000 5.1 280 17:40 01.01.2021
4187 Clouds 6 1009 45 10000 6.2 290 17:18 01.01.2021
4188 Clouds 6 1009 52 10000 8.2 290 16:36 01.01.2021
4189 Clouds 7 1008 48 10000 7.2 290 15:45 01.01.2021
4190 Clouds 7 1009 48 10000 6.2 300 14:56 01.01.2021
4191 Clouds 7 1009 48 10000 6.2 300 14:37 01.01.2021
4192 Clouds 7 1009 49 10000 6.7 270 13:46 01.01.2021
4193 Clouds 7 1009 49 10000 6.7 270 13:25 01.01.2021
4194 Clouds 6 1010 56 10000 8.2 290 12:43 01.01.2021
4195 Clouds 5 1010 56 10000 6.2 280 12:18 01.01.2021
4196 Clouds 5 1010 60 10000 6.2 290 11:39 01.01.2021
4197 Clouds 4 1010 60 10000 4.6 300 11:18 01.01.2021
4198 Clouds 4 1010 69 10000 5.1 300 10:43 01.01.2021
4199 Clouds 3 1009 74 10000 6.2 280 09:47 01.01.2021
4200 Clouds 3 1009 69 10000 7.7 290 09:21 01.01.2021
4201 Clouds 3 1008 69 10000 4.6 300 08:30 01.01.2021
4202 Clear 3 1007 77 10000 4.6 290 04:53 01.01.2021
4203 Clear 3 1007 80 10000 4.1 270 04:30 01.01.2021
4204 Clouds 3 1008 80 10000 4.6 240 01:39 01.01.2021
4205 Clear 4 1008 86 10000 6.2 240 00:31 01.01.2021
4206 Clouds 5 1009 93 9000 3.1 310 23:37 31.12.2020
4207 Clouds 5 1009 100 10000 5.7 240 23:19 31.12.2020
4208 Clouds 5 1009 93 10000 6.7 240 22:41 31.12.2020
4209 Clouds 5 1009 93 10000 5.1 240 22:21 31.12.2020
4210 Clouds 5 1010 93 10000 6.2 230 21:47 31.12.2020
4211 Clouds 5 1010 93 10000 6.2 230 21:29 31.12.2020
4212 Clouds 5 1010 93 10000 7.2 230 20:57 31.12.2020
4213 Clouds 5 1010 93 10000 7.2 230 20:24 31.12.2020
4214 Clouds 5 1011 93 9000 7.7 230 19:49 31.12.2020
4215 Clouds 5 1011 93 9000 7.7 230 19:31 31.12.2020
4216 Clouds 5 1011 87 10000 8.2 240 18:50 31.12.2020
4217 Clouds 5 1011 87 10000 8.2 240 18:25 31.12.2020
4218 Clouds 6 1012 81 10000 6.7 230 17:45 31.12.2020
4219 Clouds 6 1012 81 10000 5.1 220 17:25 31.12.2020
4220 Clouds 6 1012 75 10000 6.7 230 16:44 31.12.2020
4221 Clouds 6 1012 75 10000 6.7 230 16:26 31.12.2020
4222 Rain 7 1012 65 10000 6.2 210 15:57 31.12.2020
4223 Clouds 7 1012 61 10000 6.2 220 15:38 31.12.2020
4224 Clouds 7 1013 61 10000 6.7 220 15:18 31.12.2020
4225 Clear 7 1013 63 10000 4.6 220 14:40 31.12.2020
4226 Clear 7 1014 64 10000 4.1 230 14:21 31.12.2020
4227 Clear 6 1014 65 10000 4.1 200 13:42 31.12.2020
4228 Clear 6 1014 65 10000 4.1 200 13:24 31.12.2020
4229 Clear 6 1015 70 10000 3.6 210 12:55 31.12.2020
4230 Clear 5 1016 70 10000 3.6 200 12:37 31.12.2020
4231 Clear 4 1016 70 10000 2.6 170 11:58 31.12.2020
4232 Clear 3 1016 70 10000 3.1 190 11:40 31.12.2020
4233 Clear 3 1016 70 10000 3.1 190 11:40 31.12.2020
4234 Clear 3 1016 76 10000 3.1 190 11:21 31.12.2020
4235 Clouds 2 1016 80 10000 1 0 10:40 31.12.2020
4236 Clouds 2 1016 74 10000 3.06 234 10:22 31.12.2020
4237 Clear 0 1016 83 10000 3.06 234 09:47 31.12.2020
4238 Clear 0 1016 88 10000 0.5 130 09:22 31.12.2020
4239 Clear 0 1016 88 10000 0.5 130 08:46 31.12.2020
4240 Clear 0 1016 80 10000 1.5 230 08:27 31.12.2020
4241 Clear 0 1016 80 10000 1 0 07:52 31.12.2020
4242 Clear 0 1016 86 10000 3.1 260 06:57 31.12.2020
4243 Clear 1 1017 85 10000 2.1 240 05:30 31.12.2020
4244 Clear 2 1017 82 10000 2.6 250 03:25 31.12.2020
4245 Clear 2 1017 80 10000 3.1 260 02:27 31.12.2020
4246 Clear 3 1017 80 10000 2.6 250 01:53 31.12.2020
4247 Clear 3 1017 80 10000 3.1 270 01:33 31.12.2020
4248 Clear 2 1018 80 10000 3.1 280 00:55 31.12.2020
4249 Clear 3 1018 77 10000 2.6 260 00:26 31.12.2020
4250 Clear 3 1018 80 10000 3.1 260 23:21 30.12.2020
4251 Clear 3 1018 80 10000 3.1 260 22:59 30.12.2020
4252 Clear 4 1017 80 10000 3.1 270 22:34 30.12.2020
4253 Clear 4 1017 74 10000 4.1 260 21:52 30.12.2020
4254 Clear 4 1017 74 10000 4.1 260 21:27 30.12.2020
4255 Clear 5 1017 60 10000 1.5 350 20:53 30.12.2020
4256 Clear 5 1017 60 10000 1.5 350 20:28 30.12.2020
4257 Clear 5 1017 69 10000 2.1 250 19:58 30.12.2020
4258 Clouds 5 1017 52 10000 4.1 280 19:58 30.12.2020
4259 Clouds 6 1017 52 10000 4.1 280 19:37 30.12.2020
4260 Clouds 6 1017 52 10000 4.1 280 19:18 30.12.2020
4261 Clouds 6 1017 65 10000 4.1 270 18:38 30.12.2020
4262 Clouds 7 1017 52 10000 3.1 300 18:20 30.12.2020
4263 Clouds 7 1017 52 10000 4.1 310 17:43 30.12.2020
4264 Clouds 7 1017 49 10000 4.6 300 17:22 30.12.2020
4265 Clouds 8 1017 45 10000 4.1 310 16:43 30.12.2020
4266 Clouds 8 1016 42 10000 4.6 280 15:51 30.12.2020
4267 Clouds 8 1016 42 10000 4.6 280 15:30 30.12.2020
4268 Clouds 8 1017 42 10000 6.2 290 14:58 30.12.2020
4269 Clouds 8 1017 45 10000 4.1 280 14:39 30.12.2020
4270 Clouds 8 1017 49 10000 3.6 300 14:18 30.12.2020
4271 Clear 7 1017 52 10000 4.1 270 13:18 30.12.2020
4272 Clear 6 1018 52 10000 3.6 270 12:26 30.12.2020
4273 Clear 5 1018 60 10000 3.6 270 11:44 30.12.2020
4274 Clear 4 1017 69 10000 2.1 240 11:21 30.12.2020
4275 Clear 4 1017 69 10000 2.1 240 11:21 30.12.2020
4276 Clear 4 1017 69 10000 2.1 240 10:56 30.12.2020
4277 Clear 3 1017 69 10000 1.5 270 10:37 30.12.2020
4278 Clear 3 1016 64 10000 2.1 310 10:18 30.12.2020
4279 Clear 2 1016 74 10000 3.1 290 09:41 30.12.2020
4280 Clear 2 1015 74 10000 0.5 0 08:35 30.12.2020
4281 Clear 1 1014 69 10000 5.7 280 07:46 30.12.2020
4282 Clear 2 1014 64 10000 6.2 280 07:21 30.12.2020
4283 Clear 2 1014 74 10000 4.6 280 06:38 30.12.2020
4284 Clear 2 1013 74 10000 5.1 270 05:47 30.12.2020
4285 Clear 2 1013 74 10000 5.1 270 05:27 30.12.2020
4286 Clear 3 1012 69 10000 7.7 260 03:29 30.12.2020
4287 Clear 3 1012 69 10000 8.2 260 02:52 30.12.2020
4288 Clear 3 1012 74 10000 7.2 260 02:31 30.12.2020
4289 Clear 3 1012 74 10000 7.2 250 01:42 30.12.2020
4290 Clear 3 1012 74 10000 7.2 250 01:23 30.12.2020
4291 Clear 3 1012 74 10000 4.6 250 00:37 30.12.2020
4292 Clear 3 1011 74 10000 4.1 250 23:59 29.12.2020
4293 Clouds 4 1011 69 10000 5.7 250 23:40 29.12.2020
4294 Clouds 4 1011 64 10000 4.6 220 23:22 29.12.2020
4295 Clear 4 1010 69 10000 5.1 240 22:44 29.12.2020
4296 Clear 4 1010 69 10000 5.1 240 22:26 29.12.2020
4297 Clear 4 1010 64 10000 5.7 240 21:54 29.12.2020
4298 Clear 4 1009 64 10000 6.7 230 21:36 29.12.2020
4299 Clouds 4 1009 60 10000 6.7 280 20:55 29.12.2020
4300 Clouds 5 1009 64 10000 5.1 270 20:37 29.12.2020
4301 Clouds 5 1008 60 10000 5.7 280 20:19 29.12.2020
4302 Clouds 5 1008 56 10000 6.2 290 19:40 29.12.2020
4303 Clouds 5 1007 65 10000 4.6 280 19:20 29.12.2020
4304 Clouds 6 1007 60 10000 5.1 290 18:46 29.12.2020
4305 Clouds 6 1007 60 10000 5.1 290 18:27 29.12.2020
4306 Clouds 7 1006 52 10000 5.7 270 17:44 29.12.2020
4307 Clouds 7 1006 56 10000 3.6 280 17:20 29.12.2020
4308 Clouds 8 1006 52 10000 7.7 280 16:46 29.12.2020
4309 Clouds 7 1006 52 10000 7.7 280 16:24 29.12.2020
4310 Clouds 8 1005 49 10000 7.7 270 15:38 29.12.2020
4311 Clouds 8 1005 58 10000 6.7 270 15:19 29.12.2020
4312 Clouds 7 1005 70 10000 6.7 240 14:40 29.12.2020
4313 Clouds 8 1005 70 10000 7.2 240 14:20 29.12.2020
4314 Clouds 7 1006 70 10000 7.2 250 13:48 29.12.2020
4315 Clouds 7 1006 70 10000 7.2 250 13:23 29.12.2020
4316 Clouds 6 1006 81 10000 6.2 240 12:42 29.12.2020
4317 Clouds 6 1006 81 10000 6.2 240 12:23 29.12.2020
4318 Clouds 5 1006 86 10000 6.7 230 11:56 29.12.2020
4319 Clouds 4 1006 86 10000 6.2 230 11:31 29.12.2020
4320 Clouds 2 1005 93 10000 4.1 220 10:37 29.12.2020
4321 Clouds 2 1004 93 10000 5.1 240 09:50 29.12.2020
4322 Clouds 2 1004 93 10000 5.1 240 09:28 29.12.2020
4323 Clouds 2 1004 83 10000 5.7 230 08:55 29.12.2020
4324 Clouds 2 1004 84 10000 1.5 230 08:33 29.12.2020
4325 Clear 2 1004 83 10000 4.1 240 07:27 29.12.2020
4326 Clear 2 1004 83 10000 3.6 250 06:48 29.12.2020
4327 Clear 2 1004 93 10000 3.1 220 05:32 29.12.2020
4328 Clear 4 1005 86 10000 5.7 240 00:56 29.12.2020
4329 Clear 4 1005 86 10000 6.2 240 00:23 29.12.2020
4330 Clouds 4 1004 69 10000 3.6 190 23:36 28.12.2020
4331 Clear 5 1004 71 10000 4.1 230 22:30 28.12.2020
4332 Clear 6 1004 60 10000 6.2 270 21:47 28.12.2020
4333 Clear 6 1004 69 10000 4.1 240 21:28 28.12.2020
4334 Clouds 6 1004 60 10000 5.1 270 20:44 28.12.2020
4335 Clouds 6 1004 60 10000 5.1 270 20:44 28.12.2020
4336 Clouds 7 1004 56 10000 7.7 270 20:25 28.12.2020
4337 Clouds 7 1004 56 10000 8.2 270 19:50 28.12.2020
4338 Clouds 7 1004 56 10000 8.2 270 19:26 28.12.2020
4339 Clouds 7 1004 52 10000 7.7 260 18:59 28.12.2020
4340 Clouds 8 1004 49 10000 7.7 270 18:32 28.12.2020
4341 Clouds 8 1004 49 10000 9.3 260 17:51 28.12.2020
4342 Clouds 8 1004 49 10000 9.3 260 17:33 28.12.2020
4343 Clouds 9 1004 45 10000 6.7 270 16:59 28.12.2020
4344 Clouds 9 1004 49 10000 7.7 270 16:31 28.12.2020
4345 Clouds 9 1003 45 10000 8.2 260 15:54 28.12.2020
4346 Clouds 9 1003 46 10000 8.2 260 15:33 28.12.2020
4347 Clouds 9 1003 45 10000 7.7 280 14:34 28.12.2020
4348 Clouds 8 1004 49 10000 8.7 270 13:48 28.12.2020
4349 Clouds 8 1004 49 10000 8.7 270 13:21 28.12.2020
4350 Clouds 7 1005 49 10000 9.3 260 12:29 28.12.2020
4351 Clouds 7 1004 52 10000 7.7 280 11:56 28.12.2020
4352 Clouds 6 1004 56 10000 7.7 280 11:37 28.12.2020
4353 Clear 6 1004 56 10000 6.2 280 11:18 28.12.2020
4354 Clear 6 1003 60 10000 5.7 280 10:29 28.12.2020
4355 Clouds 5 1003 60 10000 6.2 280 09:58 28.12.2020
4356 Clouds 5 1002 65 10000 7.2 270 09:37 28.12.2020
4357 Clouds 5 1002 65 10000 6.7 250 09:18 28.12.2020
4358 Clouds 6 998 100 10000 5.1 260 06:53 28.12.2020
4359 Clouds 7 997 100 9000 10.3 240 05:25 28.12.2020
4360 Clouds 7 998 93 10000 9.3 220 03:51 28.12.2020
4361 Clouds 6 1000 81 10000 12.3 230 01:55 28.12.2020
4362 Clouds 5 1001 81 10000 12.3 220 23:58 27.12.2020
4363 Clouds 5 1003 86 10000 11.3 230 23:35 27.12.2020
4364 Clear 4 1004 86 10000 9.3 230 22:40 27.12.2020
4365 Clear 4 1004 80 10000 9.3 230 21:55 27.12.2020
4366 Clear 4 1005 75 10000 7.7 230 21:22 27.12.2020
4367 Clear 4 1005 78 10000 8.7 220 20:32 27.12.2020
4368 Clear 5 1007 65 10000 7.7 230 19:24 27.12.2020
4369 Clear 5 1008 65 10000 4.6 190 18:51 27.12.2020
4370 Clear 6 1009 60 10000 6.2 220 18:22 27.12.2020
4371 Clear 6 1009 60 10000 6.2 220 17:59 27.12.2020
4372 Clear 6 1009 60 10000 7.2 220 17:37 27.12.2020
4373 Clear 6 1009 60 10000 9.3 220 17:18 27.12.2020
4374 Clear 6 1009 60 10000 9.3 220 17:18 27.12.2020
4375 Clear 7 1010 60 10000 10.8 230 16:25 27.12.2020
4376 Clear 7 1011 58 10000 5.1 230 15:34 27.12.2020
4377 Clear 7 1012 59 10000 5.7 220 14:56 27.12.2020
4378 Clear 7 1013 56 10000 5.1 240 14:38 27.12.2020
4379 Clear 5 1014 60 10000 3.1 230 13:39 27.12.2020
4380 Clear 4 1015 69 10000 3.6 180 12:56 27.12.2020
4381 Clear 3 1016 65 10000 3.1 180 12:28 27.12.2020
4382 Clear 2 1017 74 10000 1.5 190 11:42 27.12.2020
4383 Clear 2 1017 80 10000 1.5 140 11:21 27.12.2020
4384 Clear 1 1017 80 10000 1 0 10:45 27.12.2020
4385 Clear 1 1017 80 10000 1 0 10:21 27.12.2020
4386 Clear 0 1017 100 10000 0.5 170 09:39 27.12.2020
4387 Clear -1 1018 86 10000 1 0 08:28 27.12.2020
4388 Clear -1 1018 92 10000 0.83 201 07:29 27.12.2020
4389 Clear -1 1019 92 10000 1.14 205 06:48 27.12.2020
4390 Clear 0 1019 86 10000 0.65 194 05:38 27.12.2020
4391 Clear 0 1021 80 10000 0.5 0 03:26 27.12.2020
4392 Clear 1 1022 82 10000 0.88 159 02:30 27.12.2020
4393 Clear 2 1023 80 10000 0.5 0 00:58 27.12.2020
4394 Clear 2 1023 80 10000 0.5 250 23:44 26.12.2020
4395 Clear 2 1023 80 10000 0.5 250 23:26 26.12.2020
4396 Clear 3 1024 69 10000 0.24 7 22:46 26.12.2020
4397 Clear 3 1024 69 10000 0.5 0 22:20 26.12.2020
4398 Clear 4 1024 80 10000 2.1 270 21:54 26.12.2020
4399 Clear 4 1024 74 10000 1.5 260 21:31 26.12.2020
4400 Clear 4 1024 69 10000 2.1 240 20:48 26.12.2020
4401 Clear 4 1024 69 10000 2.1 240 20:27 26.12.2020
4402 Clear 5 1024 60 10000 0.94 309 19:57 26.12.2020
4403 Clear 5 1024 64 10000 1.23 264 19:24 26.12.2020
4404 Clear 7 1025 45 10000 1 0 18:37 26.12.2020
4405 Clear 9 1024 39 10000 1 0 17:59 26.12.2020
4406 Clear 9 1025 39 10000 1.5 340 17:39 26.12.2020
4407 Clear 9 1025 39 10000 1.5 340 17:18 26.12.2020
4408 Clear 10 1025 34 10000 1 0 16:31 26.12.2020
4409 Clear 9 1026 34 10000 2.1 10 15:25 26.12.2020
4410 Clear 8 1026 34 10000 1 0 14:46 26.12.2020
4411 Clear 8 1026 34 10000 1 0 14:22 26.12.2020
4412 Clear 7 1027 39 10000 2.1 280 13:42 26.12.2020
4413 Clear 7 1027 39 10000 2.1 280 13:42 26.12.2020
4414 Clear 7 1028 39 10000 0.5 0 13:23 26.12.2020
4415 Clear 6 1028 45 10000 1.5 180 12:44 26.12.2020
4416 Clear 5 1029 52 10000 2.1 170 12:21 26.12.2020
4417 Clear 5 1029 52 10000 0.5 0 11:51 26.12.2020
4418 Clear 4 1028 60 10000 1 0 11:21 26.12.2020
4419 Clear 3 1028 56 10000 0.5 0 10:53 26.12.2020
4420 Clear 2 1028 56 10000 0.5 0 10:27 26.12.2020
4421 Clear 0 1028 79 10000 1 0 09:49 26.12.2020
4422 Clear 1 1028 79 10000 1 0 09:49 26.12.2020
4423 Clear 0 1028 79 10000 1 0 09:24 26.12.2020
4424 Clear 0 1028 74 10000 0.34 32 08:21 26.12.2020
4425 Clear 0 1028 74 10000 0.34 32 07:49 26.12.2020
4426 Clear 1 1028 83 10000 1 0 06:23 26.12.2020
4427 Clear 2 1029 64 10000 1.5 300 02:49 26.12.2020
4428 Clear 2 1030 51 10000 1.5 360 00:44 26.12.2020
4429 Clear 2 1030 51 10000 1.5 360 00:24 26.12.2020
4430 Clear 2 1029 55 10000 2.1 10 23:39 25.12.2020
4431 Clear 3 1029 59 10000 2.1 350 23:21 25.12.2020
4432 Clear 3 1029 55 10000 2.6 360 22:40 25.12.2020
4433 Clear 3 1029 55 10000 2.6 20 21:54 25.12.2020
4434 Clear 3 1029 55 10000 2.6 20 21:34 25.12.2020
4435 Clear 4 1028 52 10000 3.1 10 20:49 25.12.2020
4436 Clear 4 1028 52 10000 3.1 10 20:30 25.12.2020
4437 Clear 5 1027 48 10000 3.6 360 19:47 25.12.2020
4438 Clear 6 1027 42 10000 2.6 360 18:58 25.12.2020
4439 Clear 6 1027 42 10000 4.1 360 18:38 25.12.2020
4440 Clear 8 1026 36 10000 3.6 10 17:40 25.12.2020
4441 Clouds 8 1026 36 10000 4.1 360 17:21 25.12.2020
4442 Clouds 9 1026 39 10000 3.6 0 16:33 25.12.2020
4443 Clouds 9 1025 37 10000 3.6 350 15:57 25.12.2020
4444 Clouds 9 1026 39 10000 4.6 40 15:35 25.12.2020
4445 Clouds 9 1026 42 10000 4.6 10 14:49 25.12.2020
4446 Clouds 9 1026 42 10000 4.6 10 14:28 25.12.2020
4447 Clouds 8 1026 45 10000 5.1 10 13:44 25.12.2020
4448 Clouds 8 1026 45 10000 5.1 10 13:26 25.12.2020
4449 Clear 8 1027 45 10000 4.1 40 12:45 25.12.2020
4450 Clear 7 1027 42 10000 4.1 0 11:56 25.12.2020
4451 Clear 6 1027 48 10000 3.1 50 11:31 25.12.2020
4452 Clear 6 1026 56 10000 2.6 60 10:57 25.12.2020
4453 Clear 5 1026 56 10000 2.1 350 10:24 25.12.2020
4454 Clear 5 1025 65 10000 1.5 20 09:34 25.12.2020
4455 Clear 4 1025 73 10000 2.7 16 08:48 25.12.2020
4456 Clear 3 1025 73 10000 0.5 0 07:59 25.12.2020
4457 Clear 3 1024 72 10000 2.28 29 06:47 25.12.2020
4458 Clear 4 1024 68 10000 2.61 33 04:29 25.12.2020
4459 Clouds 6 1024 64 10000 1.5 30 01:42 25.12.2020
4460 Clouds 6 1024 52 10000 1.5 10 00:18 25.12.2020
4461 Clouds 7 1024 56 10000 2.1 20 23:23 24.12.2020
4462 Clouds 7 1023 56 10000 2.6 50 22:51 24.12.2020
4463 Clouds 8 1023 57 10000 2.6 50 22:22 24.12.2020
4464 Clouds 7 1023 57 10000 2.1 60 21:36 24.12.2020
4465 Clouds 8 1023 61 10000 2.6 60 20:48 24.12.2020
4466 Clouds 9 1022 66 10000 1 0 19:19 24.12.2020
4467 Clouds 10 1022 76 10000 1.5 40 18:20 24.12.2020
4468 Clouds 10 1022 71 10000 1.5 360 17:37 24.12.2020
4469 Clouds 11 1022 62 10000 2.1 20 16:59 24.12.2020
4470 Clouds 11 1022 71 10000 1 0 16:23 24.12.2020
4471 Clouds 11 1022 71 10000 0.5 0 15:43 24.12.2020
4472 Clouds 11 1022 76 10000 1 0 15:20 24.12.2020
4473 Clouds 10 1023 76 10000 1.5 340 14:51 24.12.2020
4474 Clouds 10 1023 81 10000 1 0 14:24 24.12.2020
4475 Drizzle 10 1023 87 4500 1.5 320 13:48 24.12.2020
4476 Drizzle 10 1023 87 4500 1.5 320 13:30 24.12.2020
4477 Mist 10 1024 93 4000 1.5 360 12:45 24.12.2020
4478 Mist 9 1024 93 3000 1.5 360 12:22 24.12.2020
4479 Mist 9 1024 93 3000 1.5 360 11:59 24.12.2020
4480 Mist 9 1024 100 3000 1.5 340 11:37 24.12.2020
4481 Mist 9 1024 100 3000 1 0 11:18 24.12.2020
4482 Mist 8 1024 93 3000 1 0 10:42 24.12.2020
4483 Mist 9 1023 93 3500 0.5 0 09:53 24.12.2020
4484 Mist 8 1023 93 3000 1.5 340 09:32 24.12.2020
4485 Mist 8 1023 100 4000 0.5 0 08:44 24.12.2020
4486 Clouds 9 1023 93 7000 0.5 0 07:48 24.12.2020
4487 Clouds 9 1023 93 7000 0.5 0 07:28 24.12.2020
4488 Mist 9 1023 93 3600 0.5 0 06:20 24.12.2020
4489 Clouds 9 1023 100 6000 1 250 03:23 24.12.2020
4490 Mist 9 1024 100 3200 1 250 01:48 24.12.2020
4491 Mist 9 1024 100 3600 0.5 0 01:18 24.12.2020
4492 Mist 9 1024 100 3600 0.5 0 01:18 24.12.2020
4493 Mist 9 1024 100 3600 0.5 0 01:18 24.12.2020
4494 Mist 9 1024 93 4800 1.5 250 00:23 24.12.2020
4495 Mist 9 1024 93 4800 1.5 250 23:56 23.12.2020
4496 Clouds 9 1024 93 6000 1.5 260 23:38 23.12.2020
4497 Clouds 9 1025 93 7000 1 0 23:18 23.12.2020
4498 Mist 9 1025 93 4300 1 0 22:42 23.12.2020
4499 Clouds 9 1024 93 6000 0.5 90 22:19 23.12.2020
4500 Clouds 9 1025 93 7000 2.61 238 21:32 23.12.2020
4501 Clouds 9 1025 93 6000 2.61 238 20:59 23.12.2020
4502 Mist 9 1025 93 5000 1 0 20:37 23.12.2020
4503 Mist 9 1025 93 5000 2.94 244 20:19 23.12.2020
4504 Mist 9 1025 93 5000 1 0 19:42 23.12.2020
4505 Mist 9 1024 93 5000 1.5 130 19:22 23.12.2020
4506 Mist 9 1024 93 5000 1.5 130 18:52 23.12.2020
4507 Clouds 9 1025 87 6000 4.05 236 18:34 23.12.2020
4508 Clouds 9 1024 87 6000 1.5 210 17:43 23.12.2020
4509 Clouds 10 1024 87 6000 1.5 210 17:22 23.12.2020
4510 Clouds 9 1024 93 6000 2.1 210 16:56 23.12.2020
4511 Clouds 10 1024 87 7000 1.5 200 16:31 23.12.2020
4512 Clouds 9 1024 100 7000 2.1 180 15:59 23.12.2020
4513 Clouds 9 1024 100 7000 2.1 180 15:39 23.12.2020
4514 Clouds 9 1025 100 6000 2.1 200 15:21 23.12.2020
4515 Clouds 9 1025 100 6000 2.1 200 14:46 23.12.2020
4516 Clouds 9 1025 100 6000 2.1 200 14:23 23.12.2020
4517 Mist 8 1026 100 3000 1.5 170 13:46 23.12.2020
4518 Mist 8 1026 100 1500 1 0 13:20 23.12.2020
4519 Mist 8 1026 100 1500 1 0 12:58 23.12.2020
4520 Mist 8 1027 100 1000 2.1 180 12:37 23.12.2020
4521 Fog 8 1027 100 500 2.1 170 12:18 23.12.2020
4522 Fog 8 1027 100 500 1 0 11:43 23.12.2020
4523 Fog 7 1026 100 300 1.58 217 10:57 23.12.2020
4524 Fog 7 1026 100 300 0.89 221 10:39 23.12.2020
4525 Fog 7 1025 100 300 2.1 150 09:45 23.12.2020
4526 Fog 6 1025 100 300 2.1 150 09:25 23.12.2020
4527 Fog 7 1025 100 200 0.53 235 08:42 23.12.2020
4528 Fog 7 1025 100 200 0.27 227 07:51 23.12.2020
4529 Fog 7 1024 100 200 1 0 06:59 23.12.2020
4530 Fog 7 1025 100 450 0.5 0 06:37 23.12.2020
4531 Fog 7 1025 100 300 1.5 130 05:25 23.12.2020
4532 Fog 7 1025 100 150 1.5 150 04:28 23.12.2020
4533 Fog 7 1026 100 150 1 0 00:33 23.12.2020
4534 Fog 7 1026 100 100 1 0 23:45 22.12.2020
4535 Fog 8 1026 100 100 1 0 23:26 22.12.2020
4536 Fog 8 1026 100 150 1 0 22:43 22.12.2020
4537 Fog 8 1026 100 150 0.5 0 22:25 22.12.2020
4538 Fog 8 1026 93 250 1 0 21:54 22.12.2020
4539 Fog 8 1026 93 150 0.94 25 21:22 22.12.2020
4540 Fog 8 1026 93 150 0.94 25 20:57 22.12.2020
4541 Fog 8 1026 100 100 0.5 0 20:38 22.12.2020
4542 Fog 8 1026 100 250 0.5 0 20:20 22.12.2020
4543 Fog 8 1026 100 250 0.56 358 19:42 22.12.2020
4544 Mist 8 1026 100 1300 1 0 19:20 22.12.2020
4545 Mist 9 1026 100 1800 1 0 18:47 22.12.2020
4546 Mist 9 1026 100 1800 1 0 18:27 22.12.2020
4547 Mist 9 1026 87 3500 1 0 17:45 22.12.2020
4548 Mist 10 1026 87 4400 1 0 17:18 22.12.2020
4549 Mist 10 1026 87 4000 0.5 0 16:48 22.12.2020
4550 Mist 10 1026 87 4000 1 0 16:22 22.12.2020
4551 Mist 10 1026 87 4000 1 0 15:51 22.12.2020
4552 Mist 10 1027 87 3500 0.5 0 15:33 22.12.2020
4553 Mist 9 1027 93 3100 1 0 14:59 22.12.2020
4554 Mist 9 1027 93 3500 1.5 120 14:41 22.12.2020
4555 Mist 9 1028 93 3500 1 0 14:22 22.12.2020
4556 Mist 9 1028 93 3500 1 0 13:47 22.12.2020
4557 Mist 9 1029 93 3200 0.5 0 13:19 22.12.2020
4558 Mist 9 1029 93 3200 0.5 0 12:55 22.12.2020
4559 Mist 9 1029 93 3000 1.5 90 12:36 22.12.2020
4560 Mist 8 1029 93 2000 1 0 12:18 22.12.2020
4561 Mist 8 1029 100 1600 1 0 11:40 22.12.2020
4562 Fog 7 1029 100 800 1 0 11:21 22.12.2020
4563 Fog 7 1029 100 800 1 0 10:53 22.12.2020
4564 Fog 7 1029 100 800 1 0 10:25 22.12.2020
4565 Mist 7 1029 100 2400 1 0 09:57 22.12.2020
4566 Mist 7 1029 100 1500 1 0 09:27 22.12.2020
4567 Mist 7 1029 100 1400 1.5 60 08:53 22.12.2020
4568 Mist 7 1029 100 1400 1.5 60 08:34 22.12.2020
4569 Mist 7 1029 100 2500 1.5 360 07:56 22.12.2020
4570 Mist 7 1029 100 1800 1.5 20 07:56 22.12.2020
4571 Mist 7 1029 100 2500 1.5 360 07:23 22.12.2020
4572 Mist 8 1029 93 4000 1.5 360 05:51 22.12.2020
4573 Mist 8 1030 100 5000 1 0 03:46 22.12.2020
4574 Mist 8 1030 100 2500 0.93 68 01:44 22.12.2020
4575 Clouds 9 1030 93 7000 1 0 23:56 21.12.2020
4576 Clouds 8 1030 93 7000 0.34 47 23:38 21.12.2020
4577 Clouds 9 1030 93 8000 0.5 160 23:18 21.12.2020
4578 Clouds 9 1030 93 9000 1 0 22:36 21.12.2020
4579 Clouds 9 1030 93 10000 0.5 0 22:18 21.12.2020
4580 Clouds 9 1030 93 10000 0.5 0 21:42 21.12.2020
4581 Clouds 9 1030 93 10000 0.5 0 21:24 21.12.2020
4582 Clouds 9 1030 87 10000 0.5 0 20:42 21.12.2020
4583 Clouds 9 1030 87 10000 0.5 0 20:20 21.12.2020
4584 Clouds 9 1030 87 10000 1 0 19:46 21.12.2020
4585 Clouds 9 1030 87 10000 0.5 0 19:20 21.12.2020
4586 Clouds 9 1030 87 10000 0.5 0 18:55 21.12.2020
4587 Clouds 9 1030 87 10000 1.4 239 18:36 21.12.2020
4588 Clouds 9 1030 87 10000 1 0 18:18 21.12.2020
4589 Clouds 9 1029 87 10000 1.5 260 17:41 21.12.2020
4590 Clouds 9 1029 87 10000 1.5 260 17:22 21.12.2020
4591 Clouds 9 1029 87 10000 1.5 240 16:39 21.12.2020
4592 Clouds 10 1029 87 10000 1 0 16:18 21.12.2020
4593 Clouds 10 1029 93 10000 2.1 210 15:41 21.12.2020
4594 Clouds 10 1029 93 10000 1.5 230 14:57 21.12.2020
4595 Clouds 9 1029 93 10000 2.6 180 14:22 21.12.2020
4596 Clouds 9 1030 93 10000 0.5 0 13:49 21.12.2020
4597 Clouds 8 1030 93 10000 0.5 0 13:31 21.12.2020
4598 Clouds 9 1030 93 10000 2.1 270 12:47 21.12.2020
4599 Clouds 9 1030 93 10000 2.1 270 12:25 21.12.2020
4600 Clouds 8 1030 93 10000 2.1 260 11:59 21.12.2020
4601 Clouds 8 1030 87 10000 1 0 11:40 21.12.2020
4602 Clouds 8 1030 100 9000 1.5 250 11:22 21.12.2020
4603 Clouds 8 1030 100 9000 1.5 250 10:55 21.12.2020
4604 Mist 7 1030 100 4500 1.5 190 10:36 21.12.2020
4605 Fog 7 1029 100 600 1.38 235 09:51 21.12.2020
4606 Mist 7 1029 100 4000 1.5 160 09:27 21.12.2020
4607 Mist 7 1029 100 5000 2.6 160 08:58 21.12.2020
4608 Fog 7 1028 100 600 1 260 08:18 21.12.2020
4609 Mist 6 1028 100 1800 1.5 190 06:47 21.12.2020
4610 Clouds 7 1028 100 6000 1.24 213 04:58 21.12.2020
4611 Clouds 7 1028 100 10000 2.1 230 02:32 21.12.2020
4612 Clear 7 1028 93 10000 1.5 200 00:35 21.12.2020
4613 Clear 7 1028 87 10000 2.1 200 23:38 20.12.2020
4614 Clear 7 1027 93 10000 0.5 0 23:19 20.12.2020
4615 Clear 7 1027 93 10000 0.5 0 22:42 20.12.2020
4616 Clear 7 1027 93 10000 0.5 0 22:22 20.12.2020
4617 Clear 8 1027 93 10000 1.5 240 21:41 20.12.2020
4618 Clear 8 1027 93 10000 1.5 240 21:22 20.12.2020
4619 Clear 8 1027 93 10000 1.5 200 20:54 20.12.2020
4620 Clear 8 1027 87 10000 1.5 190 20:26 20.12.2020
4621 Clear 8 1026 87 10000 2.1 160 19:58 20.12.2020
4622 Clear 8 1026 87 10000 2.6 240 19:38 20.12.2020
4623 Clear 8 1026 87 10000 2.6 240 19:20 20.12.2020
4624 Clouds 9 1026 81 10000 2.6 230 18:42 20.12.2020
4625 Clouds 10 1026 71 10000 2.1 250 18:23 20.12.2020
4626 Clouds 10 1025 71 10000 2.6 230 17:46 20.12.2020
4627 Clouds 11 1025 71 10000 2.6 230 17:28 20.12.2020
4628 Clouds 11 1025 71 10000 2.6 230 17:28 20.12.2020
4629 Clouds 12 1025 58 10000 2.1 190 16:47 20.12.2020
4630 Clouds 12 1025 58 10000 2.1 190 16:28 20.12.2020
4631 Clouds 12 1025 62 10000 1 0 15:50 20.12.2020
4632 Clouds 11 1025 66 10000 1 0 15:26 20.12.2020
4633 Clouds 11 1025 66 10000 1 0 14:56 20.12.2020
4634 Clouds 11 1025 71 10000 2.1 190 14:34 20.12.2020
4635 Clouds 10 1025 87 10000 0.5 240 13:48 20.12.2020
4636 Clouds 10 1025 87 10000 0.5 240 13:29 20.12.2020
4637 Clouds 9 1025 87 7000 1 250 12:59 20.12.2020
4638 Clouds 9 1025 76 10000 2.1 130 12:39 20.12.2020
4639 Clear 9 1025 81 10000 2.1 100 12:21 20.12.2020
4640 Clear 9 1025 81 10000 1 0 11:44 20.12.2020
4641 Clear 8 1025 81 10000 1 0 11:26 20.12.2020
4642 Clear 7 1024 87 10000 1 0 10:48 20.12.2020
4643 Clear 7 1024 93 10000 1 0 10:21 20.12.2020
4644 Clouds 6 1024 100 9000 1 0 09:46 20.12.2020
4645 Clouds 5 1024 100 9000 1 0 09:27 20.12.2020
4646 Clouds 5 1024 100 9000 1 0 09:27 20.12.2020
4647 Clouds 6 1023 100 9000 1 0 08:59 20.12.2020
4648 Clear 6 1023 100 10000 1 0 08:40 20.12.2020
4649 Clear 6 1022 100 10000 0.66 264 07:29 20.12.2020
4650 Clouds 7 1022 100 7000 1.5 340 06:28 20.12.2020
4651 Clouds 8 1021 93 10000 0.5 0 02:37 20.12.2020
4652 Clouds 8 1021 100 6000 1 0 00:41 20.12.2020
4653 Clouds 8 1021 100 6000 1.5 150 23:36 19.12.2020
4654 Clouds 8 1021 100 6000 1.5 170 23:18 19.12.2020
4655 Mist 8 1021 93 2900 1.5 180 22:41 19.12.2020
4656 Clouds 8 1021 100 7000 1 0 22:20 19.12.2020
4657 Mist 8 1021 100 3600 1.83 228 21:44 19.12.2020
4658 Mist 8 1021 93 4600 0.5 0 21:25 19.12.2020
4659 Mist 8 1021 93 4600 0.5 0 20:58 19.12.2020
4660 Mist 8 1020 93 2900 1 180 20:24 19.12.2020
4661 Mist 8 1020 93 2900 1.5 150 19:59 19.12.2020
4662 Clouds 8 1020 100 6000 2.1 140 19:41 19.12.2020
4663 Clouds 8 1020 100 8000 2.6 140 19:21 19.12.2020
4664 Clouds 8 1020 93 8000 1.5 160 18:33 19.12.2020
4665 Clouds 8 1019 100 6000 2.6 160 17:56 19.12.2020
4666 Mist 8 1019 100 3000 2.1 120 17:32 19.12.2020
4667 Mist 8 1019 93 4000 2.6 120 16:59 19.12.2020
4668 Mist 8 1019 93 4000 2.6 120 16:39 19.12.2020
4669 Mist 8 1019 93 3000 1.5 120 16:21 19.12.2020
4670 Mist 8 1019 93 3000 1.5 130 15:49 19.12.2020
4671 Mist 8 1019 93 2500 1.5 120 15:20 19.12.2020
4672 Clouds 8 1020 93 6000 2.1 130 14:37 19.12.2020
4673 Clouds 8 1020 100 5000 1.5 130 13:55 19.12.2020
4674 Clouds 8 1020 93 4000 1.5 120 13:36 19.12.2020
4675 Clouds 8 1020 100 6000 1.5 150 13:18 19.12.2020
4676 Clouds 8 1021 100 6000 2.6 140 12:41 19.12.2020
4677 Mist 8 1021 93 5000 2.1 130 12:21 19.12.2020
4678 Mist 8 1021 93 5000 1 0 11:53 19.12.2020
4679 Mist 8 1021 93 5000 1 0 11:32 19.12.2020
4680 Mist 8 1021 100 3000 1.5 130 10:42 19.12.2020
4681 Mist 8 1020 93 1900 2.1 140 10:18 19.12.2020
4682 Mist 7 1020 93 1500 2.1 140 09:42 19.12.2020
4683 Mist 7 1020 93 2000 2.1 140 08:59 19.12.2020
4684 Mist 7 1020 93 2700 1.5 150 08:20 19.12.2020
4685 Mist 8 1020 93 2900 2.1 160 07:20 19.12.2020
4686 Mist 8 1020 100 3600 2.1 150 06:50 19.12.2020
4687 Mist 8 1020 100 2200 1.5 210 05:24 19.12.2020
4688 Mist 8 1020 93 3900 2.6 200 03:50 19.12.2020
4689 Mist 7 1021 100 2300 3.1 200 00:49 19.12.2020
4690 Mist 8 1021 100 2300 3.1 200 00:22 19.12.2020
4691 Mist 8 1021 93 2900 2.1 190 23:57 18.12.2020
4692 Mist 8 1021 93 2900 2.1 180 23:39 18.12.2020
4693 Mist 8 1021 93 2900 2.1 180 23:18 18.12.2020
4694 Mist 8 1021 93 4200 1.5 180 22:42 18.12.2020
4695 Mist 8 1021 87 4600 1.5 160 22:20 18.12.2020
4696 Mist 8 1021 87 5000 1.5 150 21:46 18.12.2020
4697 Mist 8 1021 87 5000 1.5 150 21:28 18.12.2020
4698 Clouds 8 1021 93 7000 2.1 130 20:27 18.12.2020
4699 Clouds 9 1021 93 7000 1 140 19:52 18.12.2020
4700 Clouds 9 1022 93 7000 1.5 130 19:27 18.12.2020
4701 Clouds 9 1022 93 9000 1 240 18:54 18.12.2020
4702 Clouds 9 1022 93 9000 1 240 18:36 18.12.2020
4703 Clouds 9 1022 87 9000 1.5 250 18:18 18.12.2020
4704 Clouds 9 1022 81 9000 1 0 17:22 18.12.2020
4705 Clouds 10 1022 87 8000 1.5 180 16:49 18.12.2020
4706 Clouds 10 1022 87 8000 1.5 180 16:27 18.12.2020
4707 Clouds 10 1022 81 8000 1 0 15:56 18.12.2020
4708 Clouds 10 1022 81 8000 0.5 0 15:38 18.12.2020
4709 Clouds 10 1022 81 8000 2.32 202 15:20 18.12.2020
4710 Clouds 10 1022 81 8000 2.32 202 14:54 18.12.2020
4711 Clouds 9 1023 87 8000 1 0 14:21 18.12.2020
4712 Clouds 9 1023 81 7000 0.5 0 13:46 18.12.2020
4713 Clouds 9 1023 81 7000 0.5 0 13:24 18.12.2020
4714 Clouds 8 1024 93 6000 1.5 120 12:46 18.12.2020
4715 Clouds 8 1025 93 6000 1 0 11:51 18.12.2020
4716 Clouds 8 1025 87 8000 0.5 0 11:22 18.12.2020
4717 Clouds 7 1024 93 6000 0.5 0 10:39 18.12.2020
4718 Mist 7 1024 93 4000 0.7 58 10:20 18.12.2020
4719 Mist 6 1024 100 2000 1 0 09:39 18.12.2020
4720 Fog 6 1024 100 800 1 0 09:21 18.12.2020
4721 Fog 6 1024 100 800 1 0 08:53 18.12.2020
4722 Fog 6 1024 100 250 1 0 08:29 18.12.2020
4723 Fog 6 1023 100 7000 1.5 100 07:39 18.12.2020
4724 Clear 6 1024 100 9000 0.5 0 07:18 18.12.2020
4725 Clear 6 1024 100 10000 0.5 0 06:46 18.12.2020
4726 Clouds 6 1024 100 10000 0.5 0 05:41 18.12.2020
4727 Clouds 6 1024 100 8000 0.5 0 04:51 18.12.2020
4728 Clear 7 1024 100 9000 0.39 346 01:58 18.12.2020
4729 Clear 8 1024 100 9000 0.39 346 01:38 18.12.2020
4730 Clouds 9 1024 93 10000 1.5 260 23:58 17.12.2020
4731 Clouds 10 1024 100 10000 1 270 23:25 17.12.2020
4732 Clouds 10 1024 93 9000 0.5 210 22:54 17.12.2020
4733 Clouds 10 1024 93 10000 1 240 22:29 17.12.2020
4734 Clouds 10 1024 93 10000 1.5 290 21:57 17.12.2020
4735 Clouds 10 1024 93 10000 2.1 280 21:37 17.12.2020
4736 Clouds 10 1024 93 10000 2.1 280 21:19 17.12.2020
4737 Clouds 10 1024 93 10000 2.1 280 20:41 17.12.2020
4738 Clouds 10 1024 100 10000 1.18 269 20:19 17.12.2020
4739 Clouds 11 1024 87 10000 1 210 19:48 17.12.2020
4740 Clouds 11 1023 87 10000 1.5 280 19:24 17.12.2020
4741 Clouds 12 1023 87 10000 1.5 260 18:42 17.12.2020
4742 Clouds 12 1023 87 10000 1.5 260 18:24 17.12.2020
4743 Clouds 12 1023 81 10000 2.1 270 17:54 17.12.2020
4744 Clouds 12 1023 81 10000 1.5 210 17:33 17.12.2020
4745 Clouds 13 1022 71 10000 0.67 245 16:47 17.12.2020
4746 Clouds 13 1022 71 10000 0.73 231 16:28 17.12.2020
4747 Clouds 13 1022 67 10000 0.73 231 15:57 17.12.2020
4748 Clouds 13 1022 71 10000 1 0 15:39 17.12.2020
4749 Clouds 13 1022 67 10000 0.49 195 14:57 17.12.2020
4750 Clouds 13 1023 71 10000 0.49 195 14:37 17.12.2020
4751 Clouds 13 1023 71 10000 0.49 195 14:37 17.12.2020
4752 Clouds 12 1023 76 10000 0.28 34 13:59 17.12.2020
4753 Clouds 12 1023 76 10000 1 0 13:41 17.12.2020
4754 Clouds 12 1023 76 10000 2.1 360 12:58 17.12.2020
4755 Clouds 11 1023 87 10000 2.1 350 12:36 17.12.2020
4756 Clouds 10 1023 87 10000 2.6 350 11:58 17.12.2020
4757 Clouds 10 1023 87 10000 2.6 350 11:58 17.12.2020
4758 Clouds 10 1023 87 10000 2.6 350 11:38 17.12.2020
4759 Clouds 10 1023 87 10000 2.6 350 11:20 17.12.2020
4760 Clouds 10 1022 87 10000 1.5 350 10:33 17.12.2020
4761 Clouds 9 1022 93 8000 1.44 48 09:36 17.12.2020
4762 Clouds 8 1021 100 7000 1.58 32 08:40 17.12.2020
4763 Mist 8 1020 100 5000 2.1 340 07:41 17.12.2020
4764 Clouds 8 1020 100 6000 0.5 0 07:20 17.12.2020
4765 Clouds 8 1020 100 6000 0.5 0 06:45 17.12.2020
4766 Clouds 8 1020 100 6000 0.5 330 06:27 17.12.2020
4767 Mist 9 1019 100 4800 1 0 03:29 17.12.2020
4768 Clouds 9 1018 93 7000 1.5 360 00:20 17.12.2020
4769 Clouds 9 1018 93 9000 1 0 23:38 16.12.2020
4770 Clouds 9 1018 93 9000 1 0 23:18 16.12.2020
4771 Clouds 9 1018 93 10000 1 0 22:47 16.12.2020
4772 Clouds 9 1018 93 10000 1 0 22:28 16.12.2020
4773 Clouds 9 1017 93 7000 1.5 350 21:42 16.12.2020
4774 Clouds 9 1017 93 7000 1.5 350 21:22 16.12.2020
4775 Drizzle 9 1017 100 7000 2.1 350 20:49 16.12.2020
4776 Drizzle 9 1016 93 5000 1.5 360 20:20 16.12.2020
4777 Drizzle 9 1016 93 4000 2.1 350 19:38 16.12.2020
4778 Drizzle 10 1016 93 5000 2.6 330 19:18 16.12.2020
4779 Clouds 10 1015 93 10000 1.5 350 18:44 16.12.2020
4780 Clouds 10 1015 93 7000 2.6 350 18:22 16.12.2020
4781 Clouds 10 1015 81 10000 3.1 340 17:36 16.12.2020
4782 Clouds 11 1014 71 10000 1.5 60 16:43 16.12.2020
4783 Clouds 11 1014 71 10000 1.5 60 16:24 16.12.2020
4784 Clouds 11 1014 71 10000 1.5 60 15:57 16.12.2020
4785 Clouds 10 1014 76 10000 2.6 90 15:37 16.12.2020
4786 Clouds 10 1014 76 10000 3.1 110 15:18 16.12.2020
4787 Clouds 10 1015 76 10000 3.1 100 14:41 16.12.2020
4788 Clouds 10 1015 76 10000 2.6 80 14:22 16.12.2020
4789 Clouds 10 1015 81 10000 2.1 80 13:40 16.12.2020
4790 Clouds 10 1015 81 10000 2.1 80 13:20 16.12.2020
4791 Clouds 9 1015 81 10000 2.6 90 12:43 16.12.2020
4792 Clouds 8 1016 87 10000 2.1 100 11:49 16.12.2020
4793 Clouds 7 1015 87 10000 2.6 110 11:27 16.12.2020
4794 Clouds 7 1015 87 10000 2.6 110 10:54 16.12.2020
4795 Clouds 7 1015 87 10000 2.1 90 10:28 16.12.2020
4796 Clouds 6 1015 93 10000 1 0 09:55 16.12.2020
4797 Clouds 5 1015 93 10000 1 0 09:24 16.12.2020
4798 Clouds 6 1015 87 10000 2.1 100 08:22 16.12.2020
4799 Clouds 6 1014 87 10000 2.6 100 07:44 16.12.2020
4800 Clouds 6 1014 93 10000 2.6 100 07:20 16.12.2020
4801 Clouds 6 1016 87 10000 1.5 130 03:35 16.12.2020
4802 Clouds 6 1017 93 10000 1.5 140 01:59 16.12.2020
4803 Clouds 7 1017 87 10000 1.5 180 23:46 15.12.2020
4804 Clouds 7 1018 81 10000 2.1 190 23:19 15.12.2020
4805 Clear 7 1017 81 10000 1.5 190 22:41 15.12.2020
4806 Clear 7 1017 81 10000 1.5 190 22:20 15.12.2020
4807 Clouds 7 1017 81 10000 2.6 200 21:46 15.12.2020
4808 Clouds 7 1017 81 10000 2.1 200 21:23 15.12.2020
4809 Clear 8 1017 75 10000 2.1 190 20:45 15.12.2020
4810 Clear 8 1017 75 10000 2.1 190 20:27 15.12.2020
4811 Clear 8 1017 75 10000 2.6 200 19:55 15.12.2020
4812 Clear 8 1017 70 10000 3.6 220 19:33 15.12.2020
4813 Clouds 9 1017 66 10000 5.1 230 18:42 15.12.2020
4814 Clouds 9 1017 66 10000 5.1 230 18:22 15.12.2020
4815 Clouds 9 1016 66 10000 5.1 220 17:58 15.12.2020
4816 Clouds 10 1016 66 10000 5.7 220 17:40 15.12.2020
4817 Clouds 10 1016 66 10000 6.7 220 17:20 15.12.2020
4818 Clouds 11 1017 62 10000 6.2 240 16:32 15.12.2020
4819 Clouds 11 1016 62 10000 6.2 240 15:52 15.12.2020
4820 Clouds 11 1016 62 10000 5.1 240 15:31 15.12.2020
4821 Clouds 11 1017 71 10000 5.7 230 14:48 15.12.2020
4822 Clouds 11 1017 71 10000 6.2 240 14:21 15.12.2020
4823 Clouds 10 1017 76 10000 6.2 250 13:52 15.12.2020
4824 Clouds 10 1017 76 10000 6.2 250 13:32 15.12.2020
4825 Clouds 10 1018 81 10000 6.2 230 12:47 15.12.2020
4826 Clouds 9 1017 76 10000 6.7 230 12:22 15.12.2020
4827 Clouds 9 1017 76 10000 6.7 230 11:56 15.12.2020
4828 Clouds 9 1017 87 10000 4.6 230 11:26 15.12.2020
4829 Clouds 8 1017 87 10000 5.7 230 10:56 15.12.2020
4830 Clouds 8 1016 87 10000 5.7 230 10:34 15.12.2020
4831 Clouds 8 1016 87 10000 5.7 230 09:52 15.12.2020
4832 Clouds 8 1016 93 10000 6.2 230 09:32 15.12.2020
4833 Clouds 7 1015 93 10000 4.6 230 08:57 15.12.2020
4834 Clouds 8 1015 93 10000 5.1 230 08:29 15.12.2020
4835 Clouds 8 1014 93 10000 5.1 230 07:52 15.12.2020
4836 Clouds 8 1014 93 10000 5.1 230 07:28 15.12.2020
4837 Clouds 8 1013 100 10000 4.6 240 06:37 15.12.2020
4838 Clouds 9 1012 93 10000 3.6 210 04:18 15.12.2020
4839 Clouds 10 1012 93 10000 5.7 210 00:36 15.12.2020
4840 Clouds 10 1012 100 7000 4.1 170 23:27 14.12.2020
4841 Clouds 10 1011 93 7000 4.1 160 22:58 14.12.2020
4842 Clouds 10 1011 93 10000 3.1 150 22:36 14.12.2020
4843 Clouds 10 1012 93 8000 3.6 150 21:53 14.12.2020
4844 Clouds 10 1012 93 8000 3.6 150 21:35 14.12.2020
4845 Clouds 11 1011 81 10000 2.6 160 20:52 14.12.2020
4846 Rain 11 1011 81 10000 2.6 160 20:30 14.12.2020
4847 Clouds 11 1011 87 10000 1 0 19:55 14.12.2020
4848 Clouds 11 1011 93 10000 2.7 199 19:29 14.12.2020
4849 Clouds 12 1011 87 10000 1 0 18:51 14.12.2020
4850 Clouds 12 1011 87 10000 1 0 18:32 14.12.2020
4851 Clouds 12 1011 76 10000 3.1 200 17:48 14.12.2020
4852 Clouds 12 1011 76 10000 3.1 200 17:28 14.12.2020
4853 Clouds 13 1011 82 10000 3.1 210 16:52 14.12.2020
4854 Clouds 13 1011 71 10000 2.6 210 16:29 14.12.2020
4855 Clouds 13 1011 71 10000 3.1 210 15:46 14.12.2020
4856 Clouds 13 1011 71 10000 3.1 210 15:25 14.12.2020
4857 Clouds 12 1012 82 10000 2.6 190 14:43 14.12.2020
4858 Clouds 12 1012 82 10000 2.6 190 14:25 14.12.2020
4859 Clouds 12 1012 81 9000 1 0 13:46 14.12.2020
4860 Clouds 11 1012 81 9000 1 0 13:22 14.12.2020
4861 Clouds 10 1013 93 7000 1.5 120 12:53 14.12.2020
4862 Clouds 10 1013 93 7000 1.5 120 12:28 14.12.2020
4863 Clouds 10 1014 93 8000 2.1 150 11:35 14.12.2020
4864 Rain 10 1013 93 6000 1 0 10:43 14.12.2020
4865 Clouds 10 1013 93 6000 1 0 10:25 14.12.2020
4866 Mist 9 1013 100 1800 1.19 128 09:44 14.12.2020
4867 Drizzle 9 1012 93 1500 1.5 50 08:48 14.12.2020
4868 Clouds 9 1013 93 7000 1 0 08:30 14.12.2020
4869 Rain 9 1013 93 5000 2.1 100 07:45 14.12.2020
4870 Mist 9 1013 100 2300 1 0 06:48 14.12.2020
4871 Mist 9 1013 93 3300 0.5 0 05:37 14.12.2020
4872 Mist 9 1014 93 4300 1 0 02:39 14.12.2020
4873 Clouds 10 1015 93 10000 0.39 83 00:56 14.12.2020
4874 Clouds 10 1015 93 10000 1 0 00:34 14.12.2020
4875 Clouds 10 1015 87 10000 0.5 0 23:57 13.12.2020
4876 Clouds 10 1015 87 10000 1 0 23:39 13.12.2020
4877 Clouds 10 1015 93 10000 1 0 22:49 13.12.2020
4878 Clouds 10 1015 93 10000 0.5 250 22:20 13.12.2020
4879 Clouds 10 1015 93 10000 0.5 250 21:47 13.12.2020
4880 Clouds 10 1015 93 10000 0.5 250 21:28 13.12.2020
4881 Clouds 10 1015 93 10000 1.5 250 20:42 13.12.2020
4882 Clouds 10 1015 93 10000 1.5 250 20:23 13.12.2020
4883 Clouds 10 1015 87 10000 1.5 200 19:43 13.12.2020
4884 Clouds 10 1015 87 10000 1.5 200 19:22 13.12.2020
4885 Clouds 10 1015 87 10000 1 0 18:44 13.12.2020
4886 Clouds 11 1015 87 10000 1.5 160 18:21 13.12.2020
4887 Clouds 10 1015 87 10000 1.5 160 17:59 13.12.2020
4888 Clouds 11 1015 87 10000 0.5 0 17:41 13.12.2020
4889 Clouds 11 1015 87 10000 2.1 250 17:18 13.12.2020
4890 Clouds 11 1015 81 10000 2.1 240 16:39 13.12.2020
4891 Clouds 11 1016 81 10000 2.6 250 16:19 13.12.2020
4892 Clouds 12 1015 76 10000 2.6 200 15:45 13.12.2020
4893 Clouds 12 1015 76 10000 2.6 200 15:24 13.12.2020
4894 Clouds 12 1016 76 10000 3.1 170 14:45 13.12.2020
4895 Clouds 12 1016 76 10000 3.1 170 14:27 13.12.2020
4896 Clear 11 1017 71 10000 2.1 130 13:44 13.12.2020
4897 Clear 11 1017 71 10000 2.1 130 13:25 13.12.2020
4898 Clear 11 1017 66 10000 1 0 12:52 13.12.2020
4899 Clear 10 1018 71 10000 1 0 12:23 13.12.2020
4900 Clear 9 1018 76 10000 1.5 90 11:47 13.12.2020
4901 Clear 8 1018 76 10000 1.5 110 11:22 13.12.2020
4902 Clear 8 1017 81 10000 1.5 120 10:40 13.12.2020
4903 Clear 6 1017 87 10000 0.5 0 09:59 13.12.2020
4904 Clear 6 1017 93 10000 1 0 09:31 13.12.2020
4905 Clear 5 1017 100 10000 0.5 40 08:35 13.12.2020
4906 Clear 5 1017 100 10000 0.5 0 07:52 13.12.2020
4907 Clear 6 1016 93 10000 1 0 05:49 13.12.2020
4908 Clear 7 1017 81 10000 1.5 170 02:43 13.12.2020
4909 Clear 7 1017 70 10000 2.1 180 01:58 13.12.2020
4910 Clear 7 1017 70 10000 2.1 170 01:19 13.12.2020
4911 Clear 10 1017 62 10000 7.2 270 00:33 13.12.2020
4912 Clear 9 1017 62 10000 1.5 310 23:33 12.12.2020
4913 Clear 9 1017 71 10000 4.6 270 22:57 12.12.2020
4914 Clear 10 1017 66 10000 5.1 290 22:27 12.12.2020
4915 Clear 10 1017 66 10000 3.6 270 21:45 12.12.2020
4916 Clear 10 1017 66 10000 3.6 270 21:18 12.12.2020
4917 Clear 11 1017 62 10000 6.7 280 20:43 12.12.2020
4918 Clear 11 1017 62 10000 7.2 290 20:19 12.12.2020
4919 Clear 11 1017 62 10000 7.2 290 19:47 12.12.2020
4920 Clear 11 1017 66 10000 6.7 270 19:29 12.12.2020
4921 Clear 12 1016 62 10000 4.6 260 18:48 12.12.2020
4922 Clear 12 1016 62 10000 4.6 260 18:30 12.12.2020
4923 Clear 13 1016 54 10000 7.2 270 17:51 12.12.2020
4924 Clear 13 1016 54 10000 7.2 270 17:32 12.12.2020
4925 Clear 14 1015 50 10000 7.7 260 16:28 12.12.2020
4926 Clear 13 1015 50 10000 8.2 260 15:53 12.12.2020
4927 Clear 14 1015 50 10000 8.7 270 15:35 12.12.2020
4928 Clear 14 1015 50 10000 10.8 270 14:53 12.12.2020
4929 Clear 14 1015 50 10000 10.3 260 14:20 12.12.2020
4930 Clear 13 1016 54 10000 8.7 260 13:40 12.12.2020
4931 Clear 13 1016 54 10000 8.7 260 13:22 12.12.2020
4932 Clear 13 1016 54 10000 8.7 270 12:32 12.12.2020
4933 Clouds 12 1015 58 10000 7.7 270 11:18 12.12.2020
4934 Clouds 11 1015 62 10000 7.2 270 10:42 12.12.2020
4935 Clouds 10 1014 61 10000 6.7 270 09:23 12.12.2020
4936 Clear 10 1012 57 10000 10.8 280 07:26 12.12.2020
4937 Clear 12 1011 76 10000 2.6 240 00:50 12.12.2020
4938 Clear 13 1010 54 10000 8.2 260 23:19 11.12.2020
4939 Clouds 14 1010 76 10000 5.7 240 20:57 11.12.2020
4940 Clouds 15 1009 72 10000 10.3 260 19:42 11.12.2020
4941 Clouds 15 1008 87 10000 10.3 230 16:49 11.12.2020
4942 Clouds 15 1008 87 10000 11.3 240 14:29 11.12.2020
4943 Clouds 15 1009 93 10000 11.3 240 13:42 11.12.2020
4944 Clouds 14 1009 87 10000 10.8 240 12:22 11.12.2020
4945 Clouds 14 1010 93 10000 10.3 240 11:54 11.12.2020
4946 Clouds 14 1009 93 10000 8.2 230 11:35 11.12.2020
4947 Clouds 13 1009 100 10000 8.2 230 10:40 11.12.2020
4948 Clouds 13 1009 100 10000 6.7 220 07:31 11.12.2020
4949 Clouds 12 1009 100 10000 7.2 230 05:36 11.12.2020
4950 Clouds 12 1010 100 10000 7.2 230 04:47 11.12.2020
4951 Clouds 12 1012 100 10000 6.7 230 00:48 11.12.2020
4952 Clouds 12 1012 93 10000 5.1 220 23:27 10.12.2020
4953 Clouds 12 1013 93 10000 5.1 230 21:37 10.12.2020
4954 Clouds 12 1012 87 10000 6.7 240 20:51 10.12.2020
4955 Clouds 12 1012 87 10000 6.7 240 20:29 10.12.2020
4956 Clouds 12 1012 87 10000 7.7 230 19:29 10.12.2020
4957 Clouds 12 1012 87 10000 7.2 240 18:48 10.12.2020
4958 Clouds 13 1012 67 10000 9.8 260 17:29 10.12.2020
4959 Clouds 14 1012 71 10000 9.8 250 15:59 10.12.2020
4960 Clouds 15 1012 67 10000 8.2 260 15:22 10.12.2020
4961 Clouds 15 1012 62 10000 8.2 270 14:46 10.12.2020
4962 Clouds 13 1012 82 10000 5.7 220 13:51 10.12.2020
4963 Clouds 11 1012 81 10000 5.7 230 12:23 10.12.2020
4964 Clouds 10 1012 93 10000 9.3 230 10:57 10.12.2020
4965 Clouds 8 1012 100 10000 9.3 230 08:42 10.12.2020
4966 Clouds 8 1012 93 10000 10.3 240 07:31 10.12.2020
4967 Clouds 7 1012 100 10000 9.8 230 06:33 10.12.2020
4968 Clear 5 1015 87 10000 5.1 220 02:50 10.12.2020
4969 Clouds 5 1016 81 10000 5.1 230 01:50 10.12.2020
4970 Clear 5 1018 70 10000 3.6 230 23:49 09.12.2020
4971 Clear 6 1018 70 10000 5.7 240 20:41 09.12.2020
4972 Clear 6 1018 70 10000 4.1 240 20:20 09.12.2020
4973 Clear 7 1018 65 10000 4.1 230 18:58 09.12.2020
4974 Clear 8 1018 61 10000 4.1 210 17:36 09.12.2020
4975 Clear 9 1018 57 10000 4.6 240 16:40 09.12.2020
4976 Clear 9 1018 53 10000 4.6 240 16:20 09.12.2020
4977 Clouds 9 1018 49 10000 4.6 260 14:53 09.12.2020
4978 Clouds 9 1019 53 10000 4.1 270 14:27 09.12.2020
4979 Clouds 9 1019 53 10000 4.6 270 13:51 09.12.2020
4980 Clouds 8 1020 55 10000 5.7 290 13:18 09.12.2020
4981 Clouds 8 1020 55 10000 5.1 270 12:43 09.12.2020
4982 Clear 7 1020 64 10000 5.1 290 11:43 09.12.2020
4983 Clear 5 1019 69 10000 4.1 280 09:59 09.12.2020
4984 Clear 3 1018 77 10000 4.1 270 08:42 09.12.2020
4985 Clear 3 1018 80 10000 2.6 260 06:56 09.12.2020
4986 Clear 4 1017 76 10000 5.1 280 05:42 09.12.2020
4987 Clear 4 1016 72 10000 6.7 260 02:59 09.12.2020
4988 Clear 5 1016 70 10000 4.6 270 00:56 09.12.2020
4989 Clear 6 1016 68 10000 3.6 240 23:37 08.12.2020
4990 Clouds 6 1015 65 10000 5.7 270 22:43 08.12.2020
4991 Clear 7 1015 70 10000 5.1 250 20:49 08.12.2020
4992 Clouds 7 1014 65 10000 6.7 280 19:31 08.12.2020
4993 Clouds 8 1014 61 10000 4.6 290 18:57 08.12.2020
4994 Clouds 9 1013 49 10000 5.7 280 17:28 08.12.2020
4995 Clouds 9 1011 46 10000 5.7 280 15:27 08.12.2020
4996 Clouds 9 1012 45 10000 7.2 300 13:53 08.12.2020
4997 Clouds 9 1011 57 10000 8.2 270 12:54 08.12.2020
4998 Clouds 8 1011 57 10000 8.7 280 12:20 08.12.2020
4999 Clouds 8 1011 61 10000 9.3 270 11:28 08.12.2020
5000 Clouds 7 1011 65 10000 6.7 260 10:42 08.12.2020
5001 Clouds 6 1010 70 10000 5.7 250 09:46 08.12.2020
5002 Clear 5 1008 75 10000 7.2 240 07:47 08.12.2020
5003 Clear 6 1008 75 10000 5.7 250 06:33 08.12.2020
5004 Rain 6 1007 87 10000 5.1 270 02:59 08.12.2020
5005 Rain 7 1006 87 10000 6.2 250 00:45 08.12.2020
5006 Clouds 8 1006 70 10000 7.2 250 23:50 07.12.2020
5007 Clouds 9 1006 76 10000 7.2 250 22:32 07.12.2020
5008 Clouds 9 1007 87 10000 6.2 230 21:49 07.12.2020
5009 Drizzle 9 1006 93 10000 7.7 230 19:46 07.12.2020
5010 Clouds 10 1006 81 10000 7.7 230 18:20 07.12.2020
5011 Clouds 10 1006 81 10000 8.7 230 17:26 07.12.2020
5012 Clouds 11 1006 76 10000 7.7 240 16:52 07.12.2020
5013 Clouds 11 1007 71 10000 8.2 240 15:26 07.12.2020
5014 Clouds 11 1007 71 10000 6.7 240 14:44 07.12.2020
5015 Clouds 11 1007 76 10000 9.8 240 13:44 07.12.2020
5016 Clouds 10 1008 76 10000 9.8 250 12:35 07.12.2020
5017 Clouds 9 1008 93 10000 7.7 220 11:43 07.12.2020
5018 Clouds 9 1008 87 10000 8.2 230 10:56 07.12.2020
5019 Clouds 8 1008 93 10000 8.7 240 09:40 07.12.2020
5020 Clouds 7 1008 93 9000 8.7 240 07:58 07.12.2020
5021 Clouds 7 1009 87 10000 8.2 220 05:43 07.12.2020
5022 Clouds 7 1009 93 10000 7.2 240 04:48 07.12.2020
5023 Clouds 6 1010 93 10000 8.2 240 01:48 07.12.2020
5024 Clouds 5 1011 86 10000 8.2 230 23:32 06.12.2020
5025 Clouds 5 1011 80 10000 5.1 220 22:23 06.12.2020
5026 Clouds 6 1011 75 10000 6.2 230 20:53 06.12.2020
5027 Clouds 6 1011 75 10000 5.1 230 20:34 06.12.2020
5028 Clouds 6 1011 80 10000 5.1 240 19:53 06.12.2020
5029 Clouds 7 1010 65 10000 4.1 210 18:18 06.12.2020
5030 Clouds 7 1010 61 10000 5.1 220 16:44 06.12.2020
5031 Clouds 7 1011 56 10000 6.7 240 14:57 06.12.2020
5032 Clear 7 1011 56 10000 8.2 260 13:42 06.12.2020
5033 Clear 6 1011 60 10000 9.3 270 12:42 06.12.2020
5034 Clear 6 1011 60 10000 10.3 270 11:57 06.12.2020
5035 Clear 5 1011 65 10000 10.8 280 11:32 06.12.2020
5036 Clear 5 1010 65 10000 9.3 270 10:45 06.12.2020
5037 Clear 4 1010 74 10000 7.2 260 09:45 06.12.2020
5038 Clear 3 1009 69 10000 3.6 270 08:29 06.12.2020
5039 Clear 3 1008 69 10000 8.2 260 05:51 06.12.2020
5040 Clear 5 1008 65 10000 7.2 270 00:57 06.12.2020
5041 Clear 5 1008 65 10000 7.2 270 00:38 06.12.2020
5042 Clear 5 1008 65 10000 7.2 270 00:20 06.12.2020
5043 Clouds 6 1007 72 10000 4.6 230 22:41 05.12.2020
5044 Clouds 6 1007 71 10000 4.1 220 22:19 05.12.2020
5045 Clouds 6 1007 71 10000 4.1 220 21:47 05.12.2020
5046 Clouds 6 1007 70 10000 2.6 210 21:22 05.12.2020
5047 Clouds 7 1006 66 10000 5.7 250 19:21 05.12.2020
5048 Clouds 7 1005 60 10000 5.7 250 18:38 05.12.2020
5049 Clouds 7 1004 60 10000 5.7 220 16:51 05.12.2020
5050 Clouds 7 1004 58 10000 5.7 220 16:29 05.12.2020
5051 Clouds 7 1004 58 10000 4.6 220 15:37 05.12.2020
5052 Clouds 7 1004 49 10000 6.2 230 14:24 05.12.2020
5053 Clouds 5 1004 56 10000 7.2 260 11:51 05.12.2020
5054 Clouds 5 1004 60 10000 5.7 280 11:30 05.12.2020
5055 Clouds 3 1003 74 10000 3.1 250 10:29 05.12.2020
5056 Clouds 1 1001 84 10000 3.1 240 07:48 05.12.2020
5057 Clear 2 1000 80 10000 4.1 260 06:22 05.12.2020
5058 Clear 2 998 80 10000 4.1 260 03:39 05.12.2020
5059 Clear 4 997 69 10000 4.6 240 23:50 04.12.2020
5060 Clouds 4 996 69 10000 4.1 260 22:24 04.12.2020
5061 Clouds 4 995 60 10000 4.1 270 20:19 04.12.2020
5062 Clouds 5 995 80 10000 3.1 240 18:52 04.12.2020
5063 Clouds 5 994 80 10000 4.6 240 18:18 04.12.2020
5064 Clouds 7 994 52 10000 4.1 260 17:26 04.12.2020
5065 Clouds 7 995 52 10000 6.7 270 15:37 04.12.2020
5066 Clouds 7 996 70 10000 5.7 240 13:40 04.12.2020
5067 Clouds 7 996 70 10000 5.7 240 13:21 04.12.2020
5068 Clouds 7 997 65 10000 5.7 260 12:49 04.12.2020
5069 Clouds 6 997 70 10000 6.7 260 10:40 04.12.2020
5070 Clouds 6 997 75 10000 4.6 250 09:46 04.12.2020
5071 Clouds 5 996 93 10000 6.2 260 06:42 04.12.2020
5072 Clouds 6 996 87 10000 9.8 220 05:44 04.12.2020
5073 Clear 6 1001 87 10000 8.7 230 01:55 04.12.2020
5074 Clouds 7 1004 65 10000 6.2 230 22:52 03.12.2020
5075 Clouds 7 1004 65 10000 6.2 230 22:52 03.12.2020
5076 Clear 7 1004 65 10000 5.7 220 22:27 03.12.2020
5077 Clear 7 1006 65 10000 5.1 220 20:49 03.12.2020
5078 Clear 6 1007 61 10000 4.1 220 19:29 03.12.2020
5079 Clear 7 1007 61 10000 6.7 220 18:51 03.12.2020
5080 Clear 8 1007 52 10000 6.2 220 17:41 03.12.2020
5081 Clear 8 1008 52 10000 4.6 220 17:18 03.12.2020
5082 Clear 9 1009 45 10000 6.7 220 15:52 03.12.2020
5083 Clear 9 1009 45 10000 6.7 220 15:30 03.12.2020
5084 Clear 9 1011 49 10000 4.6 200 14:35 03.12.2020
5085 Clear 7 1012 52 10000 4.6 230 13:36 03.12.2020
5086 Clear 6 1014 52 10000 2.6 190 12:26 03.12.2020
5087 Clear 4 1015 74 10000 0.5 0 11:24 03.12.2020
5088 Clear 2 1015 69 10000 0.5 0 10:18 03.12.2020
5089 Clear 1 1015 86 10000 1 0 06:27 03.12.2020
5090 Clear 4 1017 69 10000 1 0 02:45 03.12.2020
5091 Clear 3 1018 80 10000 1.5 230 00:57 03.12.2020
5092 Clear 5 1018 64 10000 0.5 0 22:48 02.12.2020
5093 Clear 6 1018 56 10000 1 0 22:26 02.12.2020
5094 Clear 6 1018 52 10000 1.5 340 21:25 02.12.2020
5095 Clear 6 1018 56 10000 1.5 0 20:46 02.12.2020
5096 Clear 6 1018 56 10000 1.5 0 20:28 02.12.2020
5097 Clear 8 1017 45 10000 3.1 360 18:39 02.12.2020
5098 Clear 9 1016 39 10000 4.1 0 17:47 02.12.2020
5099 Clear 9 1016 43 10000 4.6 20 17:28 02.12.2020
5100 Clouds 10 1016 43 10000 7.7 360 15:37 02.12.2020
5101 Clouds 10 1017 50 10000 1 0 12:50 02.12.2020
5102 Clear 9 1017 57 10000 1.5 360 10:32 02.12.2020
5103 Clouds 8 1016 66 10000 1.5 350 09:32 02.12.2020
5104 Clear 9 1016 81 10000 1.5 260 05:53 02.12.2020
5105 Clear 11 1019 57 10000 1.5 330 22:54 01.12.2020
5106 Clear 10 1019 81 10000 1 0 22:18 01.12.2020
5107 Clear 12 1020 66 10000 2.6 260 19:36 01.12.2020
5108 Clear 12 1020 66 10000 2.6 260 18:45 01.12.2020
5109 Clear 16 1020 29 10000 1.5 0 16:37 01.12.2020
5110 Clear 13 1022 58 10000 0.5 0 13:54 01.12.2020
5111 Clear 11 1024 54 10000 1 0 12:28 01.12.2020
5112 Clear 8 1024 66 10000 1 0 11:28 01.12.2020
5113 Clear 8 1024 66 10000 1.58 58 10:44 01.12.2020
5114 Clear 8 1024 66 10000 1.77 54 10:25 01.12.2020
5115 Clear 5 1023 86 10000 0.5 0 07:19 01.12.2020
5116 Clear 7 1024 87 10000 0.5 0 02:41 01.12.2020
5117 Clear 8 1025 87 10000 1 0 00:57 01.12.2020
5118 Clear 9 1024 81 10000 2.1 360 23:22 30.11.2020
5119 Clear 9 1024 76 10000 2.1 360 22:45 30.11.2020
5120 Clear 9 1023 76 10000 1.5 360 22:26 30.11.2020
5121 Clear 9 1023 76 10000 1.5 360 21:56 30.11.2020
5122 Clear 11 1023 76 10000 0.5 0 19:45 30.11.2020
5123 Clear 12 1022 66 10000 1 0 18:40 30.11.2020
5124 Clear 13 1022 62 10000 1.5 70 18:20 30.11.2020
5125 Clear 13 1022 62 10000 1.5 60 17:43 30.11.2020
5126 Clear 14 1022 54 10000 2.1 50 16:44 30.11.2020
5127 Clear 13 1023 62 10000 2.1 20 14:47 30.11.2020
5128 Clear 12 1023 71 10000 1 0 13:55 30.11.2020
5129 Clear 10 1024 76 10000 1.5 10 12:40 30.11.2020
5130 Clear 10 1024 76 10000 1.5 360 12:20 30.11.2020
5131 Clear 8 1023 81 10000 1.5 10 10:32 30.11.2020
5132 Clear 6 1023 87 10000 2.9 51 09:52 30.11.2020
5133 Clear 6 1022 87 10000 1 0 07:58 30.11.2020
5134 Clear 7 1021 93 10000 0.5 0 01:21 30.11.2020
5135 Clear 8 1019 87 10000 1.5 10 22:22 29.11.2020
5136 Clear 9 1019 87 10000 2.1 10 21:43 29.11.2020
5137 Clear 9 1019 81 10000 2.1 360 21:25 29.11.2020
5138 Clear 10 1018 71 10000 1 60 18:31 29.11.2020
5139 Clouds 12 1017 62 10000 2.1 70 16:59 29.11.2020
5140 Clouds 9 1017 87 10000 1.5 80 13:35 29.11.2020
5141 Clouds 9 1017 87 10000 1.5 80 13:35 29.11.2020
5142 Clouds 9 1018 93 10000 2.6 60 12:43 29.11.2020
5143 Clouds 7 1017 93 6000 1.5 60 11:22 29.11.2020
5144 Fog 7 1015 100 800 2.6 60 08:52 29.11.2020
5145 Mist 7 1015 93 2000 3.1 60 08:34 29.11.2020
5146 Mist 7 1013 93 4900 0.5 0 02:31 29.11.2020
5147 Mist 8 1011 93 5000 1.5 90 22:58 28.11.2020
5148 Mist 8 1011 93 5000 1 170 22:18 28.11.2020
5149 Clouds 9 1009 93 8000 1.5 200 19:56 28.11.2020
5150 Clouds 9 1009 87 10000 2.6 200 19:27 28.11.2020
5151 Clouds 10 1009 81 10000 1.5 200 18:55 28.11.2020
5152 Clouds 10 1008 76 10000 1.5 210 18:19 28.11.2020
5153 Clouds 11 1008 76 10000 2.6 200 16:56 28.11.2020
5154 Clouds 11 1007 76 10000 2.6 190 14:58 28.11.2020
5155 Clouds 10 1006 81 10000 2.6 170 13:47 28.11.2020
5156 Clouds 10 1007 71 10000 1 0 11:27 28.11.2020
5157 Clouds 7 1006 100 10000 1 140 09:25 28.11.2020
5158 Clouds 9 1006 76 10000 2.1 30 03:39 28.11.2020
5159 Clear 9 1006 87 10000 2.1 350 01:52 28.11.2020
5160 Clear 8 1007 93 10000 1 0 23:21 27.11.2020
5161 Clouds 9 1007 87 10000 1.5 50 22:24 27.11.2020
5162 Clouds 9 1007 100 10000 2.1 350 20:39 27.11.2020
5163 Clouds 9 1008 93 10000 1 0 19:34 27.11.2020
5164 Clouds 9 1008 93 10000 2.1 40 18:57 27.11.2020
5165 Clouds 9 1008 93 10000 1.5 20 16:27 27.11.2020
5166 Clouds 9 1009 93 7000 1 0 14:23 27.11.2020
5167 Clouds 10 1010 93 8000 2.1 80 13:18 27.11.2020
5168 Clouds 10 1010 87 9000 2.1 30 12:46 27.11.2020
5169 Rain 10 1010 81 9000 3.6 50 11:34 27.11.2020
5170 Clouds 11 1010 71 10000 3.1 30 10:43 27.11.2020
5171 Clear 11 1009 71 10000 3.1 10 09:31 27.11.2020
5172 Clouds 11 1012 81 10000 1.5 80 23:39 26.11.2020
5173 Clouds 12 1012 76 10000 4.02 113 22:25 26.11.2020
5174 Clouds 12 1011 76 10000 4.6 90 21:45 26.11.2020
5175 Clouds 13 1011 76 10000 4.6 90 20:43 26.11.2020
5176 Clouds 12 1009 87 10000 1.5 30 18:36 26.11.2020
5177 Clouds 12 1009 93 10000 2.1 20 17:31 26.11.2020
5178 Clouds 11 1010 87 8000 2.1 50 13:58 26.11.2020
5179 Clouds 11 1011 87 8000 1.5 40 12:58 26.11.2020
5180 Clouds 11 1011 87 10000 3.1 50 12:39 26.11.2020
5181 Clouds 9 1012 100 8000 2.1 20 10:50 26.11.2020
5182 Clouds 9 1012 93 8000 2.1 40 10:23 26.11.2020
5183 Clouds 9 1012 100 6000 2.1 50 09:37 26.11.2020
5184 Clouds 9 1012 93 7000 1.5 50 08:58 26.11.2020
5185 Clouds 9 1012 93 7000 2.1 50 08:34 26.11.2020
5186 Clouds 9 1012 87 9000 3.6 100 02:19 26.11.2020
5187 Clouds 11 1012 81 10000 3.1 100 22:20 25.11.2020
5188 Clouds 11 1012 87 10000 4.48 130 20:38 25.11.2020
5189 Clouds 11 1011 66 10000 3.1 80 19:26 25.11.2020
5190 Clouds 12 1012 66 10000 2.1 60 17:29 25.11.2020
5191 Clouds 12 1013 71 10000 2.6 70 15:47 25.11.2020
5192 Clouds 12 1013 62 10000 2.6 90 15:23 25.11.2020
5193 Clouds 11 1011 71 10000 0.89 138 13:46 25.11.2020
5194 Clouds 9 1016 76 10000 2.1 90 12:58 25.11.2020
5195 Clouds 9 1016 76 10000 1 0 11:26 25.11.2020
5196 Clouds 7 1016 87 10000 1.5 360 09:22 25.11.2020
5197 Clouds 7 1016 81 10000 1 0 08:50 25.11.2020
5198 Clouds 6 1016 81 10000 0.5 0 07:53 25.11.2020
5199 Clouds 6 1017 81 10000 1.28 219 03:54 25.11.2020
5200 Clouds 6 1018 93 9000 1.44 212 01:50 25.11.2020
5201 Clear 7 1019 86 10000 0.5 170 00:22 25.11.2020
5202 Clear 8 1020 87 10000 1 170 23:36 24.11.2020
5203 Clear 8 1020 87 10000 1 170 23:36 24.11.2020
5204 Clear 8 1020 87 10000 0.5 0 22:51 24.11.2020
5205 Clear 9 1020 81 10000 1 240 21:50 24.11.2020
5206 Clear 9 1020 81 10000 1 240 21:27 24.11.2020
5207 Clear 9 1020 81 10000 0.5 210 20:19 24.11.2020
5208 Clear 11 1020 58 10000 1 0 17:54 24.11.2020
5209 Clear 12 1020 58 10000 1.5 160 17:28 24.11.2020
5210 Clear 12 1020 50 10000 1.5 160 16:38 24.11.2020
5211 Clear 13 1021 54 10000 1 0 15:56 24.11.2020
5212 Clear 13 1021 58 10000 1.5 70 15:20 24.11.2020
5213 Clear 12 1022 54 10000 1 0 14:45 24.11.2020
5214 Clear 12 1022 54 10000 1 0 14:21 24.11.2020
5215 Clear 10 1024 66 10000 2.1 90 12:42 24.11.2020
5216 Clear 10 1024 66 10000 2.1 90 12:21 24.11.2020
5217 Clear 8 1024 70 10000 1.5 90 11:35 24.11.2020
5218 Clear 7 1025 75 10000 1 0 10:26 24.11.2020
5219 Clear 5 1024 81 10000 1 360 09:42 24.11.2020
5220 Clear 5 1024 93 10000 1 0 09:22 24.11.2020
5221 Clear 5 1024 93 10000 0.5 360 06:50 24.11.2020
5222 Clear 7 1025 93 10000 0.89 137 04:18 24.11.2020
5223 Clear 9 1026 81 10000 0.5 0 22:28 23.11.2020
5224 Clear 9 1026 70 10000 0.32 349 21:35 23.11.2020
5225 Clear 10 1026 70 10000 0.22 31 20:50 23.11.2020
5226 Clear 11 1026 71 10000 0.5 290 20:20 23.11.2020
5227 Clear 13 1026 54 10000 1 150 18:48 23.11.2020
5228 Clear 15 1026 44 10000 1.5 130 17:25 23.11.2020
5229 Clear 15 1026 41 10000 1.5 120 16:22 23.11.2020
5230 Clear 14 1027 44 10000 1 0 14:47 23.11.2020
5231 Clear 13 1028 47 10000 2.1 130 13:20 23.11.2020
5232 Clear 12 1028 58 10000 1.5 70 12:37 23.11.2020
5233 Clear 11 1029 62 10000 1 0 11:48 23.11.2020
5234 Clear 9 1029 66 10000 1 0 11:19 23.11.2020
5235 Clear 6 1028 81 10000 0.5 360 09:31 23.11.2020
5236 Clear 4 1028 93 10000 1.35 53 08:49 23.11.2020
5237 Clear 5 1027 86 10000 0.5 0 07:28 23.11.2020
5238 Clear 8 1028 81 10000 1.01 50 00:38 23.11.2020
5239 Clear 7 1028 81 10000 0.65 28 23:36 22.11.2020
5240 Clear 8 1028 81 10000 0.3 352 22:18 22.11.2020
5241 Clear 9 1028 75 10000 0.19 263 20:54 22.11.2020
5242 Clear 10 1027 70 10000 0.45 203 19:58 22.11.2020
5243 Clear 11 1027 66 10000 0.92 200 18:54 22.11.2020
5244 Clear 14 1027 41 10000 1.27 197 17:26 22.11.2020
5245 Clear 14 1026 47 10000 0.5 0 15:58 22.11.2020
5246 Clear 14 1027 47 10000 1.5 110 14:40 22.11.2020
5247 Clear 12 1029 61 10000 0.5 280 12:50 22.11.2020
5248 Clear 11 1029 54 10000 1.27 164 12:18 22.11.2020
5249 Clear 10 1030 57 10000 1 0 11:35 22.11.2020
5250 Clear 8 1029 61 10000 1 0 10:45 22.11.2020
5251 Clear 7 1029 65 10000 1 0 09:42 22.11.2020
5252 Clear 7 1029 70 10000 0.5 0 01:50 22.11.2020
5253 Clear 9 1029 50 10000 0.5 0 23:53 21.11.2020
5254 Clear 10 1028 45 10000 0.5 0 22:25 21.11.2020
5255 Clear 11 1028 43 10000 0.5 70 21:30 21.11.2020
5256 Clear 11 1028 50 10000 2.1 350 20:35 21.11.2020
5257 Clear 12 1028 53 10000 1 0 19:57 21.11.2020
5258 Clear 12 1028 57 10000 1 0 19:37 21.11.2020
5259 Clear 13 1027 40 10000 1.54 43 18:31 21.11.2020
5260 Clear 15 1027 31 10000 1.5 90 17:28 21.11.2020
5261 Clear 15 1027 31 10000 1.5 100 16:40 21.11.2020
5262 Clear 15 1027 30 10000 1.5 110 15:22 21.11.2020
5263 Clear 14 1027 28 10000 1 0 14:48 21.11.2020
5264 Clear 14 1027 28 10000 1 0 14:22 21.11.2020
5265 Clear 12 1029 32 10000 3.1 90 12:42 21.11.2020
5266 Clear 12 1029 32 10000 3.1 90 12:20 21.11.2020
5267 Clear 10 1028 43 10000 1.5 50 10:57 21.11.2020
5268 Clear 10 1028 50 10000 1 0 10:26 21.11.2020
5269 Clear 7 1027 70 10000 1 0 08:51 21.11.2020
5270 Clear 7 1027 81 10000 1 0 06:51 21.11.2020
5271 Clear 6 1027 86 10000 1.41 63 04:39 21.11.2020
5272 Clear 9 1028 61 10000 0.5 0 01:43 21.11.2020
5273 Clear 10 1028 61 10000 1 0 23:59 20.11.2020
5274 Clear 11 1028 66 10000 0.5 0 22:26 20.11.2020
5275 Clear 11 1028 61 10000 1.02 57 21:42 20.11.2020
5276 Clear 12 1028 54 10000 1.5 360 21:21 20.11.2020
5277 Clear 13 1028 50 10000 1.5 350 19:46 20.11.2020
5278 Clear 14 1028 38 10000 1 0 18:50 20.11.2020
5279 Clear 15 1028 33 10000 1 0 17:53 20.11.2020
5280 Clear 16 1028 32 10000 1.5 50 17:28 20.11.2020
5281 Clear 17 1028 25 10000 2.1 10 16:40 20.11.2020
5282 Clear 17 1028 25 10000 3.1 10 15:59 20.11.2020
5283 Clear 17 1029 27 10000 2.6 50 15:27 20.11.2020
5284 Clear 16 1030 38 10000 2.1 50 13:47 20.11.2020
5285 Clear 15 1031 41 10000 2.6 20 13:18 20.11.2020
5286 Clear 14 1031 44 10000 2.1 0 12:36 20.11.2020
5287 Clear 12 1031 54 10000 2.6 60 11:45 20.11.2020
5288 Clear 11 1031 54 10000 2.1 60 11:19 20.11.2020
5289 Clear 9 1031 76 10000 1 0 09:30 20.11.2020
5290 Clear 8 1030 81 10000 1 0 08:26 20.11.2020
5291 Clear 9 1031 81 10000 0.5 0 07:34 20.11.2020
5292 Clear 10 1032 76 10000 1.5 60 03:44 20.11.2020
5293 Clear 14 1033 67 10000 2.1 30 22:47 19.11.2020
5294 Clear 14 1033 67 10000 2.1 30 22:26 19.11.2020
5295 Clear 15 1032 67 10000 1 0 21:46 19.11.2020
5296 Clear 16 1032 59 10000 1.5 10 20:33 19.11.2020
5297 Clear 17 1032 59 10000 1.5 40 19:54 19.11.2020
5298 Clear 17 1032 59 10000 2.14 81 19:25 19.11.2020
5299 Clear 20 1031 46 10000 1 0 17:46 19.11.2020
5300 Clear 21 1031 46 10000 1 0 16:58 19.11.2020
5301 Clear 21 1031 46 10000 1.5 0 15:41 19.11.2020
5302 Clear 21 1031 46 10000 1.5 0 15:23 19.11.2020
5303 Clear 19 1033 52 10000 2.1 20 13:46 19.11.2020
5304 Clear 19 1033 55 10000 2.6 20 13:20 19.11.2020
5305 Clear 18 1033 55 10000 2.1 30 12:40 19.11.2020
5306 Clear 16 1033 55 10000 1 0 12:19 19.11.2020
5307 Clear 15 1033 59 10000 2.52 49 11:36 19.11.2020
5308 Clear 13 1032 81 10000 2.1 360 10:54 19.11.2020
5309 Clear 12 1032 81 10000 2.1 360 10:27 19.11.2020
5310 Clear 9 1031 93 10000 1.89 43 09:44 19.11.2020
5311 Clear 10 1031 93 10000 1.76 43 09:24 19.11.2020
5312 Clear 8 1031 100 10000 1.5 360 08:20 19.11.2020
5313 Clouds 9 1030 100 8000 1 0 06:20 19.11.2020
5314 Mist 11 1030 100 3800 0.5 0 01:46 19.11.2020
5315 Mist 11 1030 100 3300 1 0 00:28 19.11.2020
5316 Mist 11 1030 93 4000 1 0 23:25 18.11.2020
5317 Mist 12 1029 100 3800 0.5 0 22:36 18.11.2020
5318 Mist 12 1029 100 4100 0.5 0 22:18 18.11.2020
5319 Mist 11 1029 100 4600 0.5 0 21:39 18.11.2020
5320 Mist 12 1029 93 4700 1.5 350 21:20 18.11.2020
5321 Clear 12 1029 93 7000 1.5 360 19:48 18.11.2020
5322 Clear 13 1028 93 7000 1 350 19:27 18.11.2020
5323 Clear 13 1028 87 8000 0.5 0 18:55 18.11.2020
5324 Clear 14 1028 87 8000 0.5 0 18:37 18.11.2020
5325 Clear 15 1028 72 8000 0.5 0 17:37 18.11.2020
5326 Clouds 15 1028 77 8000 1 0 16:24 18.11.2020
5327 Clouds 15 1028 72 8000 1 0 15:47 18.11.2020
5328 Clouds 14 1029 77 6000 2.1 330 14:41 18.11.2020
5329 Mist 13 1029 87 5000 1.5 50 13:43 18.11.2020
5330 Mist 13 1030 87 5000 1 0 13:20 18.11.2020
5331 Mist 12 1030 93 4000 1.5 80 12:30 18.11.2020
5332 Mist 11 1030 100 3000 1.5 20 11:34 18.11.2020
5333 Fog 11 1030 100 750 1.5 60 10:31 18.11.2020
5334 Fog 11 1029 93 750 1.5 60 09:52 18.11.2020
5335 Mist 10 1028 100 3000 0.5 0 07:45 18.11.2020
5336 Fog 10 1028 100 650 1.26 46 06:33 18.11.2020
5337 Fog 10 1029 100 150 0.5 0 00:29 18.11.2020
5338 Clouds 10 1029 100 6000 0.5 0 23:34 17.11.2020
5339 Mist 10 1029 100 4900 0.5 0 22:49 17.11.2020
5340 Mist 10 1028 100 3800 0.36 256 22:28 17.11.2020
5341 Fog 11 1028 100 150 0.5 90 21:50 17.11.2020
5342 Fog 11 1028 100 50 0.36 256 21:50 17.11.2020
5343 Fog 11 1028 100 50 0.71 236 21:30 17.11.2020
5344 Fog 11 1028 93 700 0.5 180 20:47 17.11.2020
5345 Fog 11 1028 93 700 0.5 180 20:25 17.11.2020
5346 Mist 12 1027 100 1500 1 140 19:54 17.11.2020
5347 Clear 13 1027 87 6000 1.5 120 18:25 17.11.2020
5348 Clear 15 1027 82 7000 1.5 150 17:39 17.11.2020
5349 Mist 15 1027 77 3500 1 0 16:53 17.11.2020
5350 Mist 16 1027 82 2800 1.5 170 16:18 17.11.2020
5351 Mist 16 1027 82 4500 2.1 160 15:40 17.11.2020
5352 Mist 16 1027 77 5000 1.5 140 15:22 17.11.2020
5353 Mist 16 1027 77 5000 1.5 140 14:54 17.11.2020
5354 Fog 14 1028 93 1400 1.5 130 14:21 17.11.2020
5355 Fog 14 1028 100 800 1.5 150 13:34 17.11.2020
5356 Fog 13 1029 93 1600 1 0 12:46 17.11.2020
5357 Fog 12 1029 93 2200 1.5 120 11:59 17.11.2020
5358 Fog 12 1027 66 800 1.5 100 11:40 17.11.2020
5359 Fog 12 1028 81 8000 1 0 10:39 17.11.2020
5360 Fog 12 1028 81 8000 1 0 10:20 17.11.2020
5361 Fog 11 1028 81 8000 1 0 09:48 17.11.2020
5362 Clear 9 1028 87 10000 0.5 0 08:54 17.11.2020
5363 Clear 9 1027 93 10000 0.5 110 08:20 17.11.2020
5364 Clear 9 1027 93 10000 1 0 07:35 17.11.2020
5365 Clear 10 1027 93 10000 1 0 04:32 17.11.2020
5366 Clear 11 1027 93 10000 0.5 360 03:29 17.11.2020
5367 Clear 11 1027 93 10000 0.5 0 02:29 17.11.2020
5368 Clear 12 1027 93 10000 0.42 29 00:57 17.11.2020
5369 Clouds 13 1027 93 9000 0.66 324 23:57 16.11.2020
5370 Clear 13 1027 93 10000 1 0 23:37 16.11.2020
5371 Clear 13 1027 93 10000 1 0 23:19 16.11.2020
5372 Clear 13 1027 100 10000 0.9 254 22:26 16.11.2020
5373 Clear 13 1027 100 10000 0.9 254 22:26 16.11.2020
5374 Clear 13 1026 93 10000 0.5 60 21:58 16.11.2020
5375 Clear 14 1026 93 10000 1.21 246 21:39 16.11.2020
5376 Clear 14 1026 87 10000 1 150 21:20 16.11.2020
5377 Clear 15 1026 87 10000 0.5 0 20:26 16.11.2020
5378 Clear 15 1026 87 10000 0.5 0 19:55 16.11.2020
5379 Clear 15 1025 87 10000 1.5 210 19:30 16.11.2020
5380 Clear 17 1025 72 10000 2.1 200 18:52 16.11.2020
5381 Clear 17 1024 67 10000 2.6 220 18:21 16.11.2020
5382 Clear 18 1024 63 10000 3.1 220 17:36 16.11.2020
5383 Clouds 18 1024 59 10000 3.1 230 17:18 16.11.2020
5384 Clouds 18 1024 59 10000 3.1 240 16:49 16.11.2020
5385 Clouds 19 1024 59 10000 3.1 240 16:26 16.11.2020
5386 Clouds 19 1024 56 10000 0.5 0 15:45 16.11.2020
5387 Clouds 18 1024 55 10000 1 0 15:27 16.11.2020
5388 Clouds 18 1024 68 10000 0.5 180 14:48 16.11.2020
5389 Clouds 17 1025 77 10000 1.14 256 13:50 16.11.2020
5390 Clouds 16 1025 77 10000 1.5 110 13:18 16.11.2020
5391 Clouds 15 1025 82 9000 2.1 130 12:30 16.11.2020
5392 Fog 14 1025 100 5000 2.6 110 11:41 16.11.2020
5393 Fog 13 1025 93 6000 2.1 130 11:21 16.11.2020
5394 Clouds 14 1024 93 5000 1.5 130 10:44 16.11.2020
5395 Clouds 13 1024 93 5000 1.5 130 10:26 16.11.2020
5396 Clouds 13 1024 100 8000 0.5 0 09:50 16.11.2020
5397 Clouds 12 1024 100 10000 1 0 09:25 16.11.2020
5398 Fog 12 1023 100 10000 0.53 266 08:42 16.11.2020
5399 Fog 12 1023 100 500 2.1 0 08:19 16.11.2020
5400 Fog 13 1023 100 200 3.1 240 06:56 16.11.2020
5401 Fog 13 1023 100 200 3.6 270 06:38 16.11.2020
5402 Mist 13 1022 100 3600 2.6 260 05:44 16.11.2020
5403 Fog 13 1022 93 300 1.5 250 03:54 16.11.2020
5404 Clouds 13 1023 100 6000 2.78 227 01:44 16.11.2020
5405 Fog 14 1023 100 300 1.5 180 00:28 16.11.2020
5406 Clouds 14 1023 100 10000 1 360 23:29 15.11.2020
5407 Clouds 14 1023 93 9000 1 0 22:57 15.11.2020
5408 Clear 14 1023 100 10000 2.1 200 22:24 15.11.2020
5409 Clear 14 1022 100 10000 2.6 200 21:51 15.11.2020
5410 Clear 14 1022 100 10000 3.1 200 21:29 15.11.2020
5411 Clear 14 1022 93 10000 2.6 200 20:58 15.11.2020
5412 Clear 15 1022 87 10000 3.6 210 20:38 15.11.2020
5413 Clear 15 1022 87 10000 4.1 230 19:56 15.11.2020
5414 Clear 15 1022 87 10000 3.6 220 19:38 15.11.2020
5415 Clouds 15 1022 87 10000 3.1 220 19:19 15.11.2020
5416 Clouds 16 1022 87 10000 4.6 220 18:45 15.11.2020
5417 Clouds 16 1022 87 10000 4.6 220 18:25 15.11.2020
5418 Clouds 16 1021 82 10000 5.1 230 17:47 15.11.2020
5419 Clouds 16 1021 82 10000 5.1 230 17:26 15.11.2020
5420 Clouds 16 1021 88 10000 5.1 230 16:58 15.11.2020
5421 Clouds 16 1021 87 10000 5.7 220 16:38 15.11.2020
5422 Clouds 16 1021 87 10000 5.7 220 16:18 15.11.2020
5423 Clouds 15 1022 93 10000 4.1 220 15:42 15.11.2020
5424 Clouds 15 1022 93 10000 4.1 220 15:22 15.11.2020
5425 Clouds 15 1022 93 10000 4.1 220 14:50 15.11.2020
5426 Clouds 15 1022 93 9000 3.6 210 14:25 15.11.2020
5427 Clouds 15 1022 100 8000 3.1 200 13:41 15.11.2020
5428 Mist 14 1023 100 3000 3.6 190 13:18 15.11.2020
5429 Drizzle 14 1023 93 3000 3.1 180 12:42 15.11.2020
5430 Mist 14 1023 93 5000 2.6 170 12:18 15.11.2020
5431 Mist 13 1023 93 5000 2.1 160 11:42 15.11.2020
5432 Mist 13 1023 100 5000 2.1 170 11:18 15.11.2020
5433 Mist 12 1023 100 2000 2.1 160 10:49 15.11.2020
5434 Drizzle 12 1023 100 2000 2.1 160 10:30 15.11.2020
5435 Mist 12 1022 100 1500 2.6 170 09:46 15.11.2020
5436 Mist 12 1022 100 1500 2.6 170 09:23 15.11.2020
5437 Fog 12 1022 100 700 2.1 190 08:54 15.11.2020
5438 Fog 12 1022 100 700 2.1 170 08:31 15.11.2020
5439 Fog 12 1022 100 600 1.5 190 07:44 15.11.2020
5440 Clouds 12 1021 93 10000 1.5 210 05:33 15.11.2020
5441 Clouds 12 1021 93 7000 3.1 220 04:51 15.11.2020
5442 Mist 12 1022 93 1300 0.5 0 01:26 15.11.2020
5443 Mist 12 1022 93 3000 1 0 00:29 15.11.2020
5444 Mist 12 1022 93 3100 0.92 218 23:42 14.11.2020
5445 Mist 12 1022 93 3700 0.95 217 22:53 14.11.2020
5446 Mist 12 1022 93 2800 0.5 0 22:33 14.11.2020
5447 Mist 12 1022 100 2200 1 0 21:55 14.11.2020
5448 Mist 12 1022 100 2500 0.5 210 21:36 14.11.2020
5449 Mist 12 1022 100 3200 0.82 168 21:18 14.11.2020
5450 Mist 12 1022 100 3500 0.49 140 20:34 14.11.2020
5451 Mist 12 1021 93 2600 1 0 19:58 14.11.2020
5452 Mist 12 1021 100 4800 0.49 130 19:36 14.11.2020
5453 Mist 12 1021 100 4800 0.49 130 19:36 14.11.2020
5454 Mist 12 1021 100 4800 0.49 130 19:36 14.11.2020
5455 Mist 13 1021 93 5000 1 0 18:57 14.11.2020
5456 Mist 13 1021 93 4800 1 0 18:38 14.11.2020
5457 Mist 13 1021 100 4000 1 0 18:20 14.11.2020
5458 Mist 13 1021 100 3900 1 0 17:42 14.11.2020
5459 Mist 13 1021 93 4000 1.5 350 17:23 14.11.2020
5460 Mist 13 1021 93 4000 1.5 350 16:51 14.11.2020
5461 Clouds 13 1021 87 6000 0.42 169 16:26 14.11.2020
5462 Clouds 13 1021 87 6000 0.42 169 15:53 14.11.2020
5463 Clouds 13 1021 87 6000 0.5 0 15:30 14.11.2020
5464 Rain 13 1021 87 5000 1 0 14:50 14.11.2020
5465 Drizzle 12 1021 93 6000 1.5 90 14:28 14.11.2020
5466 Drizzle 13 1022 93 6000 1 0 13:49 14.11.2020
5467 Drizzle 12 1022 93 6000 1 0 13:27 14.11.2020
5468 Clouds 12 1022 93 6000 0.5 0 12:49 14.11.2020
5469 Clouds 12 1022 93 6000 0.5 0 12:30 14.11.2020
5470 Clouds 11 1022 93 6000 0.5 0 11:54 14.11.2020
5471 Clouds 11 1022 93 6000 1 0 11:36 14.11.2020
5472 Rain 11 1022 93 6000 1 90 10:51 14.11.2020
5473 Clouds 11 1022 93 8000 1.5 100 10:27 14.11.2020
5474 Drizzle 11 1022 81 10000 1.5 100 09:58 14.11.2020
5475 Drizzle 11 1021 81 10000 1 0 09:40 14.11.2020
5476 Drizzle 11 1021 81 10000 1 0 09:22 14.11.2020
5477 Clouds 11 1021 87 10000 0.5 0 08:40 14.11.2020
5478 Clouds 11 1021 87 10000 0.5 0 08:18 14.11.2020
5479 Clouds 11 1020 81 10000 0.5 0 07:41 14.11.2020
5480 Clouds 11 1020 81 10000 0.5 0 06:38 14.11.2020
5481 Clouds 11 1020 81 10000 0.5 0 06:20 14.11.2020
5482 Clear 11 1021 87 10000 0.5 0 04:45 14.11.2020
5483 Clear 12 1022 87 10000 1.42 79 01:42 14.11.2020
5484 Clear 12 1022 81 10000 0.5 0 00:24 14.11.2020
5485 Clouds 12 1022 81 9000 0.5 0 23:33 13.11.2020
5486 Clear 12 1022 81 10000 1.01 59 22:58 13.11.2020
5487 Clear 13 1022 71 10000 0.5 0 22:39 13.11.2020
5488 Clear 13 1022 71 10000 0.5 0 22:19 13.11.2020
5489 Clouds 13 1022 76 10000 0.5 0 21:43 13.11.2020
5490 Clouds 13 1021 76 10000 1 0 21:23 13.11.2020
5491 Clear 13 1021 76 10000 0.5 0 20:51 13.11.2020
5492 Clear 14 1021 76 10000 0.5 0 20:29 13.11.2020
5493 Clear 14 1021 76 10000 0.5 0 19:54 13.11.2020
5494 Clear 14 1021 67 10000 1.5 340 19:36 13.11.2020
5495 Clear 14 1021 67 10000 1 280 19:18 13.11.2020
5496 Clear 14 1021 67 10000 1 0 18:32 13.11.2020
5497 Clear 15 1020 59 10000 1 0 17:43 13.11.2020
5498 Clear 15 1020 59 10000 1 0 17:21 13.11.2020
5499 Clear 16 1020 59 10000 1.5 190 16:51 13.11.2020
5500 Clear 16 1020 59 10000 1.5 190 16:25 13.11.2020
5501 Clear 16 1020 59 10000 1.5 190 16:25 13.11.2020
5502 Clear 16 1020 51 10000 1 0 15:59 13.11.2020
5503 Clear 16 1021 51 10000 1.5 150 15:39 13.11.2020
5504 Clear 16 1021 55 10000 0.5 90 15:20 13.11.2020
5505 Clear 15 1021 55 10000 1.5 0 14:37 13.11.2020
5506 Clear 15 1022 59 10000 1.5 110 14:18 13.11.2020
5507 Clear 15 1022 59 10000 1.5 110 14:18 13.11.2020
5508 Clear 15 1022 59 10000 1.5 110 14:18 13.11.2020
5509 Clear 14 1022 62 10000 1.5 70 13:31 13.11.2020
5510 Clear 13 1022 67 10000 2.6 100 12:55 13.11.2020
5511 Clear 13 1022 62 10000 1.5 80 12:37 13.11.2020
5512 Clear 13 1022 62 10000 1.5 80 12:18 13.11.2020
5513 Clear 13 1022 71 10000 1 0 11:45 13.11.2020
5514 Clear 12 1022 71 10000 1 0 11:20 13.11.2020
5515 Clear 11 1022 76 10000 1 0 10:47 13.11.2020
5516 Clear 11 1022 76 10000 1 0 10:29 13.11.2020
5517 Clear 10 1022 81 10000 1 0 09:47 13.11.2020
5518 Clear 10 1022 81 10000 1 0 09:27 13.11.2020
5519 Clear 10 1022 81 10000 1 0 09:27 13.11.2020
5520 Clear 10 1022 81 10000 1 0 09:27 13.11.2020
5521 Clear 9 1022 81 10000 1 0 08:53 13.11.2020
5522 Clear 9 1021 81 10000 2.1 60 08:26 13.11.2020
5523 Clear 9 1021 81 10000 2.1 60 07:50 13.11.2020
5524 Clear 9 1021 81 10000 1.5 60 07:27 13.11.2020
5525 Clear 10 1021 81 10000 1 0 06:55 13.11.2020
5526 Clear 10 1021 81 10000 1.5 50 06:36 13.11.2020
5527 Clear 10 1020 81 10000 2.1 50 05:41 13.11.2020
5528 Clear 11 1021 81 10000 2.1 60 03:41 13.11.2020
5529 Clear 11 1022 87 10000 1 350 01:42 13.11.2020
5530 Clear 11 1022 81 10000 1.5 10 00:36 13.11.2020
5531 Clear 12 1022 81 10000 1.5 10 23:50 12.11.2020
5532 Clear 12 1022 81 10000 1 0 23:21 12.11.2020
5533 Clear 12 1022 81 10000 1 0 22:55 12.11.2020
5534 Clear 12 1022 81 10000 1.5 10 22:37 12.11.2020
5535 Clear 12 1022 81 10000 1 0 21:58 12.11.2020
5536 Clear 12 1022 81 10000 1 0 21:40 12.11.2020
5537 Clear 12 1021 76 10000 1 0 21:21 12.11.2020
5538 Clear 13 1021 81 10000 1 350 20:41 12.11.2020
5539 Clear 13 1021 81 10000 1 350 20:23 12.11.2020
5540 Clear 13 1021 81 10000 1 0 19:53 12.11.2020
5541 Clear 13 1021 76 10000 1 0 19:34 12.11.2020
5542 Clear 13 1021 71 10000 0.5 0 18:59 12.11.2020
5543 Clear 14 1021 67 10000 1 0 18:41 12.11.2020
5544 Clear 14 1021 62 10000 1 0 18:20 12.11.2020
5545 Clear 14 1021 62 10000 2.1 80 17:40 12.11.2020
5546 Clear 15 1021 62 10000 2.1 80 17:22 12.11.2020
5547 Clear 15 1021 59 10000 1 0 16:45 12.11.2020
5548 Clear 15 1021 59 10000 1 0 16:23 12.11.2020
5549 Clear 15 1021 63 10000 1 0 15:52 12.11.2020
5550 Clear 15 1022 63 10000 0.5 0 15:28 12.11.2020
5551 Clear 15 1022 62 10000 1 0 14:56 12.11.2020
5552 Clear 15 1022 63 10000 1 0 14:37 12.11.2020
5553 Clear 15 1023 62 10000 0.5 360 14:18 12.11.2020
5554 Clear 13 1023 67 10000 1 0 13:43 12.11.2020
5555 Clear 13 1024 67 10000 1 0 13:19 12.11.2020
5556 Clear 12 1024 76 10000 1.5 40 12:47 12.11.2020
5557 Clear 12 1024 76 10000 1 0 12:25 12.11.2020
5558 Clear 11 1024 76 10000 1 0 11:53 12.11.2020
5559 Clear 11 1024 76 10000 1 0 11:34 12.11.2020
5560 Clear 11 1024 81 10000 1.5 360 10:50 12.11.2020
5561 Rain 11 1024 87 10000 1 0 10:32 12.11.2020
5562 Clear 10 1024 87 10000 1 0 09:52 12.11.2020
5563 Clear 10 1024 87 10000 1.94 41 09:27 12.11.2020
5564 Clear 9 1024 87 10000 1.94 41 08:58 12.11.2020
5565 Clear 9 1024 93 10000 0.5 0 08:40 12.11.2020
5566 Clear 8 1024 93 10000 0.5 0 08:20 12.11.2020
5567 Clear 8 1024 93 10000 0.5 0 07:54 12.11.2020
5568 Clear 9 1023 87 10000 1 0 07:31 12.11.2020
5569 Clear 9 1023 93 10000 1 0 06:51 12.11.2020
5570 Clear 9 1023 93 10000 0.5 0 06:25 12.11.2020
5571 Clear 10 1024 93 10000 0.5 70 03:45 12.11.2020
5572 Clear 10 1024 93 10000 0.5 70 03:19 12.11.2020
5573 Clear 11 1025 81 10000 1.5 10 00:36 12.11.2020
5574 Clear 10 1025 93 10000 1.13 52 23:44 11.11.2020
5575 Clear 10 1025 93 10000 1.06 64 23:25 11.11.2020
5576 Clear 11 1025 87 10000 1 0 22:48 11.11.2020
5577 Clear 11 1024 87 10000 1 0 22:23 11.11.2020
5578 Clear 11 1024 87 10000 1 0 21:58 11.11.2020
5579 Clear 11 1024 87 10000 1.5 260 21:38 11.11.2020
5580 Clear 11 1024 87 10000 0.75 347 21:20 11.11.2020
5581 Clear 11 1024 87 10000 0.75 347 20:54 11.11.2020
5582 Clear 12 1024 87 10000 0.5 0 20:36 11.11.2020
5583 Clear 12 1024 81 10000 0.19 3 20:18 11.11.2020
5584 Clear 13 1024 76 10000 1 120 19:41 11.11.2020
5585 Clear 13 1024 76 10000 1 100 19:22 11.11.2020
5586 Clouds 14 1024 67 10000 1.5 120 18:44 11.11.2020
5587 Clouds 14 1024 67 10000 1.5 120 18:26 11.11.2020
5588 Clouds 15 1024 62 10000 1 140 17:41 11.11.2020
5589 Clouds 15 1024 59 10000 1 0 17:21 11.11.2020
5590 Clouds 16 1024 55 10000 0.5 0 16:44 11.11.2020
5591 Clouds 16 1024 55 10000 0.5 0 16:25 11.11.2020
5592 Clear 15 1024 63 10000 1 0 15:44 11.11.2020
5593 Clear 15 1024 59 10000 1.5 120 15:24 11.11.2020
5594 Clear 15 1024 67 10000 2.1 110 14:51 11.11.2020
5595 Clear 14 1024 67 10000 2.1 110 14:31 11.11.2020
5596 Clouds 14 1025 67 10000 2.1 110 13:52 11.11.2020
5597 Clouds 14 1025 67 10000 2.1 110 13:32 11.11.2020
5598 Clear 13 1026 71 10000 1 0 12:40 11.11.2020
5599 Clear 12 1026 71 10000 1.5 130 12:20 11.11.2020
5600 Clear 12 1027 76 10000 2.1 120 11:48 11.11.2020
5601 Clear 11 1027 76 10000 2.1 120 11:26 11.11.2020
5602 Clear 11 1027 71 10000 1 0 10:40 11.11.2020
5603 Clear 11 1027 71 10000 1 0 10:20 11.11.2020
5604 Clear 11 1027 76 10000 0.5 0 09:44 11.11.2020
5605 Clouds 8 1026 87 10000 0.5 0 09:25 11.11.2020
5606 Clouds 7 1026 87 10000 1 0 08:46 11.11.2020
5607 Clouds 7 1026 87 10000 1 0 08:27 11.11.2020
5608 Clear 7 1026 93 10000 0.5 0 07:49 11.11.2020
5609 Clear 7 1026 93 10000 0.5 0 07:49 11.11.2020
5610 Clear 7 1026 93 10000 0.5 0 06:51 11.11.2020
5611 Clouds 7 1026 100 9000 0.5 70 06:25 11.11.2020
5612 Clear 8 1027 93 10000 1.71 59 03:40 11.11.2020
5613 Clear 10 1027 93 10000 1 0 00:59 11.11.2020
5614 Clear 10 1027 87 10000 1 0 00:28 11.11.2020
5615 Clear 10 1028 93 10000 1 0 23:43 10.11.2020
5616 Clear 11 1028 93 10000 1 0 23:24 10.11.2020
5617 Clear 11 1028 93 10000 1 0 22:56 10.11.2020
5618 Clear 11 1028 87 10000 1 0 22:27 10.11.2020
5619 Clear 11 1027 87 10000 1.5 280 21:44 10.11.2020
5620 Clear 12 1027 81 10000 1 250 21:25 10.11.2020
5621 Clear 12 1027 81 10000 1 250 20:59 10.11.2020
5622 Clear 12 1027 87 10000 1 260 20:41 10.11.2020
5623 Clear 12 1027 87 10000 1 260 20:22 10.11.2020
5624 Clear 12 1027 87 10000 2.1 240 19:47 10.11.2020
5625 Clear 13 1027 87 10000 2.1 240 19:28 10.11.2020
5626 Clear 13 1027 81 10000 2.1 260 18:58 10.11.2020
5627 Clear 15 1027 67 10000 1.5 200 18:39 10.11.2020
5628 Clouds 15 1027 59 10000 0.54 192 18:18 10.11.2020
5629 Clouds 16 1027 59 10000 1.5 240 17:43 10.11.2020
5630 Clouds 16 1027 59 10000 1.5 240 17:25 10.11.2020
5631 Clouds 17 1027 52 10000 1 0 16:44 10.11.2020
5632 Clouds 17 1027 52 10000 1 0 16:24 10.11.2020
5633 Clouds 17 1027 52 10000 1.5 0 15:56 10.11.2020
5634 Clouds 16 1027 55 10000 1.5 160 15:37 10.11.2020
5635 Clouds 16 1027 55 10000 1 0 15:19 10.11.2020
5636 Clouds 17 1027 52 10000 0.5 40 14:41 10.11.2020
5637 Clouds 16 1028 59 10000 0.14 39 14:21 10.11.2020
5638 Clouds 15 1028 59 10000 1 0 13:41 10.11.2020
5639 Clouds 15 1028 59 10000 1 0 13:23 10.11.2020
5640 Clear 15 1028 62 10000 1.5 110 12:58 10.11.2020
5641 Clear 14 1028 67 10000 1.5 0 12:39 10.11.2020
5642 Clear 14 1028 67 10000 1.5 0 12:20 10.11.2020
5643 Clear 12 1028 71 10000 1 0 11:39 10.11.2020
5644 Clear 12 1028 71 10000 1 0 11:19 10.11.2020
5645 Clear 11 1028 76 10000 1 0 10:42 10.11.2020
5646 Clear 10 1028 76 10000 1 0 10:24 10.11.2020
5647 Clear 10 1028 81 10000 2.3 56 09:51 10.11.2020
5648 Clear 9 1027 87 10000 2.11 50 09:26 10.11.2020
5649 Clear 8 1027 87 10000 2.11 50 08:58 10.11.2020
5650 Clear 8 1027 93 10000 1.5 360 08:30 10.11.2020
5651 Clear 7 1026 93 10000 1.88 54 07:56 10.11.2020
5652 Clear 8 1026 93 10000 1 0 07:37 10.11.2020
5653 Clear 8 1026 93 10000 1 0 07:18 10.11.2020
5654 Clear 8 1026 100 10000 0.5 0 06:38 10.11.2020
5655 Clear 8 1026 93 10000 0.5 0 05:27 10.11.2020
5656 Clear 10 1026 100 10000 1 0 02:59 10.11.2020
5657 Clear 10 1026 93 10000 0.5 0 01:41 10.11.2020
5658 Clear 10 1026 93 10000 0.5 0 00:30 10.11.2020
5659 Clear 10 1025 100 10000 0.5 250 23:42 09.11.2020
5660 Clear 11 1025 93 10000 0.5 260 22:58 09.11.2020
5661 Clear 11 1025 87 10000 1 0 22:40 09.11.2020
5662 Clear 12 1025 87 10000 0.5 0 22:20 09.11.2020
5663 Clear 12 1025 82 10000 0.5 330 21:40 09.11.2020
5664 Clear 12 1025 82 10000 0.5 330 21:21 09.11.2020
5665 Clouds 12 1025 76 10000 0.5 0 20:41 09.11.2020
5666 Clouds 12 1025 87 10000 2.1 260 20:21 09.11.2020
5667 Clouds 12 1024 87 10000 0.96 81 19:46 09.11.2020
5668 Clouds 14 1024 76 10000 1.5 180 19:23 09.11.2020
5669 Clouds 14 1024 76 10000 1.5 180 18:57 09.11.2020
5670 Clouds 14 1024 76 10000 1 240 18:38 09.11.2020
5671 Clouds 15 1023 76 10000 2.6 240 18:18 09.11.2020
5672 Clouds 15 1023 59 10000 1.5 210 17:43 09.11.2020
5673 Clouds 15 1023 59 10000 1.5 210 17:25 09.11.2020
5674 Clouds 16 1023 63 10000 1.5 120 16:44 09.11.2020
5675 Clouds 15 1023 67 10000 0.38 61 16:20 09.11.2020
5676 Clouds 15 1023 67 10000 1 0 15:45 09.11.2020
5677 Clouds 15 1023 67 10000 1 0 15:25 09.11.2020
5678 Clouds 15 1023 63 10000 1.5 0 14:49 09.11.2020
5679 Clouds 14 1023 72 10000 1 0 14:28 09.11.2020
5680 Clouds 14 1024 82 10000 0.5 0 13:52 09.11.2020
5681 Clouds 14 1024 82 10000 0.5 0 13:25 09.11.2020
5682 Clouds 13 1024 77 10000 0.5 140 12:57 09.11.2020
5683 Clouds 12 1024 87 9000 1 0 12:39 09.11.2020
5684 Clouds 12 1024 87 7000 0.5 0 12:20 09.11.2020
5685 Mist 12 1024 87 5000 0.5 0 11:42 09.11.2020
5686 Mist 11 1024 100 3200 0.5 0 11:24 09.11.2020
5687 Mist 11 1024 100 3200 0.5 0 11:24 09.11.2020
5688 Mist 11 1024 100 1900 0.98 143 10:44 09.11.2020
5689 Mist 11 1024 100 1900 1.51 135 10:25 09.11.2020
5690 Mist 10 1024 93 1700 1.51 135 09:52 09.11.2020
5691 Mist 10 1023 100 1500 1 0 09:28 09.11.2020
5692 Fog 10 1023 100 700 1 0 08:50 09.11.2020
5693 Fog 10 1022 100 600 1 0 08:27 09.11.2020
5694 Fog 10 1022 100 300 0.5 0 07:43 09.11.2020
5695 Fog 10 1022 100 300 0.5 0 07:22 09.11.2020
5696 Rain 10 1022 93 8000 1.14 129 06:48 09.11.2020
5697 Clear 11 1021 93 10000 1 0 03:51 09.11.2020
5698 Clear 12 1022 81 10000 1.5 90 01:57 09.11.2020
5699 Clear 12 1022 87 10000 1 90 01:39 09.11.2020
5700 Clouds 12 1022 87 10000 0.5 0 00:35 09.11.2020
5701 Clouds 12 1022 87 10000 1.5 350 23:40 08.11.2020
5702 Clouds 12 1022 87 10000 1.5 350 23:22 08.11.2020
5703 Clouds 12 1022 87 10000 0.5 0 22:42 08.11.2020
5704 Clouds 12 1022 87 10000 1.5 350 22:21 08.11.2020
5705 Clear 12 1022 81 10000 1.5 120 21:45 08.11.2020
5706 Clear 12 1022 87 10000 1 90 21:21 08.11.2020
5707 Clouds 13 1022 82 10000 1.5 350 20:56 08.11.2020
5708 Clouds 13 1022 82 10000 1.5 350 20:38 08.11.2020
5709 Clouds 13 1022 82 10000 1 0 20:19 08.11.2020
5710 Clouds 13 1022 82 10000 1 0 20:19 08.11.2020
5711 Clouds 13 1022 76 10000 2.1 360 19:43 08.11.2020
5712 Clouds 13 1022 76 10000 2.1 360 19:21 08.11.2020
5713 Clouds 14 1022 67 10000 1 0 18:55 08.11.2020
5714 Clouds 14 1022 67 10000 1 0 18:37 08.11.2020
5715 Clouds 14 1022 67 10000 2.1 150 18:19 08.11.2020
5716 Clouds 15 1022 55 10000 1.5 150 17:41 08.11.2020
5717 Clouds 15 1022 59 10000 1 0 17:20 08.11.2020
5718 Clouds 15 1022 59 10000 1 0 16:57 08.11.2020
5719 Clouds 15 1022 59 10000 2.1 180 16:37 08.11.2020
5720 Clouds 15 1022 59 10000 2.6 170 16:18 08.11.2020
5721 Clouds 15 1022 63 10000 2.6 140 15:44 08.11.2020
5722 Clouds 15 1022 63 10000 2.6 140 15:25 08.11.2020
5723 Clouds 15 1023 63 10000 1.5 0 14:42 08.11.2020
5724 Clouds 14 1023 67 10000 2.6 130 14:23 08.11.2020
5725 Clouds 15 1023 63 10000 1.5 0 14:23 08.11.2020
5726 Clouds 14 1023 67 10000 2.6 130 13:50 08.11.2020
5727 Clouds 14 1024 71 10000 1.5 100 13:24 08.11.2020
5728 Clouds 14 1023 67 10000 2.1 120 13:24 08.11.2020
5729 Clouds 13 1024 71 10000 1.5 100 12:47 08.11.2020
5730 Clouds 13 1024 71 10000 1.5 140 12:29 08.11.2020
5731 Clouds 13 1024 71 10000 1.5 140 11:59 08.11.2020
5732 Clouds 12 1024 81 10000 1.5 80 11:41 08.11.2020
5733 Clouds 11 1024 81 10000 1.5 80 11:22 08.11.2020
5734 Clouds 11 1025 93 10000 1 0 10:52 08.11.2020
5735 Clouds 10 1024 87 10000 1 0 10:20 08.11.2020
5736 Clouds 10 1024 87 10000 1 0 09:59 08.11.2020
5737 Clouds 9 1024 93 10000 2.1 100 09:41 08.11.2020
5738 Clouds 9 1024 93 10000 2.1 100 09:18 08.11.2020
5739 Clear 9 1024 93 10000 1 120 08:42 08.11.2020
5740 Clear 8 1023 100 10000 1 0 08:22 08.11.2020
5741 Clear 8 1023 100 10000 1 0 07:53 08.11.2020
5742 Clear 9 1023 93 10000 0.5 130 07:31 08.11.2020
5743 Clear 9 1024 93 10000 1 0 06:27 08.11.2020
5744 Clouds 10 1023 87 10000 0.5 0 05:54 08.11.2020
5745 Clouds 10 1023 93 10000 1 0 04:50 08.11.2020
5746 Clouds 9 1024 100 10000 1 140 01:55 08.11.2020
5747 Clear 10 1024 93 10000 0.5 0 01:19 08.11.2020
5748 Clear 10 1024 93 10000 1 160 00:30 08.11.2020
5749 Clear 10 1024 93 10000 1 0 23:50 07.11.2020
5750 Clear 10 1024 93 10000 1 0 23:31 07.11.2020
5751 Clear 10 1024 93 10000 1 0 23:31 07.11.2020
5752 Clear 11 1023 87 10000 1 0 22:48 07.11.2020
5753 Clear 11 1023 87 10000 1 0 22:28 07.11.2020
5754 Clear 11 1023 87 10000 3.6 200 21:58 07.11.2020
5755 Clear 11 1023 87 10000 2.1 180 21:39 07.11.2020
5756 Clear 11 1023 81 10000 2.6 210 21:19 07.11.2020
5757 Clear 12 1023 81 10000 3.6 220 20:45 07.11.2020
5758 Clear 12 1023 81 10000 3.6 220 20:26 07.11.2020
5759 Clear 13 1022 82 10000 5.7 210 19:46 07.11.2020
5760 Clear 13 1022 82 10000 5.7 210 19:27 07.11.2020
5761 Clouds 13 1021 76 10000 5.7 230 18:45 07.11.2020
5762 Clouds 14 1021 76 10000 5.7 230 18:26 07.11.2020
5763 Clouds 15 1021 72 10000 4.6 210 17:53 07.11.2020
5764 Clouds 15 1021 72 10000 4.6 210 17:34 07.11.2020
5765 Clouds 15 1020 72 10000 6.7 230 16:47 07.11.2020
5766 Clouds 15 1020 72 10000 6.2 230 16:26 07.11.2020
5767 Clouds 15 1020 72 10000 6.2 230 15:58 07.11.2020
5768 Clouds 15 1020 72 10000 6.7 210 15:40 07.11.2020
5769 Clouds 15 1020 67 10000 6.7 230 15:20 07.11.2020
5770 Clouds 15 1019 72 10000 7.2 220 14:43 07.11.2020
5771 Clouds 14 1019 76 10000 4.6 240 14:24 07.11.2020
5772 Clouds 14 1019 76 10000 6.2 230 13:52 07.11.2020
5773 Clouds 13 1019 82 10000 4.1 230 13:30 07.11.2020
5774 Clouds 13 1019 93 10000 4.1 180 12:44 07.11.2020
5775 Clouds 13 1019 93 10000 4.1 180 12:20 07.11.2020
5776 Clouds 13 1018 82 10000 4.1 190 11:41 07.11.2020
5777 Clouds 12 1018 82 10000 4.1 190 11:22 07.11.2020
5778 Clouds 12 1017 82 10000 4.1 190 10:45 07.11.2020
5779 Clouds 12 1016 87 10000 3.1 180 10:25 07.11.2020
5780 Clouds 12 1016 93 10000 2.1 170 09:52 07.11.2020
5781 Clouds 12 1016 93 10000 2.1 170 09:32 07.11.2020
5782 Clouds 12 1015 93 10000 1.5 140 08:53 07.11.2020
5783 Clouds 12 1015 93 10000 2.1 170 08:34 07.11.2020
5784 Drizzle 12 1014 93 10000 2.6 100 07:50 07.11.2020
5785 Drizzle 12 1014 93 10000 2.6 100 07:19 07.11.2020
5786 Clouds 12 1014 93 10000 3.1 110 06:47 07.11.2020
5787 Clear 12 1014 93 10000 2.1 90 05:23 07.11.2020
5788 Clouds 12 1015 93 10000 2.6 90 03:23 07.11.2020
5789 Rain 14 1016 87 7000 4.1 200 01:28 07.11.2020
5790 Rain 15 1017 87 8000 4.6 140 00:43 07.11.2020
5791 Rain 16 1016 82 10000 4.6 120 23:53 06.11.2020
5792 Clear 16 1016 82 10000 5.1 110 23:21 06.11.2020
5793 Clear 16 1016 82 10000 4.6 120 22:41 06.11.2020
5794 Clear 16 1016 82 10000 4.6 120 22:19 06.11.2020
5795 Clear 16 1016 82 10000 4.6 120 22:19 06.11.2020
5796 Clouds 16 1016 82 10000 5.7 130 21:46 06.11.2020
5797 Clouds 16 1016 77 10000 5.1 130 21:21 06.11.2020
5798 Clouds 16 1016 77 10000 5.1 130 20:56 06.11.2020
5799 Clouds 17 1016 77 10000 6.2 140 20:38 06.11.2020
5800 Rain 17 1015 72 10000 7.7 130 20:18 06.11.2020
5801 Rain 17 1014 72 10000 6.2 100 19:44 06.11.2020
5802 Rain 17 1014 72 10000 6.2 100 19:26 06.11.2020
5803 Clouds 18 1014 72 10000 6.7 100 18:45 06.11.2020
5804 Rain 18 1014 72 10000 6.2 100 18:23 06.11.2020
5805 Rain 18 1015 72 10000 6.2 110 17:51 06.11.2020
5806 Drizzle 18 1015 72 10000 6.2 110 17:26 06.11.2020
5807 Rain 18 1014 68 10000 7.2 110 16:50 06.11.2020
5808 Clouds 18 1014 68 10000 7.2 110 16:31 06.11.2020
5809 Clouds 18 1015 68 10000 7.7 120 15:53 06.11.2020
5810 Clouds 19 1015 63 10000 8.7 120 15:33 06.11.2020
5811 Clouds 19 1015 68 10000 8.2 110 14:54 06.11.2020
5812 Clouds 19 1016 68 10000 8.2 110 14:27 06.11.2020
5813 Clouds 19 1017 68 7000 7.2 110 13:47 06.11.2020
5814 Clouds 19 1017 68 7000 7.2 110 13:25 06.11.2020
5815 Clouds 19 1017 68 7000 7.2 110 12:47 06.11.2020
5816 Clouds 18 1018 72 8000 5.1 100 12:25 06.11.2020
5817 Clouds 17 1018 72 8000 5.1 100 11:58 06.11.2020
5818 Clouds 16 1018 77 8000 3.6 80 11:36 06.11.2020
5819 Clouds 15 1018 77 10000 1.5 50 10:47 06.11.2020
5820 Clouds 14 1018 77 10000 1.5 50 10:27 06.11.2020
5821 Clouds 14 1018 82 10000 2.6 40 09:50 06.11.2020
5822 Clouds 12 1018 87 10000 2.1 30 09:23 06.11.2020
5823 Clouds 12 1018 87 10000 2.1 30 08:51 06.11.2020
5824 Clouds 12 1019 87 10000 2.1 20 08:31 06.11.2020
5825 Clouds 12 1019 87 10000 2.1 10 07:54 06.11.2020
5826 Clouds 11 1019 93 10000 2.6 360 07:35 06.11.2020
5827 Clouds 12 1019 93 10000 2.1 320 06:59 06.11.2020
5828 Clouds 12 1019 100 10000 3.1 340 06:32 06.11.2020
5829 Clouds 12 1019 93 10000 2.1 40 05:36 06.11.2020
5830 Clear 12 1019 87 10000 3.1 60 01:45 06.11.2020
5831 Clear 12 1020 93 10000 2.1 50 00:23 06.11.2020
5832 Clear 12 1020 87 10000 2.6 50 23:47 05.11.2020
5833 Clear 12 1020 87 10000 2.6 50 23:19 05.11.2020
5834 Clouds 13 1020 87 10000 2.1 60 22:42 05.11.2020
5835 Clouds 13 1019 87 10000 2.1 60 22:24 05.11.2020
5836 Clear 13 1019 87 10000 2.6 60 21:44 05.11.2020
5837 Clear 13 1019 87 10000 2.6 60 21:24 05.11.2020
5838 Clouds 13 1019 87 10000 2.1 50 20:59 05.11.2020
5839 Clouds 13 1019 87 10000 2.6 50 20:41 05.11.2020
5840 Clouds 13 1019 87 10000 2.6 50 20:41 05.11.2020
5841 Clouds 13 1019 87 10000 2.6 50 20:21 05.11.2020
5842 Clouds 13 1019 93 9000 3.6 50 19:43 05.11.2020
5843 Clouds 13 1019 93 4000 4.6 60 19:25 05.11.2020
5844 Clouds 13 1019 93 10000 3.1 70 18:50 05.11.2020
5845 Clouds 13 1019 93 10000 3.1 70 18:32 05.11.2020
5846 Clouds 12 1018 93 10000 3.6 50 17:56 05.11.2020
5847 Rain 12 1018 93 9000 2.1 30 17:38 05.11.2020
5848 Rain 12 1019 100 7000 1.5 40 17:20 05.11.2020
5849 Rain 12 1019 100 4000 2.6 50 16:43 05.11.2020
5850 Rain 12 1019 100 4000 2.6 50 16:43 05.11.2020
5851 Rain 12 1019 93 8000 2.1 80 16:22 05.11.2020
5852 Clouds 13 1019 87 9000 3.6 80 15:50 05.11.2020
5853 Clouds 13 1019 87 9000 4.1 90 15:26 05.11.2020
5854 Rain 13 1019 87 10000 1.5 40 14:50 05.11.2020
5855 Clouds 13 1019 87 10000 1.5 40 14:31 05.11.2020
5856 Clouds 12 1020 82 10000 2.1 40 13:51 05.11.2020
5857 Clouds 12 1020 82 10000 2.1 40 13:33 05.11.2020
5858 Clouds 12 1020 82 10000 3.1 40 12:54 05.11.2020
5859 Clouds 12 1020 81 10000 2.6 40 12:30 05.11.2020
5860 Clouds 11 1020 81 10000 3.1 30 11:58 05.11.2020
5861 Clouds 11 1021 87 10000 2.6 30 11:39 05.11.2020
5862 Clouds 10 1021 87 10000 3.1 50 11:21 05.11.2020
5863 Clouds 10 1021 87 10000 3.1 40 10:47 05.11.2020
5864 Clouds 10 1020 87 10000 3.6 30 10:26 05.11.2020
5865 Clouds 10 1020 87 10000 3.6 30 09:48 05.11.2020
5866 Clouds 10 1020 87 9000 2.6 30 09:24 05.11.2020
5867 Clouds 9 1020 87 7000 2.6 30 09:24 05.11.2020
5868 Rain 10 1020 87 10000 2.6 30 08:48 05.11.2020
5869 Rain 10 1020 87 10000 2.6 30 08:29 05.11.2020
5870 Clear 10 1019 76 10000 3.1 30 07:46 05.11.2020
5871 Clear 10 1019 76 10000 3.1 30 07:27 05.11.2020
5872 Clear 10 1019 81 10000 3.1 30 06:42 05.11.2020
5873 Clear 10 1019 81 10000 3.1 30 06:42 05.11.2020
5874 Clear 10 1019 81 10000 3.1 30 05:55 05.11.2020
5875 Clouds 9 1020 81 10000 3.1 30 01:41 05.11.2020
5876 Clouds 9 1020 87 10000 3.1 30 00:35 05.11.2020
5877 Clouds 8 1020 93 10000 3.6 30 23:47 04.11.2020
5878 Clouds 8 1020 87 10000 3.6 30 23:27 04.11.2020
5879 Clouds 8 1019 93 10000 3.6 30 22:55 04.11.2020
5880 Clouds 8 1019 93 10000 3.1 30 22:36 04.11.2020
5881 Clouds 9 1019 81 10000 2.6 30 22:18 04.11.2020
5882 Clouds 9 1019 81 10000 3.1 40 21:43 04.11.2020
5883 Clouds 9 1019 81 10000 3.1 40 21:24 04.11.2020
5884 Clouds 9 1018 81 10000 2.6 40 20:46 04.11.2020
5885 Clouds 9 1018 81 10000 2.6 40 20:28 04.11.2020
5886 Clouds 10 1018 87 10000 2.6 50 19:50 04.11.2020
5887 Clouds 10 1018 87 10000 2.6 50 19:31 04.11.2020
5888 Clouds 10 1018 87 10000 3.1 50 18:58 04.11.2020
5889 Clouds 10 1018 87 10000 3.1 50 18:39 04.11.2020
5890 Clouds 10 1018 87 10000 3.1 50 18:39 04.11.2020
5891 Clouds 10 1017 87 10000 2.6 50 18:20 04.11.2020
5892 Clouds 10 1017 87 10000 3.6 40 17:45 04.11.2020
5893 Clouds 10 1017 87 10000 3.6 40 17:24 04.11.2020
5894 Clouds 10 1017 87 10000 2.6 50 16:44 04.11.2020
5895 Clouds 10 1017 87 10000 3.1 40 16:24 04.11.2020
5896 Clouds 10 1017 87 10000 3.1 40 15:55 04.11.2020
5897 Clouds 10 1017 87 10000 3.1 40 15:36 04.11.2020
5898 Clouds 10 1018 76 4500 3.1 50 15:18 04.11.2020
5899 Clouds 11 1018 71 10000 3.1 0 14:41 04.11.2020
5900 Clouds 11 1018 71 10000 3.1 0 14:23 04.11.2020
5901 Clouds 11 1018 71 10000 4.1 50 13:48 04.11.2020
5902 Clouds 10 1020 66 10000 3.6 40 13:21 04.11.2020
5903 Clouds 10 1020 66 10000 3.6 40 12:55 04.11.2020
5904 Clouds 10 1020 71 10000 4.1 20 12:37 04.11.2020
5905 Clouds 9 1020 71 10000 3.6 0 12:18 04.11.2020
5906 Clouds 9 1021 76 10000 3.6 10 11:42 04.11.2020
5907 Clouds 9 1021 70 10000 4.1 40 11:20 04.11.2020
5908 Clouds 9 1020 70 10000 3.6 40 10:47 04.11.2020
5909 Clouds 8 1020 70 10000 4.1 40 10:23 04.11.2020
5910 Clouds 8 1020 70 10000 4.1 40 09:54 04.11.2020
5911 Clouds 8 1020 70 10000 3.6 30 09:26 04.11.2020
5912 Clouds 8 1020 70 10000 3.1 20 08:47 04.11.2020
5913 Clouds 8 1020 70 10000 3.1 20 08:22 04.11.2020
5914 Clouds 8 1020 76 10000 3.1 20 07:56 04.11.2020
5915 Clouds 8 1021 76 10000 2.6 20 07:30 04.11.2020
5916 Clouds 8 1021 76 10000 2.6 20 06:56 04.11.2020
5917 Clouds 8 1021 76 10000 2.6 30 06:37 04.11.2020
5918 Clouds 9 1023 76 10000 2.1 340 04:18 04.11.2020
5919 Clouds 10 1024 66 10000 3.1 50 02:28 04.11.2020
5920 Clouds 10 1025 71 10000 2.1 30 01:22 04.11.2020
5921 Clouds 11 1025 71 10000 3.1 20 23:50 03.11.2020
5922 Clouds 11 1026 71 10000 3.6 20 23:24 03.11.2020
5923 Clouds 11 1026 71 10000 3.1 20 22:42 03.11.2020
5924 Clouds 11 1026 71 10000 3.1 20 22:22 03.11.2020
5925 Clouds 11 1027 71 10000 3.1 30 21:59 03.11.2020
5926 Clouds 11 1027 71 10000 3.1 30 21:41 03.11.2020
5927 Clouds 11 1027 71 10000 3.1 30 21:21 03.11.2020
5928 Clouds 11 1027 76 10000 3.1 0 20:45 03.11.2020
5929 Clouds 11 1027 76 10000 3.1 0 20:26 03.11.2020
5930 Clouds 11 1027 81 9000 3.1 40 19:45 03.11.2020
5931 Clouds 11 1026 87 10000 2.6 30 19:25 03.11.2020
5932 Clouds 11 1026 87 10000 2.6 30 19:25 03.11.2020
5933 Clouds 11 1026 87 10000 2.6 30 18:56 03.11.2020
5934 Clouds 12 1026 76 10000 2.6 40 18:38 03.11.2020
5935 Clouds 12 1026 87 10000 2.6 50 18:18 03.11.2020
5936 Clouds 12 1026 82 10000 3.1 40 17:42 03.11.2020
5937 Clouds 12 1026 82 10000 3.1 40 17:23 03.11.2020
5938 Clouds 14 1025 93 10000 1 0 16:45 03.11.2020
5939 Clouds 14 1025 93 10000 1 0 16:24 03.11.2020
5940 Rain 15 1025 93 10000 1.5 340 15:48 03.11.2020
5941 Rain 15 1025 93 10000 1.5 340 15:29 03.11.2020
5942 Rain 15 1026 93 10000 3.1 280 14:53 03.11.2020
5943 Rain 15 1026 93 10000 3.1 280 14:33 03.11.2020
5944 Rain 15 1026 87 10000 1.5 0 13:47 03.11.2020
5945 Rain 15 1026 87 10000 1.5 0 13:26 03.11.2020
5946 Rain 15 1026 87 10000 1.5 330 12:59 03.11.2020
5947 Clouds 15 1026 93 10000 1.5 350 12:41 03.11.2020
5948 Clouds 14 1026 93 10000 3.1 350 12:20 03.11.2020
5949 Clouds 15 1026 93 10000 3.1 350 11:46 03.11.2020
5950 Rain 15 1025 87 10000 2.1 60 11:21 03.11.2020
5951 Clouds 15 1026 87 10000 2.1 10 10:41 03.11.2020
5952 Rain 15 1026 87 10000 2.1 10 10:22 03.11.2020
5953 Rain 15 1026 82 10000 1.5 340 09:59 03.11.2020
5954 Rain 14 1025 82 10000 1.5 10 09:41 03.11.2020
5955 Rain 14 1025 82 10000 1.5 30 09:18 03.11.2020
5956 Clouds 14 1024 87 10000 2.41 65 08:44 03.11.2020
5957 Rain 14 1024 87 10000 2.1 43 08:25 03.11.2020
5958 Clouds 14 1024 93 10000 1 0 07:35 03.11.2020
5959 Clear 14 1024 93 10000 0.5 0 06:53 03.11.2020
5960 Clear 14 1024 93 10000 1 0 06:19 03.11.2020
5961 Clear 14 1024 93 10000 1.5 350 03:38 03.11.2020
5962 Clear 15 1024 93 10000 1 0 00:43 03.11.2020
5963 Clear 15 1024 87 10000 0.97 82 00:20 03.11.2020
5964 Clear 16 1024 87 10000 0.5 0 23:41 02.11.2020
5965 Clear 16 1024 87 10000 1 0 22:56 02.11.2020
5966 Clear 16 1024 82 10000 0.5 200 22:37 02.11.2020
5967 Clear 16 1024 82 10000 1.5 270 22:19 02.11.2020
5968 Clear 16 1024 82 10000 1.5 260 21:39 02.11.2020
5969 Clear 17 1024 82 10000 1.5 260 21:20 02.11.2020
5970 Clear 17 1024 77 10000 0.5 0 20:42 02.11.2020
5971 Clear 17 1024 82 10000 0.5 0 20:20 02.11.2020
5972 Clear 17 1023 67 10000 2.26 241 19:59 02.11.2020
5973 Clear 18 1023 77 10000 2.1 270 19:41 02.11.2020
5974 Clear 18 1023 72 10000 2.6 260 19:21 02.11.2020
5975 Clear 18 1023 72 10000 2.1 240 18:41 02.11.2020
5976 Clear 19 1023 63 10000 1.5 220 18:21 02.11.2020
5977 Clear 19 1023 63 10000 1.5 220 17:56 02.11.2020
5978 Clear 19 1023 63 10000 2.1 220 17:37 02.11.2020
5979 Clear 19 1023 59 10000 2.6 190 17:18 02.11.2020
5980 Clear 20 1023 60 10000 2.1 160 16:40 02.11.2020
5981 Clear 20 1023 56 10000 2.6 200 16:21 02.11.2020
5982 Clear 20 1023 56 10000 2.1 190 15:39 02.11.2020
5983 Clear 20 1023 53 10000 1.5 160 15:21 02.11.2020
5984 Clear 19 1024 60 10000 2.1 170 14:53 02.11.2020
5985 Clear 19 1024 60 10000 2.1 170 14:20 02.11.2020
5986 Clear 19 1024 60 10000 1.5 0 13:53 02.11.2020
5987 Clear 18 1025 68 10000 1 0 13:23 02.11.2020
5988 Clear 18 1025 68 10000 0.5 0 12:55 02.11.2020
5989 Clear 17 1025 68 10000 0.5 0 12:30 02.11.2020
5990 Clear 16 1025 67 10000 1 0 11:56 02.11.2020
5991 Clear 17 1025 60 10000 0.5 0 11:37 02.11.2020
5992 Clear 15 1025 67 10000 0.5 0 11:18 02.11.2020
5993 Clear 15 1025 67 10000 0.5 0 10:41 02.11.2020
5994 Clear 13 1025 82 10000 1 0 10:20 02.11.2020
5995 Clear 12 1025 87 10000 0.5 0 09:49 02.11.2020
5996 Clear 12 1024 82 10000 0.79 56 09:23 02.11.2020
5997 Clear 11 1024 93 10000 0.79 56 08:42 02.11.2020
5998 Clear 11 1024 93 10000 0.64 72 08:22 02.11.2020
5999 Clear 11 1024 93 10000 1 0 07:50 02.11.2020
6000 Clear 11 1024 93 10000 1 0 07:50 02.11.2020
6001 Clear 11 1024 93 10000 0.5 0 06:59 02.11.2020
6002 Clear 10 1024 93 10000 0.31 81 06:36 02.11.2020
6003 Clear 11 1024 100 10000 0.23 271 03:27 02.11.2020
6004 Clear 13 1025 93 10000 0.98 215 01:25 02.11.2020
6005 Clear 14 1025 87 10000 1 140 00:35 02.11.2020
6006 Clear 14 1025 87 10000 0.5 0 23:42 01.11.2020
6007 Clear 14 1025 87 10000 0.5 0 23:24 01.11.2020
6008 Clear 15 1025 82 10000 1.05 226 22:46 01.11.2020
6009 Clear 15 1025 82 10000 1 260 22:26 01.11.2020
6010 Clear 15 1025 82 10000 1 260 21:59 01.11.2020
6011 Clear 15 1025 82 10000 1 260 21:59 01.11.2020
6012 Clear 15 1025 82 10000 1 240 21:38 01.11.2020
6013 Clear 16 1025 82 10000 1.5 240 21:20 01.11.2020
6014 Clear 16 1025 77 10000 1 270 20:42 01.11.2020
6015 Clear 16 1025 77 10000 1 270 20:23 01.11.2020
6016 Clear 17 1025 72 10000 1 270 19:43 01.11.2020
6017 Clear 17 1025 72 10000 1 270 19:25 01.11.2020
6018 Clear 18 1025 67 10000 1.83 228 18:54 01.11.2020
6019 Clear 19 1025 56 10000 1.93 228 18:36 01.11.2020
6020 Clear 19 1025 59 10000 2.1 220 18:18 01.11.2020
6021 Clear 21 1025 56 10000 2.6 240 17:41 01.11.2020
6022 Clear 21 1025 56 10000 2.6 240 17:22 01.11.2020
6023 Clear 21 1025 46 10000 2.1 190 16:42 01.11.2020
6024 Clear 21 1025 43 10000 2.6 180 16:21 01.11.2020
6025 Clear 21 1025 43 10000 2.6 180 15:54 01.11.2020
6026 Clear 20 1025 52 10000 2.1 180 15:36 01.11.2020
6027 Clear 20 1026 52 10000 1.5 160 15:18 01.11.2020
6028 Clear 20 1025 59 10000 0.5 0 14:44 01.11.2020
6029 Clear 19 1026 56 10000 1 0 14:21 01.11.2020
6030 Clear 18 1027 63 10000 1 0 13:49 01.11.2020
6031 Clear 18 1027 63 10000 1 0 13:31 01.11.2020
6032 Clear 17 1027 63 10000 1 0 12:44 01.11.2020
6033 Clear 17 1027 63 10000 1 0 12:44 01.11.2020
6034 Clear 16 1027 63 10000 1 0 12:26 01.11.2020
6035 Clear 16 1027 72 10000 0.5 0 11:55 01.11.2020
6036 Clear 15 1028 63 10000 1 0 11:37 01.11.2020
6037 Clear 14 1028 72 10000 1 0 11:18 01.11.2020
6038 Clear 14 1027 71 10000 1 0 10:40 01.11.2020
6039 Clear 14 1027 71 10000 1 0 10:22 01.11.2020
6040 Clear 12 1027 76 10000 1 0 09:46 01.11.2020
6041 Clear 11 1027 87 10000 0.5 0 08:50 01.11.2020
6042 Clear 10 1026 93 10000 0.58 68 08:24 01.11.2020
6043 Clear 9 1026 93 10000 1.5 80 07:45 01.11.2020
6044 Clear 11 1026 100 10000 1.5 340 05:30 01.11.2020
6045 Clear 13 1027 87 10000 0.5 350 01:52 01.11.2020
6046 Clear 13 1027 87 10000 0.5 0 00:53 01.11.2020
6047 Clear 14 1026 87 10000 0.26 276 23:39 31.10.2020
6048 Clear 14 1026 87 10000 0.26 276 23:18 31.10.2020
6049 Clear 15 1026 82 10000 0.5 300 22:43 31.10.2020
6050 Clear 15 1026 82 10000 0.5 300 22:23 31.10.2020
6051 Clear 15 1026 76 10000 1 270 21:46 31.10.2020
6052 Clear 16 1026 67 10000 1.5 260 21:20 31.10.2020
6053 Clear 16 1026 77 10000 1 260 20:39 31.10.2020
6054 Clear 17 1026 77 10000 1 270 20:19 31.10.2020
6055 Clear 18 1026 67 10000 1.55 231 19:43 31.10.2020
6056 Clear 18 1026 67 10000 1.72 241 19:24 31.10.2020
6057 Clear 19 1026 63 10000 1.99 236 18:52 31.10.2020
6058 Clear 19 1025 56 10000 2.1 200 18:34 31.10.2020
6059 Clear 20 1025 52 10000 2.6 220 17:43 31.10.2020
6060 Clear 21 1025 46 10000 2.6 220 17:24 31.10.2020
6061 Clear 21 1025 46 10000 3.1 200 16:54 31.10.2020
6062 Clear 22 1025 46 10000 3.1 200 16:33 31.10.2020
6063 Clear 21 1025 52 10000 2.6 230 15:55 31.10.2020
6064 Clear 21 1026 49 10000 1.5 210 15:26 31.10.2020
6065 Clear 21 1026 49 10000 1.5 210 14:53 31.10.2020
6066 Clear 20 1026 49 10000 1.5 210 14:32 31.10.2020
6067 Clear 20 1026 56 10000 2.6 120 13:53 31.10.2020
6068 Clear 19 1027 52 10000 2.1 130 13:29 31.10.2020
6069 Clear 18 1027 55 10000 1.5 100 12:56 31.10.2020
6070 Clear 17 1028 49 10000 0.5 110 12:22 31.10.2020
6071 Clear 15 1028 63 10000 1 0 11:41 31.10.2020
6072 Clear 14 1028 63 10000 1 0 11:23 31.10.2020
6073 Clear 14 1028 62 10000 0.95 42 10:42 31.10.2020
6074 Clear 12 1028 76 10000 1 0 10:19 31.10.2020
6075 Clear 11 1028 76 10000 1.39 44 09:39 31.10.2020
6076 Clear 11 1028 76 10000 1.31 52 09:20 31.10.2020
6077 Clear 9 1027 81 10000 1.21 41 08:26 31.10.2020
6078 Clear 9 1027 87 10000 1.21 41 07:45 31.10.2020
6079 Clear 9 1027 87 10000 1.16 37 07:25 31.10.2020
6080 Clear 9 1027 87 10000 1 0 06:37 31.10.2020
6081 Clear 11 1026 87 10000 1.5 360 03:49 31.10.2020
6082 Clear 11 1027 87 10000 1 360 02:48 31.10.2020
6083 Clear 12 1027 87 10000 1 10 00:55 31.10.2020
6084 Clear 13 1027 82 10000 1.5 360 23:58 30.10.2020
6085 Clear 13 1027 82 10000 1.5 360 23:39 30.10.2020
6086 Clear 14 1027 82 10000 1.5 360 23:20 30.10.2020
6087 Clear 14 1027 82 10000 1 0 22:40 30.10.2020
6088 Clear 14 1027 87 10000 1 0 22:22 30.10.2020
6089 Clear 14 1027 82 10000 1 360 21:50 30.10.2020
6090 Clear 14 1027 82 10000 1 360 21:29 30.10.2020
6091 Clear 15 1027 82 10000 0.5 40 20:58 30.10.2020
6092 Clear 15 1027 76 10000 0.29 96 20:36 30.10.2020
6093 Clear 16 1026 76 10000 0.5 0 20:18 30.10.2020
6094 Clear 16 1026 72 10000 0.29 96 19:41 30.10.2020
6095 Clear 17 1026 63 10000 0.5 260 19:18 30.10.2020
6096 Clear 18 1026 55 10000 0.5 250 18:44 30.10.2020
6097 Clear 19 1026 46 10000 0.5 0 18:24 30.10.2020
6098 Clear 19 1026 46 10000 0.5 0 17:47 30.10.2020
6099 Clear 20 1026 43 10000 0.5 0 17:22 30.10.2020
6100 Clear 20 1026 43 10000 0.5 0 16:55 30.10.2020
6101 Clear 20 1027 46 10000 0.5 160 16:26 30.10.2020
6102 Clear 20 1027 46 10000 0.5 160 15:58 30.10.2020
6103 Clear 20 1027 46 10000 1 0 15:40 30.10.2020
6104 Clear 19 1027 49 10000 0.5 0 15:18 30.10.2020
6105 Clear 19 1027 52 10000 1 0 14:44 30.10.2020
6106 Clear 18 1027 52 10000 1 0 14:25 30.10.2020
6107 Clear 17 1028 55 10000 1 0 13:44 30.10.2020
6108 Clear 17 1028 55 10000 1 0 13:21 30.10.2020
6109 Clear 16 1029 59 10000 0.5 0 12:49 30.10.2020
6110 Clear 15 1029 59 10000 0.5 0 12:22 30.10.2020
6111 Clear 15 1029 62 10000 1.5 0 11:56 30.10.2020
6112 Clear 13 1029 71 10000 1.5 40 11:23 30.10.2020
6113 Clear 13 1029 71 10000 1.5 40 10:52 30.10.2020
6114 Clear 11 1029 71 10000 1 0 10:26 30.10.2020
6115 Clear 11 1029 71 10000 0.5 0 09:57 30.10.2020
6116 Clear 10 1028 76 10000 0.5 0 09:38 30.10.2020
6117 Clear 9 1028 81 10000 1.5 10 09:19 30.10.2020
6118 Clear 8 1028 87 10000 1.5 360 08:33 30.10.2020
6119 Clear 8 1028 93 10000 1.5 360 07:58 30.10.2020
6120 Clear 8 1028 87 10000 1.5 360 07:40 30.10.2020
6121 Clear 8 1028 93 10000 1.5 10 07:21 30.10.2020
6122 Clear 8 1028 93 10000 1.5 10 06:19 30.10.2020
6123 Clear 7 1028 100 10000 1 0 04:23 30.10.2020
6124 Clear 9 1028 93 10000 1 10 01:28 30.10.2020
6125 Clear 10 1028 87 10000 1 0 00:31 30.10.2020
6126 Clear 11 1028 87 10000 1 0 23:46 29.10.2020
6127 Clear 10 1028 87 10000 1 0 23:28 29.10.2020
6128 Clear 11 1028 87 10000 1.42 33 22:48 29.10.2020
6129 Clear 11 1028 81 10000 1 0 22:27 29.10.2020
6130 Clear 12 1028 87 10000 0.5 10 21:50 29.10.2020
6131 Clear 12 1028 87 10000 0.45 42 21:26 29.10.2020
6132 Clear 13 1028 81 10000 0.5 290 20:57 29.10.2020
6133 Clear 13 1028 81 10000 0.16 167 20:39 29.10.2020
6134 Clear 13 1028 81 10000 0.16 167 20:18 29.10.2020
6135 Clear 13 1028 81 10000 0.16 167 19:39 29.10.2020
6136 Clear 13 1028 81 10000 0.39 147 19:19 29.10.2020
6137 Clear 14 1027 62 10000 1 150 18:46 29.10.2020
6138 Clear 15 1027 62 10000 1 150 18:26 29.10.2020
6139 Clear 16 1027 55 10000 0.5 130 17:43 29.10.2020
6140 Clear 16 1027 55 10000 0.5 130 17:24 29.10.2020
6141 Clear 16 1027 55 10000 0.5 0 16:55 29.10.2020
6142 Clear 16 1027 55 10000 0.5 0 16:37 29.10.2020
6143 Clouds 16 1027 55 10000 1.5 170 16:18 29.10.2020
6144 Clouds 16 1027 55 10000 1.5 200 15:41 29.10.2020
6145 Clouds 16 1028 55 10000 2.1 120 15:22 29.10.2020
6146 Clouds 15 1028 55 10000 2.1 120 14:59 29.10.2020
6147 Clouds 15 1028 59 10000 1 0 14:40 29.10.2020
6148 Clouds 15 1028 62 10000 1.5 60 14:18 29.10.2020
6149 Clouds 15 1029 67 10000 1 0 13:41 29.10.2020
6150 Clouds 14 1029 67 10000 1.5 80 13:22 29.10.2020
6151 Clouds 14 1029 67 10000 0.5 0 12:42 29.10.2020
6152 Clouds 14 1029 71 10000 1 0 12:19 29.10.2020
6153 Clouds 13 1029 76 10000 0.5 0 11:48 29.10.2020
6154 Clouds 13 1029 76 10000 0.5 0 11:26 29.10.2020
6155 Clouds 13 1029 82 10000 1 0 11:26 29.10.2020
6156 Clouds 12 1029 82 10000 1.5 350 10:38 29.10.2020
6157 Clouds 12 1029 82 10000 1 0 10:20 29.10.2020
6158 Clouds 12 1029 82 10000 1 0 09:56 29.10.2020
6159 Clouds 12 1028 87 10000 1.5 350 09:28 29.10.2020
6160 Clouds 12 1028 87 10000 1.5 340 08:59 29.10.2020
6161 Clouds 12 1028 87 10000 1 0 08:40 29.10.2020
6162 Clouds 12 1027 87 10000 1 0 08:19 29.10.2020
6163 Clouds 12 1027 87 10000 1 0 07:46 29.10.2020
6164 Clouds 12 1027 87 10000 1.5 60 06:58 29.10.2020
6165 Clouds 12 1026 87 10000 1 0 06:21 29.10.2020
6166 Clouds 12 1026 87 10000 1.5 60 04:46 29.10.2020
6167 Clear 12 1023 86 10000 2.24 30 01:37 29.10.2020
6168 Clear 12 1023 84 10000 1.34 62 00:31 29.10.2020
6169 Clear 12 1023 83 10000 1.34 59 23:59 28.10.2020
6170 Clouds 13 1025 87 10000 1 0 23:22 28.10.2020
6171 Clouds 13 1025 87 10000 1 0 22:46 28.10.2020
6172 Clouds 13 1025 87 10000 1 0 22:28 28.10.2020
6173 Clouds 13 1025 87 10000 1 0 21:59 28.10.2020
6174 Clouds 13 1026 87 10000 0.5 0 21:41 28.10.2020
6175 Clouds 13 1026 87 10000 0.5 0 21:23 28.10.2020
6176 Clouds 13 1025 87 10000 1.5 340 20:42 28.10.2020
6177 Clouds 13 1025 87 10000 0.5 0 20:22 28.10.2020
6178 Clouds 13 1025 87 10000 1.5 360 19:51 28.10.2020
6179 Clouds 13 1025 87 10000 1.5 360 19:30 28.10.2020
6180 Clouds 13 1024 87 10000 1.5 10 18:50 28.10.2020
6181 Clouds 13 1024 82 10000 1.5 320 18:22 28.10.2020
6182 Clouds 13 1024 82 10000 1.5 320 17:57 28.10.2020
6183 Clouds 13 1024 82 10000 1 0 17:39 28.10.2020
6184 Clouds 14 1024 82 10000 1 0 17:18 28.10.2020
6185 Clouds 14 1024 82 10000 2.1 170 16:44 28.10.2020
6186 Clouds 14 1024 82 10000 2.1 170 16:23 28.10.2020
6187 Clouds 14 1024 82 10000 1 0 15:41 28.10.2020
6188 Clouds 15 1023 85 10000 2.87 219 15:19 28.10.2020
6189 Clouds 13 1024 87 10000 3.1 220 14:44 28.10.2020
6190 Clouds 13 1024 87 10000 3.1 220 14:26 28.10.2020
6191 Clouds 12 1021 89 10000 1.34 254 12:55 28.10.2020
6192 Clouds 12 1021 90 10000 0.89 242 12:36 28.10.2020
6193 Clouds 11 1021 90 10000 0.89 259 12:18 28.10.2020
6194 Clouds 11 1021 90 10000 0.89 220 11:41 28.10.2020
6195 Clouds 11 1021 89 10000 1.34 209 11:20 28.10.2020
6196 Clouds 11 1023 93 8000 1.36 222 10:53 28.10.2020
6197 Clouds 11 1023 93 8000 1.36 222 10:33 28.10.2020
6198 Clouds 10 1023 93 10000 2.1 230 09:46 28.10.2020
6199 Clouds 10 1022 93 10000 2.6 200 09:25 28.10.2020
6200 Clouds 10 1022 93 10000 2.6 200 08:56 28.10.2020
6201 Clouds 9 1022 100 10000 1 0 08:37 28.10.2020
6202 Clouds 9 1022 93 10000 1 0 08:18 28.10.2020
6203 Clouds 9 1022 100 10000 1.16 169 07:41 28.10.2020
6204 Clouds 9 1022 100 10000 0.5 0 07:19 28.10.2020
6205 Clouds 8 1021 100 10000 1.06 178 06:39 28.10.2020
6206 Clouds 8 1021 100 10000 0.5 0 05:48 28.10.2020
6207 Clear 8 1021 100 10000 0.5 0 04:52 28.10.2020
6208 Clouds 9 1021 93 10000 0.5 0 04:23 28.10.2020
6209 Clear 9 1021 93 10000 0.5 0 02:25 28.10.2020
6210 Clouds 10 1021 81 10000 2.1 230 00:36 28.10.2020
6211 Clouds 11 1021 81 10000 1.5 240 23:51 27.10.2020
6212 Clouds 11 1021 81 10000 3.1 230 23:22 27.10.2020
6213 Clear 11 1021 81 10000 3.1 230 22:45 27.10.2020
6214 Clouds 11 1021 81 10000 4.1 230 22:25 27.10.2020
6215 Clouds 11 1021 81 10000 4.1 230 21:57 27.10.2020
6216 Clear 11 1020 76 10000 4.1 230 21:39 27.10.2020
6217 Clear 12 1020 76 10000 5.7 240 21:20 27.10.2020
6218 Clear 12 1020 76 10000 5.7 240 20:54 27.10.2020
6219 Clear 12 1020 76 10000 5.1 230 20:36 27.10.2020
6220 Clear 12 1020 76 10000 5.1 230 20:18 27.10.2020
6221 Clear 12 1020 71 10000 5.7 230 19:39 27.10.2020
6222 Clear 12 1020 62 10000 4.1 210 19:20 27.10.2020
6223 Clear 13 1020 62 10000 4.1 210 18:57 27.10.2020
6224 Clear 13 1019 62 10000 4.1 210 18:39 27.10.2020
6225 Clear 13 1019 58 10000 5.1 210 18:18 27.10.2020
6226 Clear 14 1019 51 10000 4.6 220 17:40 27.10.2020
6227 Clear 15 1019 51 10000 4.6 220 17:20 27.10.2020
6228 Clear 15 1019 51 10000 5.7 190 16:48 27.10.2020
6229 Clear 15 1019 51 10000 5.7 190 16:25 27.10.2020
6230 Clear 15 1019 48 10000 4.6 220 15:47 27.10.2020
6231 Clear 15 1019 51 10000 4.1 230 15:29 27.10.2020
6232 Clear 15 1019 51 10000 4.1 230 14:55 27.10.2020
6233 Clear 15 1020 51 10000 5.1 240 14:36 27.10.2020
6234 Clear 14 1020 51 10000 4.1 230 14:18 27.10.2020
6235 Clear 14 1020 47 10000 4.6 220 13:33 27.10.2020
6236 Clear 14 1021 54 10000 5.1 260 12:58 27.10.2020
6237 Clear 13 1021 54 10000 6.7 250 12:38 27.10.2020
6238 Clear 13 1021 58 10000 5.7 240 12:20 27.10.2020
6239 Clear 12 1021 62 10000 6.7 250 11:42 27.10.2020
6240 Clear 11 1021 62 10000 5.7 250 11:22 27.10.2020
6241 Clear 11 1021 62 10000 3.6 240 10:47 27.10.2020
6242 Clear 10 1021 62 10000 3.6 240 10:25 27.10.2020
6243 Clear 8 1021 66 10000 1 0 09:45 27.10.2020
6244 Clear 7 1020 81 10000 1 0 09:23 27.10.2020
6245 Clear 7 1020 81 10000 1.5 230 08:38 27.10.2020
6246 Clear 7 1020 87 10000 3.1 250 08:18 27.10.2020
6247 Clear 7 1020 81 10000 2.1 240 07:44 27.10.2020
6248 Clear 7 1020 81 10000 2.1 240 07:25 27.10.2020
6249 Clear 7 1020 70 10000 4.1 240 06:22 27.10.2020
6250 Clear 7 1020 70 10000 4.1 240 06:22 27.10.2020
6251 Clear 8 1020 81 10000 4.6 240 05:51 27.10.2020
6252 Clear 8 1020 81 10000 4.6 240 05:33 27.10.2020
6253 Clear 8 1020 75 10000 3.6 270 04:44 27.10.2020
6254 Clear 9 1021 70 10000 3.6 260 02:30 27.10.2020
6255 Clear 9 1021 61 10000 5.1 270 00:53 27.10.2020
6256 Clear 9 1021 70 10000 4.1 250 23:43 26.10.2020
6257 Clear 9 1021 70 10000 4.1 250 23:19 26.10.2020
6258 Clear 9 1021 66 10000 3.6 260 22:46 26.10.2020
6259 Clear 9 1021 70 10000 2.6 230 22:21 26.10.2020
6260 Clouds 10 1021 66 10000 2.6 210 21:45 26.10.2020
6261 Clouds 10 1021 66 10000 2.6 210 21:21 26.10.2020
6262 Clouds 10 1021 61 10000 3.6 280 20:58 26.10.2020
6263 Clouds 10 1021 53 10000 6.2 280 20:39 26.10.2020
6264 Clouds 10 1020 57 10000 5.1 290 20:18 26.10.2020
6265 Clouds 11 1020 53 10000 3.1 290 19:47 26.10.2020
6266 Clouds 11 1020 53 10000 3.1 280 19:23 26.10.2020
6267 Clouds 12 1019 47 10000 3.6 280 18:44 26.10.2020
6268 Clouds 12 1019 47 10000 4.6 280 18:24 26.10.2020
6269 Clouds 13 1019 47 10000 4.6 280 17:56 26.10.2020
6270 Clouds 12 1019 43 10000 6.2 280 17:37 26.10.2020
6271 Clouds 13 1019 44 10000 5.1 280 17:19 26.10.2020
6272 Clouds 13 1019 47 10000 5.1 270 16:40 26.10.2020
6273 Clouds 13 1019 47 10000 5.1 270 16:21 26.10.2020
6274 Clouds 13 1019 47 10000 6.2 270 15:42 26.10.2020
6275 Clouds 13 1019 47 10000 6.2 270 15:22 26.10.2020
6276 Clouds 13 1019 47 10000 5.7 270 14:52 26.10.2020
6277 Clouds 12 1019 47 10000 8.2 280 14:31 26.10.2020
6278 Clouds 12 1019 50 10000 6.7 280 13:44 26.10.2020
6279 Clouds 12 1019 54 10000 6.2 280 13:24 26.10.2020
6280 Clouds 12 1019 54 10000 7.2 270 12:51 26.10.2020
6281 Clouds 11 1019 54 10000 7.2 270 12:29 26.10.2020
6282 Clouds 11 1019 54 10000 6.2 260 11:57 26.10.2020
6283 Clouds 10 1018 57 10000 7.2 270 11:37 26.10.2020
6284 Clouds 10 1019 57 10000 7.7 270 11:19 26.10.2020
6285 Clouds 10 1018 61 10000 8.7 280 10:46 26.10.2020
6286 Clouds 10 1018 61 10000 8.7 280 10:25 26.10.2020
6287 Clouds 9 1018 66 10000 7.2 270 09:51 26.10.2020
6288 Clouds 9 1018 66 10000 7.2 270 09:28 26.10.2020
6289 Clouds 8 1016 70 10000 4.1 270 08:50 26.10.2020
6290 Clouds 8 1016 75 10000 5.1 270 08:22 26.10.2020
6291 Clouds 7 1015 81 10000 5.7 260 07:38 26.10.2020
6292 Clear 8 1015 70 10000 6.2 270 07:18 26.10.2020
6293 Clear 8 1014 70 10000 5.7 270 05:31 26.10.2020
6294 Clear 8 1014 75 10000 6.2 270 04:19 26.10.2020
6295 Clear 8 1014 75 10000 3.6 270 03:20 26.10.2020
6296 Clear 8 1014 75 10000 3.6 270 03:20 26.10.2020
6297 Clear 8 1014 75 10000 3.6 270 03:20 26.10.2020
6298 Clouds 9 1013 70 10000 5.1 260 01:34 26.10.2020
6299 Clouds 9 1014 87 10000 4.1 240 00:33 26.10.2020
6300 Clouds 9 1014 93 10000 2.6 260 23:46 25.10.2020
6301 Clouds 9 1014 93 10000 2.6 260 23:24 25.10.2020
6302 Clouds 10 1014 93 10000 4.6 280 22:45 25.10.2020
6303 Clouds 11 1014 93 10000 4.6 280 22:26 25.10.2020
6304 Clouds 12 1013 93 9000 8.2 240 21:50 25.10.2020
6305 Clouds 11 1013 93 9000 8.2 240 21:31 25.10.2020
6306 Rain 11 1013 100 7000 8.2 230 20:58 25.10.2020
6307 Rain 12 1013 93 7000 8.7 220 20:39 25.10.2020
6308 Rain 12 1013 93 8000 8.7 220 20:19 25.10.2020
6309 Rain 12 1013 93 8000 8.7 220 19:49 25.10.2020
6310 Rain 13 1012 100 5000 7.2 210 19:26 25.10.2020
6311 Clouds 13 1012 93 5000 8.2 200 18:59 25.10.2020
6312 Rain 13 1012 93 6000 6.7 200 18:40 25.10.2020
6313 Drizzle 12 1013 93 5000 4.6 200 18:21 25.10.2020
6314 Drizzle 12 1013 93 3000 4.6 180 17:54 25.10.2020
6315 Drizzle 12 1013 93 3000 4.6 180 17:36 25.10.2020
6316 Drizzle 12 1014 93 4000 5.1 190 17:18 25.10.2020
6317 Drizzle 12 1014 93 3000 6.2 200 16:39 25.10.2020
6318 Drizzle 12 1014 93 3000 6.2 200 16:21 25.10.2020
6319 Drizzle 13 1015 87 9000 8.2 200 15:47 25.10.2020
6320 Drizzle 13 1015 87 9000 8.2 200 15:26 25.10.2020
6321 Clouds 14 1015 72 10000 8.2 200 14:52 25.10.2020
6322 Clouds 14 1015 77 10000 8.7 200 14:29 25.10.2020
6323 Clouds 14 1016 77 10000 8.7 210 13:44 25.10.2020
6324 Clouds 14 1017 76 10000 7.7 210 13:24 25.10.2020
6325 Clouds 14 1017 76 10000 5.7 210 12:50 25.10.2020
6326 Clouds 14 1017 76 10000 5.7 210 12:28 25.10.2020
6327 Clouds 13 1018 82 10000 6.7 200 11:59 25.10.2020
6328 Clouds 13 1018 76 10000 6.2 210 11:41 25.10.2020
6329 Clouds 12 1018 82 10000 4.6 210 11:19 25.10.2020
6330 Clouds 12 1019 81 10000 5.7 210 10:46 25.10.2020
6331 Clouds 11 1019 81 10000 5.7 210 10:25 25.10.2020
6332 Clouds 11 1019 87 10000 3.6 180 09:51 25.10.2020
6333 Clouds 10 1019 81 10000 4.1 170 09:21 25.10.2020
6334 Clouds 10 1019 81 10000 4.1 170 08:58 25.10.2020
6335 Clear 10 1019 81 10000 3.1 160 08:40 25.10.2020
6336 Clear 10 1019 81 10000 3.6 180 08:22 25.10.2020
6337 Clouds 10 1019 81 10000 5.1 190 07:42 25.10.2020
6338 Clouds 10 1019 81 10000 4.1 200 06:52 25.10.2020
6339 Clouds 9 1019 87 10000 3.6 200 06:27 25.10.2020
6340 Clouds 9 1019 87 10000 1.5 190 05:19 25.10.2020
6341 Clouds 9 1019 87 10000 3.1 200 04:48 25.10.2020
6342 Clear 10 1022 81 10000 3.6 220 02:24 25.10.2020
6343 Clear 10 1023 81 10000 3.6 200 00:53 25.10.2020
6344 Clear 11 1023 71 10000 5.1 220 00:28 25.10.2020
6345 Clear 11 1023 76 10000 4.6 220 23:54 24.10.2020
6346 Clear 11 1023 76 10000 5.1 220 23:31 24.10.2020
6347 Clear 11 1023 76 10000 5.7 220 22:58 24.10.2020
6348 Clear 12 1023 76 10000 4.6 220 22:40 24.10.2020
6349 Clear 12 1023 76 10000 4.6 220 22:21 24.10.2020
6350 Clear 12 1023 76 10000 4.1 220 21:54 24.10.2020
6351 Clear 12 1023 66 10000 4.6 230 21:36 24.10.2020
6352 Clear 13 1023 66 10000 4.6 230 21:18 24.10.2020
6353 Clear 13 1023 66 10000 4.1 220 20:42 24.10.2020
6354 Clear 14 1024 62 10000 5.1 230 20:20 24.10.2020
6355 Clouds 14 1023 67 10000 4.1 220 19:41 24.10.2020
6356 Clouds 14 1024 62 10000 5.1 220 19:23 24.10.2020
6357 Clouds 15 1024 59 10000 4.6 210 18:51 24.10.2020
6358 Clouds 15 1024 59 10000 4.6 210 18:30 24.10.2020
6359 Clouds 15 1024 59 10000 4.6 220 17:46 24.10.2020
6360 Clouds 16 1024 59 10000 4.6 220 17:26 24.10.2020
6361 Clouds 15 1024 59 10000 4.1 230 16:53 24.10.2020
6362 Clouds 15 1024 59 10000 4.1 230 16:35 24.10.2020
6363 Clouds 15 1025 62 10000 4.6 210 15:57 24.10.2020
6364 Clouds 15 1025 63 10000 5.1 220 15:38 24.10.2020
6365 Clouds 14 1026 67 10000 4.6 220 15:18 24.10.2020
6366 Clouds 13 1026 67 10000 4.1 220 14:38 24.10.2020
6367 Clouds 13 1026 76 10000 4.1 230 14:19 24.10.2020
6368 Clouds 13 1026 71 10000 3.1 220 13:44 24.10.2020
6369 Clouds 12 1027 82 10000 1 0 13:19 24.10.2020
6370 Clouds 11 1027 93 8000 1 0 12:37 24.10.2020
6371 Clouds 11 1027 93 8000 1 0 12:19 24.10.2020
6372 Clouds 10 1027 93 8000 0.5 0 11:50 24.10.2020
6373 Mist 9 1027 93 5000 1 0 11:23 24.10.2020
6374 Fog 8 1026 100 8000 2.75 230 10:44 24.10.2020
6375 Fog 8 1026 100 8000 2.32 228 10:26 24.10.2020
6376 Clouds 8 1026 100 9000 0.5 0 09:46 24.10.2020
6377 Clouds 8 1026 100 9000 0.5 0 09:26 24.10.2020
6378 Fog 7 1026 100 6000 0.5 0 08:57 24.10.2020
6379 Clear 7 1026 93 10000 1.57 224 08:19 24.10.2020
6380 Clear 8 1026 93 10000 1 0 07:51 24.10.2020
6381 Clear 8 1026 93 10000 1 0 07:21 24.10.2020
6382 Clear 8 1026 93 10000 2.1 240 06:50 24.10.2020
6383 Clear 8 1026 93 10000 2.1 240 05:46 24.10.2020
6384 Clear 10 1026 100 10000 3.1 250 02:26 24.10.2020
6385 Clear 10 1026 93 10000 3.6 240 00:56 24.10.2020
6386 Clear 11 1026 87 10000 3.6 250 00:37 24.10.2020
6387 Clear 11 1026 93 10000 3.6 250 00:19 24.10.2020
6388 Clear 11 1026 87 10000 2.6 220 23:41 23.10.2020
6389 Clear 11 1026 87 10000 2.6 220 23:22 23.10.2020
6390 Clear 12 1025 81 10000 3.1 230 22:42 23.10.2020
6391 Clear 12 1025 81 10000 3.1 230 22:22 23.10.2020
6392 Clear 12 1025 76 10000 2.6 220 21:58 23.10.2020
6393 Clouds 12 1025 76 10000 2.6 220 21:39 23.10.2020
6394 Clouds 13 1024 76 10000 3.6 210 21:20 23.10.2020
6395 Clouds 13 1024 71 10000 3.6 250 20:39 23.10.2020
6396 Clouds 13 1024 71 10000 3.6 250 20:20 23.10.2020
6397 Clouds 13 1024 67 10000 4.1 220 19:45 23.10.2020
6398 Clouds 14 1024 67 10000 4.1 220 19:26 23.10.2020
6399 Rain 14 1023 72 10000 2.1 210 18:48 23.10.2020
6400 Clouds 15 1023 72 10000 2.1 210 18:30 23.10.2020
6401 Clouds 13 1023 87 10000 3.6 220 17:47 23.10.2020
6402 Clouds 14 1023 71 9000 3.1 310 17:22 23.10.2020
6403 Rain 14 1023 55 10000 5.7 240 16:55 23.10.2020
6404 Rain 16 1023 55 10000 5.7 240 16:35 23.10.2020
6405 Clouds 15 1023 59 10000 5.7 240 15:58 23.10.2020
6406 Clouds 15 1023 62 10000 5.7 220 15:40 23.10.2020
6407 Clouds 15 1023 62 10000 6.2 240 15:20 23.10.2020
6408 Clouds 15 1023 62 10000 6.2 240 15:20 23.10.2020
6409 Clouds 15 1023 67 10000 5.7 230 14:48 23.10.2020
6410 Clouds 14 1023 67 10000 5.7 230 14:29 23.10.2020
6411 Clouds 13 1023 76 10000 5.7 240 13:43 23.10.2020
6412 Clouds 13 1023 76 10000 5.7 240 13:24 23.10.2020
6413 Clouds 13 1023 76 10000 5.7 240 12:51 23.10.2020
6414 Clouds 12 1023 82 10000 4.6 230 12:31 23.10.2020
6415 Clouds 12 1023 87 10000 5.1 230 11:56 23.10.2020
6416 Clouds 11 1023 93 10000 5.1 240 11:38 23.10.2020
6417 Clouds 11 1022 93 10000 3.6 240 11:19 23.10.2020
6418 Clouds 10 1022 93 10000 4.6 230 10:39 23.10.2020
6419 Clouds 10 1021 100 10000 3.6 240 10:20 23.10.2020
6420 Clouds 10 1021 93 10000 5.1 240 09:43 23.10.2020
6421 Clouds 10 1021 100 10000 3.6 220 09:23 23.10.2020
6422 Clouds 10 1021 100 10000 3.6 220 08:51 23.10.2020
6423 Clouds 9 1020 93 10000 3.6 210 08:26 23.10.2020
6424 Clear 10 1020 93 10000 3.6 220 07:27 23.10.2020
6425 Clear 10 1019 93 10000 2.6 220 06:49 23.10.2020
6426 Clear 10 1019 93 10000 3.1 210 06:20 23.10.2020
6427 Clear 11 1019 93 10000 3.1 200 04:42 23.10.2020
6428 Rain 12 1018 87 8000 5.7 220 02:28 23.10.2020
6429 Clouds 12 1017 93 10000 6 220 00:54 23.10.2020
6430 Clouds 12 1017 93 10000 2.1 250 00:32 23.10.2020
6431 Clouds 13 1017 93 10000 3.1 270 23:38 22.10.2020
6432 Clouds 13 1017 93 10000 3.1 270 23:19 22.10.2020
6433 Clouds 13 1016 100 9000 1 220 22:45 22.10.2020
6434 Rain 13 1016 100 9000 1 220 22:26 22.10.2020
6435 Clouds 13 1016 100 4000 3.6 250 21:56 22.10.2020
6436 Rain 14 1015 93 5000 1.5 250 21:37 22.10.2020
6437 Clouds 14 1015 87 10000 1.5 300 21:18 22.10.2020
6438 Clouds 15 1015 76 10000 2.6 0 20:42 22.10.2020
6439 Thunderstorm 15 1014 82 8000 4.6 150 20:24 22.10.2020
6440 Thunderstorm 15 1014 82 8000 4.6 140 19:43 22.10.2020
6441 Clouds 16 1014 82 10000 4.1 130 19:20 22.10.2020
6442 Clouds 16 1013 77 10000 4.1 130 18:44 22.10.2020
6443 Clouds 16 1014 72 10000 5.1 140 18:22 22.10.2020
6444 Clouds 16 1014 72 10000 5.1 140 17:58 22.10.2020
6445 Clouds 16 1014 72 10000 4.1 140 17:39 22.10.2020
6446 Clouds 16 1014 72 10000 4.6 140 17:20 22.10.2020
6447 Clouds 16 1014 72 10000 3.6 160 16:42 22.10.2020
6448 Clouds 16 1014 72 10000 3.6 160 16:23 22.10.2020
6449 Clouds 16 1014 77 10000 2.6 140 15:48 22.10.2020
6450 Clouds 16 1014 72 10000 3.1 170 15:26 22.10.2020
6451 Clouds 16 1015 77 10000 4.6 170 14:50 22.10.2020
6452 Clouds 16 1015 77 10000 4.6 170 14:27 22.10.2020
6453 Clouds 16 1015 82 10000 5.1 160 13:57 22.10.2020
6454 Clouds 16 1015 82 10000 3.6 140 13:38 22.10.2020
6455 Clouds 15 1015 87 10000 3.1 130 13:20 22.10.2020
6456 Clouds 15 1015 93 10000 2.1 130 12:28 22.10.2020
6457 Clouds 14 1015 93 10000 2.6 130 11:51 22.10.2020
6458 Clouds 14 1014 93 10000 4.1 110 11:21 22.10.2020
6459 Clouds 14 1014 93 10000 4.1 110 10:56 22.10.2020
6460 Clouds 13 1014 93 10000 2.6 100 10:38 22.10.2020
6461 Clouds 13 1014 93 10000 2.6 100 10:18 22.10.2020
6462 Clouds 13 1013 100 9000 2.6 110 09:42 22.10.2020
6463 Clouds 13 1013 93 10000 2.1 110 08:58 22.10.2020
6464 Clouds 13 1013 100 10000 2.1 90 08:39 22.10.2020
6465 Drizzle 13 1013 93 10000 2.6 110 08:19 22.10.2020
6466 Drizzle 13 1013 100 10000 2.1 120 07:43 22.10.2020
6467 Clouds 13 1014 93 9000 1.5 120 06:59 22.10.2020
6468 Clouds 12 1013 93 8000 2.1 120 06:37 22.10.2020
6469 Clouds 13 1014 93 9000 2.1 130 05:42 22.10.2020
6470 Clouds 13 1014 93 9000 2.1 130 05:22 22.10.2020
6471 Clouds 14 1014 77 10000 3.1 160 02:25 22.10.2020
6472 Clouds 14 1013 77 10000 4.1 150 00:36 22.10.2020
6473 Rain 15 1013 82 10000 4.1 160 00:18 22.10.2020
6474 Clouds 15 1013 82 10000 4.1 150 23:38 21.10.2020
6475 Clouds 15 1013 82 10000 4.1 140 22:58 21.10.2020
6476 Clouds 15 1013 82 10000 4.1 130 22:37 21.10.2020
6477 Clouds 15 1013 82 10000 4.6 130 22:18 21.10.2020
6478 Clouds 15 1013 77 10000 3.6 140 21:44 21.10.2020
6479 Clouds 15 1013 77 10000 4.1 140 21:19 21.10.2020
6480 Clouds 16 1012 77 10000 3.6 140 20:48 21.10.2020
6481 Clouds 16 1012 72 10000 3.1 140 20:19 21.10.2020
6482 Clouds 16 1012 72 10000 3.1 140 19:59 21.10.2020
6483 Clouds 16 1012 72 10000 3.1 140 19:59 21.10.2020
6484 Clouds 16 1012 72 10000 3.1 140 19:38 21.10.2020
6485 Clouds 17 1012 72 10000 3.1 140 19:19 21.10.2020
6486 Clouds 17 1012 63 10000 3.6 160 18:46 21.10.2020
6487 Clouds 17 1012 63 10000 3.6 160 18:25 21.10.2020
6488 Clouds 17 1012 63 10000 4.6 180 17:45 21.10.2020
6489 Clouds 17 1012 63 10000 4.6 180 17:20 21.10.2020
6490 Clouds 17 1011 72 10000 5.1 180 16:56 21.10.2020
6491 Clouds 17 1011 72 10000 5.1 180 16:36 21.10.2020
6492 Clouds 17 1011 72 10000 5.1 180 16:18 21.10.2020
6493 Clouds 17 1011 72 10000 4.1 170 15:42 21.10.2020
6494 Clouds 17 1012 72 10000 5.7 190 15:20 21.10.2020
6495 Clouds 16 1012 82 10000 4.6 180 14:46 21.10.2020
6496 Clouds 16 1012 87 9000 4.6 180 14:28 21.10.2020
6497 Clouds 15 1011 93 8000 3.6 170 13:46 21.10.2020
6498 Clouds 15 1011 93 10000 6.2 170 13:27 21.10.2020
6499 Drizzle 14 1011 87 10000 5.7 170 12:55 21.10.2020
6500 Drizzle 14 1011 87 10000 5.7 170 12:37 21.10.2020
6501 Drizzle 14 1011 93 4500 4.1 140 12:18 21.10.2020
6502 Drizzle 14 1011 93 4500 4.1 140 11:40 21.10.2020
6503 Clouds 14 1011 82 10000 5.1 160 11:20 21.10.2020
6504 Clouds 14 1009 82 10000 4.1 160 10:46 21.10.2020
6505 Clouds 14 1009 82 10000 4.1 160 10:25 21.10.2020
6506 Clouds 14 1009 82 10000 4.1 160 09:54 21.10.2020
6507 Clouds 14 1009 82 10000 4.1 160 09:33 21.10.2020
6508 Clouds 13 1009 82 10000 4.1 150 08:56 21.10.2020
6509 Clouds 13 1009 82 10000 4.1 150 08:38 21.10.2020
6510 Clouds 13 1009 87 10000 4.6 160 08:19 21.10.2020
6511 Clouds 13 1008 82 10000 4.1 160 07:37 21.10.2020
6512 Clouds 13 1008 82 10000 3.6 150 06:55 21.10.2020
6513 Clouds 14 1008 82 10000 3.6 150 06:29 21.10.2020
6514 Clouds 14 1008 87 10000 3.6 200 04:47 21.10.2020
6515 Rain 17 1003 68 10000 7.2 150 00:57 21.10.2020
6516 Clouds 18 1004 68 10000 9.3 160 23:50 20.10.2020
6517 Clouds 18 1004 68 10000 7.2 160 23:20 20.10.2020
6518 Clouds 19 1004 59 9000 8.2 170 22:29 20.10.2020
6519 Rain 19 1004 72 8000 4.6 170 21:51 20.10.2020
6520 Rain 18 1004 82 9000 0.5 0 21:21 20.10.2020
6521 Rain 18 1004 82 9000 0.5 0 20:59 20.10.2020
6522 Rain 20 1004 68 9000 3.6 200 20:41 20.10.2020
6523 Rain 19 1005 56 10000 6.2 180 20:22 20.10.2020
6524 Rain 19 1005 63 10000 5.1 150 19:44 20.10.2020
6525 Rain 17 1005 77 10000 1.5 190 19:22 20.10.2020
6526 Rain 16 1006 82 9000 2.1 260 18:55 20.10.2020
6527 Rain 16 1007 87 9000 1.5 300 18:36 20.10.2020
6528 Rain 16 1007 87 9000 1.5 300 18:36 20.10.2020
6529 Rain 16 1006 77 10000 5.81 196 17:50 20.10.2020
6530 Rain 17 1007 77 10000 1 0 17:32 20.10.2020
6531 Clouds 16 1007 82 10000 0.5 0 16:49 20.10.2020
6532 Clouds 16 1007 82 10000 0.5 0 16:31 20.10.2020
6533 Clouds 15 1008 82 10000 1.5 60 15:59 20.10.2020
6534 Clouds 15 1009 82 10000 2.1 50 15:41 20.10.2020
6535 Clouds 14 1010 93 10000 2.1 40 15:22 20.10.2020
6536 Clouds 13 1011 100 10000 2.6 20 14:44 20.10.2020
6537 Clouds 13 1012 93 10000 1.5 0 14:24 20.10.2020
6538 Rain 13 1013 100 10000 2.6 10 13:56 20.10.2020
6539 Rain 13 1013 100 10000 2.6 10 13:37 20.10.2020
6540 Rain 13 1013 93 10000 2.1 50 13:19 20.10.2020
6541 Rain 13 1013 93 7000 2.1 50 12:40 20.10.2020
6542 Clouds 12 1014 93 4000 2.6 50 12:22 20.10.2020
6543 Rain 12 1014 93 4000 2.1 60 11:45 20.10.2020
6544 Rain 12 1014 93 4000 2.1 60 11:27 20.10.2020
6545 Rain 12 1014 100 3000 2.6 60 10:40 20.10.2020
6546 Rain 12 1014 100 3000 1.5 30 10:21 20.10.2020
6547 Rain 13 1013 93 3000 1 0 09:43 20.10.2020
6548 Rain 13 1013 93 4000 1 0 09:19 20.10.2020
6549 Rain 13 1013 93 10000 1.5 60 08:39 20.10.2020
6550 Clouds 14 1013 82 1500 1 0 07:54 20.10.2020
6551 Rain 14 1013 82 1500 1 0 07:26 20.10.2020
6552 Rain 15 1013 59 10000 1 0 06:55 20.10.2020
6553 Rain 18 1012 45 10000 2.6 120 06:18 20.10.2020
6554 Rain 18 1014 42 10000 4.6 150 03:59 20.10.2020
6555 Clouds 18 1014 42 10000 4.1 140 02:30 20.10.2020
6556 Clouds 19 1014 42 10000 4.1 130 01:21 20.10.2020
6557 Clouds 19 1014 42 10000 4.1 130 00:50 20.10.2020
6558 Clouds 19 1014 42 10000 3.1 130 00:23 20.10.2020
6559 Clouds 19 1014 42 10000 3.6 140 23:48 19.10.2020
6560 Clouds 19 1014 42 10000 3.6 140 23:48 19.10.2020
6561 Clouds 19 1014 42 10000 3.6 140 23:24 19.10.2020
6562 Clouds 20 1014 35 10000 4.1 130 22:47 19.10.2020
6563 Clouds 20 1015 32 10000 3.6 140 22:25 19.10.2020
6564 Clouds 20 1015 32 10000 3.6 140 22:25 19.10.2020
6565 Clouds 21 1015 28 10000 3.1 140 21:49 19.10.2020
6566 Clouds 21 1014 32 10000 2.6 130 21:23 19.10.2020
6567 Clouds 21 1014 40 10000 3.54 190 20:52 19.10.2020
6568 Clouds 20 1014 40 10000 3.54 190 20:33 19.10.2020
6569 Clouds 20 1014 37 10000 2.6 10 19:56 19.10.2020
6570 Clouds 20 1014 37 10000 2.6 10 19:38 19.10.2020
6571 Clouds 21 1015 35 10000 2.1 350 19:18 19.10.2020
6572 Clouds 22 1015 35 10000 2.6 10 18:42 19.10.2020
6573 Clouds 23 1015 29 10000 1 0 18:19 19.10.2020
6574 Clouds 24 1016 31 10000 1 0 17:45 19.10.2020
6575 Clouds 24 1016 29 10000 1 0 17:25 19.10.2020
6576 Clouds 23 1016 31 10000 2.1 0 16:48 19.10.2020
6577 Clouds 22 1017 35 10000 1.5 0 16:28 19.10.2020
6578 Clouds 22 1018 27 10000 1.79 118 15:44 19.10.2020
6579 Clouds 20 1014 40 10000 0.89 105 15:25 19.10.2020
6580 Clouds 21 1014 39 10000 0.89 112 15:25 19.10.2020
6581 Clouds 20 1015 42 10000 1.34 113 14:53 19.10.2020
6582 Clouds 19 1015 43 10000 1.79 99 14:28 19.10.2020
6583 Clouds 19 1016 46 10000 0.89 130 13:55 19.10.2020
6584 Clouds 17 1016 48 10000 1.79 153 13:36 19.10.2020
6585 Clouds 17 1016 49 10000 1.34 173 13:18 19.10.2020
6586 Clouds 16 1016 52 10000 1.34 96 12:43 19.10.2020
6587 Clouds 15 1016 54 10000 2.24 99 12:25 19.10.2020
6588 Clouds 14 1020 54 10000 1.5 30 11:42 19.10.2020
6589 Clouds 13 1020 54 10000 1.5 30 11:21 19.10.2020
6590 Clouds 13 1020 54 10000 1.5 30 10:44 19.10.2020
6591 Clouds 13 1020 54 10000 1.5 30 10:44 19.10.2020
6592 Clouds 11 1020 54 10000 2.55 66 10:21 19.10.2020
6593 Clouds 11 1020 54 10000 2.55 66 09:52 19.10.2020
6594 Clouds 10 1019 62 10000 1 0 09:23 19.10.2020
6595 Clouds 9 1019 62 10000 1.5 20 08:49 19.10.2020
6596 Clouds 9 1019 66 10000 1.5 10 08:24 19.10.2020
6597 Clouds 9 1019 66 10000 1 0 07:55 19.10.2020
6598 Clouds 10 1019 66 10000 1 0 07:20 19.10.2020
6599 Clouds 11 1019 62 10000 1.5 40 06:20 19.10.2020
6600 Clouds 11 1020 58 10000 1 0 04:30 19.10.2020
6601 Clouds 12 1020 58 10000 2.1 10 03:44 19.10.2020
6602 Clouds 13 1021 54 10000 1 0 01:28 19.10.2020
6603 Clouds 14 1021 47 10000 1.5 10 00:26 19.10.2020
6604 Clouds 14 1021 50 10000 1.5 10 23:48 18.10.2020
6605 Clouds 15 1021 47 10000 1.5 10 23:29 18.10.2020
6606 Clouds 15 1020 47 10000 1 0 22:57 18.10.2020
6607 Clouds 16 1020 41 10000 1.5 360 22:24 18.10.2020
6608 Clouds 16 1020 44 10000 1 10 21:59 18.10.2020
6609 Clouds 17 1020 44 10000 1 350 21:37 18.10.2020
6610 Clouds 17 1020 41 10000 0.5 330 21:18 18.10.2020
6611 Clouds 18 1020 42 10000 1 320 20:42 18.10.2020
6612 Clouds 18 1020 42 10000 1 320 20:21 18.10.2020
6613 Clouds 19 1020 30 10000 0.5 0 19:47 18.10.2020
6614 Clouds 20 1020 28 10000 0.89 32 19:26 18.10.2020
6615 Clouds 20 1020 28 10000 1 0 18:50 18.10.2020
6616 Clouds 20 1020 28 10000 1 0 18:29 18.10.2020
6617 Clouds 21 1020 26 10000 0.5 80 17:45 18.10.2020
6618 Clouds 21 1020 26 10000 0.5 80 17:25 18.10.2020
6619 Clouds 21 1021 24 10000 1.5 0 16:58 18.10.2020
6620 Clouds 21 1021 28 10000 1 60 16:39 18.10.2020
6621 Clouds 20 1021 26 10000 1.5 120 16:21 18.10.2020
6622 Clouds 20 1021 26 10000 1 0 15:42 18.10.2020
6623 Clouds 19 1022 28 10000 1 0 15:19 18.10.2020
6624 Clouds 19 1022 28 10000 1 0 14:56 18.10.2020
6625 Clouds 19 1022 30 10000 1 0 14:30 18.10.2020
6626 Clouds 17 1023 29 10000 0.5 0 13:57 18.10.2020
6627 Clouds 16 1022 41 10000 0.5 0 13:38 18.10.2020
6628 Clouds 16 1022 41 10000 0.5 0 13:20 18.10.2020
6629 Clouds 14 1023 44 10000 1 0 12:42 18.10.2020
6630 Clouds 14 1023 44 10000 1 0 12:21 18.10.2020
6631 Clouds 13 1023 44 10000 1 0 11:42 18.10.2020
6632 Clouds 12 1023 44 10000 1 0 11:23 18.10.2020
6633 Clouds 10 1022 61 10000 0.5 0 10:44 18.10.2020
6634 Clouds 9 1022 57 10000 1 0 10:21 18.10.2020
6635 Clouds 9 1022 57 10000 1 0 10:21 18.10.2020
6636 Clouds 9 1022 57 10000 1 0 09:58 18.10.2020
6637 Clouds 8 1021 66 10000 1.96 54 09:39 18.10.2020
6638 Clouds 7 1021 65 10000 0.5 0 09:19 18.10.2020
6639 Clouds 6 1021 70 10000 1 0 08:43 18.10.2020
6640 Clouds 6 1021 70 10000 1 0 08:25 18.10.2020
6641 Clouds 7 1021 75 10000 1 0 07:48 18.10.2020
6642 Clouds 8 1020 66 10000 0.5 0 05:35 18.10.2020
6643 Clear 9 1020 70 10000 0.5 0 03:33 18.10.2020
6644 Clear 10 1020 61 10000 1.19 76 02:39 18.10.2020
6645 Clouds 12 1020 57 10000 0.5 0 01:25 18.10.2020
6646 Clouds 12 1020 57 10000 0.5 0 01:25 18.10.2020
6647 Clouds 12 1020 50 10000 1 0 00:35 18.10.2020
6648 Clouds 13 1020 53 10000 0.5 0 23:59 17.10.2020
6649 Clouds 13 1020 50 10000 0.11 78 23:40 17.10.2020
6650 Clouds 13 1019 50 10000 1 270 23:21 17.10.2020
6651 Clouds 13 1020 50 10000 0.3 261 23:21 17.10.2020
6652 Clouds 13 1019 50 10000 1 270 22:55 17.10.2020
6653 Clouds 14 1019 46 10000 0.3 261 22:36 17.10.2020
6654 Clouds 14 1019 47 10000 0.79 240 22:18 17.10.2020
6655 Clouds 14 1019 47 10000 0.5 0 21:42 17.10.2020
6656 Clouds 14 1019 47 10000 0.5 0 21:20 17.10.2020
6657 Clouds 15 1019 38 10000 1.5 190 20:44 17.10.2020
6658 Clouds 16 1018 33 10000 2.1 190 20:19 17.10.2020
6659 Clouds 17 1018 31 10000 2.1 180 19:44 17.10.2020
6660 Clouds 18 1018 31 10000 2.1 180 19:21 17.10.2020
6661 Clouds 18 1018 32 10000 1.5 0 18:45 17.10.2020
6662 Clouds 18 1018 32 10000 1.5 0 18:26 17.10.2020
6663 Clouds 18 1018 30 10000 1.5 0 17:50 17.10.2020
6664 Clouds 18 1018 30 10000 1.5 220 17:24 17.10.2020
6665 Clouds 18 1018 34 10000 1 210 16:58 17.10.2020
6666 Clouds 18 1018 29 10000 2.1 220 16:38 17.10.2020
6667 Clouds 17 1018 32 10000 3.1 230 16:18 17.10.2020
6668 Clouds 17 1018 31 10000 2.6 180 15:41 17.10.2020
6669 Clouds 17 1018 31 10000 2.6 180 15:21 17.10.2020
6670 Clouds 16 1018 36 10000 2.1 190 14:56 17.10.2020
6671 Clouds 16 1019 33 10000 1.5 0 14:37 17.10.2020
6672 Clouds 14 1019 36 10000 1 0 14:19 17.10.2020
6673 Clouds 14 1019 41 10000 1 100 13:42 17.10.2020
6674 Clouds 13 1019 41 10000 1 100 13:22 17.10.2020
6675 Clouds 12 1019 41 10000 1 0 12:56 17.10.2020
6676 Clouds 12 1019 46 10000 1 0 12:36 17.10.2020
6677 Clouds 11 1019 50 10000 1 0 12:18 17.10.2020
6678 Clouds 10 1019 53 10000 1 0 11:31 17.10.2020
6679 Clouds 7 1019 57 10000 1 0 10:50 17.10.2020
6680 Clouds 5 1018 65 10000 1 0 10:29 17.10.2020
6681 Clouds 5 1018 65 10000 1 0 09:50 17.10.2020
6682 Clouds 6 1018 65 10000 0.5 0 09:32 17.10.2020
6683 Clouds 4 1018 70 10000 1 360 08:54 17.10.2020
6684 Clouds 4 1018 75 10000 1 360 08:24 17.10.2020
6685 Clouds 4 1017 52 10000 1.16 64 07:44 17.10.2020
6686 Clouds 4 1017 70 10000 0.5 330 06:56 17.10.2020
6687 Clouds 6 1017 70 10000 1.54 56 05:31 17.10.2020
6688 Clear 8 1018 61 10000 0.5